<?xml version="1.0" encoding="utf-8"?>
<gpx xmlns:xsi="http://www.w3.org/2001/XMLSchema-instance" xmlns:xsd="http://www.w3.org/2001/XMLSchema" version="1.1" creator="Shapelink.com" xmlns="http://www.topografix.com/GPX/1/1" xmlns:gpxtpx="http://www.garmin.com/xmlschemas/TrackPointExtension/v1">
  <metadata>
    <name>Ciclismo 21.73 km, 2020-01-30</name>
    <desc></desc>
    <author><name>Peter Littke</name></author> 
    <time>2020-01-30T07:54:16Z</time>
  </metadata>
  <trk>
    <name>Ciclismo 21.73 km, 2020-01-30</name>
    <trkseg>
      <trkpt lat="59.340145" lon="18.085204">
        <ele>0</ele>
        <time>2020-01-30T07:54:16Z</time>
      </trkpt>
      <trkpt lat="59.34014" lon="18.085166">
        <ele>0</ele>
        <time>2020-01-30T07:54:29Z</time>
      </trkpt>
      <trkpt lat="59.340144" lon="18.085119">
        <ele>51</ele>
        <time>2020-01-30T07:54:30Z</time>
      </trkpt>
      <trkpt lat="59.340153" lon="18.085063">
        <ele>50</ele>
        <time>2020-01-30T07:54:32Z</time>
      </trkpt>
      <trkpt lat="59.340167" lon="18.085">
        <ele>49</ele>
        <time>2020-01-30T07:54:33Z</time>
      </trkpt>
      <trkpt lat="59.340183" lon="18.084933">
        <ele>48</ele>
        <time>2020-01-30T07:54:34Z</time>
      </trkpt>
      <trkpt lat="59.3402" lon="18.084864">
        <ele>48</ele>
        <time>2020-01-30T07:54:35Z</time>
      </trkpt>
      <trkpt lat="59.340219" lon="18.084794">
        <ele>46</ele>
        <time>2020-01-30T07:54:36Z</time>
      </trkpt>
      <trkpt lat="59.340248" lon="18.084719">
        <ele>45</ele>
        <time>2020-01-30T07:54:37Z</time>
      </trkpt>
      <trkpt lat="59.340284" lon="18.084628">
        <ele>43</ele>
        <time>2020-01-30T07:54:38Z</time>
      </trkpt>
      <trkpt lat="59.340327" lon="18.084523">
        <ele>41</ele>
        <time>2020-01-30T07:54:39Z</time>
      </trkpt>
      <trkpt lat="59.340363" lon="18.084427">
        <ele>40</ele>
        <time>2020-01-30T07:54:40Z</time>
      </trkpt>
      <trkpt lat="59.340397" lon="18.084341">
        <ele>39</ele>
        <time>2020-01-30T07:54:41Z</time>
      </trkpt>
      <trkpt lat="59.340428" lon="18.084253">
        <ele>38</ele>
        <time>2020-01-30T07:54:42Z</time>
      </trkpt>
      <trkpt lat="59.340451" lon="18.084165">
        <ele>37</ele>
        <time>2020-01-30T07:54:43Z</time>
      </trkpt>
      <trkpt lat="59.340474" lon="18.084083">
        <ele>36</ele>
        <time>2020-01-30T07:54:44Z</time>
      </trkpt>
      <trkpt lat="59.340495" lon="18.084004">
        <ele>36</ele>
        <time>2020-01-30T07:54:45Z</time>
      </trkpt>
      <trkpt lat="59.340513" lon="18.083929">
        <ele>35</ele>
        <time>2020-01-30T07:54:46Z</time>
      </trkpt>
      <trkpt lat="59.34053" lon="18.08386">
        <ele>35</ele>
        <time>2020-01-30T07:54:47Z</time>
      </trkpt>
      <trkpt lat="59.340545" lon="18.083804">
        <ele>35</ele>
        <time>2020-01-30T07:54:48Z</time>
      </trkpt>
      <trkpt lat="59.340555" lon="18.083769">
        <ele>34</ele>
        <time>2020-01-30T07:54:49Z</time>
      </trkpt>
      <trkpt lat="59.340564" lon="18.083735">
        <ele>34</ele>
        <time>2020-01-30T07:54:50Z</time>
      </trkpt>
      <trkpt lat="59.340571" lon="18.083689">
        <ele>34</ele>
        <time>2020-01-30T07:54:51Z</time>
      </trkpt>
      <trkpt lat="59.340571" lon="18.08364">
        <ele>34</ele>
        <time>2020-01-30T07:54:52Z</time>
      </trkpt>
      <trkpt lat="59.340562" lon="18.083588">
        <ele>34</ele>
        <time>2020-01-30T07:54:53Z</time>
      </trkpt>
      <trkpt lat="59.34055" lon="18.083534">
        <ele>34</ele>
        <time>2020-01-30T07:54:54Z</time>
      </trkpt>
      <trkpt lat="59.340534" lon="18.083483">
        <ele>34</ele>
        <time>2020-01-30T07:54:55Z</time>
      </trkpt>
      <trkpt lat="59.340504" lon="18.083435">
        <ele>34</ele>
        <time>2020-01-30T07:54:56Z</time>
      </trkpt>
      <trkpt lat="59.340469" lon="18.083392">
        <ele>34</ele>
        <time>2020-01-30T07:54:57Z</time>
      </trkpt>
      <trkpt lat="59.340437" lon="18.083349">
        <ele>34</ele>
        <time>2020-01-30T07:54:58Z</time>
      </trkpt>
      <trkpt lat="59.340404" lon="18.083307">
        <ele>34</ele>
        <time>2020-01-30T07:54:59Z</time>
      </trkpt>
      <trkpt lat="59.340366" lon="18.083263">
        <ele>34</ele>
        <time>2020-01-30T07:55:00Z</time>
      </trkpt>
      <trkpt lat="59.340327" lon="18.083221">
        <ele>34</ele>
        <time>2020-01-30T07:55:01Z</time>
      </trkpt>
      <trkpt lat="59.340288" lon="18.083179">
        <ele>34</ele>
        <time>2020-01-30T07:55:02Z</time>
      </trkpt>
      <trkpt lat="59.340244" lon="18.083141">
        <ele>34</ele>
        <time>2020-01-30T07:55:03Z</time>
      </trkpt>
      <trkpt lat="59.340196" lon="18.083108">
        <ele>34</ele>
        <time>2020-01-30T07:55:04Z</time>
      </trkpt>
      <trkpt lat="59.34012" lon="18.083092">
        <ele>34</ele>
        <time>2020-01-30T07:55:05Z</time>
      </trkpt>
      <trkpt lat="59.340063" lon="18.083066">
        <ele>34</ele>
        <time>2020-01-30T07:55:06Z</time>
      </trkpt>
      <trkpt lat="59.340019" lon="18.083032">
        <ele>34</ele>
        <time>2020-01-30T07:55:07Z</time>
      </trkpt>
      <trkpt lat="59.339985" lon="18.082994">
        <ele>34</ele>
        <time>2020-01-30T07:55:08Z</time>
      </trkpt>
      <trkpt lat="59.339952" lon="18.082953">
        <ele>33</ele>
        <time>2020-01-30T07:55:09Z</time>
      </trkpt>
      <trkpt lat="59.339911" lon="18.082912">
        <ele>33</ele>
        <time>2020-01-30T07:55:10Z</time>
      </trkpt>
      <trkpt lat="59.339872" lon="18.082869">
        <ele>33</ele>
        <time>2020-01-30T07:55:11Z</time>
      </trkpt>
      <trkpt lat="59.339825" lon="18.082828">
        <ele>33</ele>
        <time>2020-01-30T07:55:12Z</time>
      </trkpt>
      <trkpt lat="59.339763" lon="18.082791">
        <ele>33</ele>
        <time>2020-01-30T07:55:13Z</time>
      </trkpt>
      <trkpt lat="59.339712" lon="18.082751">
        <ele>33</ele>
        <time>2020-01-30T07:55:14Z</time>
      </trkpt>
      <trkpt lat="59.339664" lon="18.082711">
        <ele>33</ele>
        <time>2020-01-30T07:55:15Z</time>
      </trkpt>
      <trkpt lat="59.339619" lon="18.082671">
        <ele>33</ele>
        <time>2020-01-30T07:55:16Z</time>
      </trkpt>
      <trkpt lat="59.339573" lon="18.082634">
        <ele>33</ele>
        <time>2020-01-30T07:55:17Z</time>
      </trkpt>
      <trkpt lat="59.339522" lon="18.082604">
        <ele>33</ele>
        <time>2020-01-30T07:55:18Z</time>
      </trkpt>
      <trkpt lat="59.339469" lon="18.082579">
        <ele>32</ele>
        <time>2020-01-30T07:55:19Z</time>
      </trkpt>
      <trkpt lat="59.339425" lon="18.082552">
        <ele>32</ele>
        <time>2020-01-30T07:55:20Z</time>
      </trkpt>
      <trkpt lat="59.339384" lon="18.082524">
        <ele>32</ele>
        <time>2020-01-30T07:55:21Z</time>
      </trkpt>
      <trkpt lat="59.339345" lon="18.082492">
        <ele>31</ele>
        <time>2020-01-30T07:55:22Z</time>
      </trkpt>
      <trkpt lat="59.339305" lon="18.082462">
        <ele>31</ele>
        <time>2020-01-30T07:55:23Z</time>
      </trkpt>
      <trkpt lat="59.339268" lon="18.082434">
        <ele>31</ele>
        <time>2020-01-30T07:55:24Z</time>
      </trkpt>
      <trkpt lat="59.339232" lon="18.082407">
        <ele>31</ele>
        <time>2020-01-30T07:55:25Z</time>
      </trkpt>
      <trkpt lat="59.339194" lon="18.08238">
        <ele>31</ele>
        <time>2020-01-30T07:55:26Z</time>
      </trkpt>
      <trkpt lat="59.339163" lon="18.082351">
        <ele>0</ele>
        <time>2020-01-30T07:55:26Z</time>
      </trkpt>
      <trkpt lat="59.33912" lon="18.082325">
        <ele>31</ele>
        <time>2020-01-30T07:55:27Z</time>
      </trkpt>
      <trkpt lat="59.339084" lon="18.082295">
        <ele>31</ele>
        <time>2020-01-30T07:55:29Z</time>
      </trkpt>
      <trkpt lat="59.339049" lon="18.082264">
        <ele>31</ele>
        <time>2020-01-30T07:55:30Z</time>
      </trkpt>
      <trkpt lat="59.339014" lon="18.082226">
        <ele>31</ele>
        <time>2020-01-30T07:55:31Z</time>
      </trkpt>
      <trkpt lat="59.338972" lon="18.082194">
        <ele>31</ele>
        <time>2020-01-30T07:55:32Z</time>
      </trkpt>
      <trkpt lat="59.338929" lon="18.082164">
        <ele>31</ele>
        <time>2020-01-30T07:55:33Z</time>
      </trkpt>
      <trkpt lat="59.338876" lon="18.082141">
        <ele>32</ele>
        <time>2020-01-30T07:55:34Z</time>
      </trkpt>
      <trkpt lat="59.338823" lon="18.082115">
        <ele>32</ele>
        <time>2020-01-30T07:55:35Z</time>
      </trkpt>
      <trkpt lat="59.338774" lon="18.082088">
        <ele>32</ele>
        <time>2020-01-30T07:55:36Z</time>
      </trkpt>
      <trkpt lat="59.338732" lon="18.082056">
        <ele>32</ele>
        <time>2020-01-30T07:55:37Z</time>
      </trkpt>
      <trkpt lat="59.338688" lon="18.082029">
        <ele>32</ele>
        <time>2020-01-30T07:55:38Z</time>
      </trkpt>
      <trkpt lat="59.338648" lon="18.082">
        <ele>33</ele>
        <time>2020-01-30T07:55:39Z</time>
      </trkpt>
      <trkpt lat="59.33861" lon="18.08197">
        <ele>33</ele>
        <time>2020-01-30T07:55:40Z</time>
      </trkpt>
      <trkpt lat="59.338526" lon="18.081904">
        <ele>33</ele>
        <time>2020-01-30T07:55:42Z</time>
      </trkpt>
      <trkpt lat="59.338423" lon="18.081819">
        <ele>33</ele>
        <time>2020-01-30T07:55:44Z</time>
      </trkpt>
      <trkpt lat="59.338363" lon="18.08178">
        <ele>33</ele>
        <time>2020-01-30T07:55:45Z</time>
      </trkpt>
      <trkpt lat="59.338318" lon="18.081735">
        <ele>33</ele>
        <time>2020-01-30T07:55:46Z</time>
      </trkpt>
      <trkpt lat="59.338278" lon="18.081689">
        <ele>33</ele>
        <time>2020-01-30T07:55:47Z</time>
      </trkpt>
      <trkpt lat="59.338231" lon="18.08165">
        <ele>33</ele>
        <time>2020-01-30T07:55:48Z</time>
      </trkpt>
      <trkpt lat="59.338188" lon="18.081607">
        <ele>33</ele>
        <time>2020-01-30T07:55:49Z</time>
      </trkpt>
      <trkpt lat="59.338139" lon="18.081564">
        <ele>33</ele>
        <time>2020-01-30T07:55:50Z</time>
      </trkpt>
      <trkpt lat="59.338088" lon="18.081522">
        <ele>34</ele>
        <time>2020-01-30T07:55:51Z</time>
      </trkpt>
      <trkpt lat="59.338036" lon="18.081483">
        <ele>34</ele>
        <time>2020-01-30T07:55:52Z</time>
      </trkpt>
      <trkpt lat="59.337985" lon="18.081446">
        <ele>34</ele>
        <time>2020-01-30T07:55:53Z</time>
      </trkpt>
      <trkpt lat="59.337934" lon="18.08141">
        <ele>35</ele>
        <time>2020-01-30T07:55:54Z</time>
      </trkpt>
      <trkpt lat="59.337885" lon="18.08137">
        <ele>35</ele>
        <time>2020-01-30T07:55:55Z</time>
      </trkpt>
      <trkpt lat="59.337843" lon="18.081329">
        <ele>35</ele>
        <time>2020-01-30T07:55:56Z</time>
      </trkpt>
      <trkpt lat="59.3378" lon="18.081288">
        <ele>35</ele>
        <time>2020-01-30T07:55:57Z</time>
      </trkpt>
      <trkpt lat="59.337752" lon="18.081247">
        <ele>35</ele>
        <time>2020-01-30T07:55:58Z</time>
      </trkpt>
      <trkpt lat="59.337706" lon="18.081205">
        <ele>35</ele>
        <time>2020-01-30T07:55:59Z</time>
      </trkpt>
      <trkpt lat="59.337662" lon="18.081165">
        <ele>35</ele>
        <time>2020-01-30T07:56:00Z</time>
      </trkpt>
      <trkpt lat="59.337554" lon="18.081099">
        <ele>35</ele>
        <time>2020-01-30T07:56:02Z</time>
      </trkpt>
      <trkpt lat="59.337507" lon="18.081067">
        <ele>35</ele>
        <time>2020-01-30T07:56:03Z</time>
      </trkpt>
      <trkpt lat="59.337463" lon="18.081039">
        <ele>35</ele>
        <time>2020-01-30T07:56:04Z</time>
      </trkpt>
      <trkpt lat="59.33742" lon="18.081012">
        <ele>36</ele>
        <time>2020-01-30T07:56:05Z</time>
      </trkpt>
      <trkpt lat="59.337386" lon="18.080993">
        <ele>36</ele>
        <time>2020-01-30T07:56:06Z</time>
      </trkpt>
      <trkpt lat="59.337331" lon="18.080967">
        <ele>36</ele>
        <time>2020-01-30T07:56:08Z</time>
      </trkpt>
      <trkpt lat="59.337308" lon="18.080962">
        <ele>37</ele>
        <time>2020-01-30T07:56:09Z</time>
      </trkpt>
      <trkpt lat="59.337289" lon="18.080955">
        <ele>37</ele>
        <time>2020-01-30T07:56:10Z</time>
      </trkpt>
      <trkpt lat="59.337256" lon="18.080937">
        <ele>39</ele>
        <time>2020-01-30T07:56:14Z</time>
      </trkpt>
      <trkpt lat="59.337238" lon="18.080925">
        <ele>40</ele>
        <time>2020-01-30T07:56:19Z</time>
      </trkpt>
      <trkpt lat="59.337206" lon="18.08088">
        <ele>39</ele>
        <time>2020-01-30T07:56:21Z</time>
      </trkpt>
      <trkpt lat="59.33718" lon="18.08085">
        <ele>39</ele>
        <time>2020-01-30T07:56:22Z</time>
      </trkpt>
      <trkpt lat="59.337167" lon="18.080807">
        <ele>39</ele>
        <time>2020-01-30T07:56:23Z</time>
      </trkpt>
      <trkpt lat="59.337152" lon="18.080766">
        <ele>39</ele>
        <time>2020-01-30T07:56:24Z</time>
      </trkpt>
      <trkpt lat="59.337143" lon="18.080712">
        <ele>39</ele>
        <time>2020-01-30T07:56:25Z</time>
      </trkpt>
      <trkpt lat="59.337123" lon="18.080677">
        <ele>40</ele>
        <time>2020-01-30T07:56:26Z</time>
      </trkpt>
      <trkpt lat="59.337092" lon="18.080643">
        <ele>40</ele>
        <time>2020-01-30T07:56:27Z</time>
      </trkpt>
      <trkpt lat="59.337054" lon="18.080611">
        <ele>40</ele>
        <time>2020-01-30T07:56:28Z</time>
      </trkpt>
      <trkpt lat="59.337024" lon="18.080569">
        <ele>40</ele>
        <time>2020-01-30T07:56:29Z</time>
      </trkpt>
      <trkpt lat="59.336987" lon="18.080534">
        <ele>41</ele>
        <time>2020-01-30T07:56:30Z</time>
      </trkpt>
      <trkpt lat="59.33696" lon="18.080498">
        <ele>41</ele>
        <time>2020-01-30T07:56:31Z</time>
      </trkpt>
      <trkpt lat="59.336926" lon="18.080461">
        <ele>41</ele>
        <time>2020-01-30T07:56:32Z</time>
      </trkpt>
      <trkpt lat="59.336884" lon="18.080426">
        <ele>41</ele>
        <time>2020-01-30T07:56:33Z</time>
      </trkpt>
      <trkpt lat="59.33684" lon="18.08039">
        <ele>41</ele>
        <time>2020-01-30T07:56:34Z</time>
      </trkpt>
      <trkpt lat="59.336796" lon="18.080355">
        <ele>42</ele>
        <time>2020-01-30T07:56:35Z</time>
      </trkpt>
      <trkpt lat="59.336758" lon="18.080319">
        <ele>42</ele>
        <time>2020-01-30T07:56:36Z</time>
      </trkpt>
      <trkpt lat="59.336712" lon="18.080287">
        <ele>42</ele>
        <time>2020-01-30T07:56:37Z</time>
      </trkpt>
      <trkpt lat="59.336663" lon="18.080251">
        <ele>42</ele>
        <time>2020-01-30T07:56:38Z</time>
      </trkpt>
      <trkpt lat="59.336614" lon="18.080217">
        <ele>42</ele>
        <time>2020-01-30T07:56:39Z</time>
      </trkpt>
      <trkpt lat="59.336566" lon="18.080185">
        <ele>42</ele>
        <time>2020-01-30T07:56:40Z</time>
      </trkpt>
      <trkpt lat="59.336522" lon="18.080148">
        <ele>42</ele>
        <time>2020-01-30T07:56:41Z</time>
      </trkpt>
      <trkpt lat="59.336479" lon="18.080114">
        <ele>42</ele>
        <time>2020-01-30T07:56:42Z</time>
      </trkpt>
      <trkpt lat="59.336431" lon="18.080088">
        <ele>0</ele>
        <time>2020-01-30T07:56:42Z</time>
      </trkpt>
      <trkpt lat="59.336392" lon="18.08006">
        <ele>42</ele>
        <time>2020-01-30T07:56:43Z</time>
      </trkpt>
      <trkpt lat="59.336352" lon="18.080032">
        <ele>43</ele>
        <time>2020-01-30T07:56:45Z</time>
      </trkpt>
      <trkpt lat="59.33631" lon="18.080002">
        <ele>43</ele>
        <time>2020-01-30T07:56:46Z</time>
      </trkpt>
      <trkpt lat="59.336272" lon="18.079964">
        <ele>42</ele>
        <time>2020-01-30T07:56:47Z</time>
      </trkpt>
      <trkpt lat="59.33622" lon="18.079925">
        <ele>42</ele>
        <time>2020-01-30T07:56:48Z</time>
      </trkpt>
      <trkpt lat="59.336168" lon="18.079884">
        <ele>41</ele>
        <time>2020-01-30T07:56:49Z</time>
      </trkpt>
      <trkpt lat="59.336116" lon="18.079845">
        <ele>41</ele>
        <time>2020-01-30T07:56:50Z</time>
      </trkpt>
      <trkpt lat="59.336066" lon="18.079814">
        <ele>41</ele>
        <time>2020-01-30T07:56:51Z</time>
      </trkpt>
      <trkpt lat="59.336029" lon="18.079785">
        <ele>41</ele>
        <time>2020-01-30T07:56:52Z</time>
      </trkpt>
      <trkpt lat="59.335988" lon="18.079754">
        <ele>40</ele>
        <time>2020-01-30T07:56:53Z</time>
      </trkpt>
      <trkpt lat="59.335942" lon="18.079724">
        <ele>40</ele>
        <time>2020-01-30T07:56:54Z</time>
      </trkpt>
      <trkpt lat="59.335894" lon="18.07969">
        <ele>39</ele>
        <time>2020-01-30T07:56:55Z</time>
      </trkpt>
      <trkpt lat="59.335849" lon="18.079653">
        <ele>39</ele>
        <time>2020-01-30T07:56:56Z</time>
      </trkpt>
      <trkpt lat="59.335796" lon="18.079622">
        <ele>38</ele>
        <time>2020-01-30T07:56:57Z</time>
      </trkpt>
      <trkpt lat="59.335746" lon="18.079585">
        <ele>38</ele>
        <time>2020-01-30T07:56:58Z</time>
      </trkpt>
      <trkpt lat="59.335702" lon="18.079543">
        <ele>37</ele>
        <time>2020-01-30T07:56:59Z</time>
      </trkpt>
      <trkpt lat="59.335658" lon="18.079506">
        <ele>37</ele>
        <time>2020-01-30T07:57:00Z</time>
      </trkpt>
      <trkpt lat="59.335614" lon="18.079469">
        <ele>36</ele>
        <time>2020-01-30T07:57:01Z</time>
      </trkpt>
      <trkpt lat="59.335564" lon="18.07944">
        <ele>35</ele>
        <time>2020-01-30T07:57:02Z</time>
      </trkpt>
      <trkpt lat="59.335515" lon="18.079409">
        <ele>35</ele>
        <time>2020-01-30T07:57:03Z</time>
      </trkpt>
      <trkpt lat="59.335454" lon="18.079379">
        <ele>33</ele>
        <time>2020-01-30T07:57:04Z</time>
      </trkpt>
      <trkpt lat="59.335372" lon="18.079361">
        <ele>33</ele>
        <time>2020-01-30T07:57:05Z</time>
      </trkpt>
      <trkpt lat="59.335298" lon="18.079333">
        <ele>32</ele>
        <time>2020-01-30T07:57:06Z</time>
      </trkpt>
      <trkpt lat="59.335231" lon="18.079293">
        <ele>32</ele>
        <time>2020-01-30T07:57:07Z</time>
      </trkpt>
      <trkpt lat="59.33517" lon="18.079246">
        <ele>32</ele>
        <time>2020-01-30T07:57:08Z</time>
      </trkpt>
      <trkpt lat="59.335108" lon="18.079191">
        <ele>32</ele>
        <time>2020-01-30T07:57:09Z</time>
      </trkpt>
      <trkpt lat="59.335046" lon="18.079136">
        <ele>31</ele>
        <time>2020-01-30T07:57:10Z</time>
      </trkpt>
      <trkpt lat="59.334974" lon="18.079089">
        <ele>30</ele>
        <time>2020-01-30T07:57:11Z</time>
      </trkpt>
      <trkpt lat="59.334892" lon="18.079052">
        <ele>30</ele>
        <time>2020-01-30T07:57:12Z</time>
      </trkpt>
      <trkpt lat="59.334835" lon="18.078996">
        <ele>30</ele>
        <time>2020-01-30T07:57:13Z</time>
      </trkpt>
      <trkpt lat="59.334777" lon="18.078936">
        <ele>29</ele>
        <time>2020-01-30T07:57:14Z</time>
      </trkpt>
      <trkpt lat="59.334721" lon="18.078883">
        <ele>29</ele>
        <time>2020-01-30T07:57:15Z</time>
      </trkpt>
      <trkpt lat="59.334672" lon="18.078833">
        <ele>29</ele>
        <time>2020-01-30T07:57:16Z</time>
      </trkpt>
      <trkpt lat="59.334586" lon="18.078736">
        <ele>29</ele>
        <time>2020-01-30T07:57:18Z</time>
      </trkpt>
      <trkpt lat="59.334511" lon="18.078635">
        <ele>29</ele>
        <time>2020-01-30T07:57:21Z</time>
      </trkpt>
      <trkpt lat="59.334425" lon="18.078563">
        <ele>30</ele>
        <time>2020-01-30T07:57:27Z</time>
      </trkpt>
      <trkpt lat="59.334345" lon="18.078433">
        <ele>29</ele>
        <time>2020-01-30T07:57:38Z</time>
      </trkpt>
      <trkpt lat="59.334219" lon="18.078372">
        <ele>28</ele>
        <time>2020-01-30T07:57:41Z</time>
      </trkpt>
      <trkpt lat="59.334114" lon="18.078323">
        <ele>28</ele>
        <time>2020-01-30T07:57:43Z</time>
      </trkpt>
      <trkpt lat="59.334065" lon="18.078288">
        <ele>28</ele>
        <time>2020-01-30T07:57:44Z</time>
      </trkpt>
      <trkpt lat="59.333969" lon="18.078206">
        <ele>28</ele>
        <time>2020-01-30T07:57:46Z</time>
      </trkpt>
      <trkpt lat="59.333877" lon="18.078109">
        <ele>28</ele>
        <time>2020-01-30T07:57:48Z</time>
      </trkpt>
      <trkpt lat="59.33378" lon="18.078">
        <ele>28</ele>
        <time>2020-01-30T07:57:50Z</time>
      </trkpt>
      <trkpt lat="59.333685" lon="18.077884">
        <ele>28</ele>
        <time>2020-01-30T07:57:52Z</time>
      </trkpt>
      <trkpt lat="59.333591" lon="18.077793">
        <ele>28</ele>
        <time>2020-01-30T07:57:54Z</time>
      </trkpt>
      <trkpt lat="59.333563" lon="18.077569">
        <ele>27</ele>
        <time>2020-01-30T07:57:57Z</time>
      </trkpt>
      <trkpt lat="59.333598" lon="18.07739">
        <ele>27</ele>
        <time>2020-01-30T07:57:59Z</time>
      </trkpt>
      <trkpt lat="59.333622" lon="18.077296">
        <ele>27</ele>
        <time>2020-01-30T07:58:00Z</time>
      </trkpt>
      <trkpt lat="59.333643" lon="18.077203">
        <ele>26</ele>
        <time>2020-01-30T07:58:01Z</time>
      </trkpt>
      <trkpt lat="59.333672" lon="18.077108">
        <ele>26</ele>
        <time>2020-01-30T07:58:02Z</time>
      </trkpt>
      <trkpt lat="59.333699" lon="18.077016">
        <ele>26</ele>
        <time>2020-01-30T07:58:03Z</time>
      </trkpt>
      <trkpt lat="59.33372" lon="18.076925">
        <ele>26</ele>
        <time>2020-01-30T07:58:04Z</time>
      </trkpt>
      <trkpt lat="59.333738" lon="18.076843">
        <ele>26</ele>
        <time>2020-01-30T07:58:05Z</time>
      </trkpt>
      <trkpt lat="59.33375" lon="18.076762">
        <ele>26</ele>
        <time>2020-01-30T07:58:06Z</time>
      </trkpt>
      <trkpt lat="59.333759" lon="18.076695">
        <ele>26</ele>
        <time>2020-01-30T07:58:07Z</time>
      </trkpt>
      <trkpt lat="59.333762" lon="18.076631">
        <ele>26</ele>
        <time>2020-01-30T07:58:08Z</time>
      </trkpt>
      <trkpt lat="59.333757" lon="18.076571">
        <ele>26</ele>
        <time>2020-01-30T07:58:09Z</time>
      </trkpt>
      <trkpt lat="59.333741" lon="18.076518">
        <ele>26</ele>
        <time>2020-01-30T07:58:10Z</time>
      </trkpt>
      <trkpt lat="59.333716" lon="18.076471">
        <ele>26</ele>
        <time>2020-01-30T07:58:11Z</time>
      </trkpt>
      <trkpt lat="59.333683" lon="18.076429">
        <ele>26</ele>
        <time>2020-01-30T07:58:12Z</time>
      </trkpt>
      <trkpt lat="59.33358" lon="18.076358">
        <ele>25</ele>
        <time>2020-01-30T07:58:14Z</time>
      </trkpt>
      <trkpt lat="59.333525" lon="18.076321">
        <ele>25</ele>
        <time>2020-01-30T07:58:15Z</time>
      </trkpt>
      <trkpt lat="59.333475" lon="18.076285">
        <ele>25</ele>
        <time>2020-01-30T07:58:16Z</time>
      </trkpt>
      <trkpt lat="59.333431" lon="18.076252">
        <ele>25</ele>
        <time>2020-01-30T07:58:17Z</time>
      </trkpt>
      <trkpt lat="59.333392" lon="18.07622">
        <ele>25</ele>
        <time>2020-01-30T07:58:18Z</time>
      </trkpt>
      <trkpt lat="59.333348" lon="18.076194">
        <ele>25</ele>
        <time>2020-01-30T07:58:19Z</time>
      </trkpt>
      <trkpt lat="59.333302" lon="18.076176">
        <ele>24</ele>
        <time>2020-01-30T07:58:20Z</time>
      </trkpt>
      <trkpt lat="59.33325" lon="18.076162">
        <ele>23</ele>
        <time>2020-01-30T07:58:21Z</time>
      </trkpt>
      <trkpt lat="59.333214" lon="18.076144">
        <ele>23</ele>
        <time>2020-01-30T07:58:22Z</time>
      </trkpt>
      <trkpt lat="59.333174" lon="18.076133">
        <ele>22</ele>
        <time>2020-01-30T07:58:23Z</time>
      </trkpt>
      <trkpt lat="59.33315" lon="18.076113">
        <ele>21</ele>
        <time>2020-01-30T07:58:24Z</time>
      </trkpt>
      <trkpt lat="59.333112" lon="18.076081">
        <ele>20</ele>
        <time>2020-01-30T07:58:26Z</time>
      </trkpt>
      <trkpt lat="59.333091" lon="18.076064">
        <ele>20</ele>
        <time>2020-01-30T07:58:28Z</time>
      </trkpt>
      <trkpt lat="59.333092" lon="18.076067">
        <ele>0</ele>
        <time>2020-01-30T07:58:33Z</time>
      </trkpt>
      <trkpt lat="59.332997" lon="18.075996">
        <ele>16</ele>
        <time>2020-01-30T07:59:23Z</time>
      </trkpt>
      <trkpt lat="59.332962" lon="18.075971">
        <ele>16</ele>
        <time>2020-01-30T07:59:24Z</time>
      </trkpt>
      <trkpt lat="59.33293" lon="18.075945">
        <ele>15</ele>
        <time>2020-01-30T07:59:25Z</time>
      </trkpt>
      <trkpt lat="59.332898" lon="18.075919">
        <ele>14</ele>
        <time>2020-01-30T07:59:26Z</time>
      </trkpt>
      <trkpt lat="59.332867" lon="18.075894">
        <ele>14</ele>
        <time>2020-01-30T07:59:27Z</time>
      </trkpt>
      <trkpt lat="59.332838" lon="18.075872">
        <ele>13</ele>
        <time>2020-01-30T07:59:28Z</time>
      </trkpt>
      <trkpt lat="59.332812" lon="18.075849">
        <ele>13</ele>
        <time>2020-01-30T07:59:29Z</time>
      </trkpt>
      <trkpt lat="59.332783" lon="18.075826">
        <ele>12</ele>
        <time>2020-01-30T07:59:30Z</time>
      </trkpt>
      <trkpt lat="59.332759" lon="18.075802">
        <ele>12</ele>
        <time>2020-01-30T07:59:31Z</time>
      </trkpt>
      <trkpt lat="59.332732" lon="18.075779">
        <ele>12</ele>
        <time>2020-01-30T07:59:32Z</time>
      </trkpt>
      <trkpt lat="59.332697" lon="18.075755">
        <ele>12</ele>
        <time>2020-01-30T07:59:33Z</time>
      </trkpt>
      <trkpt lat="59.332658" lon="18.075727">
        <ele>11</ele>
        <time>2020-01-30T07:59:34Z</time>
      </trkpt>
      <trkpt lat="59.332616" lon="18.075694">
        <ele>11</ele>
        <time>2020-01-30T07:59:35Z</time>
      </trkpt>
      <trkpt lat="59.332571" lon="18.075658">
        <ele>11</ele>
        <time>2020-01-30T07:59:36Z</time>
      </trkpt>
      <trkpt lat="59.332527" lon="18.075622">
        <ele>11</ele>
        <time>2020-01-30T07:59:37Z</time>
      </trkpt>
      <trkpt lat="59.332488" lon="18.075588">
        <ele>11</ele>
        <time>2020-01-30T07:59:38Z</time>
      </trkpt>
      <trkpt lat="59.332448" lon="18.075553">
        <ele>11</ele>
        <time>2020-01-30T07:59:39Z</time>
      </trkpt>
      <trkpt lat="59.332406" lon="18.075514">
        <ele>11</ele>
        <time>2020-01-30T07:59:40Z</time>
      </trkpt>
      <trkpt lat="59.332363" lon="18.075476">
        <ele>10</ele>
        <time>2020-01-30T07:59:41Z</time>
      </trkpt>
      <trkpt lat="59.332317" lon="18.075441">
        <ele>10</ele>
        <time>2020-01-30T07:59:42Z</time>
      </trkpt>
      <trkpt lat="59.332273" lon="18.075406">
        <ele>10</ele>
        <time>2020-01-30T07:59:43Z</time>
      </trkpt>
      <trkpt lat="59.332229" lon="18.075375">
        <ele>10</ele>
        <time>2020-01-30T07:59:44Z</time>
      </trkpt>
      <trkpt lat="59.332176" lon="18.075349">
        <ele>10</ele>
        <time>2020-01-30T07:59:45Z</time>
      </trkpt>
      <trkpt lat="59.33212" lon="18.07532">
        <ele>10</ele>
        <time>2020-01-30T07:59:46Z</time>
      </trkpt>
      <trkpt lat="59.332072" lon="18.075286">
        <ele>10</ele>
        <time>2020-01-30T07:59:47Z</time>
      </trkpt>
      <trkpt lat="59.332026" lon="18.075253">
        <ele>10</ele>
        <time>2020-01-30T07:59:48Z</time>
      </trkpt>
      <trkpt lat="59.331984" lon="18.075222">
        <ele>9</ele>
        <time>2020-01-30T07:59:49Z</time>
      </trkpt>
      <trkpt lat="59.331933" lon="18.075202">
        <ele>9</ele>
        <time>2020-01-30T07:59:50Z</time>
      </trkpt>
      <trkpt lat="59.331884" lon="18.075182">
        <ele>9</ele>
        <time>2020-01-30T07:59:51Z</time>
      </trkpt>
      <trkpt lat="59.331844" lon="18.075154">
        <ele>9</ele>
        <time>2020-01-30T07:59:52Z</time>
      </trkpt>
      <trkpt lat="59.331805" lon="18.075125">
        <ele>9</ele>
        <time>2020-01-30T07:59:53Z</time>
      </trkpt>
      <trkpt lat="59.331767" lon="18.075097">
        <ele>9</ele>
        <time>2020-01-30T07:59:54Z</time>
      </trkpt>
      <trkpt lat="59.331729" lon="18.075073">
        <ele>9</ele>
        <time>2020-01-30T07:59:55Z</time>
      </trkpt>
      <trkpt lat="59.331694" lon="18.075051">
        <ele>9</ele>
        <time>2020-01-30T07:59:56Z</time>
      </trkpt>
      <trkpt lat="59.331663" lon="18.075029">
        <ele>9</ele>
        <time>2020-01-30T07:59:57Z</time>
      </trkpt>
      <trkpt lat="59.331629" lon="18.075011">
        <ele>9</ele>
        <time>2020-01-30T07:59:58Z</time>
      </trkpt>
      <trkpt lat="59.3316" lon="18.074993">
        <ele>9</ele>
        <time>2020-01-30T07:59:59Z</time>
      </trkpt>
      <trkpt lat="59.331571" lon="18.074977">
        <ele>0</ele>
        <time>2020-01-30T07:59:59Z</time>
      </trkpt>
      <trkpt lat="59.331543" lon="18.07496">
        <ele>10</ele>
        <time>2020-01-30T08:00:00Z</time>
      </trkpt>
      <trkpt lat="59.331442" lon="18.074878">
        <ele>10</ele>
        <time>2020-01-30T08:00:04Z</time>
      </trkpt>
      <trkpt lat="59.331344" lon="18.074775">
        <ele>11</ele>
        <time>2020-01-30T08:00:07Z</time>
      </trkpt>
      <trkpt lat="59.331254" lon="18.074686">
        <ele>11</ele>
        <time>2020-01-30T08:00:10Z</time>
      </trkpt>
      <trkpt lat="59.331161" lon="18.074622">
        <ele>12</ele>
        <time>2020-01-30T08:00:14Z</time>
      </trkpt>
      <trkpt lat="59.331076" lon="18.074542">
        <ele>12</ele>
        <time>2020-01-30T08:00:18Z</time>
      </trkpt>
      <trkpt lat="59.331033" lon="18.074523">
        <ele>12</ele>
        <time>2020-01-30T08:00:19Z</time>
      </trkpt>
      <trkpt lat="59.330996" lon="18.074489">
        <ele>11</ele>
        <time>2020-01-30T08:00:20Z</time>
      </trkpt>
      <trkpt lat="59.33096" lon="18.07445">
        <ele>11</ele>
        <time>2020-01-30T08:00:21Z</time>
      </trkpt>
      <trkpt lat="59.330931" lon="18.074403">
        <ele>12</ele>
        <time>2020-01-30T08:00:22Z</time>
      </trkpt>
      <trkpt lat="59.330904" lon="18.074348">
        <ele>12</ele>
        <time>2020-01-30T08:00:23Z</time>
      </trkpt>
      <trkpt lat="59.330876" lon="18.07429">
        <ele>11</ele>
        <time>2020-01-30T08:00:24Z</time>
      </trkpt>
      <trkpt lat="59.330855" lon="18.074228">
        <ele>12</ele>
        <time>2020-01-30T08:00:25Z</time>
      </trkpt>
      <trkpt lat="59.330832" lon="18.074162">
        <ele>12</ele>
        <time>2020-01-30T08:00:26Z</time>
      </trkpt>
      <trkpt lat="59.33077" lon="18.074034">
        <ele>12</ele>
        <time>2020-01-30T08:00:28Z</time>
      </trkpt>
      <trkpt lat="59.330716" lon="18.07389">
        <ele>11</ele>
        <time>2020-01-30T08:00:30Z</time>
      </trkpt>
      <trkpt lat="59.330677" lon="18.073727">
        <ele>11</ele>
        <time>2020-01-30T08:00:32Z</time>
      </trkpt>
      <trkpt lat="59.330643" lon="18.073553">
        <ele>10</ele>
        <time>2020-01-30T08:00:34Z</time>
      </trkpt>
      <trkpt lat="59.330609" lon="18.073372">
        <ele>10</ele>
        <time>2020-01-30T08:00:36Z</time>
      </trkpt>
      <trkpt lat="59.33058" lon="18.073186">
        <ele>10</ele>
        <time>2020-01-30T08:00:38Z</time>
      </trkpt>
      <trkpt lat="59.33057" lon="18.073098">
        <ele>10</ele>
        <time>2020-01-30T08:00:39Z</time>
      </trkpt>
      <trkpt lat="59.330562" lon="18.073013">
        <ele>10</ele>
        <time>2020-01-30T08:00:40Z</time>
      </trkpt>
      <trkpt lat="59.33055" lon="18.072929">
        <ele>9</ele>
        <time>2020-01-30T08:00:41Z</time>
      </trkpt>
      <trkpt lat="59.330537" lon="18.072846">
        <ele>9</ele>
        <time>2020-01-30T08:00:42Z</time>
      </trkpt>
      <trkpt lat="59.330522" lon="18.072768">
        <ele>9</ele>
        <time>2020-01-30T08:00:43Z</time>
      </trkpt>
      <trkpt lat="59.33051" lon="18.0727">
        <ele>9</ele>
        <time>2020-01-30T08:00:44Z</time>
      </trkpt>
      <trkpt lat="59.330482" lon="18.072668">
        <ele>10</ele>
        <time>2020-01-30T08:00:45Z</time>
      </trkpt>
      <trkpt lat="59.330449" lon="18.072671">
        <ele>10</ele>
        <time>2020-01-30T08:00:46Z</time>
      </trkpt>
      <trkpt lat="59.330408" lon="18.072695">
        <ele>10</ele>
        <time>2020-01-30T08:00:47Z</time>
      </trkpt>
      <trkpt lat="59.330367" lon="18.072718">
        <ele>10</ele>
        <time>2020-01-30T08:00:48Z</time>
      </trkpt>
      <trkpt lat="59.330322" lon="18.072743">
        <ele>10</ele>
        <time>2020-01-30T08:00:49Z</time>
      </trkpt>
      <trkpt lat="59.330279" lon="18.072771">
        <ele>11</ele>
        <time>2020-01-30T08:00:50Z</time>
      </trkpt>
      <trkpt lat="59.330236" lon="18.072801">
        <ele>11</ele>
        <time>2020-01-30T08:00:51Z</time>
      </trkpt>
      <trkpt lat="59.330196" lon="18.072828">
        <ele>11</ele>
        <time>2020-01-30T08:00:52Z</time>
      </trkpt>
      <trkpt lat="59.330156" lon="18.072855">
        <ele>11</ele>
        <time>2020-01-30T08:00:53Z</time>
      </trkpt>
      <trkpt lat="59.330115" lon="18.072878">
        <ele>11</ele>
        <time>2020-01-30T08:00:54Z</time>
      </trkpt>
      <trkpt lat="59.33003" lon="18.072937">
        <ele>11</ele>
        <time>2020-01-30T08:00:56Z</time>
      </trkpt>
      <trkpt lat="59.329933" lon="18.07303">
        <ele>12</ele>
        <time>2020-01-30T08:00:59Z</time>
      </trkpt>
      <trkpt lat="59.329838" lon="18.073109">
        <ele>11</ele>
        <time>2020-01-30T08:01:02Z</time>
      </trkpt>
      <trkpt lat="59.329816" lon="18.073133">
        <ele>8</ele>
        <time>2020-01-30T08:01:06Z</time>
      </trkpt>
      <trkpt lat="59.329792" lon="18.073143">
        <ele>8</ele>
        <time>2020-01-30T08:01:07Z</time>
      </trkpt>
      <trkpt lat="59.329776" lon="18.073146">
        <ele>0</ele>
        <time>2020-01-30T08:01:11Z</time>
      </trkpt>
      <trkpt lat="59.329734" lon="18.07314">
        <ele>6</ele>
        <time>2020-01-30T08:01:15Z</time>
      </trkpt>
      <trkpt lat="59.329703" lon="18.073133">
        <ele>6</ele>
        <time>2020-01-30T08:01:16Z</time>
      </trkpt>
      <trkpt lat="59.329665" lon="18.073123">
        <ele>5</ele>
        <time>2020-01-30T08:01:17Z</time>
      </trkpt>
      <trkpt lat="59.329623" lon="18.073114">
        <ele>5</ele>
        <time>2020-01-30T08:01:18Z</time>
      </trkpt>
      <trkpt lat="59.329578" lon="18.073112">
        <ele>5</ele>
        <time>2020-01-30T08:01:19Z</time>
      </trkpt>
      <trkpt lat="59.329529" lon="18.073112">
        <ele>5</ele>
        <time>2020-01-30T08:01:20Z</time>
      </trkpt>
      <trkpt lat="59.329479" lon="18.073112">
        <ele>4</ele>
        <time>2020-01-30T08:01:21Z</time>
      </trkpt>
      <trkpt lat="59.329428" lon="18.073112">
        <ele>4</ele>
        <time>2020-01-30T08:01:22Z</time>
      </trkpt>
      <trkpt lat="59.329379" lon="18.07311">
        <ele>4</ele>
        <time>2020-01-30T08:01:23Z</time>
      </trkpt>
      <trkpt lat="59.329329" lon="18.073101">
        <ele>4</ele>
        <time>2020-01-30T08:01:24Z</time>
      </trkpt>
      <trkpt lat="59.329279" lon="18.073089">
        <ele>4</ele>
        <time>2020-01-30T08:01:25Z</time>
      </trkpt>
      <trkpt lat="59.329229" lon="18.073076">
        <ele>4</ele>
        <time>2020-01-30T08:01:26Z</time>
      </trkpt>
      <trkpt lat="59.32918" lon="18.073063">
        <ele>4</ele>
        <time>2020-01-30T08:01:27Z</time>
      </trkpt>
      <trkpt lat="59.329132" lon="18.073052">
        <ele>4</ele>
        <time>2020-01-30T08:01:28Z</time>
      </trkpt>
      <trkpt lat="59.329084" lon="18.073041">
        <ele>4</ele>
        <time>2020-01-30T08:01:29Z</time>
      </trkpt>
      <trkpt lat="59.329036" lon="18.07303">
        <ele>4</ele>
        <time>2020-01-30T08:01:30Z</time>
      </trkpt>
      <trkpt lat="59.328989" lon="18.073019">
        <ele>4</ele>
        <time>2020-01-30T08:01:31Z</time>
      </trkpt>
      <trkpt lat="59.32894" lon="18.073007">
        <ele>4</ele>
        <time>2020-01-30T08:01:32Z</time>
      </trkpt>
      <trkpt lat="59.328892" lon="18.072996">
        <ele>4</ele>
        <time>2020-01-30T08:01:33Z</time>
      </trkpt>
      <trkpt lat="59.328846" lon="18.072986">
        <ele>4</ele>
        <time>2020-01-30T08:01:34Z</time>
      </trkpt>
      <trkpt lat="59.328801" lon="18.072976">
        <ele>3</ele>
        <time>2020-01-30T08:01:35Z</time>
      </trkpt>
      <trkpt lat="59.328756" lon="18.072968">
        <ele>3</ele>
        <time>2020-01-30T08:01:36Z</time>
      </trkpt>
      <trkpt lat="59.328711" lon="18.072958">
        <ele>3</ele>
        <time>2020-01-30T08:01:37Z</time>
      </trkpt>
      <trkpt lat="59.328667" lon="18.072947">
        <ele>3</ele>
        <time>2020-01-30T08:01:38Z</time>
      </trkpt>
      <trkpt lat="59.328623" lon="18.072938">
        <ele>3</ele>
        <time>2020-01-30T08:01:39Z</time>
      </trkpt>
      <trkpt lat="59.32858" lon="18.072931">
        <ele>3</ele>
        <time>2020-01-30T08:01:40Z</time>
      </trkpt>
      <trkpt lat="59.328537" lon="18.072922">
        <ele>3</ele>
        <time>2020-01-30T08:01:41Z</time>
      </trkpt>
      <trkpt lat="59.328493" lon="18.072912">
        <ele>3</ele>
        <time>2020-01-30T08:01:42Z</time>
      </trkpt>
      <trkpt lat="59.328447" lon="18.072902">
        <ele>3</ele>
        <time>2020-01-30T08:01:43Z</time>
      </trkpt>
      <trkpt lat="59.3284" lon="18.072891">
        <ele>2</ele>
        <time>2020-01-30T08:01:44Z</time>
      </trkpt>
      <trkpt lat="59.328352" lon="18.072879">
        <ele>2</ele>
        <time>2020-01-30T08:01:45Z</time>
      </trkpt>
      <trkpt lat="59.328303" lon="18.072868">
        <ele>2</ele>
        <time>2020-01-30T08:01:46Z</time>
      </trkpt>
      <trkpt lat="59.328253" lon="18.072857">
        <ele>2</ele>
        <time>2020-01-30T08:01:47Z</time>
      </trkpt>
      <trkpt lat="59.328204" lon="18.072847">
        <ele>2</ele>
        <time>2020-01-30T08:01:48Z</time>
      </trkpt>
      <trkpt lat="59.328152" lon="18.072836">
        <ele>2</ele>
        <time>2020-01-30T08:01:49Z</time>
      </trkpt>
      <trkpt lat="59.3281" lon="18.072824">
        <ele>2</ele>
        <time>2020-01-30T08:01:50Z</time>
      </trkpt>
      <trkpt lat="59.328047" lon="18.072812">
        <ele>2</ele>
        <time>2020-01-30T08:01:51Z</time>
      </trkpt>
      <trkpt lat="59.327994" lon="18.072806">
        <ele>2</ele>
        <time>2020-01-30T08:01:52Z</time>
      </trkpt>
      <trkpt lat="59.327942" lon="18.072812">
        <ele>2</ele>
        <time>2020-01-30T08:01:53Z</time>
      </trkpt>
      <trkpt lat="59.327891" lon="18.07283">
        <ele>2</ele>
        <time>2020-01-30T08:01:54Z</time>
      </trkpt>
      <trkpt lat="59.327842" lon="18.072857">
        <ele>2</ele>
        <time>2020-01-30T08:01:55Z</time>
      </trkpt>
      <trkpt lat="59.327795" lon="18.072896">
        <ele>2</ele>
        <time>2020-01-30T08:01:56Z</time>
      </trkpt>
      <trkpt lat="59.327749" lon="18.072944">
        <ele>2</ele>
        <time>2020-01-30T08:01:57Z</time>
      </trkpt>
      <trkpt lat="59.327703" lon="18.072997">
        <ele>2</ele>
        <time>2020-01-30T08:01:58Z</time>
      </trkpt>
      <trkpt lat="59.327658" lon="18.07305">
        <ele>2</ele>
        <time>2020-01-30T08:01:59Z</time>
      </trkpt>
      <trkpt lat="59.327614" lon="18.073104">
        <ele>2</ele>
        <time>2020-01-30T08:02:00Z</time>
      </trkpt>
      <trkpt lat="59.327571" lon="18.07316">
        <ele>2</ele>
        <time>2020-01-30T08:02:01Z</time>
      </trkpt>
      <trkpt lat="59.327526" lon="18.073214">
        <ele>2</ele>
        <time>2020-01-30T08:02:02Z</time>
      </trkpt>
      <trkpt lat="59.327479" lon="18.073268">
        <ele>2</ele>
        <time>2020-01-30T08:02:03Z</time>
      </trkpt>
      <trkpt lat="59.327433" lon="18.073325">
        <ele>2</ele>
        <time>2020-01-30T08:02:04Z</time>
      </trkpt>
      <trkpt lat="59.327387" lon="18.073381">
        <ele>3</ele>
        <time>2020-01-30T08:02:05Z</time>
      </trkpt>
      <trkpt lat="59.327339" lon="18.073436">
        <ele>3</ele>
        <time>2020-01-30T08:02:06Z</time>
      </trkpt>
      <trkpt lat="59.327292" lon="18.073494">
        <ele>3</ele>
        <time>2020-01-30T08:02:07Z</time>
      </trkpt>
      <trkpt lat="59.327245" lon="18.073552">
        <ele>3</ele>
        <time>2020-01-30T08:02:08Z</time>
      </trkpt>
      <trkpt lat="59.327196" lon="18.073611">
        <ele>3</ele>
        <time>2020-01-30T08:02:09Z</time>
      </trkpt>
      <trkpt lat="59.327148" lon="18.07367">
        <ele>3</ele>
        <time>2020-01-30T08:02:10Z</time>
      </trkpt>
      <trkpt lat="59.327098" lon="18.073729">
        <ele>3</ele>
        <time>2020-01-30T08:02:11Z</time>
      </trkpt>
      <trkpt lat="59.32705" lon="18.073787">
        <ele>3</ele>
        <time>2020-01-30T08:02:12Z</time>
      </trkpt>
      <trkpt lat="59.327001" lon="18.073849">
        <ele>3</ele>
        <time>2020-01-30T08:02:13Z</time>
      </trkpt>
      <trkpt lat="59.326951" lon="18.073912">
        <ele>3</ele>
        <time>2020-01-30T08:02:14Z</time>
      </trkpt>
      <trkpt lat="59.326902" lon="18.073976">
        <ele>3</ele>
        <time>2020-01-30T08:02:15Z</time>
      </trkpt>
      <trkpt lat="59.326853" lon="18.074041">
        <ele>3</ele>
        <time>2020-01-30T08:02:16Z</time>
      </trkpt>
      <trkpt lat="59.326803" lon="18.074103">
        <ele>3</ele>
        <time>2020-01-30T08:02:17Z</time>
      </trkpt>
      <trkpt lat="59.326753" lon="18.074161">
        <ele>4</ele>
        <time>2020-01-30T08:02:18Z</time>
      </trkpt>
      <trkpt lat="59.326703" lon="18.074217">
        <ele>4</ele>
        <time>2020-01-30T08:02:19Z</time>
      </trkpt>
      <trkpt lat="59.326655" lon="18.074274">
        <ele>4</ele>
        <time>2020-01-30T08:02:20Z</time>
      </trkpt>
      <trkpt lat="59.326607" lon="18.074331">
        <ele>4</ele>
        <time>2020-01-30T08:02:21Z</time>
      </trkpt>
      <trkpt lat="59.326561" lon="18.07439">
        <ele>4</ele>
        <time>2020-01-30T08:02:22Z</time>
      </trkpt>
      <trkpt lat="59.326514" lon="18.074451">
        <ele>4</ele>
        <time>2020-01-30T08:02:23Z</time>
      </trkpt>
      <trkpt lat="59.326467" lon="18.074515">
        <ele>4</ele>
        <time>2020-01-30T08:02:24Z</time>
      </trkpt>
      <trkpt lat="59.326421" lon="18.074578">
        <ele>4</ele>
        <time>2020-01-30T08:02:25Z</time>
      </trkpt>
      <trkpt lat="59.326373" lon="18.074644">
        <ele>4</ele>
        <time>2020-01-30T08:02:26Z</time>
      </trkpt>
      <trkpt lat="59.326323" lon="18.074709">
        <ele>4</ele>
        <time>2020-01-30T08:02:27Z</time>
      </trkpt>
      <trkpt lat="59.326273" lon="18.074773">
        <ele>4</ele>
        <time>2020-01-30T08:02:28Z</time>
      </trkpt>
      <trkpt lat="59.326221" lon="18.074832">
        <ele>4</ele>
        <time>2020-01-30T08:02:29Z</time>
      </trkpt>
      <trkpt lat="59.326168" lon="18.074887">
        <ele>4</ele>
        <time>2020-01-30T08:02:30Z</time>
      </trkpt>
      <trkpt lat="59.326115" lon="18.074937">
        <ele>4</ele>
        <time>2020-01-30T08:02:31Z</time>
      </trkpt>
      <trkpt lat="59.32606" lon="18.074989">
        <ele>3</ele>
        <time>2020-01-30T08:02:32Z</time>
      </trkpt>
      <trkpt lat="59.326007" lon="18.075042">
        <ele>3</ele>
        <time>2020-01-30T08:02:33Z</time>
      </trkpt>
      <trkpt lat="59.325954" lon="18.075095">
        <ele>3</ele>
        <time>2020-01-30T08:02:34Z</time>
      </trkpt>
      <trkpt lat="59.3259" lon="18.075147">
        <ele>3</ele>
        <time>2020-01-30T08:02:35Z</time>
      </trkpt>
      <trkpt lat="59.325847" lon="18.075199">
        <ele>3</ele>
        <time>2020-01-30T08:02:36Z</time>
      </trkpt>
      <trkpt lat="59.325795" lon="18.075249">
        <ele>3</ele>
        <time>2020-01-30T08:02:37Z</time>
      </trkpt>
      <trkpt lat="59.325741" lon="18.075298">
        <ele>3</ele>
        <time>2020-01-30T08:02:38Z</time>
      </trkpt>
      <trkpt lat="59.325687" lon="18.075347">
        <ele>3</ele>
        <time>2020-01-30T08:02:39Z</time>
      </trkpt>
      <trkpt lat="59.325633" lon="18.075397">
        <ele>3</ele>
        <time>2020-01-30T08:02:40Z</time>
      </trkpt>
      <trkpt lat="59.325578" lon="18.075445">
        <ele>3</ele>
        <time>2020-01-30T08:02:41Z</time>
      </trkpt>
      <trkpt lat="59.325522" lon="18.075485">
        <ele>3</ele>
        <time>2020-01-30T08:02:42Z</time>
      </trkpt>
      <trkpt lat="59.325465" lon="18.075509">
        <ele>3</ele>
        <time>2020-01-30T08:02:43Z</time>
      </trkpt>
      <trkpt lat="59.325407" lon="18.075522">
        <ele>3</ele>
        <time>2020-01-30T08:02:44Z</time>
      </trkpt>
      <trkpt lat="59.325348" lon="18.07553">
        <ele>3</ele>
        <time>2020-01-30T08:02:45Z</time>
      </trkpt>
      <trkpt lat="59.32529" lon="18.075539">
        <ele>3</ele>
        <time>2020-01-30T08:02:46Z</time>
      </trkpt>
      <trkpt lat="59.325232" lon="18.075552">
        <ele>3</ele>
        <time>2020-01-30T08:02:47Z</time>
      </trkpt>
      <trkpt lat="59.325174" lon="18.075567">
        <ele>3</ele>
        <time>2020-01-30T08:02:48Z</time>
      </trkpt>
      <trkpt lat="59.325114" lon="18.075584">
        <ele>3</ele>
        <time>2020-01-30T08:02:49Z</time>
      </trkpt>
      <trkpt lat="59.325054" lon="18.0756">
        <ele>0</ele>
        <time>2020-01-30T08:02:49Z</time>
      </trkpt>
      <trkpt lat="59.324993" lon="18.075611">
        <ele>3</ele>
        <time>2020-01-30T08:02:50Z</time>
      </trkpt>
      <trkpt lat="59.324931" lon="18.075612">
        <ele>3</ele>
        <time>2020-01-30T08:02:52Z</time>
      </trkpt>
      <trkpt lat="59.324869" lon="18.075609">
        <ele>3</ele>
        <time>2020-01-30T08:02:53Z</time>
      </trkpt>
      <trkpt lat="59.324808" lon="18.075598">
        <ele>3</ele>
        <time>2020-01-30T08:02:54Z</time>
      </trkpt>
      <trkpt lat="59.324744" lon="18.075581">
        <ele>3</ele>
        <time>2020-01-30T08:02:55Z</time>
      </trkpt>
      <trkpt lat="59.324682" lon="18.075555">
        <ele>2</ele>
        <time>2020-01-30T08:02:56Z</time>
      </trkpt>
      <trkpt lat="59.32462" lon="18.075525">
        <ele>2</ele>
        <time>2020-01-30T08:02:57Z</time>
      </trkpt>
      <trkpt lat="59.324558" lon="18.0755">
        <ele>3</ele>
        <time>2020-01-30T08:02:58Z</time>
      </trkpt>
      <trkpt lat="59.324498" lon="18.075477">
        <ele>3</ele>
        <time>2020-01-30T08:02:59Z</time>
      </trkpt>
      <trkpt lat="59.324436" lon="18.075454">
        <ele>3</ele>
        <time>2020-01-30T08:03:00Z</time>
      </trkpt>
      <trkpt lat="59.324374" lon="18.075433">
        <ele>2</ele>
        <time>2020-01-30T08:03:01Z</time>
      </trkpt>
      <trkpt lat="59.324312" lon="18.075413">
        <ele>2</ele>
        <time>2020-01-30T08:03:02Z</time>
      </trkpt>
      <trkpt lat="59.32425" lon="18.075392">
        <ele>2</ele>
        <time>2020-01-30T08:03:03Z</time>
      </trkpt>
      <trkpt lat="59.324188" lon="18.075371">
        <ele>2</ele>
        <time>2020-01-30T08:03:04Z</time>
      </trkpt>
      <trkpt lat="59.324126" lon="18.075348">
        <ele>2</ele>
        <time>2020-01-30T08:03:05Z</time>
      </trkpt>
      <trkpt lat="59.324064" lon="18.075324">
        <ele>2</ele>
        <time>2020-01-30T08:03:06Z</time>
      </trkpt>
      <trkpt lat="59.324003" lon="18.075302">
        <ele>2</ele>
        <time>2020-01-30T08:03:07Z</time>
      </trkpt>
      <trkpt lat="59.323941" lon="18.075279">
        <ele>2</ele>
        <time>2020-01-30T08:03:08Z</time>
      </trkpt>
      <trkpt lat="59.32388" lon="18.075256">
        <ele>2</ele>
        <time>2020-01-30T08:03:09Z</time>
      </trkpt>
      <trkpt lat="59.323818" lon="18.075231">
        <ele>2</ele>
        <time>2020-01-30T08:03:10Z</time>
      </trkpt>
      <trkpt lat="59.323757" lon="18.075206">
        <ele>2</ele>
        <time>2020-01-30T08:03:11Z</time>
      </trkpt>
      <trkpt lat="59.323696" lon="18.075181">
        <ele>2</ele>
        <time>2020-01-30T08:03:12Z</time>
      </trkpt>
      <trkpt lat="59.323636" lon="18.075157">
        <ele>2</ele>
        <time>2020-01-30T08:03:13Z</time>
      </trkpt>
      <trkpt lat="59.323575" lon="18.075136">
        <ele>2</ele>
        <time>2020-01-30T08:03:14Z</time>
      </trkpt>
      <trkpt lat="59.323514" lon="18.075114">
        <ele>2</ele>
        <time>2020-01-30T08:03:15Z</time>
      </trkpt>
      <trkpt lat="59.323453" lon="18.075093">
        <ele>2</ele>
        <time>2020-01-30T08:03:16Z</time>
      </trkpt>
      <trkpt lat="59.323394" lon="18.07507">
        <ele>2</ele>
        <time>2020-01-30T08:03:17Z</time>
      </trkpt>
      <trkpt lat="59.323336" lon="18.075048">
        <ele>2</ele>
        <time>2020-01-30T08:03:18Z</time>
      </trkpt>
      <trkpt lat="59.323278" lon="18.075024">
        <ele>2</ele>
        <time>2020-01-30T08:03:19Z</time>
      </trkpt>
      <trkpt lat="59.323221" lon="18.074999">
        <ele>2</ele>
        <time>2020-01-30T08:03:20Z</time>
      </trkpt>
      <trkpt lat="59.323165" lon="18.074974">
        <ele>2</ele>
        <time>2020-01-30T08:03:21Z</time>
      </trkpt>
      <trkpt lat="59.323108" lon="18.074947">
        <ele>2</ele>
        <time>2020-01-30T08:03:22Z</time>
      </trkpt>
      <trkpt lat="59.323052" lon="18.074923">
        <ele>2</ele>
        <time>2020-01-30T08:03:23Z</time>
      </trkpt>
      <trkpt lat="59.322995" lon="18.074895">
        <ele>2</ele>
        <time>2020-01-30T08:03:24Z</time>
      </trkpt>
      <trkpt lat="59.32294" lon="18.074862">
        <ele>2</ele>
        <time>2020-01-30T08:03:25Z</time>
      </trkpt>
      <trkpt lat="59.322886" lon="18.074825">
        <ele>2</ele>
        <time>2020-01-30T08:03:26Z</time>
      </trkpt>
      <trkpt lat="59.322834" lon="18.074783">
        <ele>2</ele>
        <time>2020-01-30T08:03:27Z</time>
      </trkpt>
      <trkpt lat="59.322781" lon="18.074736">
        <ele>2</ele>
        <time>2020-01-30T08:03:28Z</time>
      </trkpt>
      <trkpt lat="59.32273" lon="18.074683">
        <ele>2</ele>
        <time>2020-01-30T08:03:29Z</time>
      </trkpt>
      <trkpt lat="59.322678" lon="18.074631">
        <ele>2</ele>
        <time>2020-01-30T08:03:30Z</time>
      </trkpt>
      <trkpt lat="59.322626" lon="18.074575">
        <ele>2</ele>
        <time>2020-01-30T08:03:31Z</time>
      </trkpt>
      <trkpt lat="59.322574" lon="18.074521">
        <ele>3</ele>
        <time>2020-01-30T08:03:32Z</time>
      </trkpt>
      <trkpt lat="59.322522" lon="18.074469">
        <ele>3</ele>
        <time>2020-01-30T08:03:33Z</time>
      </trkpt>
      <trkpt lat="59.32247" lon="18.074422">
        <ele>3</ele>
        <time>2020-01-30T08:03:34Z</time>
      </trkpt>
      <trkpt lat="59.322418" lon="18.074372">
        <ele>3</ele>
        <time>2020-01-30T08:03:35Z</time>
      </trkpt>
      <trkpt lat="59.322368" lon="18.074319">
        <ele>3</ele>
        <time>2020-01-30T08:03:36Z</time>
      </trkpt>
      <trkpt lat="59.322319" lon="18.074266">
        <ele>3</ele>
        <time>2020-01-30T08:03:37Z</time>
      </trkpt>
      <trkpt lat="59.322269" lon="18.074214">
        <ele>3</ele>
        <time>2020-01-30T08:03:38Z</time>
      </trkpt>
      <trkpt lat="59.322218" lon="18.074164">
        <ele>3</ele>
        <time>2020-01-30T08:03:39Z</time>
      </trkpt>
      <trkpt lat="59.322168" lon="18.074114">
        <ele>3</ele>
        <time>2020-01-30T08:03:40Z</time>
      </trkpt>
      <trkpt lat="59.32212" lon="18.074063">
        <ele>3</ele>
        <time>2020-01-30T08:03:41Z</time>
      </trkpt>
      <trkpt lat="59.322074" lon="18.074012">
        <ele>3</ele>
        <time>2020-01-30T08:03:42Z</time>
      </trkpt>
      <trkpt lat="59.322028" lon="18.073965">
        <ele>3</ele>
        <time>2020-01-30T08:03:43Z</time>
      </trkpt>
      <trkpt lat="59.321987" lon="18.073921">
        <ele>3</ele>
        <time>2020-01-30T08:03:44Z</time>
      </trkpt>
      <trkpt lat="59.321955" lon="18.07387">
        <ele>3</ele>
        <time>2020-01-30T08:03:45Z</time>
      </trkpt>
      <trkpt lat="59.321932" lon="18.073812">
        <ele>3</ele>
        <time>2020-01-30T08:03:46Z</time>
      </trkpt>
      <trkpt lat="59.321926" lon="18.073742">
        <ele>3</ele>
        <time>2020-01-30T08:03:47Z</time>
      </trkpt>
      <trkpt lat="59.321928" lon="18.073674">
        <ele>3</ele>
        <time>2020-01-30T08:03:48Z</time>
      </trkpt>
      <trkpt lat="59.321939" lon="18.073601">
        <ele>3</ele>
        <time>2020-01-30T08:03:49Z</time>
      </trkpt>
      <trkpt lat="59.321954" lon="18.073526">
        <ele>3</ele>
        <time>2020-01-30T08:03:50Z</time>
      </trkpt>
      <trkpt lat="59.321969" lon="18.073451">
        <ele>3</ele>
        <time>2020-01-30T08:03:51Z</time>
      </trkpt>
      <trkpt lat="59.321984" lon="18.073378">
        <ele>3</ele>
        <time>2020-01-30T08:03:52Z</time>
      </trkpt>
      <trkpt lat="59.321999" lon="18.073307">
        <ele>4</ele>
        <time>2020-01-30T08:03:53Z</time>
      </trkpt>
      <trkpt lat="59.322014" lon="18.073243">
        <ele>4</ele>
        <time>2020-01-30T08:03:54Z</time>
      </trkpt>
      <trkpt lat="59.322027" lon="18.073184">
        <ele>4</ele>
        <time>2020-01-30T08:03:55Z</time>
      </trkpt>
      <trkpt lat="59.322037" lon="18.073133">
        <ele>4</ele>
        <time>2020-01-30T08:03:56Z</time>
      </trkpt>
      <trkpt lat="59.322046" lon="18.07309">
        <ele>4</ele>
        <time>2020-01-30T08:03:57Z</time>
      </trkpt>
      <trkpt lat="59.322055" lon="18.073048">
        <ele>4</ele>
        <time>2020-01-30T08:03:58Z</time>
      </trkpt>
      <trkpt lat="59.322065" lon="18.073">
        <ele>4</ele>
        <time>2020-01-30T08:03:59Z</time>
      </trkpt>
      <trkpt lat="59.322074" lon="18.072944">
        <ele>4</ele>
        <time>2020-01-30T08:04:00Z</time>
      </trkpt>
      <trkpt lat="59.322081" lon="18.072884">
        <ele>4</ele>
        <time>2020-01-30T08:04:01Z</time>
      </trkpt>
      <trkpt lat="59.322083" lon="18.072822">
        <ele>4</ele>
        <time>2020-01-30T08:04:02Z</time>
      </trkpt>
      <trkpt lat="59.322081" lon="18.072758">
        <ele>4</ele>
        <time>2020-01-30T08:04:03Z</time>
      </trkpt>
      <trkpt lat="59.322077" lon="18.072697">
        <ele>5</ele>
        <time>2020-01-30T08:04:04Z</time>
      </trkpt>
      <trkpt lat="59.322072" lon="18.072638">
        <ele>5</ele>
        <time>2020-01-30T08:04:05Z</time>
      </trkpt>
      <trkpt lat="59.322065" lon="18.072586">
        <ele>5</ele>
        <time>2020-01-30T08:04:06Z</time>
      </trkpt>
      <trkpt lat="59.322058" lon="18.072537">
        <ele>5</ele>
        <time>2020-01-30T08:04:07Z</time>
      </trkpt>
      <trkpt lat="59.322051" lon="18.072486">
        <ele>5</ele>
        <time>2020-01-30T08:04:08Z</time>
      </trkpt>
      <trkpt lat="59.322045" lon="18.072436">
        <ele>5</ele>
        <time>2020-01-30T08:04:09Z</time>
      </trkpt>
      <trkpt lat="59.32204" lon="18.072391">
        <ele>5</ele>
        <time>2020-01-30T08:04:10Z</time>
      </trkpt>
      <trkpt lat="59.322033" lon="18.07235">
        <ele>5</ele>
        <time>2020-01-30T08:04:11Z</time>
      </trkpt>
      <trkpt lat="59.322023" lon="18.072319">
        <ele>5</ele>
        <time>2020-01-30T08:04:12Z</time>
      </trkpt>
      <trkpt lat="59.322005" lon="18.072297">
        <ele>5</ele>
        <time>2020-01-30T08:04:13Z</time>
      </trkpt>
      <trkpt lat="59.321978" lon="18.07228">
        <ele>5</ele>
        <time>2020-01-30T08:04:14Z</time>
      </trkpt>
      <trkpt lat="59.321949" lon="18.072266">
        <ele>5</ele>
        <time>2020-01-30T08:04:15Z</time>
      </trkpt>
      <trkpt lat="59.32192" lon="18.072255">
        <ele>5</ele>
        <time>2020-01-30T08:04:16Z</time>
      </trkpt>
      <trkpt lat="59.32189" lon="18.072241">
        <ele>5</ele>
        <time>2020-01-30T08:04:17Z</time>
      </trkpt>
      <trkpt lat="59.32186" lon="18.072223">
        <ele>6</ele>
        <time>2020-01-30T08:04:18Z</time>
      </trkpt>
      <trkpt lat="59.32183" lon="18.072205">
        <ele>6</ele>
        <time>2020-01-30T08:04:19Z</time>
      </trkpt>
      <trkpt lat="59.3218" lon="18.072189">
        <ele>6</ele>
        <time>2020-01-30T08:04:20Z</time>
      </trkpt>
      <trkpt lat="59.321769" lon="18.072181">
        <ele>6</ele>
        <time>2020-01-30T08:04:21Z</time>
      </trkpt>
      <trkpt lat="59.321739" lon="18.072182">
        <ele>6</ele>
        <time>2020-01-30T08:04:22Z</time>
      </trkpt>
      <trkpt lat="59.321707" lon="18.072188">
        <ele>6</ele>
        <time>2020-01-30T08:04:23Z</time>
      </trkpt>
      <trkpt lat="59.321673" lon="18.072194">
        <ele>6</ele>
        <time>2020-01-30T08:04:24Z</time>
      </trkpt>
      <trkpt lat="59.321639" lon="18.072192">
        <ele>0</ele>
        <time>2020-01-30T08:04:24Z</time>
      </trkpt>
      <trkpt lat="59.321603" lon="18.072181">
        <ele>7</ele>
        <time>2020-01-30T08:04:25Z</time>
      </trkpt>
      <trkpt lat="59.321568" lon="18.072162">
        <ele>7</ele>
        <time>2020-01-30T08:04:27Z</time>
      </trkpt>
      <trkpt lat="59.321532" lon="18.072138">
        <ele>7</ele>
        <time>2020-01-30T08:04:28Z</time>
      </trkpt>
      <trkpt lat="59.321497" lon="18.072113">
        <ele>7</ele>
        <time>2020-01-30T08:04:29Z</time>
      </trkpt>
      <trkpt lat="59.321461" lon="18.072087">
        <ele>7</ele>
        <time>2020-01-30T08:04:30Z</time>
      </trkpt>
      <trkpt lat="59.321428" lon="18.072061">
        <ele>7</ele>
        <time>2020-01-30T08:04:31Z</time>
      </trkpt>
      <trkpt lat="59.321394" lon="18.072033">
        <ele>7</ele>
        <time>2020-01-30T08:04:32Z</time>
      </trkpt>
      <trkpt lat="59.32136" lon="18.072006">
        <ele>8</ele>
        <time>2020-01-30T08:04:33Z</time>
      </trkpt>
      <trkpt lat="59.321325" lon="18.071981">
        <ele>8</ele>
        <time>2020-01-30T08:04:34Z</time>
      </trkpt>
      <trkpt lat="59.32129" lon="18.071959">
        <ele>8</ele>
        <time>2020-01-30T08:04:35Z</time>
      </trkpt>
      <trkpt lat="59.321254" lon="18.071933">
        <ele>8</ele>
        <time>2020-01-30T08:04:36Z</time>
      </trkpt>
      <trkpt lat="59.321219" lon="18.0719">
        <ele>8</ele>
        <time>2020-01-30T08:04:37Z</time>
      </trkpt>
      <trkpt lat="59.321186" lon="18.071859">
        <ele>8</ele>
        <time>2020-01-30T08:04:38Z</time>
      </trkpt>
      <trkpt lat="59.321156" lon="18.071806">
        <ele>8</ele>
        <time>2020-01-30T08:04:39Z</time>
      </trkpt>
      <trkpt lat="59.321133" lon="18.071742">
        <ele>8</ele>
        <time>2020-01-30T08:04:40Z</time>
      </trkpt>
      <trkpt lat="59.321117" lon="18.07167">
        <ele>8</ele>
        <time>2020-01-30T08:04:41Z</time>
      </trkpt>
      <trkpt lat="59.321106" lon="18.071594">
        <ele>8</ele>
        <time>2020-01-30T08:04:42Z</time>
      </trkpt>
      <trkpt lat="59.321098" lon="18.07152">
        <ele>9</ele>
        <time>2020-01-30T08:04:43Z</time>
      </trkpt>
      <trkpt lat="59.32109" lon="18.071451">
        <ele>9</ele>
        <time>2020-01-30T08:04:44Z</time>
      </trkpt>
      <trkpt lat="59.321084" lon="18.071385">
        <ele>9</ele>
        <time>2020-01-30T08:04:45Z</time>
      </trkpt>
      <trkpt lat="59.321078" lon="18.071322">
        <ele>9</ele>
        <time>2020-01-30T08:04:46Z</time>
      </trkpt>
      <trkpt lat="59.321071" lon="18.07126">
        <ele>10</ele>
        <time>2020-01-30T08:04:47Z</time>
      </trkpt>
      <trkpt lat="59.321064" lon="18.071201">
        <ele>10</ele>
        <time>2020-01-30T08:04:48Z</time>
      </trkpt>
      <trkpt lat="59.321057" lon="18.071144">
        <ele>10</ele>
        <time>2020-01-30T08:04:49Z</time>
      </trkpt>
      <trkpt lat="59.321045" lon="18.071092">
        <ele>10</ele>
        <time>2020-01-30T08:04:50Z</time>
      </trkpt>
      <trkpt lat="59.321024" lon="18.071048">
        <ele>10</ele>
        <time>2020-01-30T08:04:51Z</time>
      </trkpt>
      <trkpt lat="59.320997" lon="18.071016">
        <ele>10</ele>
        <time>2020-01-30T08:04:52Z</time>
      </trkpt>
      <trkpt lat="59.320968" lon="18.070992">
        <ele>11</ele>
        <time>2020-01-30T08:04:53Z</time>
      </trkpt>
      <trkpt lat="59.320939" lon="18.07097">
        <ele>11</ele>
        <time>2020-01-30T08:04:54Z</time>
      </trkpt>
      <trkpt lat="59.320908" lon="18.070949">
        <ele>11</ele>
        <time>2020-01-30T08:04:55Z</time>
      </trkpt>
      <trkpt lat="59.320878" lon="18.07093">
        <ele>11</ele>
        <time>2020-01-30T08:04:56Z</time>
      </trkpt>
      <trkpt lat="59.320848" lon="18.07091">
        <ele>11</ele>
        <time>2020-01-30T08:04:57Z</time>
      </trkpt>
      <trkpt lat="59.320818" lon="18.070889">
        <ele>11</ele>
        <time>2020-01-30T08:04:58Z</time>
      </trkpt>
      <trkpt lat="59.320787" lon="18.070868">
        <ele>12</ele>
        <time>2020-01-30T08:04:59Z</time>
      </trkpt>
      <trkpt lat="59.320756" lon="18.070849">
        <ele>12</ele>
        <time>2020-01-30T08:05:00Z</time>
      </trkpt>
      <trkpt lat="59.320724" lon="18.070832">
        <ele>12</ele>
        <time>2020-01-30T08:05:01Z</time>
      </trkpt>
      <trkpt lat="59.320692" lon="18.070818">
        <ele>12</ele>
        <time>2020-01-30T08:05:02Z</time>
      </trkpt>
      <trkpt lat="59.320659" lon="18.070808">
        <ele>12</ele>
        <time>2020-01-30T08:05:03Z</time>
      </trkpt>
      <trkpt lat="59.320627" lon="18.070798">
        <ele>13</ele>
        <time>2020-01-30T08:05:04Z</time>
      </trkpt>
      <trkpt lat="59.320598" lon="18.07078">
        <ele>13</ele>
        <time>2020-01-30T08:05:05Z</time>
      </trkpt>
      <trkpt lat="59.320576" lon="18.070741">
        <ele>13</ele>
        <time>2020-01-30T08:05:06Z</time>
      </trkpt>
      <trkpt lat="59.320561" lon="18.070689">
        <ele>13</ele>
        <time>2020-01-30T08:05:07Z</time>
      </trkpt>
      <trkpt lat="59.320548" lon="18.070629">
        <ele>13</ele>
        <time>2020-01-30T08:05:08Z</time>
      </trkpt>
      <trkpt lat="59.320534" lon="18.070564">
        <ele>13</ele>
        <time>2020-01-30T08:05:09Z</time>
      </trkpt>
      <trkpt lat="59.320521" lon="18.070498">
        <ele>13</ele>
        <time>2020-01-30T08:05:10Z</time>
      </trkpt>
      <trkpt lat="59.320504" lon="18.070439">
        <ele>13</ele>
        <time>2020-01-30T08:05:11Z</time>
      </trkpt>
      <trkpt lat="59.320482" lon="18.070386">
        <ele>13</ele>
        <time>2020-01-30T08:05:12Z</time>
      </trkpt>
      <trkpt lat="59.320469" lon="18.070331">
        <ele>13</ele>
        <time>2020-01-30T08:05:13Z</time>
      </trkpt>
      <trkpt lat="59.320458" lon="18.070282">
        <ele>13</ele>
        <time>2020-01-30T08:05:14Z</time>
      </trkpt>
      <trkpt lat="59.320438" lon="18.070251">
        <ele>13</ele>
        <time>2020-01-30T08:05:15Z</time>
      </trkpt>
      <trkpt lat="59.320404" lon="18.070246">
        <ele>13</ele>
        <time>2020-01-30T08:05:16Z</time>
      </trkpt>
      <trkpt lat="59.320366" lon="18.070254">
        <ele>14</ele>
        <time>2020-01-30T08:05:17Z</time>
      </trkpt>
      <trkpt lat="59.320325" lon="18.070266">
        <ele>14</ele>
        <time>2020-01-30T08:05:18Z</time>
      </trkpt>
      <trkpt lat="59.320283" lon="18.070278">
        <ele>14</ele>
        <time>2020-01-30T08:05:19Z</time>
      </trkpt>
      <trkpt lat="59.32024" lon="18.070291">
        <ele>14</ele>
        <time>2020-01-30T08:05:20Z</time>
      </trkpt>
      <trkpt lat="59.320197" lon="18.070305">
        <ele>14</ele>
        <time>2020-01-30T08:05:21Z</time>
      </trkpt>
      <trkpt lat="59.320154" lon="18.070317">
        <ele>14</ele>
        <time>2020-01-30T08:05:22Z</time>
      </trkpt>
      <trkpt lat="59.320114" lon="18.070328">
        <ele>14</ele>
        <time>2020-01-30T08:05:23Z</time>
      </trkpt>
      <trkpt lat="59.320073" lon="18.070339">
        <ele>14</ele>
        <time>2020-01-30T08:05:24Z</time>
      </trkpt>
      <trkpt lat="59.320035" lon="18.070348">
        <ele>14</ele>
        <time>2020-01-30T08:05:25Z</time>
      </trkpt>
      <trkpt lat="59.319999" lon="18.070356">
        <ele>15</ele>
        <time>2020-01-30T08:05:26Z</time>
      </trkpt>
      <trkpt lat="59.319965" lon="18.070365">
        <ele>15</ele>
        <time>2020-01-30T08:05:27Z</time>
      </trkpt>
      <trkpt lat="59.319928" lon="18.070376">
        <ele>15</ele>
        <time>2020-01-30T08:05:28Z</time>
      </trkpt>
      <trkpt lat="59.319894" lon="18.070387">
        <ele>15</ele>
        <time>2020-01-30T08:05:29Z</time>
      </trkpt>
      <trkpt lat="59.319858" lon="18.070404">
        <ele>15</ele>
        <time>2020-01-30T08:05:30Z</time>
      </trkpt>
      <trkpt lat="59.319824" lon="18.070423">
        <ele>15</ele>
        <time>2020-01-30T08:05:31Z</time>
      </trkpt>
      <trkpt lat="59.319786" lon="18.070448">
        <ele>15</ele>
        <time>2020-01-30T08:05:32Z</time>
      </trkpt>
      <trkpt lat="59.319749" lon="18.070472">
        <ele>16</ele>
        <time>2020-01-30T08:05:33Z</time>
      </trkpt>
      <trkpt lat="59.319712" lon="18.070495">
        <ele>16</ele>
        <time>2020-01-30T08:05:34Z</time>
      </trkpt>
      <trkpt lat="59.319677" lon="18.070516">
        <ele>16</ele>
        <time>2020-01-30T08:05:35Z</time>
      </trkpt>
      <trkpt lat="59.319643" lon="18.070535">
        <ele>16</ele>
        <time>2020-01-30T08:05:36Z</time>
      </trkpt>
      <trkpt lat="59.31961" lon="18.070553">
        <ele>16</ele>
        <time>2020-01-30T08:05:37Z</time>
      </trkpt>
      <trkpt lat="59.319578" lon="18.070569">
        <ele>16</ele>
        <time>2020-01-30T08:05:38Z</time>
      </trkpt>
      <trkpt lat="59.319547" lon="18.070583">
        <ele>16</ele>
        <time>2020-01-30T08:05:39Z</time>
      </trkpt>
      <trkpt lat="59.319518" lon="18.070599">
        <ele>16</ele>
        <time>2020-01-30T08:05:40Z</time>
      </trkpt>
      <trkpt lat="59.319493" lon="18.070609">
        <ele>17</ele>
        <time>2020-01-30T08:05:41Z</time>
      </trkpt>
      <trkpt lat="59.319471" lon="18.070618">
        <ele>17</ele>
        <time>2020-01-30T08:05:42Z</time>
      </trkpt>
      <trkpt lat="59.31945" lon="18.070629">
        <ele>17</ele>
        <time>2020-01-30T08:05:43Z</time>
      </trkpt>
      <trkpt lat="59.31943" lon="18.070642">
        <ele>17</ele>
        <time>2020-01-30T08:05:44Z</time>
      </trkpt>
      <trkpt lat="59.319407" lon="18.070656">
        <ele>18</ele>
        <time>2020-01-30T08:05:45Z</time>
      </trkpt>
      <trkpt lat="59.319371" lon="18.070676">
        <ele>18</ele>
        <time>2020-01-30T08:05:47Z</time>
      </trkpt>
      <trkpt lat="59.319352" lon="18.070684">
        <ele>18</ele>
        <time>2020-01-30T08:05:48Z</time>
      </trkpt>
      <trkpt lat="59.319324" lon="18.070704">
        <ele>18</ele>
        <time>2020-01-30T08:05:49Z</time>
      </trkpt>
      <trkpt lat="59.319345" lon="18.070692">
        <ele>19</ele>
        <time>2020-01-30T08:05:50Z</time>
      </trkpt>
      <trkpt lat="59.31933" lon="18.070715">
        <ele>19</ele>
        <time>2020-01-30T08:05:51Z</time>
      </trkpt>
      <trkpt lat="59.319316" lon="18.070737">
        <ele>19</ele>
        <time>2020-01-30T08:05:52Z</time>
      </trkpt>
      <trkpt lat="59.319281" lon="18.070757">
        <ele>20</ele>
        <time>2020-01-30T08:05:54Z</time>
      </trkpt>
      <trkpt lat="59.319258" lon="18.070763">
        <ele>20</ele>
        <time>2020-01-30T08:05:55Z</time>
      </trkpt>
      <trkpt lat="59.319235" lon="18.070767">
        <ele>21</ele>
        <time>2020-01-30T08:05:57Z</time>
      </trkpt>
      <trkpt lat="59.319213" lon="18.070778">
        <ele>21</ele>
        <time>2020-01-30T08:05:58Z</time>
      </trkpt>
      <trkpt lat="59.319186" lon="18.070796">
        <ele>22</ele>
        <time>2020-01-30T08:05:59Z</time>
      </trkpt>
      <trkpt lat="59.319134" lon="18.070832">
        <ele>22</ele>
        <time>2020-01-30T08:06:00Z</time>
      </trkpt>
      <trkpt lat="59.31909" lon="18.070866">
        <ele>23</ele>
        <time>2020-01-30T08:06:01Z</time>
      </trkpt>
      <trkpt lat="59.319053" lon="18.070889">
        <ele>23</ele>
        <time>2020-01-30T08:06:02Z</time>
      </trkpt>
      <trkpt lat="59.319023" lon="18.070905">
        <ele>23</ele>
        <time>2020-01-30T08:06:03Z</time>
      </trkpt>
      <trkpt lat="59.318991" lon="18.070921">
        <ele>24</ele>
        <time>2020-01-30T08:06:04Z</time>
      </trkpt>
      <trkpt lat="59.318963" lon="18.070934">
        <ele>24</ele>
        <time>2020-01-30T08:06:05Z</time>
      </trkpt>
      <trkpt lat="59.318934" lon="18.070955">
        <ele>25</ele>
        <time>2020-01-30T08:06:06Z</time>
      </trkpt>
      <trkpt lat="59.318903" lon="18.070972">
        <ele>25</ele>
        <time>2020-01-30T08:06:07Z</time>
      </trkpt>
      <trkpt lat="59.318876" lon="18.070984">
        <ele>25</ele>
        <time>2020-01-30T08:06:08Z</time>
      </trkpt>
      <trkpt lat="59.318852" lon="18.070999">
        <ele>25</ele>
        <time>2020-01-30T08:06:09Z</time>
      </trkpt>
      <trkpt lat="59.318831" lon="18.071008">
        <ele>26</ele>
        <time>2020-01-30T08:06:10Z</time>
      </trkpt>
      <trkpt lat="59.318812" lon="18.071022">
        <ele>26</ele>
        <time>2020-01-30T08:06:11Z</time>
      </trkpt>
      <trkpt lat="59.318787" lon="18.071028">
        <ele>26</ele>
        <time>2020-01-30T08:06:12Z</time>
      </trkpt>
      <trkpt lat="59.318763" lon="18.071034">
        <ele>26</ele>
        <time>2020-01-30T08:06:13Z</time>
      </trkpt>
      <trkpt lat="59.31874" lon="18.071038">
        <ele>26</ele>
        <time>2020-01-30T08:06:14Z</time>
      </trkpt>
      <trkpt lat="59.318722" lon="18.071038">
        <ele>26</ele>
        <time>2020-01-30T08:06:15Z</time>
      </trkpt>
      <trkpt lat="59.318704" lon="18.071042">
        <ele>27</ele>
        <time>2020-01-30T08:06:16Z</time>
      </trkpt>
      <trkpt lat="59.318684" lon="18.071043">
        <ele>27</ele>
        <time>2020-01-30T08:06:17Z</time>
      </trkpt>
      <trkpt lat="59.318651" lon="18.071053">
        <ele>28</ele>
        <time>2020-01-30T08:06:19Z</time>
      </trkpt>
      <trkpt lat="59.318622" lon="18.071082">
        <ele>28</ele>
        <time>2020-01-30T08:06:20Z</time>
      </trkpt>
      <trkpt lat="59.318597" lon="18.071094">
        <ele>29</ele>
        <time>2020-01-30T08:06:21Z</time>
      </trkpt>
      <trkpt lat="59.318573" lon="18.071099">
        <ele>29</ele>
        <time>2020-01-30T08:06:22Z</time>
      </trkpt>
      <trkpt lat="59.318531" lon="18.071107">
        <ele>29</ele>
        <time>2020-01-30T08:06:24Z</time>
      </trkpt>
      <trkpt lat="59.318505" lon="18.071119">
        <ele>30</ele>
        <time>2020-01-30T08:06:25Z</time>
      </trkpt>
      <trkpt lat="59.318478" lon="18.071128">
        <ele>30</ele>
        <time>2020-01-30T08:06:26Z</time>
      </trkpt>
      <trkpt lat="59.318455" lon="18.071137">
        <ele>30</ele>
        <time>2020-01-30T08:06:27Z</time>
      </trkpt>
      <trkpt lat="59.318365" lon="18.071206">
        <ele>32</ele>
        <time>2020-01-30T08:06:32Z</time>
      </trkpt>
      <trkpt lat="59.318278" lon="18.071255">
        <ele>33</ele>
        <time>2020-01-30T08:06:35Z</time>
      </trkpt>
      <trkpt lat="59.318177" lon="18.07133">
        <ele>34</ele>
        <time>2020-01-30T08:06:38Z</time>
      </trkpt>
      <trkpt lat="59.318152" lon="18.071346">
        <ele>34</ele>
        <time>2020-01-30T08:06:39Z</time>
      </trkpt>
      <trkpt lat="59.318125" lon="18.071363">
        <ele>34</ele>
        <time>2020-01-30T08:06:40Z</time>
      </trkpt>
      <trkpt lat="59.318091" lon="18.071379">
        <ele>35</ele>
        <time>2020-01-30T08:06:41Z</time>
      </trkpt>
      <trkpt lat="59.318059" lon="18.071399">
        <ele>35</ele>
        <time>2020-01-30T08:06:42Z</time>
      </trkpt>
      <trkpt lat="59.317999" lon="18.07143">
        <ele>36</ele>
        <time>2020-01-30T08:06:44Z</time>
      </trkpt>
      <trkpt lat="59.317964" lon="18.071448">
        <ele>36</ele>
        <time>2020-01-30T08:06:45Z</time>
      </trkpt>
      <trkpt lat="59.317918" lon="18.071473">
        <ele>37</ele>
        <time>2020-01-30T08:06:46Z</time>
      </trkpt>
      <trkpt lat="59.317881" lon="18.071498">
        <ele>37</ele>
        <time>2020-01-30T08:06:47Z</time>
      </trkpt>
      <trkpt lat="59.31785" lon="18.071519">
        <ele>37</ele>
        <time>2020-01-30T08:06:48Z</time>
      </trkpt>
      <trkpt lat="59.317817" lon="18.071533">
        <ele>37</ele>
        <time>2020-01-30T08:06:49Z</time>
      </trkpt>
      <trkpt lat="59.317786" lon="18.071545">
        <ele>38</ele>
        <time>2020-01-30T08:06:50Z</time>
      </trkpt>
      <trkpt lat="59.317757" lon="18.071558">
        <ele>38</ele>
        <time>2020-01-30T08:06:51Z</time>
      </trkpt>
      <trkpt lat="59.317728" lon="18.071583">
        <ele>38</ele>
        <time>2020-01-30T08:06:52Z</time>
      </trkpt>
      <trkpt lat="59.3177" lon="18.071608">
        <ele>39</ele>
        <time>2020-01-30T08:06:53Z</time>
      </trkpt>
      <trkpt lat="59.317668" lon="18.071634">
        <ele>39</ele>
        <time>2020-01-30T08:06:54Z</time>
      </trkpt>
      <trkpt lat="59.317636" lon="18.071657">
        <ele>39</ele>
        <time>2020-01-30T08:06:55Z</time>
      </trkpt>
      <trkpt lat="59.317608" lon="18.071682">
        <ele>39</ele>
        <time>2020-01-30T08:06:56Z</time>
      </trkpt>
      <trkpt lat="59.317581" lon="18.071702">
        <ele>39</ele>
        <time>2020-01-30T08:06:57Z</time>
      </trkpt>
      <trkpt lat="59.317558" lon="18.07172">
        <ele>39</ele>
        <time>2020-01-30T08:06:58Z</time>
      </trkpt>
      <trkpt lat="59.317531" lon="18.071733">
        <ele>40</ele>
        <time>2020-01-30T08:06:59Z</time>
      </trkpt>
      <trkpt lat="59.317505" lon="18.07174">
        <ele>40</ele>
        <time>2020-01-30T08:07:00Z</time>
      </trkpt>
      <trkpt lat="59.317481" lon="18.071744">
        <ele>40</ele>
        <time>2020-01-30T08:07:01Z</time>
      </trkpt>
      <trkpt lat="59.317453" lon="18.071758">
        <ele>40</ele>
        <time>2020-01-30T08:07:02Z</time>
      </trkpt>
      <trkpt lat="59.317426" lon="18.07177">
        <ele>40</ele>
        <time>2020-01-30T08:07:03Z</time>
      </trkpt>
      <trkpt lat="59.317396" lon="18.071785">
        <ele>40</ele>
        <time>2020-01-30T08:07:04Z</time>
      </trkpt>
      <trkpt lat="59.31737" lon="18.071799">
        <ele>40</ele>
        <time>2020-01-30T08:07:05Z</time>
      </trkpt>
      <trkpt lat="59.317347" lon="18.071818">
        <ele>40</ele>
        <time>2020-01-30T08:07:06Z</time>
      </trkpt>
      <trkpt lat="59.317319" lon="18.071829">
        <ele>40</ele>
        <time>2020-01-30T08:07:07Z</time>
      </trkpt>
      <trkpt lat="59.317288" lon="18.071841">
        <ele>41</ele>
        <time>2020-01-30T08:07:08Z</time>
      </trkpt>
      <trkpt lat="59.317261" lon="18.071846">
        <ele>41</ele>
        <time>2020-01-30T08:07:09Z</time>
      </trkpt>
      <trkpt lat="59.317228" lon="18.071856">
        <ele>41</ele>
        <time>2020-01-30T08:07:10Z</time>
      </trkpt>
      <trkpt lat="59.317198" lon="18.071866">
        <ele>41</ele>
        <time>2020-01-30T08:07:11Z</time>
      </trkpt>
      <trkpt lat="59.317164" lon="18.071884">
        <ele>41</ele>
        <time>2020-01-30T08:07:12Z</time>
      </trkpt>
      <trkpt lat="59.317132" lon="18.071902">
        <ele>41</ele>
        <time>2020-01-30T08:07:13Z</time>
      </trkpt>
      <trkpt lat="59.317105" lon="18.07192">
        <ele>42</ele>
        <time>2020-01-30T08:07:14Z</time>
      </trkpt>
      <trkpt lat="59.317042" lon="18.071982">
        <ele>42</ele>
        <time>2020-01-30T08:07:15Z</time>
      </trkpt>
      <trkpt lat="59.316989" lon="18.07202">
        <ele>42</ele>
        <time>2020-01-30T08:07:16Z</time>
      </trkpt>
      <trkpt lat="59.316938" lon="18.07205">
        <ele>42</ele>
        <time>2020-01-30T08:07:17Z</time>
      </trkpt>
      <trkpt lat="59.31689" lon="18.072076">
        <ele>43</ele>
        <time>2020-01-30T08:07:18Z</time>
      </trkpt>
      <trkpt lat="59.316851" lon="18.072094">
        <ele>43</ele>
        <time>2020-01-30T08:07:19Z</time>
      </trkpt>
      <trkpt lat="59.31681" lon="18.072106">
        <ele>43</ele>
        <time>2020-01-30T08:07:20Z</time>
      </trkpt>
      <trkpt lat="59.316776" lon="18.07212">
        <ele>43</ele>
        <time>2020-01-30T08:07:21Z</time>
      </trkpt>
      <trkpt lat="59.316749" lon="18.072131">
        <ele>43</ele>
        <time>2020-01-30T08:07:22Z</time>
      </trkpt>
      <trkpt lat="59.316722" lon="18.072145">
        <ele>43</ele>
        <time>2020-01-30T08:07:23Z</time>
      </trkpt>
      <trkpt lat="59.316694" lon="18.07216">
        <ele>43</ele>
        <time>2020-01-30T08:07:24Z</time>
      </trkpt>
      <trkpt lat="59.316666" lon="18.07216">
        <ele>43</ele>
        <time>2020-01-30T08:07:25Z</time>
      </trkpt>
      <trkpt lat="59.31664" lon="18.072145">
        <ele>43</ele>
        <time>2020-01-30T08:07:26Z</time>
      </trkpt>
      <trkpt lat="59.316619" lon="18.072134">
        <ele>44</ele>
        <time>2020-01-30T08:07:27Z</time>
      </trkpt>
      <trkpt lat="59.316585" lon="18.072142">
        <ele>44</ele>
        <time>2020-01-30T08:07:29Z</time>
      </trkpt>
      <trkpt lat="59.316563" lon="18.07214">
        <ele>44</ele>
        <time>2020-01-30T08:07:30Z</time>
      </trkpt>
      <trkpt lat="59.316534" lon="18.07214">
        <ele>44</ele>
        <time>2020-01-30T08:07:31Z</time>
      </trkpt>
      <trkpt lat="59.3165" lon="18.072147">
        <ele>44</ele>
        <time>2020-01-30T08:07:32Z</time>
      </trkpt>
      <trkpt lat="59.316468" lon="18.072157">
        <ele>45</ele>
        <time>2020-01-30T08:07:33Z</time>
      </trkpt>
      <trkpt lat="59.316431" lon="18.072169">
        <ele>45</ele>
        <time>2020-01-30T08:07:34Z</time>
      </trkpt>
      <trkpt lat="59.316389" lon="18.072182">
        <ele>45</ele>
        <time>2020-01-30T08:07:35Z</time>
      </trkpt>
      <trkpt lat="59.316349" lon="18.072206">
        <ele>45</ele>
        <time>2020-01-30T08:07:36Z</time>
      </trkpt>
      <trkpt lat="59.316306" lon="18.072233">
        <ele>45</ele>
        <time>2020-01-30T08:07:37Z</time>
      </trkpt>
      <trkpt lat="59.316224" lon="18.072289">
        <ele>45</ele>
        <time>2020-01-30T08:07:39Z</time>
      </trkpt>
      <trkpt lat="59.316182" lon="18.072318">
        <ele>45</ele>
        <time>2020-01-30T08:07:40Z</time>
      </trkpt>
      <trkpt lat="59.316142" lon="18.072339">
        <ele>45</ele>
        <time>2020-01-30T08:07:41Z</time>
      </trkpt>
      <trkpt lat="59.316105" lon="18.072358">
        <ele>45</ele>
        <time>2020-01-30T08:07:42Z</time>
      </trkpt>
      <trkpt lat="59.316004" lon="18.072419">
        <ele>43</ele>
        <time>2020-01-30T08:07:45Z</time>
      </trkpt>
      <trkpt lat="59.315956" lon="18.072433">
        <ele>42</ele>
        <time>2020-01-30T08:07:46Z</time>
      </trkpt>
      <trkpt lat="59.315921" lon="18.072438">
        <ele>42</ele>
        <time>2020-01-30T08:07:47Z</time>
      </trkpt>
      <trkpt lat="59.31589" lon="18.072451">
        <ele>42</ele>
        <time>2020-01-30T08:07:48Z</time>
      </trkpt>
      <trkpt lat="59.315865" lon="18.072454">
        <ele>41</ele>
        <time>2020-01-30T08:07:49Z</time>
      </trkpt>
      <trkpt lat="59.315843" lon="18.072453">
        <ele>41</ele>
        <time>2020-01-30T08:07:50Z</time>
      </trkpt>
      <trkpt lat="59.315815" lon="18.072474">
        <ele>41</ele>
        <time>2020-01-30T08:07:52Z</time>
      </trkpt>
      <trkpt lat="59.315801" lon="18.072499">
        <ele>41</ele>
        <time>2020-01-30T08:07:55Z</time>
      </trkpt>
      <trkpt lat="59.31581" lon="18.072523">
        <ele>42</ele>
        <time>2020-01-30T08:08:05Z</time>
      </trkpt>
      <trkpt lat="59.315712" lon="18.072565">
        <ele>40</ele>
        <time>2020-01-30T08:08:39Z</time>
      </trkpt>
      <trkpt lat="59.315668" lon="18.072588">
        <ele>40</ele>
        <time>2020-01-30T08:08:40Z</time>
      </trkpt>
      <trkpt lat="59.315624" lon="18.072614">
        <ele>40</ele>
        <time>2020-01-30T08:08:41Z</time>
      </trkpt>
      <trkpt lat="59.315591" lon="18.072638">
        <ele>39</ele>
        <time>2020-01-30T08:08:42Z</time>
      </trkpt>
      <trkpt lat="59.315546" lon="18.072656">
        <ele>39</ele>
        <time>2020-01-30T08:08:43Z</time>
      </trkpt>
      <trkpt lat="59.315506" lon="18.072677">
        <ele>39</ele>
        <time>2020-01-30T08:08:44Z</time>
      </trkpt>
      <trkpt lat="59.315465" lon="18.072694">
        <ele>38</ele>
        <time>2020-01-30T08:08:45Z</time>
      </trkpt>
      <trkpt lat="59.315423" lon="18.072707">
        <ele>38</ele>
        <time>2020-01-30T08:08:46Z</time>
      </trkpt>
      <trkpt lat="59.315399" lon="18.072713">
        <ele>38</ele>
        <time>2020-01-30T08:08:47Z</time>
      </trkpt>
      <trkpt lat="59.315375" lon="18.072722">
        <ele>37</ele>
        <time>2020-01-30T08:08:48Z</time>
      </trkpt>
      <trkpt lat="59.315349" lon="18.072737">
        <ele>37</ele>
        <time>2020-01-30T08:08:49Z</time>
      </trkpt>
      <trkpt lat="59.315314" lon="18.072752">
        <ele>36</ele>
        <time>2020-01-30T08:08:50Z</time>
      </trkpt>
      <trkpt lat="59.315271" lon="18.07277">
        <ele>35</ele>
        <time>2020-01-30T08:08:51Z</time>
      </trkpt>
      <trkpt lat="59.315225" lon="18.072789">
        <ele>35</ele>
        <time>2020-01-30T08:08:52Z</time>
      </trkpt>
      <trkpt lat="59.31518" lon="18.07281">
        <ele>35</ele>
        <time>2020-01-30T08:08:53Z</time>
      </trkpt>
      <trkpt lat="59.315138" lon="18.072827">
        <ele>34</ele>
        <time>2020-01-30T08:08:54Z</time>
      </trkpt>
      <trkpt lat="59.315095" lon="18.072846">
        <ele>34</ele>
        <time>2020-01-30T08:08:55Z</time>
      </trkpt>
      <trkpt lat="59.315053" lon="18.072869">
        <ele>34</ele>
        <time>2020-01-30T08:08:56Z</time>
      </trkpt>
      <trkpt lat="59.315011" lon="18.072891">
        <ele>34</ele>
        <time>2020-01-30T08:08:57Z</time>
      </trkpt>
      <trkpt lat="59.314969" lon="18.072911">
        <ele>33</ele>
        <time>2020-01-30T08:08:58Z</time>
      </trkpt>
      <trkpt lat="59.31493" lon="18.072933">
        <ele>33</ele>
        <time>2020-01-30T08:08:59Z</time>
      </trkpt>
      <trkpt lat="59.314888" lon="18.072961">
        <ele>33</ele>
        <time>2020-01-30T08:09:00Z</time>
      </trkpt>
      <trkpt lat="59.314849" lon="18.07299">
        <ele>33</ele>
        <time>2020-01-30T08:09:01Z</time>
      </trkpt>
      <trkpt lat="59.314812" lon="18.073022">
        <ele>33</ele>
        <time>2020-01-30T08:09:02Z</time>
      </trkpt>
      <trkpt lat="59.314776" lon="18.073054">
        <ele>33</ele>
        <time>2020-01-30T08:09:03Z</time>
      </trkpt>
      <trkpt lat="59.314743" lon="18.073075">
        <ele>33</ele>
        <time>2020-01-30T08:09:04Z</time>
      </trkpt>
      <trkpt lat="59.314709" lon="18.073086">
        <ele>33</ele>
        <time>2020-01-30T08:09:05Z</time>
      </trkpt>
      <trkpt lat="59.314674" lon="18.073096">
        <ele>33</ele>
        <time>2020-01-30T08:09:06Z</time>
      </trkpt>
      <trkpt lat="59.314639" lon="18.073106">
        <ele>33</ele>
        <time>2020-01-30T08:09:07Z</time>
      </trkpt>
      <trkpt lat="59.314604" lon="18.073118">
        <ele>33</ele>
        <time>2020-01-30T08:09:08Z</time>
      </trkpt>
      <trkpt lat="59.314571" lon="18.07313">
        <ele>33</ele>
        <time>2020-01-30T08:09:09Z</time>
      </trkpt>
      <trkpt lat="59.31454" lon="18.073144">
        <ele>33</ele>
        <time>2020-01-30T08:09:10Z</time>
      </trkpt>
      <trkpt lat="59.314512" lon="18.073156">
        <ele>33</ele>
        <time>2020-01-30T08:09:11Z</time>
      </trkpt>
      <trkpt lat="59.314487" lon="18.073168">
        <ele>34</ele>
        <time>2020-01-30T08:09:12Z</time>
      </trkpt>
      <trkpt lat="59.314464" lon="18.073178">
        <ele>34</ele>
        <time>2020-01-30T08:09:13Z</time>
      </trkpt>
      <trkpt lat="59.31444" lon="18.073192">
        <ele>34</ele>
        <time>2020-01-30T08:09:15Z</time>
      </trkpt>
      <trkpt lat="59.314449" lon="18.073192">
        <ele>0</ele>
        <time>2020-01-30T08:09:20Z</time>
      </trkpt>
      <trkpt lat="59.314384" lon="18.073237">
        <ele>37</ele>
        <time>2020-01-30T08:10:00Z</time>
      </trkpt>
      <trkpt lat="59.314356" lon="18.073244">
        <ele>37</ele>
        <time>2020-01-30T08:10:01Z</time>
      </trkpt>
      <trkpt lat="59.314317" lon="18.073252">
        <ele>37</ele>
        <time>2020-01-30T08:10:02Z</time>
      </trkpt>
      <trkpt lat="59.314276" lon="18.073275">
        <ele>37</ele>
        <time>2020-01-30T08:10:03Z</time>
      </trkpt>
      <trkpt lat="59.31423" lon="18.073306">
        <ele>38</ele>
        <time>2020-01-30T08:10:04Z</time>
      </trkpt>
      <trkpt lat="59.314177" lon="18.073337">
        <ele>38</ele>
        <time>2020-01-30T08:10:05Z</time>
      </trkpt>
      <trkpt lat="59.314126" lon="18.073371">
        <ele>38</ele>
        <time>2020-01-30T08:10:06Z</time>
      </trkpt>
      <trkpt lat="59.314077" lon="18.073405">
        <ele>39</ele>
        <time>2020-01-30T08:10:07Z</time>
      </trkpt>
      <trkpt lat="59.314033" lon="18.073437">
        <ele>39</ele>
        <time>2020-01-30T08:10:08Z</time>
      </trkpt>
      <trkpt lat="59.313989" lon="18.07347">
        <ele>39</ele>
        <time>2020-01-30T08:10:09Z</time>
      </trkpt>
      <trkpt lat="59.313939" lon="18.073508">
        <ele>39</ele>
        <time>2020-01-30T08:10:10Z</time>
      </trkpt>
      <trkpt lat="59.313896" lon="18.073537">
        <ele>40</ele>
        <time>2020-01-30T08:10:11Z</time>
      </trkpt>
      <trkpt lat="59.313858" lon="18.073566">
        <ele>40</ele>
        <time>2020-01-30T08:10:12Z</time>
      </trkpt>
      <trkpt lat="59.313822" lon="18.073588">
        <ele>40</ele>
        <time>2020-01-30T08:10:13Z</time>
      </trkpt>
      <trkpt lat="59.313784" lon="18.073612">
        <ele>41</ele>
        <time>2020-01-30T08:10:14Z</time>
      </trkpt>
      <trkpt lat="59.313748" lon="18.073635">
        <ele>41</ele>
        <time>2020-01-30T08:10:15Z</time>
      </trkpt>
      <trkpt lat="59.313713" lon="18.073655">
        <ele>41</ele>
        <time>2020-01-30T08:10:16Z</time>
      </trkpt>
      <trkpt lat="59.313678" lon="18.073677">
        <ele>41</ele>
        <time>2020-01-30T08:10:17Z</time>
      </trkpt>
      <trkpt lat="59.313644" lon="18.073701">
        <ele>42</ele>
        <time>2020-01-30T08:10:18Z</time>
      </trkpt>
      <trkpt lat="59.313609" lon="18.073722">
        <ele>42</ele>
        <time>2020-01-30T08:10:19Z</time>
      </trkpt>
      <trkpt lat="59.313577" lon="18.073739">
        <ele>42</ele>
        <time>2020-01-30T08:10:20Z</time>
      </trkpt>
      <trkpt lat="59.313547" lon="18.073755">
        <ele>42</ele>
        <time>2020-01-30T08:10:21Z</time>
      </trkpt>
      <trkpt lat="59.313518" lon="18.07377">
        <ele>42</ele>
        <time>2020-01-30T08:10:22Z</time>
      </trkpt>
      <trkpt lat="59.313489" lon="18.073788">
        <ele>43</ele>
        <time>2020-01-30T08:10:23Z</time>
      </trkpt>
      <trkpt lat="59.313463" lon="18.073815">
        <ele>43</ele>
        <time>2020-01-30T08:10:24Z</time>
      </trkpt>
      <trkpt lat="59.313438" lon="18.073839">
        <ele>43</ele>
        <time>2020-01-30T08:10:25Z</time>
      </trkpt>
      <trkpt lat="59.313416" lon="18.073855">
        <ele>43</ele>
        <time>2020-01-30T08:10:26Z</time>
      </trkpt>
      <trkpt lat="59.313395" lon="18.073872">
        <ele>44</ele>
        <time>2020-01-30T08:10:27Z</time>
      </trkpt>
      <trkpt lat="59.313377" lon="18.073886">
        <ele>44</ele>
        <time>2020-01-30T08:10:28Z</time>
      </trkpt>
      <trkpt lat="59.31336" lon="18.073907">
        <ele>44</ele>
        <time>2020-01-30T08:10:29Z</time>
      </trkpt>
      <trkpt lat="59.313344" lon="18.073926">
        <ele>44</ele>
        <time>2020-01-30T08:10:30Z</time>
      </trkpt>
      <trkpt lat="59.313318" lon="18.073967">
        <ele>45</ele>
        <time>2020-01-30T08:10:32Z</time>
      </trkpt>
      <trkpt lat="59.313305" lon="18.07399">
        <ele>46</ele>
        <time>2020-01-30T08:10:33Z</time>
      </trkpt>
      <trkpt lat="59.313291" lon="18.07402">
        <ele>46</ele>
        <time>2020-01-30T08:10:35Z</time>
      </trkpt>
      <trkpt lat="59.313274" lon="18.074044">
        <ele>47</ele>
        <time>2020-01-30T08:10:37Z</time>
      </trkpt>
      <trkpt lat="59.313256" lon="18.074073">
        <ele>48</ele>
        <time>2020-01-30T08:10:40Z</time>
      </trkpt>
      <trkpt lat="59.313234" lon="18.074091">
        <ele>48</ele>
        <time>2020-01-30T08:10:43Z</time>
      </trkpt>
      <trkpt lat="59.313216" lon="18.074092">
        <ele>47</ele>
        <time>2020-01-30T08:10:45Z</time>
      </trkpt>
      <trkpt lat="59.313194" lon="18.074081">
        <ele>46</ele>
        <time>2020-01-30T08:10:46Z</time>
      </trkpt>
      <trkpt lat="59.313175" lon="18.074065">
        <ele>46</ele>
        <time>2020-01-30T08:10:47Z</time>
      </trkpt>
      <trkpt lat="59.313147" lon="18.074041">
        <ele>45</ele>
        <time>2020-01-30T08:10:49Z</time>
      </trkpt>
      <trkpt lat="59.313117" lon="18.074028">
        <ele>44</ele>
        <time>2020-01-30T08:10:51Z</time>
      </trkpt>
      <trkpt lat="59.313096" lon="18.07402">
        <ele>44</ele>
        <time>2020-01-30T08:10:52Z</time>
      </trkpt>
      <trkpt lat="59.313068" lon="18.074005">
        <ele>43</ele>
        <time>2020-01-30T08:10:53Z</time>
      </trkpt>
      <trkpt lat="59.313039" lon="18.073986">
        <ele>43</ele>
        <time>2020-01-30T08:10:54Z</time>
      </trkpt>
      <trkpt lat="59.31301" lon="18.073971">
        <ele>43</ele>
        <time>2020-01-30T08:10:55Z</time>
      </trkpt>
      <trkpt lat="59.312978" lon="18.07396">
        <ele>44</ele>
        <time>2020-01-30T08:10:56Z</time>
      </trkpt>
      <trkpt lat="59.312934" lon="18.073962">
        <ele>43</ele>
        <time>2020-01-30T08:10:57Z</time>
      </trkpt>
      <trkpt lat="59.312887" lon="18.073975">
        <ele>43</ele>
        <time>2020-01-30T08:10:58Z</time>
      </trkpt>
      <trkpt lat="59.312838" lon="18.073991">
        <ele>44</ele>
        <time>2020-01-30T08:10:59Z</time>
      </trkpt>
      <trkpt lat="59.312793" lon="18.074011">
        <ele>43</ele>
        <time>2020-01-30T08:11:00Z</time>
      </trkpt>
      <trkpt lat="59.312742" lon="18.074032">
        <ele>43</ele>
        <time>2020-01-30T08:11:01Z</time>
      </trkpt>
      <trkpt lat="59.312684" lon="18.074057">
        <ele>41</ele>
        <time>2020-01-30T08:11:02Z</time>
      </trkpt>
      <trkpt lat="59.312601" lon="18.074096">
        <ele>41</ele>
        <time>2020-01-30T08:11:03Z</time>
      </trkpt>
      <trkpt lat="59.312541" lon="18.074125">
        <ele>40</ele>
        <time>2020-01-30T08:11:04Z</time>
      </trkpt>
      <trkpt lat="59.312485" lon="18.074153">
        <ele>40</ele>
        <time>2020-01-30T08:11:05Z</time>
      </trkpt>
      <trkpt lat="59.312429" lon="18.07418">
        <ele>40</ele>
        <time>2020-01-30T08:11:06Z</time>
      </trkpt>
      <trkpt lat="59.312376" lon="18.074204">
        <ele>40</ele>
        <time>2020-01-30T08:11:07Z</time>
      </trkpt>
      <trkpt lat="59.312316" lon="18.074222">
        <ele>40</ele>
        <time>2020-01-30T08:11:08Z</time>
      </trkpt>
      <trkpt lat="59.312259" lon="18.074245">
        <ele>40</ele>
        <time>2020-01-30T08:11:09Z</time>
      </trkpt>
      <trkpt lat="59.312203" lon="18.074272">
        <ele>41</ele>
        <time>2020-01-30T08:11:10Z</time>
      </trkpt>
      <trkpt lat="59.31215" lon="18.074299">
        <ele>41</ele>
        <time>2020-01-30T08:11:11Z</time>
      </trkpt>
      <trkpt lat="59.312094" lon="18.074327">
        <ele>40</ele>
        <time>2020-01-30T08:11:12Z</time>
      </trkpt>
      <trkpt lat="59.312037" lon="18.074351">
        <ele>40</ele>
        <time>2020-01-30T08:11:13Z</time>
      </trkpt>
      <trkpt lat="59.311983" lon="18.074375">
        <ele>40</ele>
        <time>2020-01-30T08:11:14Z</time>
      </trkpt>
      <trkpt lat="59.311929" lon="18.074398">
        <ele>40</ele>
        <time>2020-01-30T08:11:15Z</time>
      </trkpt>
      <trkpt lat="59.311875" lon="18.07442">
        <ele>39</ele>
        <time>2020-01-30T08:11:16Z</time>
      </trkpt>
      <trkpt lat="59.31181" lon="18.074432">
        <ele>38</ele>
        <time>2020-01-30T08:11:17Z</time>
      </trkpt>
      <trkpt lat="59.311759" lon="18.074454">
        <ele>38</ele>
        <time>2020-01-30T08:11:18Z</time>
      </trkpt>
      <trkpt lat="59.311707" lon="18.074471">
        <ele>38</ele>
        <time>2020-01-30T08:11:19Z</time>
      </trkpt>
      <trkpt lat="59.311654" lon="18.074488">
        <ele>38</ele>
        <time>2020-01-30T08:11:20Z</time>
      </trkpt>
      <trkpt lat="59.311599" lon="18.074514">
        <ele>38</ele>
        <time>2020-01-30T08:11:21Z</time>
      </trkpt>
      <trkpt lat="59.311549" lon="18.074547">
        <ele>38</ele>
        <time>2020-01-30T08:11:22Z</time>
      </trkpt>
      <trkpt lat="59.311498" lon="18.07458">
        <ele>38</ele>
        <time>2020-01-30T08:11:23Z</time>
      </trkpt>
      <trkpt lat="59.311447" lon="18.074609">
        <ele>38</ele>
        <time>2020-01-30T08:11:24Z</time>
      </trkpt>
      <trkpt lat="59.311399" lon="18.074636">
        <ele>38</ele>
        <time>2020-01-30T08:11:25Z</time>
      </trkpt>
      <trkpt lat="59.311349" lon="18.07466">
        <ele>38</ele>
        <time>2020-01-30T08:11:26Z</time>
      </trkpt>
      <trkpt lat="59.311301" lon="18.074682">
        <ele>38</ele>
        <time>2020-01-30T08:11:27Z</time>
      </trkpt>
      <trkpt lat="59.311254" lon="18.074705">
        <ele>39</ele>
        <time>2020-01-30T08:11:28Z</time>
      </trkpt>
      <trkpt lat="59.311209" lon="18.074725">
        <ele>39</ele>
        <time>2020-01-30T08:11:29Z</time>
      </trkpt>
      <trkpt lat="59.311164" lon="18.074746">
        <ele>39</ele>
        <time>2020-01-30T08:11:30Z</time>
      </trkpt>
      <trkpt lat="59.311119" lon="18.074766">
        <ele>39</ele>
        <time>2020-01-30T08:11:31Z</time>
      </trkpt>
      <trkpt lat="59.311077" lon="18.074786">
        <ele>39</ele>
        <time>2020-01-30T08:11:32Z</time>
      </trkpt>
      <trkpt lat="59.311038" lon="18.074807">
        <ele>39</ele>
        <time>2020-01-30T08:11:33Z</time>
      </trkpt>
      <trkpt lat="59.310999" lon="18.074827">
        <ele>39</ele>
        <time>2020-01-30T08:11:34Z</time>
      </trkpt>
      <trkpt lat="59.31096" lon="18.074846">
        <ele>40</ele>
        <time>2020-01-30T08:11:35Z</time>
      </trkpt>
      <trkpt lat="59.310927" lon="18.074866">
        <ele>40</ele>
        <time>2020-01-30T08:11:36Z</time>
      </trkpt>
      <trkpt lat="59.310898" lon="18.074883">
        <ele>40</ele>
        <time>2020-01-30T08:11:37Z</time>
      </trkpt>
      <trkpt lat="59.310872" lon="18.074898">
        <ele>40</ele>
        <time>2020-01-30T08:11:38Z</time>
      </trkpt>
      <trkpt lat="59.310848" lon="18.074911">
        <ele>40</ele>
        <time>2020-01-30T08:11:39Z</time>
      </trkpt>
      <trkpt lat="59.310826" lon="18.074922">
        <ele>40</ele>
        <time>2020-01-30T08:11:40Z</time>
      </trkpt>
      <trkpt lat="59.310808" lon="18.07493">
        <ele>40</ele>
        <time>2020-01-30T08:11:41Z</time>
      </trkpt>
      <trkpt lat="59.310784" lon="18.074939">
        <ele>40</ele>
        <time>2020-01-30T08:11:43Z</time>
      </trkpt>
      <trkpt lat="59.310756" lon="18.074957">
        <ele>41</ele>
        <time>2020-01-30T08:11:45Z</time>
      </trkpt>
      <trkpt lat="59.310723" lon="18.074978">
        <ele>41</ele>
        <time>2020-01-30T08:11:47Z</time>
      </trkpt>
      <trkpt lat="59.310695" lon="18.074985">
        <ele>41</ele>
        <time>2020-01-30T08:11:48Z</time>
      </trkpt>
      <trkpt lat="59.31066" lon="18.075">
        <ele>42</ele>
        <time>2020-01-30T08:11:49Z</time>
      </trkpt>
      <trkpt lat="59.310625" lon="18.075023">
        <ele>42</ele>
        <time>2020-01-30T08:11:50Z</time>
      </trkpt>
      <trkpt lat="59.310583" lon="18.075049">
        <ele>43</ele>
        <time>2020-01-30T08:11:51Z</time>
      </trkpt>
      <trkpt lat="59.310539" lon="18.075074">
        <ele>43</ele>
        <time>2020-01-30T08:11:52Z</time>
      </trkpt>
      <trkpt lat="59.310495" lon="18.075098">
        <ele>43</ele>
        <time>2020-01-30T08:11:53Z</time>
      </trkpt>
      <trkpt lat="59.31044" lon="18.075127">
        <ele>43</ele>
        <time>2020-01-30T08:11:54Z</time>
      </trkpt>
      <trkpt lat="59.310381" lon="18.075156">
        <ele>44</ele>
        <time>2020-01-30T08:11:55Z</time>
      </trkpt>
      <trkpt lat="59.310327" lon="18.075181">
        <ele>44</ele>
        <time>2020-01-30T08:11:56Z</time>
      </trkpt>
      <trkpt lat="59.310277" lon="18.075208">
        <ele>44</ele>
        <time>2020-01-30T08:11:57Z</time>
      </trkpt>
      <trkpt lat="59.310222" lon="18.075239">
        <ele>44</ele>
        <time>2020-01-30T08:11:58Z</time>
      </trkpt>
      <trkpt lat="59.310168" lon="18.075269">
        <ele>44</ele>
        <time>2020-01-30T08:11:59Z</time>
      </trkpt>
      <trkpt lat="59.310114" lon="18.075292">
        <ele>44</ele>
        <time>2020-01-30T08:12:00Z</time>
      </trkpt>
      <trkpt lat="59.310061" lon="18.07532">
        <ele>45</ele>
        <time>2020-01-30T08:12:01Z</time>
      </trkpt>
      <trkpt lat="59.310011" lon="18.075353">
        <ele>45</ele>
        <time>2020-01-30T08:12:02Z</time>
      </trkpt>
      <trkpt lat="59.30996" lon="18.075384">
        <ele>45</ele>
        <time>2020-01-30T08:12:03Z</time>
      </trkpt>
      <trkpt lat="59.309904" lon="18.075418">
        <ele>45</ele>
        <time>2020-01-30T08:12:04Z</time>
      </trkpt>
      <trkpt lat="59.309846" lon="18.07545">
        <ele>45</ele>
        <time>2020-01-30T08:12:05Z</time>
      </trkpt>
      <trkpt lat="59.309795" lon="18.075476">
        <ele>45</ele>
        <time>2020-01-30T08:12:06Z</time>
      </trkpt>
      <trkpt lat="59.309746" lon="18.075503">
        <ele>45</ele>
        <time>2020-01-30T08:12:07Z</time>
      </trkpt>
      <trkpt lat="59.309701" lon="18.075527">
        <ele>45</ele>
        <time>2020-01-30T08:12:08Z</time>
      </trkpt>
      <trkpt lat="59.309651" lon="18.075554">
        <ele>45</ele>
        <time>2020-01-30T08:12:09Z</time>
      </trkpt>
      <trkpt lat="59.309598" lon="18.075585">
        <ele>45</ele>
        <time>2020-01-30T08:12:10Z</time>
      </trkpt>
      <trkpt lat="59.309546" lon="18.07561">
        <ele>45</ele>
        <time>2020-01-30T08:12:11Z</time>
      </trkpt>
      <trkpt lat="59.309493" lon="18.075635">
        <ele>45</ele>
        <time>2020-01-30T08:12:12Z</time>
      </trkpt>
      <trkpt lat="59.309437" lon="18.075654">
        <ele>45</ele>
        <time>2020-01-30T08:12:13Z</time>
      </trkpt>
      <trkpt lat="59.309384" lon="18.075678">
        <ele>46</ele>
        <time>2020-01-30T08:12:14Z</time>
      </trkpt>
      <trkpt lat="59.309337" lon="18.075706">
        <ele>46</ele>
        <time>2020-01-30T08:12:15Z</time>
      </trkpt>
      <trkpt lat="59.30929" lon="18.075737">
        <ele>46</ele>
        <time>2020-01-30T08:12:16Z</time>
      </trkpt>
      <trkpt lat="59.309242" lon="18.075765">
        <ele>47</ele>
        <time>2020-01-30T08:12:17Z</time>
      </trkpt>
      <trkpt lat="59.309196" lon="18.075795">
        <ele>47</ele>
        <time>2020-01-30T08:12:18Z</time>
      </trkpt>
      <trkpt lat="59.309146" lon="18.07582">
        <ele>47</ele>
        <time>2020-01-30T08:12:19Z</time>
      </trkpt>
      <trkpt lat="59.309097" lon="18.075846">
        <ele>47</ele>
        <time>2020-01-30T08:12:20Z</time>
      </trkpt>
      <trkpt lat="59.309048" lon="18.075876">
        <ele>47</ele>
        <time>2020-01-30T08:12:21Z</time>
      </trkpt>
      <trkpt lat="59.308998" lon="18.075905">
        <ele>47</ele>
        <time>2020-01-30T08:12:22Z</time>
      </trkpt>
      <trkpt lat="59.308952" lon="18.075937">
        <ele>47</ele>
        <time>2020-01-30T08:12:23Z</time>
      </trkpt>
      <trkpt lat="59.3089" lon="18.075969">
        <ele>47</ele>
        <time>2020-01-30T08:12:24Z</time>
      </trkpt>
      <trkpt lat="59.30885" lon="18.075995">
        <ele>47</ele>
        <time>2020-01-30T08:12:25Z</time>
      </trkpt>
      <trkpt lat="59.308798" lon="18.076013">
        <ele>47</ele>
        <time>2020-01-30T08:12:26Z</time>
      </trkpt>
      <trkpt lat="59.308746" lon="18.076029">
        <ele>47</ele>
        <time>2020-01-30T08:12:27Z</time>
      </trkpt>
      <trkpt lat="59.308696" lon="18.076047">
        <ele>48</ele>
        <time>2020-01-30T08:12:28Z</time>
      </trkpt>
      <trkpt lat="59.308648" lon="18.076068">
        <ele>48</ele>
        <time>2020-01-30T08:12:29Z</time>
      </trkpt>
      <trkpt lat="59.308598" lon="18.076092">
        <ele>48</ele>
        <time>2020-01-30T08:12:30Z</time>
      </trkpt>
      <trkpt lat="59.30855" lon="18.076114">
        <ele>48</ele>
        <time>2020-01-30T08:12:31Z</time>
      </trkpt>
      <trkpt lat="59.30851" lon="18.076141">
        <ele>48</ele>
        <time>2020-01-30T08:12:32Z</time>
      </trkpt>
      <trkpt lat="59.30847" lon="18.076168">
        <ele>48</ele>
        <time>2020-01-30T08:12:33Z</time>
      </trkpt>
      <trkpt lat="59.30842" lon="18.076197">
        <ele>46</ele>
        <time>2020-01-30T08:12:34Z</time>
      </trkpt>
      <trkpt lat="59.308364" lon="18.076227">
        <ele>44</ele>
        <time>2020-01-30T08:12:35Z</time>
      </trkpt>
      <trkpt lat="59.30829" lon="18.076263">
        <ele>42</ele>
        <time>2020-01-30T08:12:36Z</time>
      </trkpt>
      <trkpt lat="59.308229" lon="18.076296">
        <ele>41</ele>
        <time>2020-01-30T08:12:37Z</time>
      </trkpt>
      <trkpt lat="59.308174" lon="18.076317">
        <ele>40</ele>
        <time>2020-01-30T08:12:38Z</time>
      </trkpt>
      <trkpt lat="59.308128" lon="18.076332">
        <ele>39</ele>
        <time>2020-01-30T08:12:39Z</time>
      </trkpt>
      <trkpt lat="59.308102" lon="18.07634">
        <ele>39</ele>
        <time>2020-01-30T08:12:40Z</time>
      </trkpt>
      <trkpt lat="59.308082" lon="18.076344">
        <ele>39</ele>
        <time>2020-01-30T08:12:41Z</time>
      </trkpt>
      <trkpt lat="59.308043" lon="18.076347">
        <ele>39</ele>
        <time>2020-01-30T08:12:43Z</time>
      </trkpt>
      <trkpt lat="59.308046" lon="18.076335">
        <ele>0</ele>
        <time>2020-01-30T08:12:48Z</time>
      </trkpt>
      <trkpt lat="59.308" lon="18.076332">
        <ele>36</ele>
        <time>2020-01-30T08:13:16Z</time>
      </trkpt>
      <trkpt lat="59.307972" lon="18.076346">
        <ele>35</ele>
        <time>2020-01-30T08:13:17Z</time>
      </trkpt>
      <trkpt lat="59.307954" lon="18.076353">
        <ele>35</ele>
        <time>2020-01-30T08:13:18Z</time>
      </trkpt>
      <trkpt lat="59.307929" lon="18.076342">
        <ele>34</ele>
        <time>2020-01-30T08:13:20Z</time>
      </trkpt>
      <trkpt lat="59.30792" lon="18.076309">
        <ele>34</ele>
        <time>2020-01-30T08:13:21Z</time>
      </trkpt>
      <trkpt lat="59.307904" lon="18.076283">
        <ele>35</ele>
        <time>2020-01-30T08:13:22Z</time>
      </trkpt>
      <trkpt lat="59.307885" lon="18.076313">
        <ele>35</ele>
        <time>2020-01-30T08:13:24Z</time>
      </trkpt>
      <trkpt lat="59.307851" lon="18.076358">
        <ele>35</ele>
        <time>2020-01-30T08:13:26Z</time>
      </trkpt>
      <trkpt lat="59.307824" lon="18.076385">
        <ele>34</ele>
        <time>2020-01-30T08:13:27Z</time>
      </trkpt>
      <trkpt lat="59.307779" lon="18.076418">
        <ele>35</ele>
        <time>2020-01-30T08:13:28Z</time>
      </trkpt>
      <trkpt lat="59.307716" lon="18.076466">
        <ele>35</ele>
        <time>2020-01-30T08:13:29Z</time>
      </trkpt>
      <trkpt lat="59.307667" lon="18.076499">
        <ele>35</ele>
        <time>2020-01-30T08:13:30Z</time>
      </trkpt>
      <trkpt lat="59.307614" lon="18.076528">
        <ele>35</ele>
        <time>2020-01-30T08:13:31Z</time>
      </trkpt>
      <trkpt lat="59.307553" lon="18.07656">
        <ele>36</ele>
        <time>2020-01-30T08:13:32Z</time>
      </trkpt>
      <trkpt lat="59.307496" lon="18.076591">
        <ele>36</ele>
        <time>2020-01-30T08:13:33Z</time>
      </trkpt>
      <trkpt lat="59.30744" lon="18.076622">
        <ele>36</ele>
        <time>2020-01-30T08:13:34Z</time>
      </trkpt>
      <trkpt lat="59.307391" lon="18.076656">
        <ele>36</ele>
        <time>2020-01-30T08:13:35Z</time>
      </trkpt>
      <trkpt lat="59.307341" lon="18.076702">
        <ele>37</ele>
        <time>2020-01-30T08:13:36Z</time>
      </trkpt>
      <trkpt lat="59.307291" lon="18.076755">
        <ele>37</ele>
        <time>2020-01-30T08:13:37Z</time>
      </trkpt>
      <trkpt lat="59.307193" lon="18.076844">
        <ele>37</ele>
        <time>2020-01-30T08:13:39Z</time>
      </trkpt>
      <trkpt lat="59.307138" lon="18.076876">
        <ele>37</ele>
        <time>2020-01-30T08:13:40Z</time>
      </trkpt>
      <trkpt lat="59.307083" lon="18.076906">
        <ele>37</ele>
        <time>2020-01-30T08:13:41Z</time>
      </trkpt>
      <trkpt lat="59.307036" lon="18.07693">
        <ele>37</ele>
        <time>2020-01-30T08:13:42Z</time>
      </trkpt>
      <trkpt lat="59.306982" lon="18.076953">
        <ele>38</ele>
        <time>2020-01-30T08:13:43Z</time>
      </trkpt>
      <trkpt lat="59.306927" lon="18.07698">
        <ele>38</ele>
        <time>2020-01-30T08:13:44Z</time>
      </trkpt>
      <trkpt lat="59.306874" lon="18.076999">
        <ele>37</ele>
        <time>2020-01-30T08:13:45Z</time>
      </trkpt>
      <trkpt lat="59.30681" lon="18.077014">
        <ele>36</ele>
        <time>2020-01-30T08:13:46Z</time>
      </trkpt>
      <trkpt lat="59.306739" lon="18.077015">
        <ele>35</ele>
        <time>2020-01-30T08:13:47Z</time>
      </trkpt>
      <trkpt lat="59.306673" lon="18.077026">
        <ele>34</ele>
        <time>2020-01-30T08:13:48Z</time>
      </trkpt>
      <trkpt lat="59.306609" lon="18.077042">
        <ele>34</ele>
        <time>2020-01-30T08:13:49Z</time>
      </trkpt>
      <trkpt lat="59.306552" lon="18.077069">
        <ele>33</ele>
        <time>2020-01-30T08:13:50Z</time>
      </trkpt>
      <trkpt lat="59.306495" lon="18.077102">
        <ele>32</ele>
        <time>2020-01-30T08:13:51Z</time>
      </trkpt>
      <trkpt lat="59.306441" lon="18.077131">
        <ele>32</ele>
        <time>2020-01-30T08:13:52Z</time>
      </trkpt>
      <trkpt lat="59.306386" lon="18.077151">
        <ele>32</ele>
        <time>2020-01-30T08:13:53Z</time>
      </trkpt>
      <trkpt lat="59.306334" lon="18.077172">
        <ele>33</ele>
        <time>2020-01-30T08:13:54Z</time>
      </trkpt>
      <trkpt lat="59.30628" lon="18.077188">
        <ele>33</ele>
        <time>2020-01-30T08:13:55Z</time>
      </trkpt>
      <trkpt lat="59.306229" lon="18.077209">
        <ele>33</ele>
        <time>2020-01-30T08:13:56Z</time>
      </trkpt>
      <trkpt lat="59.30618" lon="18.077235">
        <ele>33</ele>
        <time>2020-01-30T08:13:57Z</time>
      </trkpt>
      <trkpt lat="59.30613" lon="18.077262">
        <ele>33</ele>
        <time>2020-01-30T08:13:58Z</time>
      </trkpt>
      <trkpt lat="59.306081" lon="18.077288">
        <ele>33</ele>
        <time>2020-01-30T08:13:59Z</time>
      </trkpt>
      <trkpt lat="59.306034" lon="18.077316">
        <ele>33</ele>
        <time>2020-01-30T08:14:00Z</time>
      </trkpt>
      <trkpt lat="59.305988" lon="18.077348">
        <ele>33</ele>
        <time>2020-01-30T08:14:01Z</time>
      </trkpt>
      <trkpt lat="59.305943" lon="18.07738">
        <ele>33</ele>
        <time>2020-01-30T08:14:02Z</time>
      </trkpt>
      <trkpt lat="59.305899" lon="18.077411">
        <ele>33</ele>
        <time>2020-01-30T08:14:03Z</time>
      </trkpt>
      <trkpt lat="59.305855" lon="18.077439">
        <ele>32</ele>
        <time>2020-01-30T08:14:04Z</time>
      </trkpt>
      <trkpt lat="59.305813" lon="18.077464">
        <ele>32</ele>
        <time>2020-01-30T08:14:05Z</time>
      </trkpt>
      <trkpt lat="59.305772" lon="18.077491">
        <ele>32</ele>
        <time>2020-01-30T08:14:06Z</time>
      </trkpt>
      <trkpt lat="59.305731" lon="18.077522">
        <ele>32</ele>
        <time>2020-01-30T08:14:07Z</time>
      </trkpt>
      <trkpt lat="59.30569" lon="18.077551">
        <ele>32</ele>
        <time>2020-01-30T08:14:08Z</time>
      </trkpt>
      <trkpt lat="59.305649" lon="18.077581">
        <ele>32</ele>
        <time>2020-01-30T08:14:09Z</time>
      </trkpt>
      <trkpt lat="59.30561" lon="18.07761">
        <ele>32</ele>
        <time>2020-01-30T08:14:10Z</time>
      </trkpt>
      <trkpt lat="59.305569" lon="18.077635">
        <ele>31</ele>
        <time>2020-01-30T08:14:11Z</time>
      </trkpt>
      <trkpt lat="59.305529" lon="18.077661">
        <ele>31</ele>
        <time>2020-01-30T08:14:12Z</time>
      </trkpt>
      <trkpt lat="59.305489" lon="18.077686">
        <ele>31</ele>
        <time>2020-01-30T08:14:13Z</time>
      </trkpt>
      <trkpt lat="59.30545" lon="18.077712">
        <ele>31</ele>
        <time>2020-01-30T08:14:14Z</time>
      </trkpt>
      <trkpt lat="59.305409" lon="18.077739">
        <ele>31</ele>
        <time>2020-01-30T08:14:15Z</time>
      </trkpt>
      <trkpt lat="59.305369" lon="18.077764">
        <ele>31</ele>
        <time>2020-01-30T08:14:16Z</time>
      </trkpt>
      <trkpt lat="59.305328" lon="18.077789">
        <ele>30</ele>
        <time>2020-01-30T08:14:17Z</time>
      </trkpt>
      <trkpt lat="59.30529" lon="18.077815">
        <ele>30</ele>
        <time>2020-01-30T08:14:18Z</time>
      </trkpt>
      <trkpt lat="59.305251" lon="18.077842">
        <ele>30</ele>
        <time>2020-01-30T08:14:19Z</time>
      </trkpt>
      <trkpt lat="59.305211" lon="18.077867">
        <ele>30</ele>
        <time>2020-01-30T08:14:20Z</time>
      </trkpt>
      <trkpt lat="59.305172" lon="18.07789">
        <ele>31</ele>
        <time>2020-01-30T08:14:21Z</time>
      </trkpt>
      <trkpt lat="59.30513" lon="18.077918">
        <ele>31</ele>
        <time>2020-01-30T08:14:22Z</time>
      </trkpt>
      <trkpt lat="59.305089" lon="18.077946">
        <ele>31</ele>
        <time>2020-01-30T08:14:23Z</time>
      </trkpt>
      <trkpt lat="59.30505" lon="18.077973">
        <ele>32</ele>
        <time>2020-01-30T08:14:24Z</time>
      </trkpt>
      <trkpt lat="59.305012" lon="18.078">
        <ele>32</ele>
        <time>2020-01-30T08:14:25Z</time>
      </trkpt>
      <trkpt lat="59.304974" lon="18.078026">
        <ele>32</ele>
        <time>2020-01-30T08:14:26Z</time>
      </trkpt>
      <trkpt lat="59.304936" lon="18.07805">
        <ele>32</ele>
        <time>2020-01-30T08:14:27Z</time>
      </trkpt>
      <trkpt lat="59.304898" lon="18.078073">
        <ele>32</ele>
        <time>2020-01-30T08:14:28Z</time>
      </trkpt>
      <trkpt lat="59.304861" lon="18.078097">
        <ele>32</ele>
        <time>2020-01-30T08:14:29Z</time>
      </trkpt>
      <trkpt lat="59.304825" lon="18.078122">
        <ele>32</ele>
        <time>2020-01-30T08:14:30Z</time>
      </trkpt>
      <trkpt lat="59.304787" lon="18.078148">
        <ele>32</ele>
        <time>2020-01-30T08:14:31Z</time>
      </trkpt>
      <trkpt lat="59.30475" lon="18.078174">
        <ele>32</ele>
        <time>2020-01-30T08:14:32Z</time>
      </trkpt>
      <trkpt lat="59.304712" lon="18.078199">
        <ele>32</ele>
        <time>2020-01-30T08:14:33Z</time>
      </trkpt>
      <trkpt lat="59.304675" lon="18.078223">
        <ele>33</ele>
        <time>2020-01-30T08:14:34Z</time>
      </trkpt>
      <trkpt lat="59.304638" lon="18.078245">
        <ele>33</ele>
        <time>2020-01-30T08:14:35Z</time>
      </trkpt>
      <trkpt lat="59.304601" lon="18.078267">
        <ele>33</ele>
        <time>2020-01-30T08:14:36Z</time>
      </trkpt>
      <trkpt lat="59.304565" lon="18.078288">
        <ele>33</ele>
        <time>2020-01-30T08:14:37Z</time>
      </trkpt>
      <trkpt lat="59.304528" lon="18.07831">
        <ele>33</ele>
        <time>2020-01-30T08:14:38Z</time>
      </trkpt>
      <trkpt lat="59.304492" lon="18.078333">
        <ele>33</ele>
        <time>2020-01-30T08:14:39Z</time>
      </trkpt>
      <trkpt lat="59.304457" lon="18.078355">
        <ele>33</ele>
        <time>2020-01-30T08:14:40Z</time>
      </trkpt>
      <trkpt lat="59.304421" lon="18.078375">
        <ele>33</ele>
        <time>2020-01-30T08:14:41Z</time>
      </trkpt>
      <trkpt lat="59.304385" lon="18.078396">
        <ele>33</ele>
        <time>2020-01-30T08:14:42Z</time>
      </trkpt>
      <trkpt lat="59.30435" lon="18.078418">
        <ele>33</ele>
        <time>2020-01-30T08:14:43Z</time>
      </trkpt>
      <trkpt lat="59.304314" lon="18.078439">
        <ele>33</ele>
        <time>2020-01-30T08:14:44Z</time>
      </trkpt>
      <trkpt lat="59.304279" lon="18.07846">
        <ele>33</ele>
        <time>2020-01-30T08:14:45Z</time>
      </trkpt>
      <trkpt lat="59.304244" lon="18.078483">
        <ele>33</ele>
        <time>2020-01-30T08:14:46Z</time>
      </trkpt>
      <trkpt lat="59.304209" lon="18.078506">
        <ele>33</ele>
        <time>2020-01-30T08:14:47Z</time>
      </trkpt>
      <trkpt lat="59.304175" lon="18.078527">
        <ele>33</ele>
        <time>2020-01-30T08:14:48Z</time>
      </trkpt>
      <trkpt lat="59.304141" lon="18.078548">
        <ele>33</ele>
        <time>2020-01-30T08:14:49Z</time>
      </trkpt>
      <trkpt lat="59.304108" lon="18.078568">
        <ele>34</ele>
        <time>2020-01-30T08:14:50Z</time>
      </trkpt>
      <trkpt lat="59.304076" lon="18.078587">
        <ele>34</ele>
        <time>2020-01-30T08:14:51Z</time>
      </trkpt>
      <trkpt lat="59.304044" lon="18.078608">
        <ele>34</ele>
        <time>2020-01-30T08:14:52Z</time>
      </trkpt>
      <trkpt lat="59.304012" lon="18.078629">
        <ele>34</ele>
        <time>2020-01-30T08:14:53Z</time>
      </trkpt>
      <trkpt lat="59.303981" lon="18.078651">
        <ele>34</ele>
        <time>2020-01-30T08:14:54Z</time>
      </trkpt>
      <trkpt lat="59.30395" lon="18.078671">
        <ele>34</ele>
        <time>2020-01-30T08:14:55Z</time>
      </trkpt>
      <trkpt lat="59.303919" lon="18.078691">
        <ele>34</ele>
        <time>2020-01-30T08:14:56Z</time>
      </trkpt>
      <trkpt lat="59.303888" lon="18.078711">
        <ele>34</ele>
        <time>2020-01-30T08:14:57Z</time>
      </trkpt>
      <trkpt lat="59.303856" lon="18.078729">
        <ele>34</ele>
        <time>2020-01-30T08:14:58Z</time>
      </trkpt>
      <trkpt lat="59.303825" lon="18.078746">
        <ele>34</ele>
        <time>2020-01-30T08:14:59Z</time>
      </trkpt>
      <trkpt lat="59.303794" lon="18.078765">
        <ele>34</ele>
        <time>2020-01-30T08:15:00Z</time>
      </trkpt>
      <trkpt lat="59.303764" lon="18.078786">
        <ele>34</ele>
        <time>2020-01-30T08:15:01Z</time>
      </trkpt>
      <trkpt lat="59.303733" lon="18.078807">
        <ele>35</ele>
        <time>2020-01-30T08:15:02Z</time>
      </trkpt>
      <trkpt lat="59.303702" lon="18.078827">
        <ele>35</ele>
        <time>2020-01-30T08:15:03Z</time>
      </trkpt>
      <trkpt lat="59.303671" lon="18.078847">
        <ele>35</ele>
        <time>2020-01-30T08:15:04Z</time>
      </trkpt>
      <trkpt lat="59.30364" lon="18.078868">
        <ele>35</ele>
        <time>2020-01-30T08:15:05Z</time>
      </trkpt>
      <trkpt lat="59.303609" lon="18.078889">
        <ele>35</ele>
        <time>2020-01-30T08:15:06Z</time>
      </trkpt>
      <trkpt lat="59.303578" lon="18.078909">
        <ele>35</ele>
        <time>2020-01-30T08:15:07Z</time>
      </trkpt>
      <trkpt lat="59.303547" lon="18.078928">
        <ele>35</ele>
        <time>2020-01-30T08:15:08Z</time>
      </trkpt>
      <trkpt lat="59.303516" lon="18.078947">
        <ele>35</ele>
        <time>2020-01-30T08:15:09Z</time>
      </trkpt>
      <trkpt lat="59.303485" lon="18.078966">
        <ele>36</ele>
        <time>2020-01-30T08:15:10Z</time>
      </trkpt>
      <trkpt lat="59.303454" lon="18.078985">
        <ele>36</ele>
        <time>2020-01-30T08:15:11Z</time>
      </trkpt>
      <trkpt lat="59.303422" lon="18.079004">
        <ele>36</ele>
        <time>2020-01-30T08:15:12Z</time>
      </trkpt>
      <trkpt lat="59.303391" lon="18.079024">
        <ele>36</ele>
        <time>2020-01-30T08:15:13Z</time>
      </trkpt>
      <trkpt lat="59.303359" lon="18.079044">
        <ele>36</ele>
        <time>2020-01-30T08:15:14Z</time>
      </trkpt>
      <trkpt lat="59.303328" lon="18.079065">
        <ele>36</ele>
        <time>2020-01-30T08:15:15Z</time>
      </trkpt>
      <trkpt lat="59.303296" lon="18.079087">
        <ele>36</ele>
        <time>2020-01-30T08:15:16Z</time>
      </trkpt>
      <trkpt lat="59.303264" lon="18.079106">
        <ele>36</ele>
        <time>2020-01-30T08:15:17Z</time>
      </trkpt>
      <trkpt lat="59.303232" lon="18.079126">
        <ele>36</ele>
        <time>2020-01-30T08:15:18Z</time>
      </trkpt>
      <trkpt lat="59.303198" lon="18.079147">
        <ele>36</ele>
        <time>2020-01-30T08:15:19Z</time>
      </trkpt>
      <trkpt lat="59.303164" lon="18.079168">
        <ele>36</ele>
        <time>2020-01-30T08:15:20Z</time>
      </trkpt>
      <trkpt lat="59.303129" lon="18.079191">
        <ele>36</ele>
        <time>2020-01-30T08:15:21Z</time>
      </trkpt>
      <trkpt lat="59.303093" lon="18.079213">
        <ele>36</ele>
        <time>2020-01-30T08:15:22Z</time>
      </trkpt>
      <trkpt lat="59.303057" lon="18.079236">
        <ele>37</ele>
        <time>2020-01-30T08:15:23Z</time>
      </trkpt>
      <trkpt lat="59.303021" lon="18.07926">
        <ele>37</ele>
        <time>2020-01-30T08:15:24Z</time>
      </trkpt>
      <trkpt lat="59.302984" lon="18.079284">
        <ele>37</ele>
        <time>2020-01-30T08:15:25Z</time>
      </trkpt>
      <trkpt lat="59.302947" lon="18.079308">
        <ele>37</ele>
        <time>2020-01-30T08:15:26Z</time>
      </trkpt>
      <trkpt lat="59.302909" lon="18.079333">
        <ele>37</ele>
        <time>2020-01-30T08:15:27Z</time>
      </trkpt>
      <trkpt lat="59.30287" lon="18.079359">
        <ele>37</ele>
        <time>2020-01-30T08:15:28Z</time>
      </trkpt>
      <trkpt lat="59.30283" lon="18.079384">
        <ele>37</ele>
        <time>2020-01-30T08:15:29Z</time>
      </trkpt>
      <trkpt lat="59.30279" lon="18.079409">
        <ele>37</ele>
        <time>2020-01-30T08:15:30Z</time>
      </trkpt>
      <trkpt lat="59.30275" lon="18.079434">
        <ele>37</ele>
        <time>2020-01-30T08:15:31Z</time>
      </trkpt>
      <trkpt lat="59.302709" lon="18.079459">
        <ele>37</ele>
        <time>2020-01-30T08:15:32Z</time>
      </trkpt>
      <trkpt lat="59.302667" lon="18.079486">
        <ele>37</ele>
        <time>2020-01-30T08:15:33Z</time>
      </trkpt>
      <trkpt lat="59.302625" lon="18.079514">
        <ele>37</ele>
        <time>2020-01-30T08:15:34Z</time>
      </trkpt>
      <trkpt lat="59.302583" lon="18.079541">
        <ele>37</ele>
        <time>2020-01-30T08:15:35Z</time>
      </trkpt>
      <trkpt lat="59.302541" lon="18.079568">
        <ele>37</ele>
        <time>2020-01-30T08:15:36Z</time>
      </trkpt>
      <trkpt lat="59.302498" lon="18.079595">
        <ele>37</ele>
        <time>2020-01-30T08:15:37Z</time>
      </trkpt>
      <trkpt lat="59.302456" lon="18.079622">
        <ele>37</ele>
        <time>2020-01-30T08:15:38Z</time>
      </trkpt>
      <trkpt lat="59.302413" lon="18.079649">
        <ele>37</ele>
        <time>2020-01-30T08:15:39Z</time>
      </trkpt>
      <trkpt lat="59.30237" lon="18.079677">
        <ele>37</ele>
        <time>2020-01-30T08:15:40Z</time>
      </trkpt>
      <trkpt lat="59.302327" lon="18.079705">
        <ele>37</ele>
        <time>2020-01-30T08:15:41Z</time>
      </trkpt>
      <trkpt lat="59.302284" lon="18.079732">
        <ele>37</ele>
        <time>2020-01-30T08:15:42Z</time>
      </trkpt>
      <trkpt lat="59.302241" lon="18.079759">
        <ele>37</ele>
        <time>2020-01-30T08:15:43Z</time>
      </trkpt>
      <trkpt lat="59.302197" lon="18.079787">
        <ele>37</ele>
        <time>2020-01-30T08:15:44Z</time>
      </trkpt>
      <trkpt lat="59.302152" lon="18.079814">
        <ele>37</ele>
        <time>2020-01-30T08:15:45Z</time>
      </trkpt>
      <trkpt lat="59.302108" lon="18.079841">
        <ele>37</ele>
        <time>2020-01-30T08:15:46Z</time>
      </trkpt>
      <trkpt lat="59.302063" lon="18.07987">
        <ele>37</ele>
        <time>2020-01-30T08:15:47Z</time>
      </trkpt>
      <trkpt lat="59.302018" lon="18.079898">
        <ele>37</ele>
        <time>2020-01-30T08:15:48Z</time>
      </trkpt>
      <trkpt lat="59.301973" lon="18.079925">
        <ele>37</ele>
        <time>2020-01-30T08:15:49Z</time>
      </trkpt>
      <trkpt lat="59.301927" lon="18.079953">
        <ele>37</ele>
        <time>2020-01-30T08:15:50Z</time>
      </trkpt>
      <trkpt lat="59.301881" lon="18.07998">
        <ele>37</ele>
        <time>2020-01-30T08:15:51Z</time>
      </trkpt>
      <trkpt lat="59.301834" lon="18.080006">
        <ele>37</ele>
        <time>2020-01-30T08:15:52Z</time>
      </trkpt>
      <trkpt lat="59.301787" lon="18.080033">
        <ele>37</ele>
        <time>2020-01-30T08:15:53Z</time>
      </trkpt>
      <trkpt lat="59.30174" lon="18.080058">
        <ele>37</ele>
        <time>2020-01-30T08:15:54Z</time>
      </trkpt>
      <trkpt lat="59.301692" lon="18.080084">
        <ele>37</ele>
        <time>2020-01-30T08:15:55Z</time>
      </trkpt>
      <trkpt lat="59.301644" lon="18.080111">
        <ele>37</ele>
        <time>2020-01-30T08:15:56Z</time>
      </trkpt>
      <trkpt lat="59.301596" lon="18.080139">
        <ele>37</ele>
        <time>2020-01-30T08:15:57Z</time>
      </trkpt>
      <trkpt lat="59.301549" lon="18.080169">
        <ele>37</ele>
        <time>2020-01-30T08:15:58Z</time>
      </trkpt>
      <trkpt lat="59.301502" lon="18.080198">
        <ele>37</ele>
        <time>2020-01-30T08:15:59Z</time>
      </trkpt>
      <trkpt lat="59.301456" lon="18.080227">
        <ele>37</ele>
        <time>2020-01-30T08:16:00Z</time>
      </trkpt>
      <trkpt lat="59.301412" lon="18.080254">
        <ele>37</ele>
        <time>2020-01-30T08:16:01Z</time>
      </trkpt>
      <trkpt lat="59.301369" lon="18.08028">
        <ele>37</ele>
        <time>2020-01-30T08:16:02Z</time>
      </trkpt>
      <trkpt lat="59.301324" lon="18.0803">
        <ele>37</ele>
        <time>2020-01-30T08:16:03Z</time>
      </trkpt>
      <trkpt lat="59.30128" lon="18.080314">
        <ele>37</ele>
        <time>2020-01-30T08:16:04Z</time>
      </trkpt>
      <trkpt lat="59.301234" lon="18.080317">
        <ele>37</ele>
        <time>2020-01-30T08:16:05Z</time>
      </trkpt>
      <trkpt lat="59.30119" lon="18.080324">
        <ele>37</ele>
        <time>2020-01-30T08:16:06Z</time>
      </trkpt>
      <trkpt lat="59.30114" lon="18.080326">
        <ele>37</ele>
        <time>2020-01-30T08:16:07Z</time>
      </trkpt>
      <trkpt lat="59.301084" lon="18.080329">
        <ele>37</ele>
        <time>2020-01-30T08:16:08Z</time>
      </trkpt>
      <trkpt lat="59.301031" lon="18.080335">
        <ele>37</ele>
        <time>2020-01-30T08:16:09Z</time>
      </trkpt>
      <trkpt lat="59.30098" lon="18.080346">
        <ele>37</ele>
        <time>2020-01-30T08:16:10Z</time>
      </trkpt>
      <trkpt lat="59.300928" lon="18.080359">
        <ele>37</ele>
        <time>2020-01-30T08:16:11Z</time>
      </trkpt>
      <trkpt lat="59.300876" lon="18.080374">
        <ele>37</ele>
        <time>2020-01-30T08:16:12Z</time>
      </trkpt>
      <trkpt lat="59.300825" lon="18.080391">
        <ele>37</ele>
        <time>2020-01-30T08:16:13Z</time>
      </trkpt>
      <trkpt lat="59.300775" lon="18.08041">
        <ele>37</ele>
        <time>2020-01-30T08:16:14Z</time>
      </trkpt>
      <trkpt lat="59.300725" lon="18.080432">
        <ele>37</ele>
        <time>2020-01-30T08:16:15Z</time>
      </trkpt>
      <trkpt lat="59.300676" lon="18.080461">
        <ele>37</ele>
        <time>2020-01-30T08:16:16Z</time>
      </trkpt>
      <trkpt lat="59.300628" lon="18.080494">
        <ele>37</ele>
        <time>2020-01-30T08:16:17Z</time>
      </trkpt>
      <trkpt lat="59.300582" lon="18.080524">
        <ele>38</ele>
        <time>2020-01-30T08:16:18Z</time>
      </trkpt>
      <trkpt lat="59.300534" lon="18.080552">
        <ele>38</ele>
        <time>2020-01-30T08:16:19Z</time>
      </trkpt>
      <trkpt lat="59.300487" lon="18.08058">
        <ele>38</ele>
        <time>2020-01-30T08:16:20Z</time>
      </trkpt>
      <trkpt lat="59.300439" lon="18.08061">
        <ele>38</ele>
        <time>2020-01-30T08:16:21Z</time>
      </trkpt>
      <trkpt lat="59.300391" lon="18.08064">
        <ele>38</ele>
        <time>2020-01-30T08:16:22Z</time>
      </trkpt>
      <trkpt lat="59.300344" lon="18.080669">
        <ele>38</ele>
        <time>2020-01-30T08:16:23Z</time>
      </trkpt>
      <trkpt lat="59.300296" lon="18.080699">
        <ele>38</ele>
        <time>2020-01-30T08:16:24Z</time>
      </trkpt>
      <trkpt lat="59.300246" lon="18.080728">
        <ele>39</ele>
        <time>2020-01-30T08:16:25Z</time>
      </trkpt>
      <trkpt lat="59.300196" lon="18.080758">
        <ele>39</ele>
        <time>2020-01-30T08:16:26Z</time>
      </trkpt>
      <trkpt lat="59.300147" lon="18.080788">
        <ele>39</ele>
        <time>2020-01-30T08:16:27Z</time>
      </trkpt>
      <trkpt lat="59.300097" lon="18.08082">
        <ele>39</ele>
        <time>2020-01-30T08:16:28Z</time>
      </trkpt>
      <trkpt lat="59.300045" lon="18.080852">
        <ele>39</ele>
        <time>2020-01-30T08:16:29Z</time>
      </trkpt>
      <trkpt lat="59.299994" lon="18.08088">
        <ele>39</ele>
        <time>2020-01-30T08:16:30Z</time>
      </trkpt>
      <trkpt lat="59.299942" lon="18.080905">
        <ele>39</ele>
        <time>2020-01-30T08:16:31Z</time>
      </trkpt>
      <trkpt lat="59.29989" lon="18.080931">
        <ele>39</ele>
        <time>2020-01-30T08:16:32Z</time>
      </trkpt>
      <trkpt lat="59.29984" lon="18.08096">
        <ele>39</ele>
        <time>2020-01-30T08:16:33Z</time>
      </trkpt>
      <trkpt lat="59.299789" lon="18.08099">
        <ele>39</ele>
        <time>2020-01-30T08:16:34Z</time>
      </trkpt>
      <trkpt lat="59.299737" lon="18.081023">
        <ele>39</ele>
        <time>2020-01-30T08:16:35Z</time>
      </trkpt>
      <trkpt lat="59.299686" lon="18.081058">
        <ele>39</ele>
        <time>2020-01-30T08:16:36Z</time>
      </trkpt>
      <trkpt lat="59.299632" lon="18.081095">
        <ele>39</ele>
        <time>2020-01-30T08:16:37Z</time>
      </trkpt>
      <trkpt lat="59.29958" lon="18.081132">
        <ele>39</ele>
        <time>2020-01-30T08:16:38Z</time>
      </trkpt>
      <trkpt lat="59.299528" lon="18.081166">
        <ele>39</ele>
        <time>2020-01-30T08:16:39Z</time>
      </trkpt>
      <trkpt lat="59.299479" lon="18.081202">
        <ele>40</ele>
        <time>2020-01-30T08:16:40Z</time>
      </trkpt>
      <trkpt lat="59.299433" lon="18.081237">
        <ele>40</ele>
        <time>2020-01-30T08:16:41Z</time>
      </trkpt>
      <trkpt lat="59.29939" lon="18.081275">
        <ele>39</ele>
        <time>2020-01-30T08:16:42Z</time>
      </trkpt>
      <trkpt lat="59.299345" lon="18.081313">
        <ele>39</ele>
        <time>2020-01-30T08:16:43Z</time>
      </trkpt>
      <trkpt lat="59.299295" lon="18.081348">
        <ele>39</ele>
        <time>2020-01-30T08:16:44Z</time>
      </trkpt>
      <trkpt lat="59.299247" lon="18.081384">
        <ele>39</ele>
        <time>2020-01-30T08:16:45Z</time>
      </trkpt>
      <trkpt lat="59.299199" lon="18.081423">
        <ele>39</ele>
        <time>2020-01-30T08:16:46Z</time>
      </trkpt>
      <trkpt lat="59.299158" lon="18.081466">
        <ele>39</ele>
        <time>2020-01-30T08:16:47Z</time>
      </trkpt>
      <trkpt lat="59.299077" lon="18.081548">
        <ele>39</ele>
        <time>2020-01-30T08:16:49Z</time>
      </trkpt>
      <trkpt lat="59.29899" lon="18.081622">
        <ele>39</ele>
        <time>2020-01-30T08:16:51Z</time>
      </trkpt>
      <trkpt lat="59.298884" lon="18.081709">
        <ele>39</ele>
        <time>2020-01-30T08:16:53Z</time>
      </trkpt>
      <trkpt lat="59.298759" lon="18.081802">
        <ele>39</ele>
        <time>2020-01-30T08:16:55Z</time>
      </trkpt>
      <trkpt lat="59.298705" lon="18.081837">
        <ele>39</ele>
        <time>2020-01-30T08:16:56Z</time>
      </trkpt>
      <trkpt lat="59.298654" lon="18.081867">
        <ele>39</ele>
        <time>2020-01-30T08:16:57Z</time>
      </trkpt>
      <trkpt lat="59.298605" lon="18.081899">
        <ele>39</ele>
        <time>2020-01-30T08:16:58Z</time>
      </trkpt>
      <trkpt lat="59.298556" lon="18.081928">
        <ele>39</ele>
        <time>2020-01-30T08:16:59Z</time>
      </trkpt>
      <trkpt lat="59.298509" lon="18.081964">
        <ele>39</ele>
        <time>2020-01-30T08:17:00Z</time>
      </trkpt>
      <trkpt lat="59.298463" lon="18.081985">
        <ele>39</ele>
        <time>2020-01-30T08:17:01Z</time>
      </trkpt>
      <trkpt lat="59.298417" lon="18.082013">
        <ele>39</ele>
        <time>2020-01-30T08:17:02Z</time>
      </trkpt>
      <trkpt lat="59.298374" lon="18.082043">
        <ele>39</ele>
        <time>2020-01-30T08:17:03Z</time>
      </trkpt>
      <trkpt lat="59.298329" lon="18.082074">
        <ele>39</ele>
        <time>2020-01-30T08:17:04Z</time>
      </trkpt>
      <trkpt lat="59.298285" lon="18.082107">
        <ele>39</ele>
        <time>2020-01-30T08:17:05Z</time>
      </trkpt>
      <trkpt lat="59.298241" lon="18.08214">
        <ele>39</ele>
        <time>2020-01-30T08:17:06Z</time>
      </trkpt>
      <trkpt lat="59.298197" lon="18.082174">
        <ele>39</ele>
        <time>2020-01-30T08:17:07Z</time>
      </trkpt>
      <trkpt lat="59.298152" lon="18.08221">
        <ele>40</ele>
        <time>2020-01-30T08:17:08Z</time>
      </trkpt>
      <trkpt lat="59.298108" lon="18.082247">
        <ele>40</ele>
        <time>2020-01-30T08:17:09Z</time>
      </trkpt>
      <trkpt lat="59.298064" lon="18.082282">
        <ele>40</ele>
        <time>2020-01-30T08:17:10Z</time>
      </trkpt>
      <trkpt lat="59.298021" lon="18.082316">
        <ele>40</ele>
        <time>2020-01-30T08:17:11Z</time>
      </trkpt>
      <trkpt lat="59.297977" lon="18.082347">
        <ele>40</ele>
        <time>2020-01-30T08:17:12Z</time>
      </trkpt>
      <trkpt lat="59.297933" lon="18.082374">
        <ele>40</ele>
        <time>2020-01-30T08:17:13Z</time>
      </trkpt>
      <trkpt lat="59.29789" lon="18.082402">
        <ele>40</ele>
        <time>2020-01-30T08:17:14Z</time>
      </trkpt>
      <trkpt lat="59.297847" lon="18.082428">
        <ele>41</ele>
        <time>2020-01-30T08:17:15Z</time>
      </trkpt>
      <trkpt lat="59.297804" lon="18.082451">
        <ele>41</ele>
        <time>2020-01-30T08:17:16Z</time>
      </trkpt>
      <trkpt lat="59.297762" lon="18.082473">
        <ele>41</ele>
        <time>2020-01-30T08:17:17Z</time>
      </trkpt>
      <trkpt lat="59.29772" lon="18.082494">
        <ele>41</ele>
        <time>2020-01-30T08:17:18Z</time>
      </trkpt>
      <trkpt lat="59.297678" lon="18.082513">
        <ele>41</ele>
        <time>2020-01-30T08:17:19Z</time>
      </trkpt>
      <trkpt lat="59.297636" lon="18.082535">
        <ele>41</ele>
        <time>2020-01-30T08:17:20Z</time>
      </trkpt>
      <trkpt lat="59.297595" lon="18.082557">
        <ele>41</ele>
        <time>2020-01-30T08:17:21Z</time>
      </trkpt>
      <trkpt lat="59.297553" lon="18.082579">
        <ele>41</ele>
        <time>2020-01-30T08:17:22Z</time>
      </trkpt>
      <trkpt lat="59.297512" lon="18.0826">
        <ele>41</ele>
        <time>2020-01-30T08:17:23Z</time>
      </trkpt>
      <trkpt lat="59.297471" lon="18.082623">
        <ele>41</ele>
        <time>2020-01-30T08:17:24Z</time>
      </trkpt>
      <trkpt lat="59.29743" lon="18.082649">
        <ele>41</ele>
        <time>2020-01-30T08:17:25Z</time>
      </trkpt>
      <trkpt lat="59.297389" lon="18.082675">
        <ele>41</ele>
        <time>2020-01-30T08:17:26Z</time>
      </trkpt>
      <trkpt lat="59.297348" lon="18.082696">
        <ele>41</ele>
        <time>2020-01-30T08:17:27Z</time>
      </trkpt>
      <trkpt lat="59.297305" lon="18.082711">
        <ele>42</ele>
        <time>2020-01-30T08:17:28Z</time>
      </trkpt>
      <trkpt lat="59.297262" lon="18.082727">
        <ele>42</ele>
        <time>2020-01-30T08:17:29Z</time>
      </trkpt>
      <trkpt lat="59.297217" lon="18.082742">
        <ele>42</ele>
        <time>2020-01-30T08:17:30Z</time>
      </trkpt>
      <trkpt lat="59.297172" lon="18.082754">
        <ele>42</ele>
        <time>2020-01-30T08:17:31Z</time>
      </trkpt>
      <trkpt lat="59.297128" lon="18.082768">
        <ele>42</ele>
        <time>2020-01-30T08:17:32Z</time>
      </trkpt>
      <trkpt lat="59.297086" lon="18.082786">
        <ele>42</ele>
        <time>2020-01-30T08:17:33Z</time>
      </trkpt>
      <trkpt lat="59.297045" lon="18.082806">
        <ele>42</ele>
        <time>2020-01-30T08:17:34Z</time>
      </trkpt>
      <trkpt lat="59.297004" lon="18.082828">
        <ele>42</ele>
        <time>2020-01-30T08:17:35Z</time>
      </trkpt>
      <trkpt lat="59.296961" lon="18.082848">
        <ele>42</ele>
        <time>2020-01-30T08:17:36Z</time>
      </trkpt>
      <trkpt lat="59.296917" lon="18.08287">
        <ele>42</ele>
        <time>2020-01-30T08:17:37Z</time>
      </trkpt>
      <trkpt lat="59.296877" lon="18.082903">
        <ele>43</ele>
        <time>2020-01-30T08:17:38Z</time>
      </trkpt>
      <trkpt lat="59.296839" lon="18.082944">
        <ele>43</ele>
        <time>2020-01-30T08:17:39Z</time>
      </trkpt>
      <trkpt lat="59.296802" lon="18.082985">
        <ele>43</ele>
        <time>2020-01-30T08:17:40Z</time>
      </trkpt>
      <trkpt lat="59.296765" lon="18.083023">
        <ele>43</ele>
        <time>2020-01-30T08:17:41Z</time>
      </trkpt>
      <trkpt lat="59.296729" lon="18.083061">
        <ele>43</ele>
        <time>2020-01-30T08:17:42Z</time>
      </trkpt>
      <trkpt lat="59.296695" lon="18.083098">
        <ele>43</ele>
        <time>2020-01-30T08:17:43Z</time>
      </trkpt>
      <trkpt lat="59.29666" lon="18.083134">
        <ele>43</ele>
        <time>2020-01-30T08:17:44Z</time>
      </trkpt>
      <trkpt lat="59.296626" lon="18.083172">
        <ele>43</ele>
        <time>2020-01-30T08:17:45Z</time>
      </trkpt>
      <trkpt lat="59.296591" lon="18.083206">
        <ele>43</ele>
        <time>2020-01-30T08:17:46Z</time>
      </trkpt>
      <trkpt lat="59.296553" lon="18.083234">
        <ele>43</ele>
        <time>2020-01-30T08:17:47Z</time>
      </trkpt>
      <trkpt lat="59.296515" lon="18.083263">
        <ele>43</ele>
        <time>2020-01-30T08:17:48Z</time>
      </trkpt>
      <trkpt lat="59.296477" lon="18.083291">
        <ele>44</ele>
        <time>2020-01-30T08:17:49Z</time>
      </trkpt>
      <trkpt lat="59.296439" lon="18.083319">
        <ele>44</ele>
        <time>2020-01-30T08:17:50Z</time>
      </trkpt>
      <trkpt lat="59.2964" lon="18.083343">
        <ele>44</ele>
        <time>2020-01-30T08:17:51Z</time>
      </trkpt>
      <trkpt lat="59.296361" lon="18.083366">
        <ele>44</ele>
        <time>2020-01-30T08:17:52Z</time>
      </trkpt>
      <trkpt lat="59.296322" lon="18.08339">
        <ele>44</ele>
        <time>2020-01-30T08:17:53Z</time>
      </trkpt>
      <trkpt lat="59.296282" lon="18.083414">
        <ele>44</ele>
        <time>2020-01-30T08:17:54Z</time>
      </trkpt>
      <trkpt lat="59.296241" lon="18.083439">
        <ele>44</ele>
        <time>2020-01-30T08:17:55Z</time>
      </trkpt>
      <trkpt lat="59.296201" lon="18.083465">
        <ele>44</ele>
        <time>2020-01-30T08:17:56Z</time>
      </trkpt>
      <trkpt lat="59.296159" lon="18.083489">
        <ele>44</ele>
        <time>2020-01-30T08:17:57Z</time>
      </trkpt>
      <trkpt lat="59.296118" lon="18.083514">
        <ele>44</ele>
        <time>2020-01-30T08:17:58Z</time>
      </trkpt>
      <trkpt lat="59.296076" lon="18.08354">
        <ele>44</ele>
        <time>2020-01-30T08:17:59Z</time>
      </trkpt>
      <trkpt lat="59.296035" lon="18.083567">
        <ele>44</ele>
        <time>2020-01-30T08:18:00Z</time>
      </trkpt>
      <trkpt lat="59.295993" lon="18.083594">
        <ele>44</ele>
        <time>2020-01-30T08:18:01Z</time>
      </trkpt>
      <trkpt lat="59.295952" lon="18.083621">
        <ele>44</ele>
        <time>2020-01-30T08:18:02Z</time>
      </trkpt>
      <trkpt lat="59.295909" lon="18.083648">
        <ele>45</ele>
        <time>2020-01-30T08:18:03Z</time>
      </trkpt>
      <trkpt lat="59.295866" lon="18.083676">
        <ele>45</ele>
        <time>2020-01-30T08:18:04Z</time>
      </trkpt>
      <trkpt lat="59.295822" lon="18.083703">
        <ele>45</ele>
        <time>2020-01-30T08:18:05Z</time>
      </trkpt>
      <trkpt lat="59.295777" lon="18.083731">
        <ele>45</ele>
        <time>2020-01-30T08:18:06Z</time>
      </trkpt>
      <trkpt lat="59.295731" lon="18.083759">
        <ele>45</ele>
        <time>2020-01-30T08:18:07Z</time>
      </trkpt>
      <trkpt lat="59.295685" lon="18.08379">
        <ele>45</ele>
        <time>2020-01-30T08:18:08Z</time>
      </trkpt>
      <trkpt lat="59.295638" lon="18.08382">
        <ele>45</ele>
        <time>2020-01-30T08:18:09Z</time>
      </trkpt>
      <trkpt lat="59.295591" lon="18.083852">
        <ele>45</ele>
        <time>2020-01-30T08:18:10Z</time>
      </trkpt>
      <trkpt lat="59.295541" lon="18.083885">
        <ele>45</ele>
        <time>2020-01-30T08:18:11Z</time>
      </trkpt>
      <trkpt lat="59.295491" lon="18.083918">
        <ele>45</ele>
        <time>2020-01-30T08:18:12Z</time>
      </trkpt>
      <trkpt lat="59.29544" lon="18.083952">
        <ele>45</ele>
        <time>2020-01-30T08:18:13Z</time>
      </trkpt>
      <trkpt lat="59.295389" lon="18.083987">
        <ele>45</ele>
        <time>2020-01-30T08:18:14Z</time>
      </trkpt>
      <trkpt lat="59.295336" lon="18.08402">
        <ele>45</ele>
        <time>2020-01-30T08:18:15Z</time>
      </trkpt>
      <trkpt lat="59.295282" lon="18.084053">
        <ele>45</ele>
        <time>2020-01-30T08:18:16Z</time>
      </trkpt>
      <trkpt lat="59.295227" lon="18.084085">
        <ele>45</ele>
        <time>2020-01-30T08:18:17Z</time>
      </trkpt>
      <trkpt lat="59.295172" lon="18.084115">
        <ele>45</ele>
        <time>2020-01-30T08:18:18Z</time>
      </trkpt>
      <trkpt lat="59.295116" lon="18.084144">
        <ele>45</ele>
        <time>2020-01-30T08:18:19Z</time>
      </trkpt>
      <trkpt lat="59.29506" lon="18.084175">
        <ele>45</ele>
        <time>2020-01-30T08:18:20Z</time>
      </trkpt>
      <trkpt lat="59.295002" lon="18.084208">
        <ele>45</ele>
        <time>2020-01-30T08:18:21Z</time>
      </trkpt>
      <trkpt lat="59.294944" lon="18.084241">
        <ele>45</ele>
        <time>2020-01-30T08:18:22Z</time>
      </trkpt>
      <trkpt lat="59.294884" lon="18.084274">
        <ele>45</ele>
        <time>2020-01-30T08:18:23Z</time>
      </trkpt>
      <trkpt lat="59.294825" lon="18.084307">
        <ele>45</ele>
        <time>2020-01-30T08:18:24Z</time>
      </trkpt>
      <trkpt lat="59.294765" lon="18.08434">
        <ele>45</ele>
        <time>2020-01-30T08:18:25Z</time>
      </trkpt>
      <trkpt lat="59.294705" lon="18.084372">
        <ele>45</ele>
        <time>2020-01-30T08:18:26Z</time>
      </trkpt>
      <trkpt lat="59.294644" lon="18.084404">
        <ele>45</ele>
        <time>2020-01-30T08:18:27Z</time>
      </trkpt>
      <trkpt lat="59.294584" lon="18.084436">
        <ele>45</ele>
        <time>2020-01-30T08:18:28Z</time>
      </trkpt>
      <trkpt lat="59.294524" lon="18.084468">
        <ele>45</ele>
        <time>2020-01-30T08:18:29Z</time>
      </trkpt>
      <trkpt lat="59.294465" lon="18.084501">
        <ele>45</ele>
        <time>2020-01-30T08:18:30Z</time>
      </trkpt>
      <trkpt lat="59.294406" lon="18.084535">
        <ele>45</ele>
        <time>2020-01-30T08:18:31Z</time>
      </trkpt>
      <trkpt lat="59.294345" lon="18.084569">
        <ele>45</ele>
        <time>2020-01-30T08:18:32Z</time>
      </trkpt>
      <trkpt lat="59.294288" lon="18.084606">
        <ele>45</ele>
        <time>2020-01-30T08:18:33Z</time>
      </trkpt>
      <trkpt lat="59.294234" lon="18.084658">
        <ele>45</ele>
        <time>2020-01-30T08:18:34Z</time>
      </trkpt>
      <trkpt lat="59.294177" lon="18.084718">
        <ele>45</ele>
        <time>2020-01-30T08:18:35Z</time>
      </trkpt>
      <trkpt lat="59.294115" lon="18.084767">
        <ele>45</ele>
        <time>2020-01-30T08:18:36Z</time>
      </trkpt>
      <trkpt lat="59.294061" lon="18.084807">
        <ele>46</ele>
        <time>2020-01-30T08:18:37Z</time>
      </trkpt>
      <trkpt lat="59.294009" lon="18.084845">
        <ele>46</ele>
        <time>2020-01-30T08:18:38Z</time>
      </trkpt>
      <trkpt lat="59.293948" lon="18.084877">
        <ele>46</ele>
        <time>2020-01-30T08:18:39Z</time>
      </trkpt>
      <trkpt lat="59.293884" lon="18.084905">
        <ele>47</ele>
        <time>2020-01-30T08:18:40Z</time>
      </trkpt>
      <trkpt lat="59.293818" lon="18.084926">
        <ele>47</ele>
        <time>2020-01-30T08:18:41Z</time>
      </trkpt>
      <trkpt lat="59.293757" lon="18.084963">
        <ele>47</ele>
        <time>2020-01-30T08:18:42Z</time>
      </trkpt>
      <trkpt lat="59.293676" lon="18.084991">
        <ele>46</ele>
        <time>2020-01-30T08:18:43Z</time>
      </trkpt>
      <trkpt lat="59.293598" lon="18.085012">
        <ele>46</ele>
        <time>2020-01-30T08:18:44Z</time>
      </trkpt>
      <trkpt lat="59.293529" lon="18.085036">
        <ele>46</ele>
        <time>2020-01-30T08:18:45Z</time>
      </trkpt>
      <trkpt lat="59.293462" lon="18.085061">
        <ele>46</ele>
        <time>2020-01-30T08:18:46Z</time>
      </trkpt>
      <trkpt lat="59.293397" lon="18.085084">
        <ele>46</ele>
        <time>2020-01-30T08:18:47Z</time>
      </trkpt>
      <trkpt lat="59.293334" lon="18.0851">
        <ele>46</ele>
        <time>2020-01-30T08:18:48Z</time>
      </trkpt>
      <trkpt lat="59.293274" lon="18.085116">
        <ele>46</ele>
        <time>2020-01-30T08:18:49Z</time>
      </trkpt>
      <trkpt lat="59.293214" lon="18.085126">
        <ele>46</ele>
        <time>2020-01-30T08:18:50Z</time>
      </trkpt>
      <trkpt lat="59.293155" lon="18.085138">
        <ele>46</ele>
        <time>2020-01-30T08:18:51Z</time>
      </trkpt>
      <trkpt lat="59.2931" lon="18.085153">
        <ele>46</ele>
        <time>2020-01-30T08:18:52Z</time>
      </trkpt>
      <trkpt lat="59.293045" lon="18.085169">
        <ele>46</ele>
        <time>2020-01-30T08:18:53Z</time>
      </trkpt>
      <trkpt lat="59.292991" lon="18.08518">
        <ele>46</ele>
        <time>2020-01-30T08:18:54Z</time>
      </trkpt>
      <trkpt lat="59.292938" lon="18.085191">
        <ele>46</ele>
        <time>2020-01-30T08:18:55Z</time>
      </trkpt>
      <trkpt lat="59.292887" lon="18.085196">
        <ele>47</ele>
        <time>2020-01-30T08:18:56Z</time>
      </trkpt>
      <trkpt lat="59.292838" lon="18.085195">
        <ele>47</ele>
        <time>2020-01-30T08:18:57Z</time>
      </trkpt>
      <trkpt lat="59.292791" lon="18.085179">
        <ele>47</ele>
        <time>2020-01-30T08:18:58Z</time>
      </trkpt>
      <trkpt lat="59.292745" lon="18.085147">
        <ele>47</ele>
        <time>2020-01-30T08:18:59Z</time>
      </trkpt>
      <trkpt lat="59.292698" lon="18.085113">
        <ele>47</ele>
        <time>2020-01-30T08:19:00Z</time>
      </trkpt>
      <trkpt lat="59.292654" lon="18.085074">
        <ele>47</ele>
        <time>2020-01-30T08:19:01Z</time>
      </trkpt>
      <trkpt lat="59.292605" lon="18.085045">
        <ele>47</ele>
        <time>2020-01-30T08:19:02Z</time>
      </trkpt>
      <trkpt lat="59.292553" lon="18.08504">
        <ele>47</ele>
        <time>2020-01-30T08:19:03Z</time>
      </trkpt>
      <trkpt lat="59.292503" lon="18.085047">
        <ele>47</ele>
        <time>2020-01-30T08:19:04Z</time>
      </trkpt>
      <trkpt lat="59.292454" lon="18.085066">
        <ele>47</ele>
        <time>2020-01-30T08:19:05Z</time>
      </trkpt>
      <trkpt lat="59.292406" lon="18.085103">
        <ele>47</ele>
        <time>2020-01-30T08:19:06Z</time>
      </trkpt>
      <trkpt lat="59.292359" lon="18.085141">
        <ele>47</ele>
        <time>2020-01-30T08:19:07Z</time>
      </trkpt>
      <trkpt lat="59.292314" lon="18.085175">
        <ele>47</ele>
        <time>2020-01-30T08:19:08Z</time>
      </trkpt>
      <trkpt lat="59.292259" lon="18.08521">
        <ele>47</ele>
        <time>2020-01-30T08:19:09Z</time>
      </trkpt>
      <trkpt lat="59.292203" lon="18.085247">
        <ele>47</ele>
        <time>2020-01-30T08:19:10Z</time>
      </trkpt>
      <trkpt lat="59.292147" lon="18.085284">
        <ele>47</ele>
        <time>2020-01-30T08:19:11Z</time>
      </trkpt>
      <trkpt lat="59.29209" lon="18.08532">
        <ele>47</ele>
        <time>2020-01-30T08:19:12Z</time>
      </trkpt>
      <trkpt lat="59.292032" lon="18.085358">
        <ele>47</ele>
        <time>2020-01-30T08:19:13Z</time>
      </trkpt>
      <trkpt lat="59.291972" lon="18.085394">
        <ele>47</ele>
        <time>2020-01-30T08:19:14Z</time>
      </trkpt>
      <trkpt lat="59.291905" lon="18.085443">
        <ele>46</ele>
        <time>2020-01-30T08:19:15Z</time>
      </trkpt>
      <trkpt lat="59.291843" lon="18.085495">
        <ele>46</ele>
        <time>2020-01-30T08:19:16Z</time>
      </trkpt>
      <trkpt lat="59.29178" lon="18.085544">
        <ele>46</ele>
        <time>2020-01-30T08:19:17Z</time>
      </trkpt>
      <trkpt lat="59.291721" lon="18.085571">
        <ele>46</ele>
        <time>2020-01-30T08:19:18Z</time>
      </trkpt>
      <trkpt lat="59.291657" lon="18.085582">
        <ele>45</ele>
        <time>2020-01-30T08:19:19Z</time>
      </trkpt>
      <trkpt lat="59.2916" lon="18.085606">
        <ele>45</ele>
        <time>2020-01-30T08:19:20Z</time>
      </trkpt>
      <trkpt lat="59.291543" lon="18.085641">
        <ele>45</ele>
        <time>2020-01-30T08:19:21Z</time>
      </trkpt>
      <trkpt lat="59.291486" lon="18.085682">
        <ele>45</ele>
        <time>2020-01-30T08:19:22Z</time>
      </trkpt>
      <trkpt lat="59.29143" lon="18.08572">
        <ele>45</ele>
        <time>2020-01-30T08:19:23Z</time>
      </trkpt>
      <trkpt lat="59.291375" lon="18.085755">
        <ele>44</ele>
        <time>2020-01-30T08:19:24Z</time>
      </trkpt>
      <trkpt lat="59.291319" lon="18.085783">
        <ele>44</ele>
        <time>2020-01-30T08:19:25Z</time>
      </trkpt>
      <trkpt lat="59.291264" lon="18.085822">
        <ele>44</ele>
        <time>2020-01-30T08:19:26Z</time>
      </trkpt>
      <trkpt lat="59.291211" lon="18.08586">
        <ele>44</ele>
        <time>2020-01-30T08:19:27Z</time>
      </trkpt>
      <trkpt lat="59.291158" lon="18.0859">
        <ele>44</ele>
        <time>2020-01-30T08:19:28Z</time>
      </trkpt>
      <trkpt lat="59.291103" lon="18.085948">
        <ele>44</ele>
        <time>2020-01-30T08:19:29Z</time>
      </trkpt>
      <trkpt lat="59.291047" lon="18.085991">
        <ele>44</ele>
        <time>2020-01-30T08:19:30Z</time>
      </trkpt>
      <trkpt lat="59.290993" lon="18.086032">
        <ele>44</ele>
        <time>2020-01-30T08:19:31Z</time>
      </trkpt>
      <trkpt lat="59.290941" lon="18.086082">
        <ele>44</ele>
        <time>2020-01-30T08:19:32Z</time>
      </trkpt>
      <trkpt lat="59.290889" lon="18.086114">
        <ele>44</ele>
        <time>2020-01-30T08:19:33Z</time>
      </trkpt>
      <trkpt lat="59.290836" lon="18.086144">
        <ele>44</ele>
        <time>2020-01-30T08:19:34Z</time>
      </trkpt>
      <trkpt lat="59.290783" lon="18.086172">
        <ele>44</ele>
        <time>2020-01-30T08:19:35Z</time>
      </trkpt>
      <trkpt lat="59.290729" lon="18.086196">
        <ele>44</ele>
        <time>2020-01-30T08:19:36Z</time>
      </trkpt>
      <trkpt lat="59.290675" lon="18.08622">
        <ele>43</ele>
        <time>2020-01-30T08:19:37Z</time>
      </trkpt>
      <trkpt lat="59.290623" lon="18.086243">
        <ele>43</ele>
        <time>2020-01-30T08:19:38Z</time>
      </trkpt>
      <trkpt lat="59.290569" lon="18.086257">
        <ele>43</ele>
        <time>2020-01-30T08:19:39Z</time>
      </trkpt>
      <trkpt lat="59.290516" lon="18.086263">
        <ele>43</ele>
        <time>2020-01-30T08:19:40Z</time>
      </trkpt>
      <trkpt lat="59.29046" lon="18.086274">
        <ele>43</ele>
        <time>2020-01-30T08:19:41Z</time>
      </trkpt>
      <trkpt lat="59.290405" lon="18.086291">
        <ele>43</ele>
        <time>2020-01-30T08:19:42Z</time>
      </trkpt>
      <trkpt lat="59.290351" lon="18.086309">
        <ele>43</ele>
        <time>2020-01-30T08:19:43Z</time>
      </trkpt>
      <trkpt lat="59.290299" lon="18.086326">
        <ele>42</ele>
        <time>2020-01-30T08:19:44Z</time>
      </trkpt>
      <trkpt lat="59.290246" lon="18.086346">
        <ele>42</ele>
        <time>2020-01-30T08:19:45Z</time>
      </trkpt>
      <trkpt lat="59.29019" lon="18.086367">
        <ele>42</ele>
        <time>2020-01-30T08:19:46Z</time>
      </trkpt>
      <trkpt lat="59.290133" lon="18.086395">
        <ele>42</ele>
        <time>2020-01-30T08:19:47Z</time>
      </trkpt>
      <trkpt lat="59.290072" lon="18.086421">
        <ele>41</ele>
        <time>2020-01-30T08:19:48Z</time>
      </trkpt>
      <trkpt lat="59.290009" lon="18.086451">
        <ele>41</ele>
        <time>2020-01-30T08:19:49Z</time>
      </trkpt>
      <trkpt lat="59.289941" lon="18.086473">
        <ele>41</ele>
        <time>2020-01-30T08:19:50Z</time>
      </trkpt>
      <trkpt lat="59.289872" lon="18.086528">
        <ele>40</ele>
        <time>2020-01-30T08:19:51Z</time>
      </trkpt>
      <trkpt lat="59.289801" lon="18.086568">
        <ele>40</ele>
        <time>2020-01-30T08:19:52Z</time>
      </trkpt>
      <trkpt lat="59.289728" lon="18.086595">
        <ele>39</ele>
        <time>2020-01-30T08:19:53Z</time>
      </trkpt>
      <trkpt lat="59.289652" lon="18.086628">
        <ele>39</ele>
        <time>2020-01-30T08:19:54Z</time>
      </trkpt>
      <trkpt lat="59.289574" lon="18.086661">
        <ele>38</ele>
        <time>2020-01-30T08:19:55Z</time>
      </trkpt>
      <trkpt lat="59.289493" lon="18.086696">
        <ele>37</ele>
        <time>2020-01-30T08:19:56Z</time>
      </trkpt>
      <trkpt lat="59.28941" lon="18.086734">
        <ele>37</ele>
        <time>2020-01-30T08:19:57Z</time>
      </trkpt>
      <trkpt lat="59.289326" lon="18.086772">
        <ele>36</ele>
        <time>2020-01-30T08:19:58Z</time>
      </trkpt>
      <trkpt lat="59.289243" lon="18.086818">
        <ele>36</ele>
        <time>2020-01-30T08:19:59Z</time>
      </trkpt>
      <trkpt lat="59.289159" lon="18.086873">
        <ele>35</ele>
        <time>2020-01-30T08:20:00Z</time>
      </trkpt>
      <trkpt lat="59.289075" lon="18.086932">
        <ele>35</ele>
        <time>2020-01-30T08:20:01Z</time>
      </trkpt>
      <trkpt lat="59.288989" lon="18.086987">
        <ele>34</ele>
        <time>2020-01-30T08:20:02Z</time>
      </trkpt>
      <trkpt lat="59.288901" lon="18.087036">
        <ele>34</ele>
        <time>2020-01-30T08:20:03Z</time>
      </trkpt>
      <trkpt lat="59.288811" lon="18.087081">
        <ele>33</ele>
        <time>2020-01-30T08:20:04Z</time>
      </trkpt>
      <trkpt lat="59.288721" lon="18.087126">
        <ele>33</ele>
        <time>2020-01-30T08:20:05Z</time>
      </trkpt>
      <trkpt lat="59.288631" lon="18.087169">
        <ele>33</ele>
        <time>2020-01-30T08:20:06Z</time>
      </trkpt>
      <trkpt lat="59.288543" lon="18.087197">
        <ele>33</ele>
        <time>2020-01-30T08:20:07Z</time>
      </trkpt>
      <trkpt lat="59.288457" lon="18.087244">
        <ele>33</ele>
        <time>2020-01-30T08:20:08Z</time>
      </trkpt>
      <trkpt lat="59.288365" lon="18.087288">
        <ele>33</ele>
        <time>2020-01-30T08:20:09Z</time>
      </trkpt>
      <trkpt lat="59.288274" lon="18.087322">
        <ele>33</ele>
        <time>2020-01-30T08:20:10Z</time>
      </trkpt>
      <trkpt lat="59.288186" lon="18.087372">
        <ele>33</ele>
        <time>2020-01-30T08:20:11Z</time>
      </trkpt>
      <trkpt lat="59.288103" lon="18.087407">
        <ele>33</ele>
        <time>2020-01-30T08:20:12Z</time>
      </trkpt>
      <trkpt lat="59.288029" lon="18.087442">
        <ele>33</ele>
        <time>2020-01-30T08:20:13Z</time>
      </trkpt>
      <trkpt lat="59.28796" lon="18.087476">
        <ele>33</ele>
        <time>2020-01-30T08:20:14Z</time>
      </trkpt>
      <trkpt lat="59.287895" lon="18.087508">
        <ele>33</ele>
        <time>2020-01-30T08:20:15Z</time>
      </trkpt>
      <trkpt lat="59.287832" lon="18.087543">
        <ele>33</ele>
        <time>2020-01-30T08:20:16Z</time>
      </trkpt>
      <trkpt lat="59.287775" lon="18.087585">
        <ele>33</ele>
        <time>2020-01-30T08:20:17Z</time>
      </trkpt>
      <trkpt lat="59.287722" lon="18.087628">
        <ele>33</ele>
        <time>2020-01-30T08:20:18Z</time>
      </trkpt>
      <trkpt lat="59.287667" lon="18.087671">
        <ele>33</ele>
        <time>2020-01-30T08:20:19Z</time>
      </trkpt>
      <trkpt lat="59.287612" lon="18.08771">
        <ele>34</ele>
        <time>2020-01-30T08:20:20Z</time>
      </trkpt>
      <trkpt lat="59.287562" lon="18.087749">
        <ele>34</ele>
        <time>2020-01-30T08:20:21Z</time>
      </trkpt>
      <trkpt lat="59.287514" lon="18.087786">
        <ele>34</ele>
        <time>2020-01-30T08:20:22Z</time>
      </trkpt>
      <trkpt lat="59.287469" lon="18.087822">
        <ele>34</ele>
        <time>2020-01-30T08:20:23Z</time>
      </trkpt>
      <trkpt lat="59.287423" lon="18.08786">
        <ele>34</ele>
        <time>2020-01-30T08:20:24Z</time>
      </trkpt>
      <trkpt lat="59.287376" lon="18.087901">
        <ele>34</ele>
        <time>2020-01-30T08:20:25Z</time>
      </trkpt>
      <trkpt lat="59.287327" lon="18.087944">
        <ele>35</ele>
        <time>2020-01-30T08:20:26Z</time>
      </trkpt>
      <trkpt lat="59.287277" lon="18.087981">
        <ele>35</ele>
        <time>2020-01-30T08:20:27Z</time>
      </trkpt>
      <trkpt lat="59.287225" lon="18.088015">
        <ele>35</ele>
        <time>2020-01-30T08:20:28Z</time>
      </trkpt>
      <trkpt lat="59.28717" lon="18.088048">
        <ele>35</ele>
        <time>2020-01-30T08:20:29Z</time>
      </trkpt>
      <trkpt lat="59.287116" lon="18.088075">
        <ele>34</ele>
        <time>2020-01-30T08:20:30Z</time>
      </trkpt>
      <trkpt lat="59.287062" lon="18.0881">
        <ele>34</ele>
        <time>2020-01-30T08:20:31Z</time>
      </trkpt>
      <trkpt lat="59.287007" lon="18.088127">
        <ele>34</ele>
        <time>2020-01-30T08:20:32Z</time>
      </trkpt>
      <trkpt lat="59.286952" lon="18.088153">
        <ele>0</ele>
        <time>2020-01-30T08:20:32Z</time>
      </trkpt>
      <trkpt lat="59.286897" lon="18.08818">
        <ele>34</ele>
        <time>2020-01-30T08:20:33Z</time>
      </trkpt>
      <trkpt lat="59.286842" lon="18.088207">
        <ele>34</ele>
        <time>2020-01-30T08:20:35Z</time>
      </trkpt>
      <trkpt lat="59.286786" lon="18.088234">
        <ele>34</ele>
        <time>2020-01-30T08:20:36Z</time>
      </trkpt>
      <trkpt lat="59.286731" lon="18.088261">
        <ele>34</ele>
        <time>2020-01-30T08:20:37Z</time>
      </trkpt>
      <trkpt lat="59.286676" lon="18.088289">
        <ele>34</ele>
        <time>2020-01-30T08:20:38Z</time>
      </trkpt>
      <trkpt lat="59.286622" lon="18.088316">
        <ele>34</ele>
        <time>2020-01-30T08:20:39Z</time>
      </trkpt>
      <trkpt lat="59.286569" lon="18.088346">
        <ele>34</ele>
        <time>2020-01-30T08:20:40Z</time>
      </trkpt>
      <trkpt lat="59.286514" lon="18.088374">
        <ele>34</ele>
        <time>2020-01-30T08:20:41Z</time>
      </trkpt>
      <trkpt lat="59.286458" lon="18.088405">
        <ele>34</ele>
        <time>2020-01-30T08:20:42Z</time>
      </trkpt>
      <trkpt lat="59.286402" lon="18.088434">
        <ele>34</ele>
        <time>2020-01-30T08:20:43Z</time>
      </trkpt>
      <trkpt lat="59.286347" lon="18.088458">
        <ele>34</ele>
        <time>2020-01-30T08:20:44Z</time>
      </trkpt>
      <trkpt lat="59.286293" lon="18.088484">
        <ele>34</ele>
        <time>2020-01-30T08:20:45Z</time>
      </trkpt>
      <trkpt lat="59.286239" lon="18.088511">
        <ele>34</ele>
        <time>2020-01-30T08:20:46Z</time>
      </trkpt>
      <trkpt lat="59.286185" lon="18.08854">
        <ele>34</ele>
        <time>2020-01-30T08:20:47Z</time>
      </trkpt>
      <trkpt lat="59.286131" lon="18.088568">
        <ele>34</ele>
        <time>2020-01-30T08:20:48Z</time>
      </trkpt>
      <trkpt lat="59.286077" lon="18.088597">
        <ele>34</ele>
        <time>2020-01-30T08:20:49Z</time>
      </trkpt>
      <trkpt lat="59.286023" lon="18.088625">
        <ele>34</ele>
        <time>2020-01-30T08:20:50Z</time>
      </trkpt>
      <trkpt lat="59.285968" lon="18.08865">
        <ele>34</ele>
        <time>2020-01-30T08:20:51Z</time>
      </trkpt>
      <trkpt lat="59.285913" lon="18.088674">
        <ele>34</ele>
        <time>2020-01-30T08:20:52Z</time>
      </trkpt>
      <trkpt lat="59.285858" lon="18.088702">
        <ele>34</ele>
        <time>2020-01-30T08:20:53Z</time>
      </trkpt>
      <trkpt lat="59.285803" lon="18.088729">
        <ele>34</ele>
        <time>2020-01-30T08:20:54Z</time>
      </trkpt>
      <trkpt lat="59.285748" lon="18.088757">
        <ele>34</ele>
        <time>2020-01-30T08:20:55Z</time>
      </trkpt>
      <trkpt lat="59.285693" lon="18.088787">
        <ele>34</ele>
        <time>2020-01-30T08:20:56Z</time>
      </trkpt>
      <trkpt lat="59.285639" lon="18.088818">
        <ele>34</ele>
        <time>2020-01-30T08:20:57Z</time>
      </trkpt>
      <trkpt lat="59.285584" lon="18.088847">
        <ele>34</ele>
        <time>2020-01-30T08:20:58Z</time>
      </trkpt>
      <trkpt lat="59.285528" lon="18.088877">
        <ele>34</ele>
        <time>2020-01-30T08:20:59Z</time>
      </trkpt>
      <trkpt lat="59.285472" lon="18.088906">
        <ele>34</ele>
        <time>2020-01-30T08:21:00Z</time>
      </trkpt>
      <trkpt lat="59.285415" lon="18.088935">
        <ele>34</ele>
        <time>2020-01-30T08:21:01Z</time>
      </trkpt>
      <trkpt lat="59.285359" lon="18.088961">
        <ele>34</ele>
        <time>2020-01-30T08:21:02Z</time>
      </trkpt>
      <trkpt lat="59.285302" lon="18.088988">
        <ele>34</ele>
        <time>2020-01-30T08:21:03Z</time>
      </trkpt>
      <trkpt lat="59.285245" lon="18.089015">
        <ele>34</ele>
        <time>2020-01-30T08:21:04Z</time>
      </trkpt>
      <trkpt lat="59.285188" lon="18.089041">
        <ele>34</ele>
        <time>2020-01-30T08:21:05Z</time>
      </trkpt>
      <trkpt lat="59.28513" lon="18.089068">
        <ele>34</ele>
        <time>2020-01-30T08:21:06Z</time>
      </trkpt>
      <trkpt lat="59.285072" lon="18.089098">
        <ele>34</ele>
        <time>2020-01-30T08:21:07Z</time>
      </trkpt>
      <trkpt lat="59.285014" lon="18.089127">
        <ele>34</ele>
        <time>2020-01-30T08:21:08Z</time>
      </trkpt>
      <trkpt lat="59.284955" lon="18.089155">
        <ele>34</ele>
        <time>2020-01-30T08:21:09Z</time>
      </trkpt>
      <trkpt lat="59.284898" lon="18.089185">
        <ele>34</ele>
        <time>2020-01-30T08:21:10Z</time>
      </trkpt>
      <trkpt lat="59.28484" lon="18.089213">
        <ele>34</ele>
        <time>2020-01-30T08:21:11Z</time>
      </trkpt>
      <trkpt lat="59.284783" lon="18.089246">
        <ele>34</ele>
        <time>2020-01-30T08:21:12Z</time>
      </trkpt>
      <trkpt lat="59.284728" lon="18.089282">
        <ele>34</ele>
        <time>2020-01-30T08:21:13Z</time>
      </trkpt>
      <trkpt lat="59.284673" lon="18.089314">
        <ele>34</ele>
        <time>2020-01-30T08:21:14Z</time>
      </trkpt>
      <trkpt lat="59.284618" lon="18.089342">
        <ele>34</ele>
        <time>2020-01-30T08:21:15Z</time>
      </trkpt>
      <trkpt lat="59.284562" lon="18.089362">
        <ele>34</ele>
        <time>2020-01-30T08:21:16Z</time>
      </trkpt>
      <trkpt lat="59.284506" lon="18.089378">
        <ele>34</ele>
        <time>2020-01-30T08:21:17Z</time>
      </trkpt>
      <trkpt lat="59.284451" lon="18.089398">
        <ele>34</ele>
        <time>2020-01-30T08:21:18Z</time>
      </trkpt>
      <trkpt lat="59.284398" lon="18.089422">
        <ele>34</ele>
        <time>2020-01-30T08:21:19Z</time>
      </trkpt>
      <trkpt lat="59.284342" lon="18.089447">
        <ele>34</ele>
        <time>2020-01-30T08:21:20Z</time>
      </trkpt>
      <trkpt lat="59.284286" lon="18.089477">
        <ele>34</ele>
        <time>2020-01-30T08:21:21Z</time>
      </trkpt>
      <trkpt lat="59.284229" lon="18.089505">
        <ele>34</ele>
        <time>2020-01-30T08:21:22Z</time>
      </trkpt>
      <trkpt lat="59.284173" lon="18.089537">
        <ele>34</ele>
        <time>2020-01-30T08:21:23Z</time>
      </trkpt>
      <trkpt lat="59.284116" lon="18.08957">
        <ele>34</ele>
        <time>2020-01-30T08:21:24Z</time>
      </trkpt>
      <trkpt lat="59.284057" lon="18.089599">
        <ele>34</ele>
        <time>2020-01-30T08:21:25Z</time>
      </trkpt>
      <trkpt lat="59.284002" lon="18.089631">
        <ele>34</ele>
        <time>2020-01-30T08:21:26Z</time>
      </trkpt>
      <trkpt lat="59.283945" lon="18.089661">
        <ele>34</ele>
        <time>2020-01-30T08:21:27Z</time>
      </trkpt>
      <trkpt lat="59.283885" lon="18.089689">
        <ele>34</ele>
        <time>2020-01-30T08:21:28Z</time>
      </trkpt>
      <trkpt lat="59.283828" lon="18.089719">
        <ele>34</ele>
        <time>2020-01-30T08:21:29Z</time>
      </trkpt>
      <trkpt lat="59.283772" lon="18.089746">
        <ele>34</ele>
        <time>2020-01-30T08:21:30Z</time>
      </trkpt>
      <trkpt lat="59.283716" lon="18.089772">
        <ele>34</ele>
        <time>2020-01-30T08:21:31Z</time>
      </trkpt>
      <trkpt lat="59.28366" lon="18.089794">
        <ele>34</ele>
        <time>2020-01-30T08:21:32Z</time>
      </trkpt>
      <trkpt lat="59.283605" lon="18.089824">
        <ele>34</ele>
        <time>2020-01-30T08:21:33Z</time>
      </trkpt>
      <trkpt lat="59.283546" lon="18.089849">
        <ele>34</ele>
        <time>2020-01-30T08:21:34Z</time>
      </trkpt>
      <trkpt lat="59.283488" lon="18.089873">
        <ele>33</ele>
        <time>2020-01-30T08:21:35Z</time>
      </trkpt>
      <trkpt lat="59.28343" lon="18.089898">
        <ele>33</ele>
        <time>2020-01-30T08:21:36Z</time>
      </trkpt>
      <trkpt lat="59.283371" lon="18.089918">
        <ele>33</ele>
        <time>2020-01-30T08:21:37Z</time>
      </trkpt>
      <trkpt lat="59.283311" lon="18.089938">
        <ele>33</ele>
        <time>2020-01-30T08:21:38Z</time>
      </trkpt>
      <trkpt lat="59.283249" lon="18.089956">
        <ele>33</ele>
        <time>2020-01-30T08:21:39Z</time>
      </trkpt>
      <trkpt lat="59.283189" lon="18.089977">
        <ele>33</ele>
        <time>2020-01-30T08:21:40Z</time>
      </trkpt>
      <trkpt lat="59.283128" lon="18.090003">
        <ele>33</ele>
        <time>2020-01-30T08:21:41Z</time>
      </trkpt>
      <trkpt lat="59.283068" lon="18.090026">
        <ele>32</ele>
        <time>2020-01-30T08:21:42Z</time>
      </trkpt>
      <trkpt lat="59.283008" lon="18.090051">
        <ele>32</ele>
        <time>2020-01-30T08:21:43Z</time>
      </trkpt>
      <trkpt lat="59.282948" lon="18.090075">
        <ele>32</ele>
        <time>2020-01-30T08:21:44Z</time>
      </trkpt>
      <trkpt lat="59.282887" lon="18.090097">
        <ele>32</ele>
        <time>2020-01-30T08:21:45Z</time>
      </trkpt>
      <trkpt lat="59.282826" lon="18.09012">
        <ele>32</ele>
        <time>2020-01-30T08:21:46Z</time>
      </trkpt>
      <trkpt lat="59.282765" lon="18.090145">
        <ele>32</ele>
        <time>2020-01-30T08:21:47Z</time>
      </trkpt>
      <trkpt lat="59.282705" lon="18.090165">
        <ele>32</ele>
        <time>2020-01-30T08:21:48Z</time>
      </trkpt>
      <trkpt lat="59.282645" lon="18.090186">
        <ele>32</ele>
        <time>2020-01-30T08:21:49Z</time>
      </trkpt>
      <trkpt lat="59.282585" lon="18.090208">
        <ele>32</ele>
        <time>2020-01-30T08:21:50Z</time>
      </trkpt>
      <trkpt lat="59.282526" lon="18.090228">
        <ele>32</ele>
        <time>2020-01-30T08:21:51Z</time>
      </trkpt>
      <trkpt lat="59.282467" lon="18.090248">
        <ele>32</ele>
        <time>2020-01-30T08:21:52Z</time>
      </trkpt>
      <trkpt lat="59.282409" lon="18.090269">
        <ele>32</ele>
        <time>2020-01-30T08:21:53Z</time>
      </trkpt>
      <trkpt lat="59.28235" lon="18.09029">
        <ele>32</ele>
        <time>2020-01-30T08:21:54Z</time>
      </trkpt>
      <trkpt lat="59.282292" lon="18.090313">
        <ele>32</ele>
        <time>2020-01-30T08:21:55Z</time>
      </trkpt>
      <trkpt lat="59.282234" lon="18.090335">
        <ele>32</ele>
        <time>2020-01-30T08:21:56Z</time>
      </trkpt>
      <trkpt lat="59.282176" lon="18.090356">
        <ele>32</ele>
        <time>2020-01-30T08:21:57Z</time>
      </trkpt>
      <trkpt lat="59.282117" lon="18.090376">
        <ele>32</ele>
        <time>2020-01-30T08:21:58Z</time>
      </trkpt>
      <trkpt lat="59.28206" lon="18.090398">
        <ele>32</ele>
        <time>2020-01-30T08:21:59Z</time>
      </trkpt>
      <trkpt lat="59.282002" lon="18.090417">
        <ele>32</ele>
        <time>2020-01-30T08:22:00Z</time>
      </trkpt>
      <trkpt lat="59.281947" lon="18.090438">
        <ele>32</ele>
        <time>2020-01-30T08:22:01Z</time>
      </trkpt>
      <trkpt lat="59.281889" lon="18.09046">
        <ele>32</ele>
        <time>2020-01-30T08:22:02Z</time>
      </trkpt>
      <trkpt lat="59.281833" lon="18.090482">
        <ele>32</ele>
        <time>2020-01-30T08:22:03Z</time>
      </trkpt>
      <trkpt lat="59.281777" lon="18.090501">
        <ele>32</ele>
        <time>2020-01-30T08:22:04Z</time>
      </trkpt>
      <trkpt lat="59.281721" lon="18.090521">
        <ele>32</ele>
        <time>2020-01-30T08:22:05Z</time>
      </trkpt>
      <trkpt lat="59.281669" lon="18.090542">
        <ele>32</ele>
        <time>2020-01-30T08:22:06Z</time>
      </trkpt>
      <trkpt lat="59.281612" lon="18.090561">
        <ele>32</ele>
        <time>2020-01-30T08:22:07Z</time>
      </trkpt>
      <trkpt lat="59.281553" lon="18.090585">
        <ele>32</ele>
        <time>2020-01-30T08:22:08Z</time>
      </trkpt>
      <trkpt lat="59.281496" lon="18.090608">
        <ele>32</ele>
        <time>2020-01-30T08:22:09Z</time>
      </trkpt>
      <trkpt lat="59.281441" lon="18.090627">
        <ele>32</ele>
        <time>2020-01-30T08:22:10Z</time>
      </trkpt>
      <trkpt lat="59.281385" lon="18.090648">
        <ele>32</ele>
        <time>2020-01-30T08:22:11Z</time>
      </trkpt>
      <trkpt lat="59.281328" lon="18.090673">
        <ele>32</ele>
        <time>2020-01-30T08:22:12Z</time>
      </trkpt>
      <trkpt lat="59.281269" lon="18.090697">
        <ele>32</ele>
        <time>2020-01-30T08:22:13Z</time>
      </trkpt>
      <trkpt lat="59.281212" lon="18.090717">
        <ele>31</ele>
        <time>2020-01-30T08:22:14Z</time>
      </trkpt>
      <trkpt lat="59.281156" lon="18.090736">
        <ele>31</ele>
        <time>2020-01-30T08:22:15Z</time>
      </trkpt>
      <trkpt lat="59.2811" lon="18.090754">
        <ele>31</ele>
        <time>2020-01-30T08:22:16Z</time>
      </trkpt>
      <trkpt lat="59.281045" lon="18.090773">
        <ele>31</ele>
        <time>2020-01-30T08:22:17Z</time>
      </trkpt>
      <trkpt lat="59.28099" lon="18.090795">
        <ele>31</ele>
        <time>2020-01-30T08:22:18Z</time>
      </trkpt>
      <trkpt lat="59.280934" lon="18.090816">
        <ele>31</ele>
        <time>2020-01-30T08:22:19Z</time>
      </trkpt>
      <trkpt lat="59.280878" lon="18.090833">
        <ele>31</ele>
        <time>2020-01-30T08:22:20Z</time>
      </trkpt>
      <trkpt lat="59.280823" lon="18.090852">
        <ele>31</ele>
        <time>2020-01-30T08:22:21Z</time>
      </trkpt>
      <trkpt lat="59.280766" lon="18.09087">
        <ele>31</ele>
        <time>2020-01-30T08:22:22Z</time>
      </trkpt>
      <trkpt lat="59.280708" lon="18.09089">
        <ele>31</ele>
        <time>2020-01-30T08:22:23Z</time>
      </trkpt>
      <trkpt lat="59.280652" lon="18.090914">
        <ele>31</ele>
        <time>2020-01-30T08:22:24Z</time>
      </trkpt>
      <trkpt lat="59.280597" lon="18.090942">
        <ele>31</ele>
        <time>2020-01-30T08:22:25Z</time>
      </trkpt>
      <trkpt lat="59.280542" lon="18.090962">
        <ele>31</ele>
        <time>2020-01-30T08:22:26Z</time>
      </trkpt>
      <trkpt lat="59.280487" lon="18.090983">
        <ele>31</ele>
        <time>2020-01-30T08:22:27Z</time>
      </trkpt>
      <trkpt lat="59.280432" lon="18.091003">
        <ele>31</ele>
        <time>2020-01-30T08:22:28Z</time>
      </trkpt>
      <trkpt lat="59.280377" lon="18.091024">
        <ele>31</ele>
        <time>2020-01-30T08:22:29Z</time>
      </trkpt>
      <trkpt lat="59.280323" lon="18.091043">
        <ele>31</ele>
        <time>2020-01-30T08:22:30Z</time>
      </trkpt>
      <trkpt lat="59.280267" lon="18.091066">
        <ele>31</ele>
        <time>2020-01-30T08:22:31Z</time>
      </trkpt>
      <trkpt lat="59.280211" lon="18.091088">
        <ele>31</ele>
        <time>2020-01-30T08:22:32Z</time>
      </trkpt>
      <trkpt lat="59.280155" lon="18.091109">
        <ele>31</ele>
        <time>2020-01-30T08:22:33Z</time>
      </trkpt>
      <trkpt lat="59.280099" lon="18.091131">
        <ele>31</ele>
        <time>2020-01-30T08:22:34Z</time>
      </trkpt>
      <trkpt lat="59.280043" lon="18.091152">
        <ele>31</ele>
        <time>2020-01-30T08:22:35Z</time>
      </trkpt>
      <trkpt lat="59.279988" lon="18.091173">
        <ele>31</ele>
        <time>2020-01-30T08:22:36Z</time>
      </trkpt>
      <trkpt lat="59.279933" lon="18.091194">
        <ele>31</ele>
        <time>2020-01-30T08:22:37Z</time>
      </trkpt>
      <trkpt lat="59.279878" lon="18.091215">
        <ele>31</ele>
        <time>2020-01-30T08:22:38Z</time>
      </trkpt>
      <trkpt lat="59.279825" lon="18.091233">
        <ele>31</ele>
        <time>2020-01-30T08:22:39Z</time>
      </trkpt>
      <trkpt lat="59.279774" lon="18.09125">
        <ele>31</ele>
        <time>2020-01-30T08:22:40Z</time>
      </trkpt>
      <trkpt lat="59.279723" lon="18.091261">
        <ele>31</ele>
        <time>2020-01-30T08:22:41Z</time>
      </trkpt>
      <trkpt lat="59.27967" lon="18.09127">
        <ele>31</ele>
        <time>2020-01-30T08:22:42Z</time>
      </trkpt>
      <trkpt lat="59.279618" lon="18.091279">
        <ele>31</ele>
        <time>2020-01-30T08:22:43Z</time>
      </trkpt>
      <trkpt lat="59.27957" lon="18.091287">
        <ele>31</ele>
        <time>2020-01-30T08:22:44Z</time>
      </trkpt>
      <trkpt lat="59.279527" lon="18.091294">
        <ele>31</ele>
        <time>2020-01-30T08:22:45Z</time>
      </trkpt>
      <trkpt lat="59.279488" lon="18.0913">
        <ele>31</ele>
        <time>2020-01-30T08:22:46Z</time>
      </trkpt>
      <trkpt lat="59.279456" lon="18.091303">
        <ele>31</ele>
        <time>2020-01-30T08:22:47Z</time>
      </trkpt>
      <trkpt lat="59.27943" lon="18.091304">
        <ele>31</ele>
        <time>2020-01-30T08:22:48Z</time>
      </trkpt>
      <trkpt lat="59.279409" lon="18.091302">
        <ele>31</ele>
        <time>2020-01-30T08:22:49Z</time>
      </trkpt>
      <trkpt lat="59.279384" lon="18.091302">
        <ele>31</ele>
        <time>2020-01-30T08:22:51Z</time>
      </trkpt>
      <trkpt lat="59.279356" lon="18.091313">
        <ele>31</ele>
        <time>2020-01-30T08:22:54Z</time>
      </trkpt>
      <trkpt lat="59.279321" lon="18.091319">
        <ele>31</ele>
        <time>2020-01-30T08:22:56Z</time>
      </trkpt>
      <trkpt lat="59.279303" lon="18.091322">
        <ele>31</ele>
        <time>2020-01-30T08:22:57Z</time>
      </trkpt>
      <trkpt lat="59.279273" lon="18.091329">
        <ele>31</ele>
        <time>2020-01-30T08:22:59Z</time>
      </trkpt>
      <trkpt lat="59.27925" lon="18.091336">
        <ele>31</ele>
        <time>2020-01-30T08:23:01Z</time>
      </trkpt>
      <trkpt lat="59.279239" lon="18.091342">
        <ele>31</ele>
        <time>2020-01-30T08:23:07Z</time>
      </trkpt>
      <trkpt lat="59.279203" lon="18.091352">
        <ele>32</ele>
        <time>2020-01-30T08:23:38Z</time>
      </trkpt>
      <trkpt lat="59.279175" lon="18.091365">
        <ele>32</ele>
        <time>2020-01-30T08:23:39Z</time>
      </trkpt>
      <trkpt lat="59.279143" lon="18.091385">
        <ele>32</ele>
        <time>2020-01-30T08:23:40Z</time>
      </trkpt>
      <trkpt lat="59.27911" lon="18.091418">
        <ele>32</ele>
        <time>2020-01-30T08:23:41Z</time>
      </trkpt>
      <trkpt lat="59.279075" lon="18.09146">
        <ele>32</ele>
        <time>2020-01-30T08:23:42Z</time>
      </trkpt>
      <trkpt lat="59.279035" lon="18.091497">
        <ele>32</ele>
        <time>2020-01-30T08:23:43Z</time>
      </trkpt>
      <trkpt lat="59.27899" lon="18.091529">
        <ele>32</ele>
        <time>2020-01-30T08:23:44Z</time>
      </trkpt>
      <trkpt lat="59.278947" lon="18.091553">
        <ele>33</ele>
        <time>2020-01-30T08:23:45Z</time>
      </trkpt>
      <trkpt lat="59.278904" lon="18.091574">
        <ele>33</ele>
        <time>2020-01-30T08:23:46Z</time>
      </trkpt>
      <trkpt lat="59.278861" lon="18.091593">
        <ele>33</ele>
        <time>2020-01-30T08:23:47Z</time>
      </trkpt>
      <trkpt lat="59.278818" lon="18.091608">
        <ele>33</ele>
        <time>2020-01-30T08:23:48Z</time>
      </trkpt>
      <trkpt lat="59.278774" lon="18.091621">
        <ele>33</ele>
        <time>2020-01-30T08:23:49Z</time>
      </trkpt>
      <trkpt lat="59.278725" lon="18.091636">
        <ele>33</ele>
        <time>2020-01-30T08:23:50Z</time>
      </trkpt>
      <trkpt lat="59.278676" lon="18.091653">
        <ele>33</ele>
        <time>2020-01-30T08:23:51Z</time>
      </trkpt>
      <trkpt lat="59.278628" lon="18.091665">
        <ele>33</ele>
        <time>2020-01-30T08:23:52Z</time>
      </trkpt>
      <trkpt lat="59.278575" lon="18.091674">
        <ele>33</ele>
        <time>2020-01-30T08:23:53Z</time>
      </trkpt>
      <trkpt lat="59.278524" lon="18.091676">
        <ele>33</ele>
        <time>2020-01-30T08:23:54Z</time>
      </trkpt>
      <trkpt lat="59.278474" lon="18.091677">
        <ele>33</ele>
        <time>2020-01-30T08:23:55Z</time>
      </trkpt>
      <trkpt lat="59.27842" lon="18.091681">
        <ele>33</ele>
        <time>2020-01-30T08:23:56Z</time>
      </trkpt>
      <trkpt lat="59.27837" lon="18.09168">
        <ele>33</ele>
        <time>2020-01-30T08:23:57Z</time>
      </trkpt>
      <trkpt lat="59.278325" lon="18.091677">
        <ele>33</ele>
        <time>2020-01-30T08:23:58Z</time>
      </trkpt>
      <trkpt lat="59.278286" lon="18.091688">
        <ele>33</ele>
        <time>2020-01-30T08:23:59Z</time>
      </trkpt>
      <trkpt lat="59.278246" lon="18.091719">
        <ele>33</ele>
        <time>2020-01-30T08:24:00Z</time>
      </trkpt>
      <trkpt lat="59.278205" lon="18.09176">
        <ele>33</ele>
        <time>2020-01-30T08:24:01Z</time>
      </trkpt>
      <trkpt lat="59.278162" lon="18.09179">
        <ele>33</ele>
        <time>2020-01-30T08:24:02Z</time>
      </trkpt>
      <trkpt lat="59.278115" lon="18.0918">
        <ele>33</ele>
        <time>2020-01-30T08:24:03Z</time>
      </trkpt>
      <trkpt lat="59.278067" lon="18.091805">
        <ele>33</ele>
        <time>2020-01-30T08:24:04Z</time>
      </trkpt>
      <trkpt lat="59.27802" lon="18.091812">
        <ele>33</ele>
        <time>2020-01-30T08:24:05Z</time>
      </trkpt>
      <trkpt lat="59.277973" lon="18.091817">
        <ele>33</ele>
        <time>2020-01-30T08:24:06Z</time>
      </trkpt>
      <trkpt lat="59.277925" lon="18.09182">
        <ele>33</ele>
        <time>2020-01-30T08:24:07Z</time>
      </trkpt>
      <trkpt lat="59.277878" lon="18.091823">
        <ele>33</ele>
        <time>2020-01-30T08:24:08Z</time>
      </trkpt>
      <trkpt lat="59.277832" lon="18.091824">
        <ele>33</ele>
        <time>2020-01-30T08:24:09Z</time>
      </trkpt>
      <trkpt lat="59.277785" lon="18.091828">
        <ele>33</ele>
        <time>2020-01-30T08:24:10Z</time>
      </trkpt>
      <trkpt lat="59.277739" lon="18.091836">
        <ele>33</ele>
        <time>2020-01-30T08:24:11Z</time>
      </trkpt>
      <trkpt lat="59.277693" lon="18.091844">
        <ele>33</ele>
        <time>2020-01-30T08:24:12Z</time>
      </trkpt>
      <trkpt lat="59.277648" lon="18.091852">
        <ele>33</ele>
        <time>2020-01-30T08:24:13Z</time>
      </trkpt>
      <trkpt lat="59.277602" lon="18.091861">
        <ele>33</ele>
        <time>2020-01-30T08:24:14Z</time>
      </trkpt>
      <trkpt lat="59.277556" lon="18.091872">
        <ele>33</ele>
        <time>2020-01-30T08:24:15Z</time>
      </trkpt>
      <trkpt lat="59.277509" lon="18.091886">
        <ele>33</ele>
        <time>2020-01-30T08:24:16Z</time>
      </trkpt>
      <trkpt lat="59.277463" lon="18.091898">
        <ele>34</ele>
        <time>2020-01-30T08:24:17Z</time>
      </trkpt>
      <trkpt lat="59.277416" lon="18.091912">
        <ele>34</ele>
        <time>2020-01-30T08:24:18Z</time>
      </trkpt>
      <trkpt lat="59.277369" lon="18.091924">
        <ele>34</ele>
        <time>2020-01-30T08:24:19Z</time>
      </trkpt>
      <trkpt lat="59.277323" lon="18.091935">
        <ele>34</ele>
        <time>2020-01-30T08:24:20Z</time>
      </trkpt>
      <trkpt lat="59.277277" lon="18.091944">
        <ele>34</ele>
        <time>2020-01-30T08:24:21Z</time>
      </trkpt>
      <trkpt lat="59.277231" lon="18.091953">
        <ele>34</ele>
        <time>2020-01-30T08:24:22Z</time>
      </trkpt>
      <trkpt lat="59.277186" lon="18.091963">
        <ele>34</ele>
        <time>2020-01-30T08:24:23Z</time>
      </trkpt>
      <trkpt lat="59.277141" lon="18.091975">
        <ele>34</ele>
        <time>2020-01-30T08:24:24Z</time>
      </trkpt>
      <trkpt lat="59.277096" lon="18.091989">
        <ele>34</ele>
        <time>2020-01-30T08:24:25Z</time>
      </trkpt>
      <trkpt lat="59.277051" lon="18.092003">
        <ele>34</ele>
        <time>2020-01-30T08:24:26Z</time>
      </trkpt>
      <trkpt lat="59.277005" lon="18.092016">
        <ele>34</ele>
        <time>2020-01-30T08:24:27Z</time>
      </trkpt>
      <trkpt lat="59.276959" lon="18.092029">
        <ele>34</ele>
        <time>2020-01-30T08:24:28Z</time>
      </trkpt>
      <trkpt lat="59.276913" lon="18.092044">
        <ele>34</ele>
        <time>2020-01-30T08:24:29Z</time>
      </trkpt>
      <trkpt lat="59.276866" lon="18.092059">
        <ele>34</ele>
        <time>2020-01-30T08:24:30Z</time>
      </trkpt>
      <trkpt lat="59.27682" lon="18.092075">
        <ele>34</ele>
        <time>2020-01-30T08:24:31Z</time>
      </trkpt>
      <trkpt lat="59.276774" lon="18.092092">
        <ele>34</ele>
        <time>2020-01-30T08:24:32Z</time>
      </trkpt>
      <trkpt lat="59.276727" lon="18.092108">
        <ele>34</ele>
        <time>2020-01-30T08:24:33Z</time>
      </trkpt>
      <trkpt lat="59.27668" lon="18.092125">
        <ele>34</ele>
        <time>2020-01-30T08:24:34Z</time>
      </trkpt>
      <trkpt lat="59.276631" lon="18.092144">
        <ele>0</ele>
        <time>2020-01-30T08:24:34Z</time>
      </trkpt>
      <trkpt lat="59.276583" lon="18.092162">
        <ele>34</ele>
        <time>2020-01-30T08:24:35Z</time>
      </trkpt>
      <trkpt lat="59.276536" lon="18.092181">
        <ele>34</ele>
        <time>2020-01-30T08:24:37Z</time>
      </trkpt>
      <trkpt lat="59.276488" lon="18.092199">
        <ele>34</ele>
        <time>2020-01-30T08:24:38Z</time>
      </trkpt>
      <trkpt lat="59.276439" lon="18.092218">
        <ele>34</ele>
        <time>2020-01-30T08:24:39Z</time>
      </trkpt>
      <trkpt lat="59.276391" lon="18.092233">
        <ele>34</ele>
        <time>2020-01-30T08:24:40Z</time>
      </trkpt>
      <trkpt lat="59.276341" lon="18.092248">
        <ele>34</ele>
        <time>2020-01-30T08:24:41Z</time>
      </trkpt>
      <trkpt lat="59.276291" lon="18.092267">
        <ele>34</ele>
        <time>2020-01-30T08:24:42Z</time>
      </trkpt>
      <trkpt lat="59.276241" lon="18.092287">
        <ele>34</ele>
        <time>2020-01-30T08:24:43Z</time>
      </trkpt>
      <trkpt lat="59.27619" lon="18.092303">
        <ele>34</ele>
        <time>2020-01-30T08:24:44Z</time>
      </trkpt>
      <trkpt lat="59.276139" lon="18.092318">
        <ele>34</ele>
        <time>2020-01-30T08:24:45Z</time>
      </trkpt>
      <trkpt lat="59.276088" lon="18.092336">
        <ele>34</ele>
        <time>2020-01-30T08:24:46Z</time>
      </trkpt>
      <trkpt lat="59.276037" lon="18.09235">
        <ele>34</ele>
        <time>2020-01-30T08:24:47Z</time>
      </trkpt>
      <trkpt lat="59.275985" lon="18.092364">
        <ele>34</ele>
        <time>2020-01-30T08:24:48Z</time>
      </trkpt>
      <trkpt lat="59.275934" lon="18.092377">
        <ele>34</ele>
        <time>2020-01-30T08:24:49Z</time>
      </trkpt>
      <trkpt lat="59.275882" lon="18.092391">
        <ele>34</ele>
        <time>2020-01-30T08:24:50Z</time>
      </trkpt>
      <trkpt lat="59.275831" lon="18.092406">
        <ele>34</ele>
        <time>2020-01-30T08:24:51Z</time>
      </trkpt>
      <trkpt lat="59.27578" lon="18.092426">
        <ele>34</ele>
        <time>2020-01-30T08:24:52Z</time>
      </trkpt>
      <trkpt lat="59.275729" lon="18.092442">
        <ele>34</ele>
        <time>2020-01-30T08:24:53Z</time>
      </trkpt>
      <trkpt lat="59.275679" lon="18.092458">
        <ele>34</ele>
        <time>2020-01-30T08:24:54Z</time>
      </trkpt>
      <trkpt lat="59.275628" lon="18.092472">
        <ele>34</ele>
        <time>2020-01-30T08:24:55Z</time>
      </trkpt>
      <trkpt lat="59.275578" lon="18.092481">
        <ele>34</ele>
        <time>2020-01-30T08:24:56Z</time>
      </trkpt>
      <trkpt lat="59.275528" lon="18.092487">
        <ele>34</ele>
        <time>2020-01-30T08:24:57Z</time>
      </trkpt>
      <trkpt lat="59.275477" lon="18.092493">
        <ele>34</ele>
        <time>2020-01-30T08:24:58Z</time>
      </trkpt>
      <trkpt lat="59.275426" lon="18.092499">
        <ele>34</ele>
        <time>2020-01-30T08:24:59Z</time>
      </trkpt>
      <trkpt lat="59.275374" lon="18.092505">
        <ele>34</ele>
        <time>2020-01-30T08:25:00Z</time>
      </trkpt>
      <trkpt lat="59.275323" lon="18.092512">
        <ele>34</ele>
        <time>2020-01-30T08:25:01Z</time>
      </trkpt>
      <trkpt lat="59.275271" lon="18.092518">
        <ele>34</ele>
        <time>2020-01-30T08:25:02Z</time>
      </trkpt>
      <trkpt lat="59.27522" lon="18.092526">
        <ele>34</ele>
        <time>2020-01-30T08:25:03Z</time>
      </trkpt>
      <trkpt lat="59.275168" lon="18.092532">
        <ele>34</ele>
        <time>2020-01-30T08:25:04Z</time>
      </trkpt>
      <trkpt lat="59.275117" lon="18.092536">
        <ele>34</ele>
        <time>2020-01-30T08:25:05Z</time>
      </trkpt>
      <trkpt lat="59.275066" lon="18.092539">
        <ele>35</ele>
        <time>2020-01-30T08:25:06Z</time>
      </trkpt>
      <trkpt lat="59.275015" lon="18.09254">
        <ele>35</ele>
        <time>2020-01-30T08:25:07Z</time>
      </trkpt>
      <trkpt lat="59.274964" lon="18.092535">
        <ele>35</ele>
        <time>2020-01-30T08:25:08Z</time>
      </trkpt>
      <trkpt lat="59.274915" lon="18.09252">
        <ele>35</ele>
        <time>2020-01-30T08:25:09Z</time>
      </trkpt>
      <trkpt lat="59.274868" lon="18.09249">
        <ele>35</ele>
        <time>2020-01-30T08:25:10Z</time>
      </trkpt>
      <trkpt lat="59.274823" lon="18.092447">
        <ele>35</ele>
        <time>2020-01-30T08:25:11Z</time>
      </trkpt>
      <trkpt lat="59.274781" lon="18.092394">
        <ele>35</ele>
        <time>2020-01-30T08:25:12Z</time>
      </trkpt>
      <trkpt lat="59.27474" lon="18.092336">
        <ele>35</ele>
        <time>2020-01-30T08:25:13Z</time>
      </trkpt>
      <trkpt lat="59.274701" lon="18.092274">
        <ele>35</ele>
        <time>2020-01-30T08:25:14Z</time>
      </trkpt>
      <trkpt lat="59.274661" lon="18.092212">
        <ele>35</ele>
        <time>2020-01-30T08:25:15Z</time>
      </trkpt>
      <trkpt lat="59.274621" lon="18.092151">
        <ele>35</ele>
        <time>2020-01-30T08:25:16Z</time>
      </trkpt>
      <trkpt lat="59.27458" lon="18.092094">
        <ele>35</ele>
        <time>2020-01-30T08:25:17Z</time>
      </trkpt>
      <trkpt lat="59.274538" lon="18.092043">
        <ele>35</ele>
        <time>2020-01-30T08:25:18Z</time>
      </trkpt>
      <trkpt lat="59.274493" lon="18.092">
        <ele>35</ele>
        <time>2020-01-30T08:25:19Z</time>
      </trkpt>
      <trkpt lat="59.274439" lon="18.091973">
        <ele>35</ele>
        <time>2020-01-30T08:25:20Z</time>
      </trkpt>
      <trkpt lat="59.274391" lon="18.09195">
        <ele>35</ele>
        <time>2020-01-30T08:25:21Z</time>
      </trkpt>
      <trkpt lat="59.274343" lon="18.09193">
        <ele>35</ele>
        <time>2020-01-30T08:25:22Z</time>
      </trkpt>
      <trkpt lat="59.274293" lon="18.091908">
        <ele>35</ele>
        <time>2020-01-30T08:25:23Z</time>
      </trkpt>
      <trkpt lat="59.274243" lon="18.09188">
        <ele>35</ele>
        <time>2020-01-30T08:25:24Z</time>
      </trkpt>
      <trkpt lat="59.274194" lon="18.091843">
        <ele>35</ele>
        <time>2020-01-30T08:25:25Z</time>
      </trkpt>
      <trkpt lat="59.274153" lon="18.09179">
        <ele>36</ele>
        <time>2020-01-30T08:25:26Z</time>
      </trkpt>
      <trkpt lat="59.274118" lon="18.091725">
        <ele>36</ele>
        <time>2020-01-30T08:25:27Z</time>
      </trkpt>
      <trkpt lat="59.274089" lon="18.091652">
        <ele>36</ele>
        <time>2020-01-30T08:25:28Z</time>
      </trkpt>
      <trkpt lat="59.274061" lon="18.091579">
        <ele>36</ele>
        <time>2020-01-30T08:25:29Z</time>
      </trkpt>
      <trkpt lat="59.274034" lon="18.091506">
        <ele>36</ele>
        <time>2020-01-30T08:25:30Z</time>
      </trkpt>
      <trkpt lat="59.274005" lon="18.091433">
        <ele>36</ele>
        <time>2020-01-30T08:25:31Z</time>
      </trkpt>
      <trkpt lat="59.273975" lon="18.091361">
        <ele>37</ele>
        <time>2020-01-30T08:25:32Z</time>
      </trkpt>
      <trkpt lat="59.273946" lon="18.091289">
        <ele>37</ele>
        <time>2020-01-30T08:25:33Z</time>
      </trkpt>
      <trkpt lat="59.273917" lon="18.091217">
        <ele>37</ele>
        <time>2020-01-30T08:25:34Z</time>
      </trkpt>
      <trkpt lat="59.273888" lon="18.091145">
        <ele>37</ele>
        <time>2020-01-30T08:25:35Z</time>
      </trkpt>
      <trkpt lat="59.273859" lon="18.091074">
        <ele>37</ele>
        <time>2020-01-30T08:25:36Z</time>
      </trkpt>
      <trkpt lat="59.273833" lon="18.091004">
        <ele>37</ele>
        <time>2020-01-30T08:25:37Z</time>
      </trkpt>
      <trkpt lat="59.273807" lon="18.090937">
        <ele>37</ele>
        <time>2020-01-30T08:25:38Z</time>
      </trkpt>
      <trkpt lat="59.273775" lon="18.090882">
        <ele>37</ele>
        <time>2020-01-30T08:25:39Z</time>
      </trkpt>
      <trkpt lat="59.273736" lon="18.090849">
        <ele>37</ele>
        <time>2020-01-30T08:25:40Z</time>
      </trkpt>
      <trkpt lat="59.273694" lon="18.090843">
        <ele>38</ele>
        <time>2020-01-30T08:25:41Z</time>
      </trkpt>
      <trkpt lat="59.273651" lon="18.090855">
        <ele>38</ele>
        <time>2020-01-30T08:25:42Z</time>
      </trkpt>
      <trkpt lat="59.27361" lon="18.090875">
        <ele>38</ele>
        <time>2020-01-30T08:25:43Z</time>
      </trkpt>
      <trkpt lat="59.27357" lon="18.090896">
        <ele>38</ele>
        <time>2020-01-30T08:25:44Z</time>
      </trkpt>
      <trkpt lat="59.27353" lon="18.090917">
        <ele>38</ele>
        <time>2020-01-30T08:25:45Z</time>
      </trkpt>
      <trkpt lat="59.273492" lon="18.090942">
        <ele>38</ele>
        <time>2020-01-30T08:25:46Z</time>
      </trkpt>
      <trkpt lat="59.273453" lon="18.090963">
        <ele>38</ele>
        <time>2020-01-30T08:25:47Z</time>
      </trkpt>
      <trkpt lat="59.273415" lon="18.090982">
        <ele>39</ele>
        <time>2020-01-30T08:25:48Z</time>
      </trkpt>
      <trkpt lat="59.273378" lon="18.091002">
        <ele>39</ele>
        <time>2020-01-30T08:25:49Z</time>
      </trkpt>
      <trkpt lat="59.273341" lon="18.091026">
        <ele>39</ele>
        <time>2020-01-30T08:25:50Z</time>
      </trkpt>
      <trkpt lat="59.273305" lon="18.091049">
        <ele>39</ele>
        <time>2020-01-30T08:25:51Z</time>
      </trkpt>
      <trkpt lat="59.273269" lon="18.091067">
        <ele>39</ele>
        <time>2020-01-30T08:25:52Z</time>
      </trkpt>
      <trkpt lat="59.273229" lon="18.09109">
        <ele>40</ele>
        <time>2020-01-30T08:25:53Z</time>
      </trkpt>
      <trkpt lat="59.27319" lon="18.09112">
        <ele>40</ele>
        <time>2020-01-30T08:25:54Z</time>
      </trkpt>
      <trkpt lat="59.273148" lon="18.091146">
        <ele>40</ele>
        <time>2020-01-30T08:25:55Z</time>
      </trkpt>
      <trkpt lat="59.273113" lon="18.091172">
        <ele>40</ele>
        <time>2020-01-30T08:25:56Z</time>
      </trkpt>
      <trkpt lat="59.273073" lon="18.091201">
        <ele>40</ele>
        <time>2020-01-30T08:25:57Z</time>
      </trkpt>
      <trkpt lat="59.27303" lon="18.091225">
        <ele>41</ele>
        <time>2020-01-30T08:25:58Z</time>
      </trkpt>
      <trkpt lat="59.27298" lon="18.091256">
        <ele>41</ele>
        <time>2020-01-30T08:25:59Z</time>
      </trkpt>
      <trkpt lat="59.272939" lon="18.091285">
        <ele>41</ele>
        <time>2020-01-30T08:26:00Z</time>
      </trkpt>
      <trkpt lat="59.2729" lon="18.091314">
        <ele>41</ele>
        <time>2020-01-30T08:26:01Z</time>
      </trkpt>
      <trkpt lat="59.272861" lon="18.091354">
        <ele>41</ele>
        <time>2020-01-30T08:26:02Z</time>
      </trkpt>
      <trkpt lat="59.272824" lon="18.091402">
        <ele>41</ele>
        <time>2020-01-30T08:26:03Z</time>
      </trkpt>
      <trkpt lat="59.272795" lon="18.091456">
        <ele>42</ele>
        <time>2020-01-30T08:26:04Z</time>
      </trkpt>
      <trkpt lat="59.272776" lon="18.091518">
        <ele>42</ele>
        <time>2020-01-30T08:26:05Z</time>
      </trkpt>
      <trkpt lat="59.27276" lon="18.091589">
        <ele>42</ele>
        <time>2020-01-30T08:26:06Z</time>
      </trkpt>
      <trkpt lat="59.272751" lon="18.091654">
        <ele>42</ele>
        <time>2020-01-30T08:26:07Z</time>
      </trkpt>
      <trkpt lat="59.272737" lon="18.091718">
        <ele>42</ele>
        <time>2020-01-30T08:26:08Z</time>
      </trkpt>
      <trkpt lat="59.272725" lon="18.09179">
        <ele>42</ele>
        <time>2020-01-30T08:26:09Z</time>
      </trkpt>
      <trkpt lat="59.272715" lon="18.09185">
        <ele>42</ele>
        <time>2020-01-30T08:26:10Z</time>
      </trkpt>
      <trkpt lat="59.272706" lon="18.091898">
        <ele>42</ele>
        <time>2020-01-30T08:26:11Z</time>
      </trkpt>
      <trkpt lat="59.2727" lon="18.091942">
        <ele>42</ele>
        <time>2020-01-30T08:26:12Z</time>
      </trkpt>
      <trkpt lat="59.272692" lon="18.091968">
        <ele>0</ele>
        <time>2020-01-30T08:26:17Z</time>
      </trkpt>
      <trkpt lat="59.272682" lon="18.092035">
        <ele>42</ele>
        <time>2020-01-30T08:28:07Z</time>
      </trkpt>
      <trkpt lat="59.272681" lon="18.092079">
        <ele>42</ele>
        <time>2020-01-30T08:28:08Z</time>
      </trkpt>
      <trkpt lat="59.272677" lon="18.092135">
        <ele>42</ele>
        <time>2020-01-30T08:28:09Z</time>
      </trkpt>
      <trkpt lat="59.27267" lon="18.092201">
        <ele>42</ele>
        <time>2020-01-30T08:28:10Z</time>
      </trkpt>
      <trkpt lat="59.272664" lon="18.092279">
        <ele>42</ele>
        <time>2020-01-30T08:28:11Z</time>
      </trkpt>
      <trkpt lat="59.272655" lon="18.092366">
        <ele>42</ele>
        <time>2020-01-30T08:28:12Z</time>
      </trkpt>
      <trkpt lat="59.272643" lon="18.092456">
        <ele>42</ele>
        <time>2020-01-30T08:28:13Z</time>
      </trkpt>
      <trkpt lat="59.272629" lon="18.092551">
        <ele>42</ele>
        <time>2020-01-30T08:28:14Z</time>
      </trkpt>
      <trkpt lat="59.272615" lon="18.09265">
        <ele>42</ele>
        <time>2020-01-30T08:28:15Z</time>
      </trkpt>
      <trkpt lat="59.272598" lon="18.09275">
        <ele>42</ele>
        <time>2020-01-30T08:28:16Z</time>
      </trkpt>
      <trkpt lat="59.27258" lon="18.092852">
        <ele>42</ele>
        <time>2020-01-30T08:28:17Z</time>
      </trkpt>
      <trkpt lat="59.272562" lon="18.092951">
        <ele>42</ele>
        <time>2020-01-30T08:28:18Z</time>
      </trkpt>
      <trkpt lat="59.272545" lon="18.09305">
        <ele>42</ele>
        <time>2020-01-30T08:28:19Z</time>
      </trkpt>
      <trkpt lat="59.272529" lon="18.093147">
        <ele>42</ele>
        <time>2020-01-30T08:28:20Z</time>
      </trkpt>
      <trkpt lat="59.272513" lon="18.093245">
        <ele>42</ele>
        <time>2020-01-30T08:28:21Z</time>
      </trkpt>
      <trkpt lat="59.272493" lon="18.093326">
        <ele>42</ele>
        <time>2020-01-30T08:28:22Z</time>
      </trkpt>
      <trkpt lat="59.272461" lon="18.093388">
        <ele>42</ele>
        <time>2020-01-30T08:28:23Z</time>
      </trkpt>
      <trkpt lat="59.272422" lon="18.09343">
        <ele>42</ele>
        <time>2020-01-30T08:28:24Z</time>
      </trkpt>
      <trkpt lat="59.272376" lon="18.09346">
        <ele>42</ele>
        <time>2020-01-30T08:28:25Z</time>
      </trkpt>
      <trkpt lat="59.272326" lon="18.09348">
        <ele>41</ele>
        <time>2020-01-30T08:28:26Z</time>
      </trkpt>
      <trkpt lat="59.272278" lon="18.093494">
        <ele>41</ele>
        <time>2020-01-30T08:28:27Z</time>
      </trkpt>
      <trkpt lat="59.272227" lon="18.093509">
        <ele>41</ele>
        <time>2020-01-30T08:28:28Z</time>
      </trkpt>
      <trkpt lat="59.272172" lon="18.093527">
        <ele>41</ele>
        <time>2020-01-30T08:28:29Z</time>
      </trkpt>
      <trkpt lat="59.27212" lon="18.093545">
        <ele>41</ele>
        <time>2020-01-30T08:28:30Z</time>
      </trkpt>
      <trkpt lat="59.27207" lon="18.093569">
        <ele>41</ele>
        <time>2020-01-30T08:28:31Z</time>
      </trkpt>
      <trkpt lat="59.27202" lon="18.093597">
        <ele>41</ele>
        <time>2020-01-30T08:28:32Z</time>
      </trkpt>
      <trkpt lat="59.271966" lon="18.093624">
        <ele>41</ele>
        <time>2020-01-30T08:28:33Z</time>
      </trkpt>
      <trkpt lat="59.271906" lon="18.093649">
        <ele>40</ele>
        <time>2020-01-30T08:28:34Z</time>
      </trkpt>
      <trkpt lat="59.271848" lon="18.093678">
        <ele>40</ele>
        <time>2020-01-30T08:28:35Z</time>
      </trkpt>
      <trkpt lat="59.271791" lon="18.09371">
        <ele>40</ele>
        <time>2020-01-30T08:28:36Z</time>
      </trkpt>
      <trkpt lat="59.27173" lon="18.093742">
        <ele>40</ele>
        <time>2020-01-30T08:28:37Z</time>
      </trkpt>
      <trkpt lat="59.271668" lon="18.093771">
        <ele>40</ele>
        <time>2020-01-30T08:28:38Z</time>
      </trkpt>
      <trkpt lat="59.271606" lon="18.093804">
        <ele>40</ele>
        <time>2020-01-30T08:28:39Z</time>
      </trkpt>
      <trkpt lat="59.271543" lon="18.093837">
        <ele>39</ele>
        <time>2020-01-30T08:28:40Z</time>
      </trkpt>
      <trkpt lat="59.271479" lon="18.093866">
        <ele>39</ele>
        <time>2020-01-30T08:28:41Z</time>
      </trkpt>
      <trkpt lat="59.271414" lon="18.093884">
        <ele>39</ele>
        <time>2020-01-30T08:28:42Z</time>
      </trkpt>
      <trkpt lat="59.271346" lon="18.0939">
        <ele>39</ele>
        <time>2020-01-30T08:28:43Z</time>
      </trkpt>
      <trkpt lat="59.27128" lon="18.093915">
        <ele>39</ele>
        <time>2020-01-30T08:28:44Z</time>
      </trkpt>
      <trkpt lat="59.271215" lon="18.093936">
        <ele>0</ele>
        <time>2020-01-30T08:28:44Z</time>
      </trkpt>
      <trkpt lat="59.271151" lon="18.093958">
        <ele>39</ele>
        <time>2020-01-30T08:28:45Z</time>
      </trkpt>
      <trkpt lat="59.27109" lon="18.093985">
        <ele>39</ele>
        <time>2020-01-30T08:28:47Z</time>
      </trkpt>
      <trkpt lat="59.27103" lon="18.094017">
        <ele>39</ele>
        <time>2020-01-30T08:28:48Z</time>
      </trkpt>
      <trkpt lat="59.270967" lon="18.094053">
        <ele>39</ele>
        <time>2020-01-30T08:28:49Z</time>
      </trkpt>
      <trkpt lat="59.270899" lon="18.094091">
        <ele>39</ele>
        <time>2020-01-30T08:28:50Z</time>
      </trkpt>
      <trkpt lat="59.270829" lon="18.094124">
        <ele>39</ele>
        <time>2020-01-30T08:28:51Z</time>
      </trkpt>
      <trkpt lat="59.270761" lon="18.09416">
        <ele>38</ele>
        <time>2020-01-30T08:28:52Z</time>
      </trkpt>
      <trkpt lat="59.270689" lon="18.094194">
        <ele>38</ele>
        <time>2020-01-30T08:28:53Z</time>
      </trkpt>
      <trkpt lat="59.270619" lon="18.094221">
        <ele>38</ele>
        <time>2020-01-30T08:28:54Z</time>
      </trkpt>
      <trkpt lat="59.270551" lon="18.094247">
        <ele>38</ele>
        <time>2020-01-30T08:28:55Z</time>
      </trkpt>
      <trkpt lat="59.270484" lon="18.094272">
        <ele>38</ele>
        <time>2020-01-30T08:28:56Z</time>
      </trkpt>
      <trkpt lat="59.270419" lon="18.094296">
        <ele>38</ele>
        <time>2020-01-30T08:28:57Z</time>
      </trkpt>
      <trkpt lat="59.27035" lon="18.094322">
        <ele>38</ele>
        <time>2020-01-30T08:28:58Z</time>
      </trkpt>
      <trkpt lat="59.270282" lon="18.094347">
        <ele>38</ele>
        <time>2020-01-30T08:28:59Z</time>
      </trkpt>
      <trkpt lat="59.270218" lon="18.09437">
        <ele>38</ele>
        <time>2020-01-30T08:29:00Z</time>
      </trkpt>
      <trkpt lat="59.270156" lon="18.094394">
        <ele>38</ele>
        <time>2020-01-30T08:29:01Z</time>
      </trkpt>
      <trkpt lat="59.270096" lon="18.094419">
        <ele>38</ele>
        <time>2020-01-30T08:29:02Z</time>
      </trkpt>
      <trkpt lat="59.270038" lon="18.094443">
        <ele>38</ele>
        <time>2020-01-30T08:29:03Z</time>
      </trkpt>
      <trkpt lat="59.269985" lon="18.09447">
        <ele>38</ele>
        <time>2020-01-30T08:29:04Z</time>
      </trkpt>
      <trkpt lat="59.269934" lon="18.094501">
        <ele>38</ele>
        <time>2020-01-30T08:29:05Z</time>
      </trkpt>
      <trkpt lat="59.269887" lon="18.094537">
        <ele>38</ele>
        <time>2020-01-30T08:29:06Z</time>
      </trkpt>
      <trkpt lat="59.269843" lon="18.094576">
        <ele>38</ele>
        <time>2020-01-30T08:29:07Z</time>
      </trkpt>
      <trkpt lat="59.269796" lon="18.09462">
        <ele>39</ele>
        <time>2020-01-30T08:29:08Z</time>
      </trkpt>
      <trkpt lat="59.269748" lon="18.094663">
        <ele>39</ele>
        <time>2020-01-30T08:29:09Z</time>
      </trkpt>
      <trkpt lat="59.269698" lon="18.094702">
        <ele>39</ele>
        <time>2020-01-30T08:29:10Z</time>
      </trkpt>
      <trkpt lat="59.269646" lon="18.094734">
        <ele>39</ele>
        <time>2020-01-30T08:29:11Z</time>
      </trkpt>
      <trkpt lat="59.269595" lon="18.094761">
        <ele>38</ele>
        <time>2020-01-30T08:29:12Z</time>
      </trkpt>
      <trkpt lat="59.269542" lon="18.094785">
        <ele>38</ele>
        <time>2020-01-30T08:29:13Z</time>
      </trkpt>
      <trkpt lat="59.269482" lon="18.094808">
        <ele>38</ele>
        <time>2020-01-30T08:29:14Z</time>
      </trkpt>
      <trkpt lat="59.26943" lon="18.094827">
        <ele>38</ele>
        <time>2020-01-30T08:29:15Z</time>
      </trkpt>
      <trkpt lat="59.269377" lon="18.094853">
        <ele>38</ele>
        <time>2020-01-30T08:29:16Z</time>
      </trkpt>
      <trkpt lat="59.26933" lon="18.09488">
        <ele>39</ele>
        <time>2020-01-30T08:29:17Z</time>
      </trkpt>
      <trkpt lat="59.269283" lon="18.094903">
        <ele>39</ele>
        <time>2020-01-30T08:29:18Z</time>
      </trkpt>
      <trkpt lat="59.269234" lon="18.094929">
        <ele>38</ele>
        <time>2020-01-30T08:29:19Z</time>
      </trkpt>
      <trkpt lat="59.269183" lon="18.094957">
        <ele>39</ele>
        <time>2020-01-30T08:29:20Z</time>
      </trkpt>
      <trkpt lat="59.269133" lon="18.09498">
        <ele>39</ele>
        <time>2020-01-30T08:29:21Z</time>
      </trkpt>
      <trkpt lat="59.269081" lon="18.095001">
        <ele>39</ele>
        <time>2020-01-30T08:29:22Z</time>
      </trkpt>
      <trkpt lat="59.269028" lon="18.095022">
        <ele>39</ele>
        <time>2020-01-30T08:29:23Z</time>
      </trkpt>
      <trkpt lat="59.268975" lon="18.095042">
        <ele>39</ele>
        <time>2020-01-30T08:29:24Z</time>
      </trkpt>
      <trkpt lat="59.268923" lon="18.095071">
        <ele>39</ele>
        <time>2020-01-30T08:29:25Z</time>
      </trkpt>
      <trkpt lat="59.268874" lon="18.095099">
        <ele>39</ele>
        <time>2020-01-30T08:29:26Z</time>
      </trkpt>
      <trkpt lat="59.268824" lon="18.095124">
        <ele>39</ele>
        <time>2020-01-30T08:29:27Z</time>
      </trkpt>
      <trkpt lat="59.268775" lon="18.095152">
        <ele>39</ele>
        <time>2020-01-30T08:29:28Z</time>
      </trkpt>
      <trkpt lat="59.268723" lon="18.095183">
        <ele>39</ele>
        <time>2020-01-30T08:29:29Z</time>
      </trkpt>
      <trkpt lat="59.268669" lon="18.095215">
        <ele>39</ele>
        <time>2020-01-30T08:29:30Z</time>
      </trkpt>
      <trkpt lat="59.268616" lon="18.09525">
        <ele>39</ele>
        <time>2020-01-30T08:29:31Z</time>
      </trkpt>
      <trkpt lat="59.268569" lon="18.095282">
        <ele>40</ele>
        <time>2020-01-30T08:29:32Z</time>
      </trkpt>
      <trkpt lat="59.268518" lon="18.095314">
        <ele>40</ele>
        <time>2020-01-30T08:29:33Z</time>
      </trkpt>
      <trkpt lat="59.268466" lon="18.095345">
        <ele>40</ele>
        <time>2020-01-30T08:29:34Z</time>
      </trkpt>
      <trkpt lat="59.268419" lon="18.095379">
        <ele>40</ele>
        <time>2020-01-30T08:29:35Z</time>
      </trkpt>
      <trkpt lat="59.268374" lon="18.095418">
        <ele>40</ele>
        <time>2020-01-30T08:29:36Z</time>
      </trkpt>
      <trkpt lat="59.268326" lon="18.095457">
        <ele>40</ele>
        <time>2020-01-30T08:29:37Z</time>
      </trkpt>
      <trkpt lat="59.268273" lon="18.095491">
        <ele>40</ele>
        <time>2020-01-30T08:29:38Z</time>
      </trkpt>
      <trkpt lat="59.268219" lon="18.095526">
        <ele>40</ele>
        <time>2020-01-30T08:29:39Z</time>
      </trkpt>
      <trkpt lat="59.268165" lon="18.09556">
        <ele>40</ele>
        <time>2020-01-30T08:29:40Z</time>
      </trkpt>
      <trkpt lat="59.268105" lon="18.095598">
        <ele>40</ele>
        <time>2020-01-30T08:29:41Z</time>
      </trkpt>
      <trkpt lat="59.268042" lon="18.095636">
        <ele>40</ele>
        <time>2020-01-30T08:29:42Z</time>
      </trkpt>
      <trkpt lat="59.267978" lon="18.095676">
        <ele>40</ele>
        <time>2020-01-30T08:29:43Z</time>
      </trkpt>
      <trkpt lat="59.267917" lon="18.095704">
        <ele>40</ele>
        <time>2020-01-30T08:29:44Z</time>
      </trkpt>
      <trkpt lat="59.267854" lon="18.095731">
        <ele>40</ele>
        <time>2020-01-30T08:29:45Z</time>
      </trkpt>
      <trkpt lat="59.267789" lon="18.095754">
        <ele>40</ele>
        <time>2020-01-30T08:29:46Z</time>
      </trkpt>
      <trkpt lat="59.267727" lon="18.095775">
        <ele>40</ele>
        <time>2020-01-30T08:29:47Z</time>
      </trkpt>
      <trkpt lat="59.267667" lon="18.095796">
        <ele>40</ele>
        <time>2020-01-30T08:29:48Z</time>
      </trkpt>
      <trkpt lat="59.267608" lon="18.095815">
        <ele>40</ele>
        <time>2020-01-30T08:29:49Z</time>
      </trkpt>
      <trkpt lat="59.267547" lon="18.095835">
        <ele>40</ele>
        <time>2020-01-30T08:29:50Z</time>
      </trkpt>
      <trkpt lat="59.267487" lon="18.095858">
        <ele>40</ele>
        <time>2020-01-30T08:29:51Z</time>
      </trkpt>
      <trkpt lat="59.267434" lon="18.095874">
        <ele>40</ele>
        <time>2020-01-30T08:29:52Z</time>
      </trkpt>
      <trkpt lat="59.267383" lon="18.095888">
        <ele>40</ele>
        <time>2020-01-30T08:29:53Z</time>
      </trkpt>
      <trkpt lat="59.26733" lon="18.095903">
        <ele>40</ele>
        <time>2020-01-30T08:29:54Z</time>
      </trkpt>
      <trkpt lat="59.267278" lon="18.095921">
        <ele>40</ele>
        <time>2020-01-30T08:29:55Z</time>
      </trkpt>
      <trkpt lat="59.267224" lon="18.095942">
        <ele>40</ele>
        <time>2020-01-30T08:29:56Z</time>
      </trkpt>
      <trkpt lat="59.267162" lon="18.095959">
        <ele>40</ele>
        <time>2020-01-30T08:29:57Z</time>
      </trkpt>
      <trkpt lat="59.267101" lon="18.095972">
        <ele>39</ele>
        <time>2020-01-30T08:29:58Z</time>
      </trkpt>
      <trkpt lat="59.267039" lon="18.095984">
        <ele>39</ele>
        <time>2020-01-30T08:29:59Z</time>
      </trkpt>
      <trkpt lat="59.266983" lon="18.096004">
        <ele>39</ele>
        <time>2020-01-30T08:30:00Z</time>
      </trkpt>
      <trkpt lat="59.266928" lon="18.096035">
        <ele>39</ele>
        <time>2020-01-30T08:30:01Z</time>
      </trkpt>
      <trkpt lat="59.266876" lon="18.096077">
        <ele>40</ele>
        <time>2020-01-30T08:30:02Z</time>
      </trkpt>
      <trkpt lat="59.266825" lon="18.096129">
        <ele>39</ele>
        <time>2020-01-30T08:30:03Z</time>
      </trkpt>
      <trkpt lat="59.266776" lon="18.096185">
        <ele>39</ele>
        <time>2020-01-30T08:30:04Z</time>
      </trkpt>
      <trkpt lat="59.266727" lon="18.096248">
        <ele>39</ele>
        <time>2020-01-30T08:30:05Z</time>
      </trkpt>
      <trkpt lat="59.266678" lon="18.096313">
        <ele>39</ele>
        <time>2020-01-30T08:30:06Z</time>
      </trkpt>
      <trkpt lat="59.266629" lon="18.09638">
        <ele>39</ele>
        <time>2020-01-30T08:30:07Z</time>
      </trkpt>
      <trkpt lat="59.266579" lon="18.096453">
        <ele>39</ele>
        <time>2020-01-30T08:30:08Z</time>
      </trkpt>
      <trkpt lat="59.266531" lon="18.096528">
        <ele>39</ele>
        <time>2020-01-30T08:30:09Z</time>
      </trkpt>
      <trkpt lat="59.266481" lon="18.096604">
        <ele>39</ele>
        <time>2020-01-30T08:30:10Z</time>
      </trkpt>
      <trkpt lat="59.266431" lon="18.096676">
        <ele>39</ele>
        <time>2020-01-30T08:30:11Z</time>
      </trkpt>
      <trkpt lat="59.266382" lon="18.096741">
        <ele>39</ele>
        <time>2020-01-30T08:30:12Z</time>
      </trkpt>
      <trkpt lat="59.266331" lon="18.0968">
        <ele>39</ele>
        <time>2020-01-30T08:30:13Z</time>
      </trkpt>
      <trkpt lat="59.26628" lon="18.096851">
        <ele>38</ele>
        <time>2020-01-30T08:30:14Z</time>
      </trkpt>
      <trkpt lat="59.266226" lon="18.096893">
        <ele>38</ele>
        <time>2020-01-30T08:30:15Z</time>
      </trkpt>
      <trkpt lat="59.266173" lon="18.096931">
        <ele>38</ele>
        <time>2020-01-30T08:30:16Z</time>
      </trkpt>
      <trkpt lat="59.266117" lon="18.096965">
        <ele>39</ele>
        <time>2020-01-30T08:30:17Z</time>
      </trkpt>
      <trkpt lat="59.266062" lon="18.096999">
        <ele>38</ele>
        <time>2020-01-30T08:30:18Z</time>
      </trkpt>
      <trkpt lat="59.266009" lon="18.097033">
        <ele>38</ele>
        <time>2020-01-30T08:30:19Z</time>
      </trkpt>
      <trkpt lat="59.265952" lon="18.097071">
        <ele>38</ele>
        <time>2020-01-30T08:30:20Z</time>
      </trkpt>
      <trkpt lat="59.265895" lon="18.097107">
        <ele>38</ele>
        <time>2020-01-30T08:30:21Z</time>
      </trkpt>
      <trkpt lat="59.265838" lon="18.097144">
        <ele>38</ele>
        <time>2020-01-30T08:30:22Z</time>
      </trkpt>
      <trkpt lat="59.265779" lon="18.09718">
        <ele>38</ele>
        <time>2020-01-30T08:30:23Z</time>
      </trkpt>
      <trkpt lat="59.265719" lon="18.097208">
        <ele>38</ele>
        <time>2020-01-30T08:30:24Z</time>
      </trkpt>
      <trkpt lat="59.265656" lon="18.097226">
        <ele>37</ele>
        <time>2020-01-30T08:30:25Z</time>
      </trkpt>
      <trkpt lat="59.26559" lon="18.097243">
        <ele>37</ele>
        <time>2020-01-30T08:30:26Z</time>
      </trkpt>
      <trkpt lat="59.265521" lon="18.097264">
        <ele>37</ele>
        <time>2020-01-30T08:30:27Z</time>
      </trkpt>
      <trkpt lat="59.26545" lon="18.097283">
        <ele>37</ele>
        <time>2020-01-30T08:30:28Z</time>
      </trkpt>
      <trkpt lat="59.265377" lon="18.097299">
        <ele>37</ele>
        <time>2020-01-30T08:30:29Z</time>
      </trkpt>
      <trkpt lat="59.265304" lon="18.097315">
        <ele>37</ele>
        <time>2020-01-30T08:30:30Z</time>
      </trkpt>
      <trkpt lat="59.265236" lon="18.097334">
        <ele>37</ele>
        <time>2020-01-30T08:30:31Z</time>
      </trkpt>
      <trkpt lat="59.265173" lon="18.097361">
        <ele>37</ele>
        <time>2020-01-30T08:30:32Z</time>
      </trkpt>
      <trkpt lat="59.265114" lon="18.097389">
        <ele>37</ele>
        <time>2020-01-30T08:30:33Z</time>
      </trkpt>
      <trkpt lat="59.26506" lon="18.097413">
        <ele>37</ele>
        <time>2020-01-30T08:30:34Z</time>
      </trkpt>
      <trkpt lat="59.26501" lon="18.097438">
        <ele>37</ele>
        <time>2020-01-30T08:30:35Z</time>
      </trkpt>
      <trkpt lat="59.264964" lon="18.097457">
        <ele>37</ele>
        <time>2020-01-30T08:30:36Z</time>
      </trkpt>
      <trkpt lat="59.26492" lon="18.097476">
        <ele>38</ele>
        <time>2020-01-30T08:30:37Z</time>
      </trkpt>
      <trkpt lat="59.264881" lon="18.097499">
        <ele>38</ele>
        <time>2020-01-30T08:30:38Z</time>
      </trkpt>
      <trkpt lat="59.264847" lon="18.097521">
        <ele>38</ele>
        <time>2020-01-30T08:30:39Z</time>
      </trkpt>
      <trkpt lat="59.264816" lon="18.097535">
        <ele>38</ele>
        <time>2020-01-30T08:30:40Z</time>
      </trkpt>
      <trkpt lat="59.264784" lon="18.097546">
        <ele>38</ele>
        <time>2020-01-30T08:30:41Z</time>
      </trkpt>
      <trkpt lat="59.264754" lon="18.097556">
        <ele>38</ele>
        <time>2020-01-30T08:30:42Z</time>
      </trkpt>
      <trkpt lat="59.264718" lon="18.097566">
        <ele>38</ele>
        <time>2020-01-30T08:30:43Z</time>
      </trkpt>
      <trkpt lat="59.264684" lon="18.097579">
        <ele>38</ele>
        <time>2020-01-30T08:30:44Z</time>
      </trkpt>
      <trkpt lat="59.264647" lon="18.097596">
        <ele>38</ele>
        <time>2020-01-30T08:30:45Z</time>
      </trkpt>
      <trkpt lat="59.264603" lon="18.097611">
        <ele>38</ele>
        <time>2020-01-30T08:30:46Z</time>
      </trkpt>
      <trkpt lat="59.264561" lon="18.097627">
        <ele>38</ele>
        <time>2020-01-30T08:30:47Z</time>
      </trkpt>
      <trkpt lat="59.264518" lon="18.097641">
        <ele>38</ele>
        <time>2020-01-30T08:30:48Z</time>
      </trkpt>
      <trkpt lat="59.264477" lon="18.09766">
        <ele>38</ele>
        <time>2020-01-30T08:30:49Z</time>
      </trkpt>
      <trkpt lat="59.264435" lon="18.097678">
        <ele>38</ele>
        <time>2020-01-30T08:30:50Z</time>
      </trkpt>
      <trkpt lat="59.264393" lon="18.097697">
        <ele>38</ele>
        <time>2020-01-30T08:30:51Z</time>
      </trkpt>
      <trkpt lat="59.264349" lon="18.097715">
        <ele>38</ele>
        <time>2020-01-30T08:30:52Z</time>
      </trkpt>
      <trkpt lat="59.264304" lon="18.097735">
        <ele>38</ele>
        <time>2020-01-30T08:30:53Z</time>
      </trkpt>
      <trkpt lat="59.26426" lon="18.097757">
        <ele>38</ele>
        <time>2020-01-30T08:30:54Z</time>
      </trkpt>
      <trkpt lat="59.264216" lon="18.097774">
        <ele>38</ele>
        <time>2020-01-30T08:30:55Z</time>
      </trkpt>
      <trkpt lat="59.264171" lon="18.097788">
        <ele>38</ele>
        <time>2020-01-30T08:30:56Z</time>
      </trkpt>
      <trkpt lat="59.264124" lon="18.097802">
        <ele>38</ele>
        <time>2020-01-30T08:30:57Z</time>
      </trkpt>
      <trkpt lat="59.264077" lon="18.097819">
        <ele>38</ele>
        <time>2020-01-30T08:30:58Z</time>
      </trkpt>
      <trkpt lat="59.26403" lon="18.097834">
        <ele>38</ele>
        <time>2020-01-30T08:30:59Z</time>
      </trkpt>
      <trkpt lat="59.263983" lon="18.097852">
        <ele>38</ele>
        <time>2020-01-30T08:31:00Z</time>
      </trkpt>
      <trkpt lat="59.263934" lon="18.097873">
        <ele>38</ele>
        <time>2020-01-30T08:31:01Z</time>
      </trkpt>
      <trkpt lat="59.263883" lon="18.097893">
        <ele>38</ele>
        <time>2020-01-30T08:31:02Z</time>
      </trkpt>
      <trkpt lat="59.26383" lon="18.097913">
        <ele>38</ele>
        <time>2020-01-30T08:31:03Z</time>
      </trkpt>
      <trkpt lat="59.263775" lon="18.097933">
        <ele>38</ele>
        <time>2020-01-30T08:31:04Z</time>
      </trkpt>
      <trkpt lat="59.263718" lon="18.097953">
        <ele>38</ele>
        <time>2020-01-30T08:31:05Z</time>
      </trkpt>
      <trkpt lat="59.263658" lon="18.09797">
        <ele>38</ele>
        <time>2020-01-30T08:31:06Z</time>
      </trkpt>
      <trkpt lat="59.263597" lon="18.097985">
        <ele>38</ele>
        <time>2020-01-30T08:31:07Z</time>
      </trkpt>
      <trkpt lat="59.26354" lon="18.097999">
        <ele>37</ele>
        <time>2020-01-30T08:31:08Z</time>
      </trkpt>
      <trkpt lat="59.263476" lon="18.098015">
        <ele>37</ele>
        <time>2020-01-30T08:31:09Z</time>
      </trkpt>
      <trkpt lat="59.263411" lon="18.098031">
        <ele>37</ele>
        <time>2020-01-30T08:31:10Z</time>
      </trkpt>
      <trkpt lat="59.263347" lon="18.098042">
        <ele>37</ele>
        <time>2020-01-30T08:31:11Z</time>
      </trkpt>
      <trkpt lat="59.263287" lon="18.098057">
        <ele>37</ele>
        <time>2020-01-30T08:31:12Z</time>
      </trkpt>
      <trkpt lat="59.263229" lon="18.098069">
        <ele>37</ele>
        <time>2020-01-30T08:31:13Z</time>
      </trkpt>
      <trkpt lat="59.263166" lon="18.098082">
        <ele>36</ele>
        <time>2020-01-30T08:31:14Z</time>
      </trkpt>
      <trkpt lat="59.263097" lon="18.098088">
        <ele>36</ele>
        <time>2020-01-30T08:31:15Z</time>
      </trkpt>
      <trkpt lat="59.263029" lon="18.098095">
        <ele>36</ele>
        <time>2020-01-30T08:31:16Z</time>
      </trkpt>
      <trkpt lat="59.262961" lon="18.098102">
        <ele>36</ele>
        <time>2020-01-30T08:31:17Z</time>
      </trkpt>
      <trkpt lat="59.262893" lon="18.098107">
        <ele>36</ele>
        <time>2020-01-30T08:31:18Z</time>
      </trkpt>
      <trkpt lat="59.262827" lon="18.098102">
        <ele>35</ele>
        <time>2020-01-30T08:31:19Z</time>
      </trkpt>
      <trkpt lat="59.262759" lon="18.098101">
        <ele>35</ele>
        <time>2020-01-30T08:31:20Z</time>
      </trkpt>
      <trkpt lat="59.262691" lon="18.098103">
        <ele>35</ele>
        <time>2020-01-30T08:31:21Z</time>
      </trkpt>
      <trkpt lat="59.262622" lon="18.098107">
        <ele>35</ele>
        <time>2020-01-30T08:31:22Z</time>
      </trkpt>
      <trkpt lat="59.262554" lon="18.098106">
        <ele>34</ele>
        <time>2020-01-30T08:31:23Z</time>
      </trkpt>
      <trkpt lat="59.262484" lon="18.098099">
        <ele>34</ele>
        <time>2020-01-30T08:31:24Z</time>
      </trkpt>
      <trkpt lat="59.262414" lon="18.098084">
        <ele>34</ele>
        <time>2020-01-30T08:31:25Z</time>
      </trkpt>
      <trkpt lat="59.262346" lon="18.098059">
        <ele>33</ele>
        <time>2020-01-30T08:31:26Z</time>
      </trkpt>
      <trkpt lat="59.262282" lon="18.098016">
        <ele>33</ele>
        <time>2020-01-30T08:31:27Z</time>
      </trkpt>
      <trkpt lat="59.262222" lon="18.097957">
        <ele>33</ele>
        <time>2020-01-30T08:31:28Z</time>
      </trkpt>
      <trkpt lat="59.262165" lon="18.097891">
        <ele>32</ele>
        <time>2020-01-30T08:31:29Z</time>
      </trkpt>
      <trkpt lat="59.262112" lon="18.09782">
        <ele>32</ele>
        <time>2020-01-30T08:31:30Z</time>
      </trkpt>
      <trkpt lat="59.26206" lon="18.097751">
        <ele>32</ele>
        <time>2020-01-30T08:31:31Z</time>
      </trkpt>
      <trkpt lat="59.262009" lon="18.097682">
        <ele>32</ele>
        <time>2020-01-30T08:31:32Z</time>
      </trkpt>
      <trkpt lat="59.261963" lon="18.097608">
        <ele>31</ele>
        <time>2020-01-30T08:31:33Z</time>
      </trkpt>
      <trkpt lat="59.261918" lon="18.097534">
        <ele>31</ele>
        <time>2020-01-30T08:31:34Z</time>
      </trkpt>
      <trkpt lat="59.261874" lon="18.097463">
        <ele>31</ele>
        <time>2020-01-30T08:31:35Z</time>
      </trkpt>
      <trkpt lat="59.261833" lon="18.097394">
        <ele>31</ele>
        <time>2020-01-30T08:31:36Z</time>
      </trkpt>
      <trkpt lat="59.261793" lon="18.097327">
        <ele>31</ele>
        <time>2020-01-30T08:31:37Z</time>
      </trkpt>
      <trkpt lat="59.261754" lon="18.097263">
        <ele>31</ele>
        <time>2020-01-30T08:31:38Z</time>
      </trkpt>
      <trkpt lat="59.261715" lon="18.097201">
        <ele>30</ele>
        <time>2020-01-30T08:31:39Z</time>
      </trkpt>
      <trkpt lat="59.261678" lon="18.097139">
        <ele>30</ele>
        <time>2020-01-30T08:31:40Z</time>
      </trkpt>
      <trkpt lat="59.261643" lon="18.097076">
        <ele>30</ele>
        <time>2020-01-30T08:31:41Z</time>
      </trkpt>
      <trkpt lat="59.261609" lon="18.097016">
        <ele>30</ele>
        <time>2020-01-30T08:31:42Z</time>
      </trkpt>
      <trkpt lat="59.261573" lon="18.096956">
        <ele>30</ele>
        <time>2020-01-30T08:31:43Z</time>
      </trkpt>
      <trkpt lat="59.261537" lon="18.096896">
        <ele>30</ele>
        <time>2020-01-30T08:31:44Z</time>
      </trkpt>
      <trkpt lat="59.261498" lon="18.096835">
        <ele>30</ele>
        <time>2020-01-30T08:31:45Z</time>
      </trkpt>
      <trkpt lat="59.261458" lon="18.096777">
        <ele>30</ele>
        <time>2020-01-30T08:31:46Z</time>
      </trkpt>
      <trkpt lat="59.261414" lon="18.096724">
        <ele>30</ele>
        <time>2020-01-30T08:31:47Z</time>
      </trkpt>
      <trkpt lat="59.261368" lon="18.096677">
        <ele>30</ele>
        <time>2020-01-30T08:31:48Z</time>
      </trkpt>
      <trkpt lat="59.261321" lon="18.096632">
        <ele>30</ele>
        <time>2020-01-30T08:31:49Z</time>
      </trkpt>
      <trkpt lat="59.261272" lon="18.096589">
        <ele>30</ele>
        <time>2020-01-30T08:31:50Z</time>
      </trkpt>
      <trkpt lat="59.261223" lon="18.09655">
        <ele>30</ele>
        <time>2020-01-30T08:31:51Z</time>
      </trkpt>
      <trkpt lat="59.261174" lon="18.096511">
        <ele>30</ele>
        <time>2020-01-30T08:31:52Z</time>
      </trkpt>
      <trkpt lat="59.261126" lon="18.096476">
        <ele>30</ele>
        <time>2020-01-30T08:31:53Z</time>
      </trkpt>
      <trkpt lat="59.261077" lon="18.096448">
        <ele>30</ele>
        <time>2020-01-30T08:31:54Z</time>
      </trkpt>
      <trkpt lat="59.261025" lon="18.096429">
        <ele>29</ele>
        <time>2020-01-30T08:31:55Z</time>
      </trkpt>
      <trkpt lat="59.260972" lon="18.096422">
        <ele>29</ele>
        <time>2020-01-30T08:31:56Z</time>
      </trkpt>
      <trkpt lat="59.260916" lon="18.096424">
        <ele>29</ele>
        <time>2020-01-30T08:31:57Z</time>
      </trkpt>
      <trkpt lat="59.260857" lon="18.096432">
        <ele>29</ele>
        <time>2020-01-30T08:31:58Z</time>
      </trkpt>
      <trkpt lat="59.260796" lon="18.096445">
        <ele>29</ele>
        <time>2020-01-30T08:31:59Z</time>
      </trkpt>
      <trkpt lat="59.260732" lon="18.096459">
        <ele>28</ele>
        <time>2020-01-30T08:32:00Z</time>
      </trkpt>
      <trkpt lat="59.260666" lon="18.096474">
        <ele>28</ele>
        <time>2020-01-30T08:32:01Z</time>
      </trkpt>
      <trkpt lat="59.2606" lon="18.096491">
        <ele>28</ele>
        <time>2020-01-30T08:32:02Z</time>
      </trkpt>
      <trkpt lat="59.260532" lon="18.096509">
        <ele>28</ele>
        <time>2020-01-30T08:32:03Z</time>
      </trkpt>
      <trkpt lat="59.260464" lon="18.096531">
        <ele>28</ele>
        <time>2020-01-30T08:32:04Z</time>
      </trkpt>
      <trkpt lat="59.2604" lon="18.096562">
        <ele>28</ele>
        <time>2020-01-30T08:32:05Z</time>
      </trkpt>
      <trkpt lat="59.260338" lon="18.096599">
        <ele>28</ele>
        <time>2020-01-30T08:32:06Z</time>
      </trkpt>
      <trkpt lat="59.260275" lon="18.096635">
        <ele>28</ele>
        <time>2020-01-30T08:32:07Z</time>
      </trkpt>
      <trkpt lat="59.260152" lon="18.096709">
        <ele>28</ele>
        <time>2020-01-30T08:32:09Z</time>
      </trkpt>
      <trkpt lat="59.260051" lon="18.096801">
        <ele>28</ele>
        <time>2020-01-30T08:32:11Z</time>
      </trkpt>
      <trkpt lat="59.260005" lon="18.096828">
        <ele>28</ele>
        <time>2020-01-30T08:32:12Z</time>
      </trkpt>
      <trkpt lat="59.259961" lon="18.096863">
        <ele>28</ele>
        <time>2020-01-30T08:32:13Z</time>
      </trkpt>
      <trkpt lat="59.259916" lon="18.096898">
        <ele>28</ele>
        <time>2020-01-30T08:32:14Z</time>
      </trkpt>
      <trkpt lat="59.259879" lon="18.096942">
        <ele>28</ele>
        <time>2020-01-30T08:32:15Z</time>
      </trkpt>
      <trkpt lat="59.25985" lon="18.096987">
        <ele>28</ele>
        <time>2020-01-30T08:32:16Z</time>
      </trkpt>
      <trkpt lat="59.259823" lon="18.097031">
        <ele>28</ele>
        <time>2020-01-30T08:32:17Z</time>
      </trkpt>
      <trkpt lat="59.259799" lon="18.097076">
        <ele>28</ele>
        <time>2020-01-30T08:32:18Z</time>
      </trkpt>
      <trkpt lat="59.259775" lon="18.097124">
        <ele>28</ele>
        <time>2020-01-30T08:32:19Z</time>
      </trkpt>
      <trkpt lat="59.259754" lon="18.097181">
        <ele>28</ele>
        <time>2020-01-30T08:32:20Z</time>
      </trkpt>
      <trkpt lat="59.259736" lon="18.097246">
        <ele>28</ele>
        <time>2020-01-30T08:32:21Z</time>
      </trkpt>
      <trkpt lat="59.259719" lon="18.097313">
        <ele>28</ele>
        <time>2020-01-30T08:32:22Z</time>
      </trkpt>
      <trkpt lat="59.259705" lon="18.097384">
        <ele>28</ele>
        <time>2020-01-30T08:32:23Z</time>
      </trkpt>
      <trkpt lat="59.259694" lon="18.09746">
        <ele>28</ele>
        <time>2020-01-30T08:32:24Z</time>
      </trkpt>
      <trkpt lat="59.259686" lon="18.097541">
        <ele>29</ele>
        <time>2020-01-30T08:32:25Z</time>
      </trkpt>
      <trkpt lat="59.25968" lon="18.097624">
        <ele>29</ele>
        <time>2020-01-30T08:32:26Z</time>
      </trkpt>
      <trkpt lat="59.259674" lon="18.097708">
        <ele>29</ele>
        <time>2020-01-30T08:32:27Z</time>
      </trkpt>
      <trkpt lat="59.259666" lon="18.097792">
        <ele>29</ele>
        <time>2020-01-30T08:32:28Z</time>
      </trkpt>
      <trkpt lat="59.25966" lon="18.097878">
        <ele>29</ele>
        <time>2020-01-30T08:32:29Z</time>
      </trkpt>
      <trkpt lat="59.259653" lon="18.097966">
        <ele>29</ele>
        <time>2020-01-30T08:32:30Z</time>
      </trkpt>
      <trkpt lat="59.259648" lon="18.098054">
        <ele>29</ele>
        <time>2020-01-30T08:32:31Z</time>
      </trkpt>
      <trkpt lat="59.259642" lon="18.098144">
        <ele>29</ele>
        <time>2020-01-30T08:32:32Z</time>
      </trkpt>
      <trkpt lat="59.259634" lon="18.098233">
        <ele>29</ele>
        <time>2020-01-30T08:32:33Z</time>
      </trkpt>
      <trkpt lat="59.259625" lon="18.098321">
        <ele>29</ele>
        <time>2020-01-30T08:32:34Z</time>
      </trkpt>
      <trkpt lat="59.259616" lon="18.098408">
        <ele>29</ele>
        <time>2020-01-30T08:32:35Z</time>
      </trkpt>
      <trkpt lat="59.259608" lon="18.098494">
        <ele>29</ele>
        <time>2020-01-30T08:32:36Z</time>
      </trkpt>
      <trkpt lat="59.259599" lon="18.098578">
        <ele>29</ele>
        <time>2020-01-30T08:32:37Z</time>
      </trkpt>
      <trkpt lat="59.259588" lon="18.098661">
        <ele>29</ele>
        <time>2020-01-30T08:32:38Z</time>
      </trkpt>
      <trkpt lat="59.259573" lon="18.098741">
        <ele>29</ele>
        <time>2020-01-30T08:32:39Z</time>
      </trkpt>
      <trkpt lat="59.259556" lon="18.098814">
        <ele>29</ele>
        <time>2020-01-30T08:32:40Z</time>
      </trkpt>
      <trkpt lat="59.259533" lon="18.098884">
        <ele>29</ele>
        <time>2020-01-30T08:32:41Z</time>
      </trkpt>
      <trkpt lat="59.259505" lon="18.098948">
        <ele>29</ele>
        <time>2020-01-30T08:32:42Z</time>
      </trkpt>
      <trkpt lat="59.259473" lon="18.099008">
        <ele>29</ele>
        <time>2020-01-30T08:32:43Z</time>
      </trkpt>
      <trkpt lat="59.259438" lon="18.099062">
        <ele>29</ele>
        <time>2020-01-30T08:32:44Z</time>
      </trkpt>
      <trkpt lat="59.2594" lon="18.099109">
        <ele>29</ele>
        <time>2020-01-30T08:32:45Z</time>
      </trkpt>
      <trkpt lat="59.25936" lon="18.099147">
        <ele>29</ele>
        <time>2020-01-30T08:32:46Z</time>
      </trkpt>
      <trkpt lat="59.259318" lon="18.09918">
        <ele>29</ele>
        <time>2020-01-30T08:32:47Z</time>
      </trkpt>
      <trkpt lat="59.259275" lon="18.099209">
        <ele>29</ele>
        <time>2020-01-30T08:32:48Z</time>
      </trkpt>
      <trkpt lat="59.25923" lon="18.099228">
        <ele>29</ele>
        <time>2020-01-30T08:32:49Z</time>
      </trkpt>
      <trkpt lat="59.259185" lon="18.099236">
        <ele>29</ele>
        <time>2020-01-30T08:32:50Z</time>
      </trkpt>
      <trkpt lat="59.25914" lon="18.09924">
        <ele>29</ele>
        <time>2020-01-30T08:32:51Z</time>
      </trkpt>
      <trkpt lat="59.259096" lon="18.099242">
        <ele>29</ele>
        <time>2020-01-30T08:32:52Z</time>
      </trkpt>
      <trkpt lat="59.259054" lon="18.099244">
        <ele>29</ele>
        <time>2020-01-30T08:32:53Z</time>
      </trkpt>
      <trkpt lat="59.259012" lon="18.099246">
        <ele>29</ele>
        <time>2020-01-30T08:32:54Z</time>
      </trkpt>
      <trkpt lat="59.258969" lon="18.099248">
        <ele>29</ele>
        <time>2020-01-30T08:32:55Z</time>
      </trkpt>
      <trkpt lat="59.258924" lon="18.09925">
        <ele>29</ele>
        <time>2020-01-30T08:32:56Z</time>
      </trkpt>
      <trkpt lat="59.258879" lon="18.099253">
        <ele>29</ele>
        <time>2020-01-30T08:32:57Z</time>
      </trkpt>
      <trkpt lat="59.258833" lon="18.099257">
        <ele>29</ele>
        <time>2020-01-30T08:32:58Z</time>
      </trkpt>
      <trkpt lat="59.258785" lon="18.09926">
        <ele>29</ele>
        <time>2020-01-30T08:32:59Z</time>
      </trkpt>
      <trkpt lat="59.258735" lon="18.099264">
        <ele>29</ele>
        <time>2020-01-30T08:33:00Z</time>
      </trkpt>
      <trkpt lat="59.258686" lon="18.099266">
        <ele>29</ele>
        <time>2020-01-30T08:33:01Z</time>
      </trkpt>
      <trkpt lat="59.258636" lon="18.099267">
        <ele>30</ele>
        <time>2020-01-30T08:33:02Z</time>
      </trkpt>
      <trkpt lat="59.258588" lon="18.099269">
        <ele>30</ele>
        <time>2020-01-30T08:33:03Z</time>
      </trkpt>
      <trkpt lat="59.258538" lon="18.099272">
        <ele>30</ele>
        <time>2020-01-30T08:33:04Z</time>
      </trkpt>
      <trkpt lat="59.258489" lon="18.09927">
        <ele>30</ele>
        <time>2020-01-30T08:33:05Z</time>
      </trkpt>
      <trkpt lat="59.258438" lon="18.099264">
        <ele>30</ele>
        <time>2020-01-30T08:33:06Z</time>
      </trkpt>
      <trkpt lat="59.258389" lon="18.099256">
        <ele>30</ele>
        <time>2020-01-30T08:33:07Z</time>
      </trkpt>
      <trkpt lat="59.258339" lon="18.099251">
        <ele>30</ele>
        <time>2020-01-30T08:33:08Z</time>
      </trkpt>
      <trkpt lat="59.258292" lon="18.099248">
        <ele>30</ele>
        <time>2020-01-30T08:33:09Z</time>
      </trkpt>
      <trkpt lat="59.258242" lon="18.099247">
        <ele>30</ele>
        <time>2020-01-30T08:33:10Z</time>
      </trkpt>
      <trkpt lat="59.258192" lon="18.099245">
        <ele>30</ele>
        <time>2020-01-30T08:33:11Z</time>
      </trkpt>
      <trkpt lat="59.258142" lon="18.099242">
        <ele>30</ele>
        <time>2020-01-30T08:33:12Z</time>
      </trkpt>
      <trkpt lat="59.25809" lon="18.099236">
        <ele>30</ele>
        <time>2020-01-30T08:33:13Z</time>
      </trkpt>
      <trkpt lat="59.258037" lon="18.099227">
        <ele>30</ele>
        <time>2020-01-30T08:33:14Z</time>
      </trkpt>
      <trkpt lat="59.257986" lon="18.099216">
        <ele>30</ele>
        <time>2020-01-30T08:33:15Z</time>
      </trkpt>
      <trkpt lat="59.257935" lon="18.099201">
        <ele>30</ele>
        <time>2020-01-30T08:33:16Z</time>
      </trkpt>
      <trkpt lat="59.257884" lon="18.099186">
        <ele>30</ele>
        <time>2020-01-30T08:33:17Z</time>
      </trkpt>
      <trkpt lat="59.257834" lon="18.099174">
        <ele>30</ele>
        <time>2020-01-30T08:33:18Z</time>
      </trkpt>
      <trkpt lat="59.257783" lon="18.099167">
        <ele>30</ele>
        <time>2020-01-30T08:33:19Z</time>
      </trkpt>
      <trkpt lat="59.257732" lon="18.099169">
        <ele>30</ele>
        <time>2020-01-30T08:33:20Z</time>
      </trkpt>
      <trkpt lat="59.257679" lon="18.099183">
        <ele>30</ele>
        <time>2020-01-30T08:33:21Z</time>
      </trkpt>
      <trkpt lat="59.25763" lon="18.099209">
        <ele>30</ele>
        <time>2020-01-30T08:33:22Z</time>
      </trkpt>
      <trkpt lat="59.25758" lon="18.099248">
        <ele>29</ele>
        <time>2020-01-30T08:33:23Z</time>
      </trkpt>
      <trkpt lat="59.257533" lon="18.0993">
        <ele>29</ele>
        <time>2020-01-30T08:33:24Z</time>
      </trkpt>
      <trkpt lat="59.257486" lon="18.099364">
        <ele>29</ele>
        <time>2020-01-30T08:33:25Z</time>
      </trkpt>
      <trkpt lat="59.257442" lon="18.099444">
        <ele>29</ele>
        <time>2020-01-30T08:33:26Z</time>
      </trkpt>
      <trkpt lat="59.257401" lon="18.099538">
        <ele>29</ele>
        <time>2020-01-30T08:33:27Z</time>
      </trkpt>
      <trkpt lat="59.25736" lon="18.099641">
        <ele>28</ele>
        <time>2020-01-30T08:33:28Z</time>
      </trkpt>
      <trkpt lat="59.257321" lon="18.099747">
        <ele>28</ele>
        <time>2020-01-30T08:33:29Z</time>
      </trkpt>
      <trkpt lat="59.257286" lon="18.099857">
        <ele>0</ele>
        <time>2020-01-30T08:33:29Z</time>
      </trkpt>
      <trkpt lat="59.257254" lon="18.09997">
        <ele>28</ele>
        <time>2020-01-30T08:33:30Z</time>
      </trkpt>
      <trkpt lat="59.257223" lon="18.100078">
        <ele>28</ele>
        <time>2020-01-30T08:33:32Z</time>
      </trkpt>
      <trkpt lat="59.257195" lon="18.100182">
        <ele>28</ele>
        <time>2020-01-30T08:33:33Z</time>
      </trkpt>
      <trkpt lat="59.257174" lon="18.100286">
        <ele>28</ele>
        <time>2020-01-30T08:33:34Z</time>
      </trkpt>
      <trkpt lat="59.257058" lon="18.100777">
        <ele>28</ele>
        <time>2020-01-30T08:33:39Z</time>
      </trkpt>
      <trkpt lat="59.257016" lon="18.100958">
        <ele>28</ele>
        <time>2020-01-30T08:33:41Z</time>
      </trkpt>
      <trkpt lat="59.256989" lon="18.101027">
        <ele>28</ele>
        <time>2020-01-30T08:33:42Z</time>
      </trkpt>
      <trkpt lat="59.256954" lon="18.101077">
        <ele>28</ele>
        <time>2020-01-30T08:33:43Z</time>
      </trkpt>
      <trkpt lat="59.256908" lon="18.101088">
        <ele>28</ele>
        <time>2020-01-30T08:33:44Z</time>
      </trkpt>
      <trkpt lat="59.256862" lon="18.101082">
        <ele>28</ele>
        <time>2020-01-30T08:33:45Z</time>
      </trkpt>
      <trkpt lat="59.256814" lon="18.101082">
        <ele>28</ele>
        <time>2020-01-30T08:33:46Z</time>
      </trkpt>
      <trkpt lat="59.256764" lon="18.101079">
        <ele>28</ele>
        <time>2020-01-30T08:33:47Z</time>
      </trkpt>
      <trkpt lat="59.256716" lon="18.10107">
        <ele>28</ele>
        <time>2020-01-30T08:33:48Z</time>
      </trkpt>
      <trkpt lat="59.256665" lon="18.10106">
        <ele>0</ele>
        <time>2020-01-30T08:33:48Z</time>
      </trkpt>
      <trkpt lat="59.25661" lon="18.101055">
        <ele>27</ele>
        <time>2020-01-30T08:33:49Z</time>
      </trkpt>
      <trkpt lat="59.256556" lon="18.101055">
        <ele>27</ele>
        <time>2020-01-30T08:33:51Z</time>
      </trkpt>
      <trkpt lat="59.256502" lon="18.101055">
        <ele>27</ele>
        <time>2020-01-30T08:33:52Z</time>
      </trkpt>
      <trkpt lat="59.256449" lon="18.101056">
        <ele>27</ele>
        <time>2020-01-30T08:33:53Z</time>
      </trkpt>
      <trkpt lat="59.2564" lon="18.101054">
        <ele>27</ele>
        <time>2020-01-30T08:33:54Z</time>
      </trkpt>
      <trkpt lat="59.25635" lon="18.10105">
        <ele>27</ele>
        <time>2020-01-30T08:33:55Z</time>
      </trkpt>
      <trkpt lat="59.2563" lon="18.101045">
        <ele>27</ele>
        <time>2020-01-30T08:33:56Z</time>
      </trkpt>
      <trkpt lat="59.256249" lon="18.101041">
        <ele>27</ele>
        <time>2020-01-30T08:33:57Z</time>
      </trkpt>
      <trkpt lat="59.2562" lon="18.101034">
        <ele>27</ele>
        <time>2020-01-30T08:33:58Z</time>
      </trkpt>
      <trkpt lat="59.256148" lon="18.101029">
        <ele>27</ele>
        <time>2020-01-30T08:33:59Z</time>
      </trkpt>
      <trkpt lat="59.256099" lon="18.101025">
        <ele>28</ele>
        <time>2020-01-30T08:34:00Z</time>
      </trkpt>
      <trkpt lat="59.256049" lon="18.101019">
        <ele>28</ele>
        <time>2020-01-30T08:34:01Z</time>
      </trkpt>
      <trkpt lat="59.256" lon="18.101012">
        <ele>27</ele>
        <time>2020-01-30T08:34:02Z</time>
      </trkpt>
      <trkpt lat="59.255949" lon="18.101007">
        <ele>28</ele>
        <time>2020-01-30T08:34:03Z</time>
      </trkpt>
      <trkpt lat="59.255898" lon="18.101005">
        <ele>28</ele>
        <time>2020-01-30T08:34:04Z</time>
      </trkpt>
      <trkpt lat="59.255847" lon="18.101001">
        <ele>27</ele>
        <time>2020-01-30T08:34:05Z</time>
      </trkpt>
      <trkpt lat="59.255793" lon="18.100995">
        <ele>27</ele>
        <time>2020-01-30T08:34:06Z</time>
      </trkpt>
      <trkpt lat="59.255738" lon="18.100993">
        <ele>27</ele>
        <time>2020-01-30T08:34:07Z</time>
      </trkpt>
      <trkpt lat="59.255684" lon="18.10099">
        <ele>0</ele>
        <time>2020-01-30T08:34:07Z</time>
      </trkpt>
      <trkpt lat="59.255629" lon="18.100984">
        <ele>27</ele>
        <time>2020-01-30T08:34:08Z</time>
      </trkpt>
      <trkpt lat="59.255577" lon="18.100973">
        <ele>27</ele>
        <time>2020-01-30T08:34:10Z</time>
      </trkpt>
      <trkpt lat="59.255523" lon="18.100956">
        <ele>27</ele>
        <time>2020-01-30T08:34:11Z</time>
      </trkpt>
      <trkpt lat="59.25547" lon="18.100934">
        <ele>27</ele>
        <time>2020-01-30T08:34:12Z</time>
      </trkpt>
      <trkpt lat="59.255414" lon="18.100916">
        <ele>27</ele>
        <time>2020-01-30T08:34:13Z</time>
      </trkpt>
      <trkpt lat="59.255359" lon="18.100902">
        <ele>27</ele>
        <time>2020-01-30T08:34:14Z</time>
      </trkpt>
      <trkpt lat="59.255305" lon="18.100889">
        <ele>27</ele>
        <time>2020-01-30T08:34:15Z</time>
      </trkpt>
      <trkpt lat="59.255251" lon="18.100877">
        <ele>27</ele>
        <time>2020-01-30T08:34:16Z</time>
      </trkpt>
      <trkpt lat="59.255199" lon="18.100866">
        <ele>27</ele>
        <time>2020-01-30T08:34:17Z</time>
      </trkpt>
      <trkpt lat="59.255149" lon="18.100855">
        <ele>27</ele>
        <time>2020-01-30T08:34:18Z</time>
      </trkpt>
      <trkpt lat="59.255099" lon="18.100841">
        <ele>27</ele>
        <time>2020-01-30T08:34:19Z</time>
      </trkpt>
      <trkpt lat="59.255045" lon="18.100826">
        <ele>27</ele>
        <time>2020-01-30T08:34:20Z</time>
      </trkpt>
      <trkpt lat="59.254988" lon="18.100813">
        <ele>27</ele>
        <time>2020-01-30T08:34:21Z</time>
      </trkpt>
      <trkpt lat="59.25493" lon="18.100798">
        <ele>27</ele>
        <time>2020-01-30T08:34:22Z</time>
      </trkpt>
      <trkpt lat="59.254872" lon="18.100783">
        <ele>26</ele>
        <time>2020-01-30T08:34:23Z</time>
      </trkpt>
      <trkpt lat="59.254811" lon="18.100767">
        <ele>26</ele>
        <time>2020-01-30T08:34:24Z</time>
      </trkpt>
      <trkpt lat="59.254754" lon="18.100752">
        <ele>26</ele>
        <time>2020-01-30T08:34:25Z</time>
      </trkpt>
      <trkpt lat="59.254695" lon="18.100734">
        <ele>26</ele>
        <time>2020-01-30T08:34:26Z</time>
      </trkpt>
      <trkpt lat="59.25464" lon="18.100715">
        <ele>26</ele>
        <time>2020-01-30T08:34:27Z</time>
      </trkpt>
      <trkpt lat="59.254584" lon="18.100694">
        <ele>26</ele>
        <time>2020-01-30T08:34:28Z</time>
      </trkpt>
      <trkpt lat="59.254524" lon="18.100674">
        <ele>26</ele>
        <time>2020-01-30T08:34:29Z</time>
      </trkpt>
      <trkpt lat="59.254464" lon="18.100655">
        <ele>26</ele>
        <time>2020-01-30T08:34:30Z</time>
      </trkpt>
      <trkpt lat="59.254407" lon="18.100634">
        <ele>26</ele>
        <time>2020-01-30T08:34:31Z</time>
      </trkpt>
      <trkpt lat="59.254353" lon="18.100614">
        <ele>26</ele>
        <time>2020-01-30T08:34:32Z</time>
      </trkpt>
      <trkpt lat="59.254298" lon="18.100599">
        <ele>25</ele>
        <time>2020-01-30T08:34:33Z</time>
      </trkpt>
      <trkpt lat="59.254242" lon="18.100587">
        <ele>25</ele>
        <time>2020-01-30T08:34:34Z</time>
      </trkpt>
      <trkpt lat="59.254183" lon="18.100582">
        <ele>25</ele>
        <time>2020-01-30T08:34:35Z</time>
      </trkpt>
      <trkpt lat="59.254124" lon="18.100584">
        <ele>25</ele>
        <time>2020-01-30T08:34:36Z</time>
      </trkpt>
      <trkpt lat="59.254065" lon="18.100588">
        <ele>25</ele>
        <time>2020-01-30T08:34:37Z</time>
      </trkpt>
      <trkpt lat="59.25401" lon="18.10059">
        <ele>25</ele>
        <time>2020-01-30T08:34:38Z</time>
      </trkpt>
      <trkpt lat="59.253953" lon="18.100585">
        <ele>25</ele>
        <time>2020-01-30T08:34:39Z</time>
      </trkpt>
      <trkpt lat="59.253896" lon="18.100566">
        <ele>25</ele>
        <time>2020-01-30T08:34:40Z</time>
      </trkpt>
      <trkpt lat="59.253839" lon="18.100544">
        <ele>25</ele>
        <time>2020-01-30T08:34:41Z</time>
      </trkpt>
      <trkpt lat="59.253779" lon="18.100524">
        <ele>25</ele>
        <time>2020-01-30T08:34:42Z</time>
      </trkpt>
      <trkpt lat="59.253719" lon="18.100501">
        <ele>24</ele>
        <time>2020-01-30T08:34:43Z</time>
      </trkpt>
      <trkpt lat="59.253661" lon="18.100474">
        <ele>24</ele>
        <time>2020-01-30T08:34:44Z</time>
      </trkpt>
      <trkpt lat="59.253605" lon="18.100448">
        <ele>24</ele>
        <time>2020-01-30T08:34:45Z</time>
      </trkpt>
      <trkpt lat="59.253551" lon="18.10042">
        <ele>24</ele>
        <time>2020-01-30T08:34:46Z</time>
      </trkpt>
      <trkpt lat="59.253498" lon="18.10039">
        <ele>24</ele>
        <time>2020-01-30T08:34:47Z</time>
      </trkpt>
      <trkpt lat="59.253446" lon="18.100357">
        <ele>24</ele>
        <time>2020-01-30T08:34:48Z</time>
      </trkpt>
      <trkpt lat="59.253398" lon="18.100322">
        <ele>24</ele>
        <time>2020-01-30T08:34:49Z</time>
      </trkpt>
      <trkpt lat="59.253351" lon="18.100284">
        <ele>24</ele>
        <time>2020-01-30T08:34:50Z</time>
      </trkpt>
      <trkpt lat="59.253304" lon="18.100243">
        <ele>24</ele>
        <time>2020-01-30T08:34:51Z</time>
      </trkpt>
      <trkpt lat="59.253256" lon="18.100206">
        <ele>24</ele>
        <time>2020-01-30T08:34:52Z</time>
      </trkpt>
      <trkpt lat="59.253205" lon="18.100173">
        <ele>24</ele>
        <time>2020-01-30T08:34:53Z</time>
      </trkpt>
      <trkpt lat="59.253152" lon="18.10015">
        <ele>24</ele>
        <time>2020-01-30T08:34:54Z</time>
      </trkpt>
      <trkpt lat="59.253095" lon="18.100137">
        <ele>24</ele>
        <time>2020-01-30T08:34:55Z</time>
      </trkpt>
      <trkpt lat="59.253037" lon="18.100132">
        <ele>24</ele>
        <time>2020-01-30T08:34:56Z</time>
      </trkpt>
      <trkpt lat="59.252979" lon="18.100136">
        <ele>24</ele>
        <time>2020-01-30T08:34:57Z</time>
      </trkpt>
      <trkpt lat="59.25292" lon="18.100144">
        <ele>24</ele>
        <time>2020-01-30T08:34:58Z</time>
      </trkpt>
      <trkpt lat="59.252863" lon="18.100158">
        <ele>24</ele>
        <time>2020-01-30T08:34:59Z</time>
      </trkpt>
      <trkpt lat="59.252805" lon="18.100175">
        <ele>24</ele>
        <time>2020-01-30T08:35:00Z</time>
      </trkpt>
      <trkpt lat="59.252746" lon="18.100189">
        <ele>24</ele>
        <time>2020-01-30T08:35:01Z</time>
      </trkpt>
      <trkpt lat="59.252687" lon="18.100204">
        <ele>24</ele>
        <time>2020-01-30T08:35:02Z</time>
      </trkpt>
      <trkpt lat="59.252629" lon="18.100222">
        <ele>24</ele>
        <time>2020-01-30T08:35:03Z</time>
      </trkpt>
      <trkpt lat="59.252571" lon="18.100245">
        <ele>24</ele>
        <time>2020-01-30T08:35:04Z</time>
      </trkpt>
      <trkpt lat="59.252514" lon="18.100272">
        <ele>24</ele>
        <time>2020-01-30T08:35:05Z</time>
      </trkpt>
      <trkpt lat="59.252459" lon="18.100299">
        <ele>24</ele>
        <time>2020-01-30T08:35:06Z</time>
      </trkpt>
      <trkpt lat="59.252405" lon="18.100328">
        <ele>24</ele>
        <time>2020-01-30T08:35:07Z</time>
      </trkpt>
      <trkpt lat="59.252353" lon="18.100358">
        <ele>24</ele>
        <time>2020-01-30T08:35:08Z</time>
      </trkpt>
      <trkpt lat="59.252304" lon="18.100388">
        <ele>25</ele>
        <time>2020-01-30T08:35:09Z</time>
      </trkpt>
      <trkpt lat="59.252257" lon="18.100417">
        <ele>25</ele>
        <time>2020-01-30T08:35:10Z</time>
      </trkpt>
      <trkpt lat="59.252211" lon="18.100445">
        <ele>25</ele>
        <time>2020-01-30T08:35:11Z</time>
      </trkpt>
      <trkpt lat="59.252169" lon="18.100472">
        <ele>25</ele>
        <time>2020-01-30T08:35:12Z</time>
      </trkpt>
      <trkpt lat="59.252128" lon="18.100497">
        <ele>25</ele>
        <time>2020-01-30T08:35:13Z</time>
      </trkpt>
      <trkpt lat="59.252087" lon="18.100522">
        <ele>25</ele>
        <time>2020-01-30T08:35:14Z</time>
      </trkpt>
      <trkpt lat="59.252047" lon="18.100548">
        <ele>25</ele>
        <time>2020-01-30T08:35:15Z</time>
      </trkpt>
      <trkpt lat="59.252008" lon="18.100573">
        <ele>25</ele>
        <time>2020-01-30T08:35:16Z</time>
      </trkpt>
      <trkpt lat="59.251973" lon="18.100596">
        <ele>26</ele>
        <time>2020-01-30T08:35:17Z</time>
      </trkpt>
      <trkpt lat="59.251938" lon="18.100618">
        <ele>26</ele>
        <time>2020-01-30T08:35:18Z</time>
      </trkpt>
      <trkpt lat="59.251904" lon="18.10064">
        <ele>26</ele>
        <time>2020-01-30T08:35:19Z</time>
      </trkpt>
      <trkpt lat="59.25187" lon="18.100662">
        <ele>26</ele>
        <time>2020-01-30T08:35:20Z</time>
      </trkpt>
      <trkpt lat="59.251835" lon="18.100683">
        <ele>26</ele>
        <time>2020-01-30T08:35:21Z</time>
      </trkpt>
      <trkpt lat="59.2518" lon="18.100704">
        <ele>26</ele>
        <time>2020-01-30T08:35:22Z</time>
      </trkpt>
      <trkpt lat="59.251764" lon="18.100728">
        <ele>26</ele>
        <time>2020-01-30T08:35:23Z</time>
      </trkpt>
      <trkpt lat="59.251729" lon="18.10075">
        <ele>26</ele>
        <time>2020-01-30T08:35:24Z</time>
      </trkpt>
      <trkpt lat="59.251694" lon="18.100771">
        <ele>27</ele>
        <time>2020-01-30T08:35:25Z</time>
      </trkpt>
      <trkpt lat="59.251659" lon="18.100795">
        <ele>27</ele>
        <time>2020-01-30T08:35:26Z</time>
      </trkpt>
      <trkpt lat="59.251624" lon="18.100818">
        <ele>27</ele>
        <time>2020-01-30T08:35:27Z</time>
      </trkpt>
      <trkpt lat="59.25159" lon="18.10084">
        <ele>27</ele>
        <time>2020-01-30T08:35:28Z</time>
      </trkpt>
      <trkpt lat="59.251555" lon="18.100863">
        <ele>27</ele>
        <time>2020-01-30T08:35:29Z</time>
      </trkpt>
      <trkpt lat="59.251521" lon="18.100885">
        <ele>27</ele>
        <time>2020-01-30T08:35:30Z</time>
      </trkpt>
      <trkpt lat="59.251486" lon="18.100905">
        <ele>27</ele>
        <time>2020-01-30T08:35:31Z</time>
      </trkpt>
      <trkpt lat="59.25145" lon="18.10092">
        <ele>27</ele>
        <time>2020-01-30T08:35:32Z</time>
      </trkpt>
      <trkpt lat="59.251413" lon="18.10093">
        <ele>27</ele>
        <time>2020-01-30T08:35:33Z</time>
      </trkpt>
      <trkpt lat="59.251376" lon="18.100933">
        <ele>27</ele>
        <time>2020-01-30T08:35:34Z</time>
      </trkpt>
      <trkpt lat="59.251338" lon="18.100927">
        <ele>27</ele>
        <time>2020-01-30T08:35:35Z</time>
      </trkpt>
      <trkpt lat="59.251301" lon="18.100916">
        <ele>27</ele>
        <time>2020-01-30T08:35:36Z</time>
      </trkpt>
      <trkpt lat="59.251265" lon="18.1009">
        <ele>27</ele>
        <time>2020-01-30T08:35:37Z</time>
      </trkpt>
      <trkpt lat="59.25123" lon="18.100881">
        <ele>27</ele>
        <time>2020-01-30T08:35:38Z</time>
      </trkpt>
      <trkpt lat="59.251196" lon="18.100859">
        <ele>28</ele>
        <time>2020-01-30T08:35:39Z</time>
      </trkpt>
      <trkpt lat="59.251161" lon="18.100834">
        <ele>28</ele>
        <time>2020-01-30T08:35:40Z</time>
      </trkpt>
      <trkpt lat="59.251126" lon="18.100808">
        <ele>28</ele>
        <time>2020-01-30T08:35:41Z</time>
      </trkpt>
      <trkpt lat="59.251092" lon="18.100778">
        <ele>28</ele>
        <time>2020-01-30T08:35:42Z</time>
      </trkpt>
      <trkpt lat="59.251059" lon="18.10075">
        <ele>28</ele>
        <time>2020-01-30T08:35:43Z</time>
      </trkpt>
      <trkpt lat="59.251027" lon="18.10072">
        <ele>28</ele>
        <time>2020-01-30T08:35:44Z</time>
      </trkpt>
      <trkpt lat="59.250996" lon="18.100687">
        <ele>28</ele>
        <time>2020-01-30T08:35:45Z</time>
      </trkpt>
      <trkpt lat="59.250965" lon="18.100652">
        <ele>28</ele>
        <time>2020-01-30T08:35:46Z</time>
      </trkpt>
      <trkpt lat="59.250936" lon="18.100614">
        <ele>29</ele>
        <time>2020-01-30T08:35:47Z</time>
      </trkpt>
      <trkpt lat="59.250907" lon="18.100573">
        <ele>29</ele>
        <time>2020-01-30T08:35:48Z</time>
      </trkpt>
      <trkpt lat="59.250879" lon="18.100529">
        <ele>29</ele>
        <time>2020-01-30T08:35:49Z</time>
      </trkpt>
      <trkpt lat="59.250853" lon="18.100481">
        <ele>29</ele>
        <time>2020-01-30T08:35:50Z</time>
      </trkpt>
      <trkpt lat="59.250828" lon="18.100433">
        <ele>29</ele>
        <time>2020-01-30T08:35:51Z</time>
      </trkpt>
      <trkpt lat="59.250805" lon="18.100381">
        <ele>29</ele>
        <time>2020-01-30T08:35:52Z</time>
      </trkpt>
      <trkpt lat="59.250782" lon="18.100327">
        <ele>29</ele>
        <time>2020-01-30T08:35:53Z</time>
      </trkpt>
      <trkpt lat="59.250761" lon="18.100273">
        <ele>29</ele>
        <time>2020-01-30T08:35:54Z</time>
      </trkpt>
      <trkpt lat="59.250739" lon="18.100218">
        <ele>29</ele>
        <time>2020-01-30T08:35:55Z</time>
      </trkpt>
      <trkpt lat="59.250719" lon="18.100165">
        <ele>29</ele>
        <time>2020-01-30T08:35:56Z</time>
      </trkpt>
      <trkpt lat="59.250694" lon="18.100118">
        <ele>29</ele>
        <time>2020-01-30T08:35:57Z</time>
      </trkpt>
      <trkpt lat="59.250667" lon="18.100074">
        <ele>29</ele>
        <time>2020-01-30T08:35:58Z</time>
      </trkpt>
      <trkpt lat="59.250641" lon="18.100027">
        <ele>29</ele>
        <time>2020-01-30T08:35:59Z</time>
      </trkpt>
      <trkpt lat="59.250614" lon="18.099982">
        <ele>29</ele>
        <time>2020-01-30T08:36:00Z</time>
      </trkpt>
      <trkpt lat="59.250583" lon="18.099937">
        <ele>29</ele>
        <time>2020-01-30T08:36:01Z</time>
      </trkpt>
      <trkpt lat="59.250549" lon="18.09989">
        <ele>29</ele>
        <time>2020-01-30T08:36:02Z</time>
      </trkpt>
      <trkpt lat="59.250511" lon="18.099846">
        <ele>29</ele>
        <time>2020-01-30T08:36:03Z</time>
      </trkpt>
      <trkpt lat="59.25047" lon="18.099806">
        <ele>29</ele>
        <time>2020-01-30T08:36:04Z</time>
      </trkpt>
      <trkpt lat="59.250425" lon="18.09977">
        <ele>29</ele>
        <time>2020-01-30T08:36:05Z</time>
      </trkpt>
      <trkpt lat="59.250375" lon="18.09974">
        <ele>29</ele>
        <time>2020-01-30T08:36:06Z</time>
      </trkpt>
      <trkpt lat="59.250324" lon="18.099714">
        <ele>29</ele>
        <time>2020-01-30T08:36:07Z</time>
      </trkpt>
      <trkpt lat="59.250271" lon="18.09969">
        <ele>29</ele>
        <time>2020-01-30T08:36:08Z</time>
      </trkpt>
      <trkpt lat="59.250215" lon="18.099663">
        <ele>29</ele>
        <time>2020-01-30T08:36:09Z</time>
      </trkpt>
      <trkpt lat="59.250158" lon="18.099638">
        <ele>29</ele>
        <time>2020-01-30T08:36:10Z</time>
      </trkpt>
      <trkpt lat="59.2501" lon="18.099612">
        <ele>29</ele>
        <time>2020-01-30T08:36:11Z</time>
      </trkpt>
      <trkpt lat="59.25004" lon="18.099587">
        <ele>29</ele>
        <time>2020-01-30T08:36:12Z</time>
      </trkpt>
      <trkpt lat="59.249979" lon="18.099562">
        <ele>29</ele>
        <time>2020-01-30T08:36:13Z</time>
      </trkpt>
      <trkpt lat="59.249917" lon="18.099534">
        <ele>29</ele>
        <time>2020-01-30T08:36:14Z</time>
      </trkpt>
      <trkpt lat="59.249856" lon="18.099506">
        <ele>29</ele>
        <time>2020-01-30T08:36:15Z</time>
      </trkpt>
      <trkpt lat="59.249794" lon="18.099482">
        <ele>28</ele>
        <time>2020-01-30T08:36:16Z</time>
      </trkpt>
      <trkpt lat="59.249729" lon="18.099462">
        <ele>28</ele>
        <time>2020-01-30T08:36:17Z</time>
      </trkpt>
      <trkpt lat="59.249662" lon="18.099452">
        <ele>28</ele>
        <time>2020-01-30T08:36:18Z</time>
      </trkpt>
      <trkpt lat="59.249595" lon="18.099455">
        <ele>28</ele>
        <time>2020-01-30T08:36:19Z</time>
      </trkpt>
      <trkpt lat="59.24953" lon="18.099469">
        <ele>28</ele>
        <time>2020-01-30T08:36:20Z</time>
      </trkpt>
      <trkpt lat="59.249468" lon="18.099492">
        <ele>28</ele>
        <time>2020-01-30T08:36:21Z</time>
      </trkpt>
      <trkpt lat="59.24941" lon="18.099516">
        <ele>28</ele>
        <time>2020-01-30T08:36:22Z</time>
      </trkpt>
      <trkpt lat="59.249353" lon="18.099542">
        <ele>28</ele>
        <time>2020-01-30T08:36:23Z</time>
      </trkpt>
      <trkpt lat="59.249299" lon="18.099566">
        <ele>28</ele>
        <time>2020-01-30T08:36:24Z</time>
      </trkpt>
      <trkpt lat="59.249246" lon="18.099592">
        <ele>28</ele>
        <time>2020-01-30T08:36:25Z</time>
      </trkpt>
      <trkpt lat="59.249194" lon="18.099618">
        <ele>28</ele>
        <time>2020-01-30T08:36:26Z</time>
      </trkpt>
      <trkpt lat="59.249144" lon="18.099645">
        <ele>28</ele>
        <time>2020-01-30T08:36:27Z</time>
      </trkpt>
      <trkpt lat="59.249096" lon="18.099678">
        <ele>28</ele>
        <time>2020-01-30T08:36:28Z</time>
      </trkpt>
      <trkpt lat="59.24905" lon="18.09971">
        <ele>28</ele>
        <time>2020-01-30T08:36:29Z</time>
      </trkpt>
      <trkpt lat="59.249005" lon="18.099746">
        <ele>28</ele>
        <time>2020-01-30T08:36:30Z</time>
      </trkpt>
      <trkpt lat="59.248961" lon="18.099786">
        <ele>28</ele>
        <time>2020-01-30T08:36:31Z</time>
      </trkpt>
      <trkpt lat="59.24892" lon="18.09983">
        <ele>28</ele>
        <time>2020-01-30T08:36:32Z</time>
      </trkpt>
      <trkpt lat="59.248879" lon="18.099876">
        <ele>28</ele>
        <time>2020-01-30T08:36:33Z</time>
      </trkpt>
      <trkpt lat="59.248839" lon="18.099924">
        <ele>28</ele>
        <time>2020-01-30T08:36:34Z</time>
      </trkpt>
      <trkpt lat="59.248801" lon="18.099974">
        <ele>28</ele>
        <time>2020-01-30T08:36:35Z</time>
      </trkpt>
      <trkpt lat="59.248764" lon="18.100027">
        <ele>28</ele>
        <time>2020-01-30T08:36:36Z</time>
      </trkpt>
      <trkpt lat="59.248727" lon="18.100082">
        <ele>29</ele>
        <time>2020-01-30T08:36:37Z</time>
      </trkpt>
      <trkpt lat="59.248691" lon="18.10014">
        <ele>29</ele>
        <time>2020-01-30T08:36:38Z</time>
      </trkpt>
      <trkpt lat="59.248653" lon="18.1002">
        <ele>29</ele>
        <time>2020-01-30T08:36:39Z</time>
      </trkpt>
      <trkpt lat="59.248613" lon="18.100257">
        <ele>0</ele>
        <time>2020-01-30T08:36:39Z</time>
      </trkpt>
      <trkpt lat="59.248572" lon="18.100314">
        <ele>29</ele>
        <time>2020-01-30T08:36:40Z</time>
      </trkpt>
      <trkpt lat="59.248531" lon="18.100368">
        <ele>29</ele>
        <time>2020-01-30T08:36:42Z</time>
      </trkpt>
      <trkpt lat="59.248485" lon="18.100422">
        <ele>29</ele>
        <time>2020-01-30T08:36:43Z</time>
      </trkpt>
      <trkpt lat="59.248437" lon="18.100466">
        <ele>29</ele>
        <time>2020-01-30T08:36:44Z</time>
      </trkpt>
      <trkpt lat="59.24839" lon="18.100502">
        <ele>29</ele>
        <time>2020-01-30T08:36:45Z</time>
      </trkpt>
      <trkpt lat="59.248345" lon="18.100537">
        <ele>29</ele>
        <time>2020-01-30T08:36:46Z</time>
      </trkpt>
      <trkpt lat="59.248305" lon="18.100568">
        <ele>30</ele>
        <time>2020-01-30T08:36:47Z</time>
      </trkpt>
      <trkpt lat="59.248269" lon="18.100599">
        <ele>30</ele>
        <time>2020-01-30T08:36:48Z</time>
      </trkpt>
      <trkpt lat="59.248235" lon="18.100636">
        <ele>30</ele>
        <time>2020-01-30T08:36:49Z</time>
      </trkpt>
      <trkpt lat="59.248203" lon="18.100672">
        <ele>30</ele>
        <time>2020-01-30T08:36:50Z</time>
      </trkpt>
      <trkpt lat="59.248172" lon="18.10071">
        <ele>30</ele>
        <time>2020-01-30T08:36:51Z</time>
      </trkpt>
      <trkpt lat="59.248142" lon="18.10075">
        <ele>30</ele>
        <time>2020-01-30T08:36:52Z</time>
      </trkpt>
      <trkpt lat="59.248111" lon="18.100794">
        <ele>31</ele>
        <time>2020-01-30T08:36:53Z</time>
      </trkpt>
      <trkpt lat="59.248081" lon="18.100846">
        <ele>30</ele>
        <time>2020-01-30T08:36:54Z</time>
      </trkpt>
      <trkpt lat="59.248054" lon="18.100903">
        <ele>31</ele>
        <time>2020-01-30T08:36:55Z</time>
      </trkpt>
      <trkpt lat="59.248029" lon="18.10096">
        <ele>31</ele>
        <time>2020-01-30T08:36:56Z</time>
      </trkpt>
      <trkpt lat="59.248006" lon="18.101017">
        <ele>31</ele>
        <time>2020-01-30T08:36:57Z</time>
      </trkpt>
      <trkpt lat="59.247985" lon="18.101074">
        <ele>31</ele>
        <time>2020-01-30T08:36:58Z</time>
      </trkpt>
      <trkpt lat="59.247965" lon="18.101132">
        <ele>31</ele>
        <time>2020-01-30T08:36:59Z</time>
      </trkpt>
      <trkpt lat="59.247941" lon="18.101194">
        <ele>31</ele>
        <time>2020-01-30T08:37:00Z</time>
      </trkpt>
      <trkpt lat="59.247919" lon="18.101258">
        <ele>31</ele>
        <time>2020-01-30T08:37:01Z</time>
      </trkpt>
      <trkpt lat="59.247899" lon="18.101322">
        <ele>32</ele>
        <time>2020-01-30T08:37:02Z</time>
      </trkpt>
      <trkpt lat="59.247879" lon="18.101383">
        <ele>32</ele>
        <time>2020-01-30T08:37:03Z</time>
      </trkpt>
      <trkpt lat="59.247859" lon="18.101441">
        <ele>32</ele>
        <time>2020-01-30T08:37:04Z</time>
      </trkpt>
      <trkpt lat="59.247839" lon="18.101504">
        <ele>32</ele>
        <time>2020-01-30T08:37:05Z</time>
      </trkpt>
      <trkpt lat="59.247819" lon="18.101572">
        <ele>32</ele>
        <time>2020-01-30T08:37:06Z</time>
      </trkpt>
      <trkpt lat="59.247801" lon="18.101634">
        <ele>32</ele>
        <time>2020-01-30T08:37:07Z</time>
      </trkpt>
      <trkpt lat="59.247782" lon="18.101699">
        <ele>32</ele>
        <time>2020-01-30T08:37:08Z</time>
      </trkpt>
      <trkpt lat="59.247763" lon="18.101766">
        <ele>32</ele>
        <time>2020-01-30T08:37:09Z</time>
      </trkpt>
      <trkpt lat="59.247744" lon="18.101835">
        <ele>32</ele>
        <time>2020-01-30T08:37:10Z</time>
      </trkpt>
      <trkpt lat="59.247727" lon="18.101901">
        <ele>32</ele>
        <time>2020-01-30T08:37:11Z</time>
      </trkpt>
      <trkpt lat="59.247714" lon="18.101967">
        <ele>32</ele>
        <time>2020-01-30T08:37:12Z</time>
      </trkpt>
      <trkpt lat="59.247699" lon="18.102039">
        <ele>32</ele>
        <time>2020-01-30T08:37:13Z</time>
      </trkpt>
      <trkpt lat="59.247683" lon="18.102115">
        <ele>32</ele>
        <time>2020-01-30T08:37:14Z</time>
      </trkpt>
      <trkpt lat="59.247667" lon="18.10219">
        <ele>32</ele>
        <time>2020-01-30T08:37:15Z</time>
      </trkpt>
      <trkpt lat="59.24765" lon="18.102269">
        <ele>32</ele>
        <time>2020-01-30T08:37:16Z</time>
      </trkpt>
      <trkpt lat="59.24763" lon="18.102347">
        <ele>32</ele>
        <time>2020-01-30T08:37:17Z</time>
      </trkpt>
      <trkpt lat="59.247608" lon="18.102421">
        <ele>32</ele>
        <time>2020-01-30T08:37:18Z</time>
      </trkpt>
      <trkpt lat="59.247586" lon="18.102496">
        <ele>32</ele>
        <time>2020-01-30T08:37:19Z</time>
      </trkpt>
      <trkpt lat="59.247566" lon="18.102575">
        <ele>32</ele>
        <time>2020-01-30T08:37:20Z</time>
      </trkpt>
      <trkpt lat="59.247541" lon="18.102662">
        <ele>32</ele>
        <time>2020-01-30T08:37:21Z</time>
      </trkpt>
      <trkpt lat="59.247514" lon="18.102753">
        <ele>32</ele>
        <time>2020-01-30T08:37:22Z</time>
      </trkpt>
      <trkpt lat="59.247488" lon="18.102839">
        <ele>32</ele>
        <time>2020-01-30T08:37:23Z</time>
      </trkpt>
      <trkpt lat="59.24746" lon="18.102921">
        <ele>32</ele>
        <time>2020-01-30T08:37:24Z</time>
      </trkpt>
      <trkpt lat="59.247429" lon="18.103">
        <ele>32</ele>
        <time>2020-01-30T08:37:25Z</time>
      </trkpt>
      <trkpt lat="59.247392" lon="18.103078">
        <ele>32</ele>
        <time>2020-01-30T08:37:26Z</time>
      </trkpt>
      <trkpt lat="59.247352" lon="18.103155">
        <ele>32</ele>
        <time>2020-01-30T08:37:27Z</time>
      </trkpt>
      <trkpt lat="59.247309" lon="18.103239">
        <ele>32</ele>
        <time>2020-01-30T08:37:28Z</time>
      </trkpt>
      <trkpt lat="59.247258" lon="18.10332">
        <ele>32</ele>
        <time>2020-01-30T08:37:29Z</time>
      </trkpt>
      <trkpt lat="59.247206" lon="18.103404">
        <ele>31</ele>
        <time>2020-01-30T08:37:30Z</time>
      </trkpt>
      <trkpt lat="59.247152" lon="18.103492">
        <ele>31</ele>
        <time>2020-01-30T08:37:31Z</time>
      </trkpt>
      <trkpt lat="59.247102" lon="18.103594">
        <ele>31</ele>
        <time>2020-01-30T08:37:32Z</time>
      </trkpt>
      <trkpt lat="59.247054" lon="18.10371">
        <ele>29</ele>
        <time>2020-01-30T08:37:33Z</time>
      </trkpt>
      <trkpt lat="59.247009" lon="18.103845">
        <ele>29</ele>
        <time>2020-01-30T08:37:34Z</time>
      </trkpt>
      <trkpt lat="59.246974" lon="18.103978">
        <ele>29</ele>
        <time>2020-01-30T08:37:35Z</time>
      </trkpt>
      <trkpt lat="59.246948" lon="18.104112">
        <ele>28</ele>
        <time>2020-01-30T08:37:36Z</time>
      </trkpt>
      <trkpt lat="59.246936" lon="18.104241">
        <ele>28</ele>
        <time>2020-01-30T08:37:37Z</time>
      </trkpt>
      <trkpt lat="59.24693" lon="18.104364">
        <ele>28</ele>
        <time>2020-01-30T08:37:38Z</time>
      </trkpt>
      <trkpt lat="59.246929" lon="18.104476">
        <ele>28</ele>
        <time>2020-01-30T08:37:39Z</time>
      </trkpt>
      <trkpt lat="59.246938" lon="18.104588">
        <ele>28</ele>
        <time>2020-01-30T08:37:40Z</time>
      </trkpt>
      <trkpt lat="59.246936" lon="18.104696">
        <ele>28</ele>
        <time>2020-01-30T08:37:41Z</time>
      </trkpt>
      <trkpt lat="59.246926" lon="18.104795">
        <ele>28</ele>
        <time>2020-01-30T08:37:42Z</time>
      </trkpt>
      <trkpt lat="59.246895" lon="18.104876">
        <ele>28</ele>
        <time>2020-01-30T08:37:43Z</time>
      </trkpt>
      <trkpt lat="59.246858" lon="18.104941">
        <ele>28</ele>
        <time>2020-01-30T08:37:44Z</time>
      </trkpt>
      <trkpt lat="59.246817" lon="18.104997">
        <ele>28</ele>
        <time>2020-01-30T08:37:45Z</time>
      </trkpt>
      <trkpt lat="59.246777" lon="18.105045">
        <ele>28</ele>
        <time>2020-01-30T08:37:46Z</time>
      </trkpt>
      <trkpt lat="59.246735" lon="18.105097">
        <ele>28</ele>
        <time>2020-01-30T08:37:47Z</time>
      </trkpt>
      <trkpt lat="59.246694" lon="18.105149">
        <ele>28</ele>
        <time>2020-01-30T08:37:48Z</time>
      </trkpt>
      <trkpt lat="59.246656" lon="18.105201">
        <ele>28</ele>
        <time>2020-01-30T08:37:49Z</time>
      </trkpt>
      <trkpt lat="59.246621" lon="18.105251">
        <ele>28</ele>
        <time>2020-01-30T08:37:50Z</time>
      </trkpt>
      <trkpt lat="59.246586" lon="18.105301">
        <ele>28</ele>
        <time>2020-01-30T08:37:51Z</time>
      </trkpt>
      <trkpt lat="59.24655" lon="18.105345">
        <ele>28</ele>
        <time>2020-01-30T08:37:52Z</time>
      </trkpt>
      <trkpt lat="59.246511" lon="18.10537">
        <ele>28</ele>
        <time>2020-01-30T08:37:53Z</time>
      </trkpt>
      <trkpt lat="59.24647" lon="18.105383">
        <ele>28</ele>
        <time>2020-01-30T08:37:54Z</time>
      </trkpt>
      <trkpt lat="59.246429" lon="18.105388">
        <ele>28</ele>
        <time>2020-01-30T08:37:55Z</time>
      </trkpt>
      <trkpt lat="59.246387" lon="18.105392">
        <ele>28</ele>
        <time>2020-01-30T08:37:56Z</time>
      </trkpt>
      <trkpt lat="59.246346" lon="18.105396">
        <ele>28</ele>
        <time>2020-01-30T08:37:57Z</time>
      </trkpt>
      <trkpt lat="59.246304" lon="18.105403">
        <ele>28</ele>
        <time>2020-01-30T08:37:58Z</time>
      </trkpt>
      <trkpt lat="59.246261" lon="18.10542">
        <ele>28</ele>
        <time>2020-01-30T08:37:59Z</time>
      </trkpt>
      <trkpt lat="59.24622" lon="18.105443">
        <ele>28</ele>
        <time>2020-01-30T08:38:00Z</time>
      </trkpt>
      <trkpt lat="59.24618" lon="18.105475">
        <ele>28</ele>
        <time>2020-01-30T08:38:01Z</time>
      </trkpt>
      <trkpt lat="59.246145" lon="18.105515">
        <ele>28</ele>
        <time>2020-01-30T08:38:02Z</time>
      </trkpt>
      <trkpt lat="59.246111" lon="18.105561">
        <ele>28</ele>
        <time>2020-01-30T08:38:03Z</time>
      </trkpt>
      <trkpt lat="59.246079" lon="18.10561">
        <ele>29</ele>
        <time>2020-01-30T08:38:04Z</time>
      </trkpt>
      <trkpt lat="59.246046" lon="18.10566">
        <ele>29</ele>
        <time>2020-01-30T08:38:05Z</time>
      </trkpt>
      <trkpt lat="59.246012" lon="18.105709">
        <ele>29</ele>
        <time>2020-01-30T08:38:06Z</time>
      </trkpt>
      <trkpt lat="59.24598" lon="18.105759">
        <ele>29</ele>
        <time>2020-01-30T08:38:07Z</time>
      </trkpt>
      <trkpt lat="59.24595" lon="18.10581">
        <ele>29</ele>
        <time>2020-01-30T08:38:08Z</time>
      </trkpt>
      <trkpt lat="59.245919" lon="18.105857">
        <ele>29</ele>
        <time>2020-01-30T08:38:09Z</time>
      </trkpt>
      <trkpt lat="59.245886" lon="18.105905">
        <ele>29</ele>
        <time>2020-01-30T08:38:10Z</time>
      </trkpt>
      <trkpt lat="59.245851" lon="18.105953">
        <ele>29</ele>
        <time>2020-01-30T08:38:11Z</time>
      </trkpt>
      <trkpt lat="59.245818" lon="18.106002">
        <ele>29</ele>
        <time>2020-01-30T08:38:12Z</time>
      </trkpt>
      <trkpt lat="59.245788" lon="18.106051">
        <ele>29</ele>
        <time>2020-01-30T08:38:13Z</time>
      </trkpt>
      <trkpt lat="59.245758" lon="18.106097">
        <ele>29</ele>
        <time>2020-01-30T08:38:14Z</time>
      </trkpt>
      <trkpt lat="59.245729" lon="18.106136">
        <ele>29</ele>
        <time>2020-01-30T08:38:15Z</time>
      </trkpt>
      <trkpt lat="59.245697" lon="18.106179">
        <ele>29</ele>
        <time>2020-01-30T08:38:16Z</time>
      </trkpt>
      <trkpt lat="59.245666" lon="18.106224">
        <ele>29</ele>
        <time>2020-01-30T08:38:17Z</time>
      </trkpt>
      <trkpt lat="59.245633" lon="18.106269">
        <ele>30</ele>
        <time>2020-01-30T08:38:18Z</time>
      </trkpt>
      <trkpt lat="59.245602" lon="18.106313">
        <ele>30</ele>
        <time>2020-01-30T08:38:19Z</time>
      </trkpt>
      <trkpt lat="59.245573" lon="18.106357">
        <ele>30</ele>
        <time>2020-01-30T08:38:20Z</time>
      </trkpt>
      <trkpt lat="59.245546" lon="18.106402">
        <ele>30</ele>
        <time>2020-01-30T08:38:21Z</time>
      </trkpt>
      <trkpt lat="59.24552" lon="18.106451">
        <ele>30</ele>
        <time>2020-01-30T08:38:22Z</time>
      </trkpt>
      <trkpt lat="59.245493" lon="18.106502">
        <ele>30</ele>
        <time>2020-01-30T08:38:23Z</time>
      </trkpt>
      <trkpt lat="59.245465" lon="18.106554">
        <ele>30</ele>
        <time>2020-01-30T08:38:24Z</time>
      </trkpt>
      <trkpt lat="59.245438" lon="18.106607">
        <ele>31</ele>
        <time>2020-01-30T08:38:25Z</time>
      </trkpt>
      <trkpt lat="59.245412" lon="18.106659">
        <ele>31</ele>
        <time>2020-01-30T08:38:26Z</time>
      </trkpt>
      <trkpt lat="59.245384" lon="18.10671">
        <ele>31</ele>
        <time>2020-01-30T08:38:27Z</time>
      </trkpt>
      <trkpt lat="59.245357" lon="18.106762">
        <ele>31</ele>
        <time>2020-01-30T08:38:28Z</time>
      </trkpt>
      <trkpt lat="59.245329" lon="18.106812">
        <ele>31</ele>
        <time>2020-01-30T08:38:29Z</time>
      </trkpt>
      <trkpt lat="59.245301" lon="18.106864">
        <ele>31</ele>
        <time>2020-01-30T08:38:30Z</time>
      </trkpt>
      <trkpt lat="59.245272" lon="18.106915">
        <ele>31</ele>
        <time>2020-01-30T08:38:31Z</time>
      </trkpt>
      <trkpt lat="59.245244" lon="18.106966">
        <ele>31</ele>
        <time>2020-01-30T08:38:32Z</time>
      </trkpt>
      <trkpt lat="59.245216" lon="18.107017">
        <ele>31</ele>
        <time>2020-01-30T08:38:33Z</time>
      </trkpt>
      <trkpt lat="59.245187" lon="18.107068">
        <ele>31</ele>
        <time>2020-01-30T08:38:34Z</time>
      </trkpt>
      <trkpt lat="59.245159" lon="18.107121">
        <ele>31</ele>
        <time>2020-01-30T08:38:35Z</time>
      </trkpt>
      <trkpt lat="59.245131" lon="18.107171">
        <ele>31</ele>
        <time>2020-01-30T08:38:36Z</time>
      </trkpt>
      <trkpt lat="59.245104" lon="18.107223">
        <ele>31</ele>
        <time>2020-01-30T08:38:37Z</time>
      </trkpt>
      <trkpt lat="59.245075" lon="18.107273">
        <ele>32</ele>
        <time>2020-01-30T08:38:38Z</time>
      </trkpt>
      <trkpt lat="59.245047" lon="18.107322">
        <ele>32</ele>
        <time>2020-01-30T08:38:39Z</time>
      </trkpt>
      <trkpt lat="59.245019" lon="18.107371">
        <ele>32</ele>
        <time>2020-01-30T08:38:40Z</time>
      </trkpt>
      <trkpt lat="59.24499" lon="18.107418">
        <ele>32</ele>
        <time>2020-01-30T08:38:41Z</time>
      </trkpt>
      <trkpt lat="59.244958" lon="18.107465">
        <ele>32</ele>
        <time>2020-01-30T08:38:42Z</time>
      </trkpt>
      <trkpt lat="59.244928" lon="18.107515">
        <ele>32</ele>
        <time>2020-01-30T08:38:43Z</time>
      </trkpt>
      <trkpt lat="59.244898" lon="18.107568">
        <ele>32</ele>
        <time>2020-01-30T08:38:44Z</time>
      </trkpt>
      <trkpt lat="59.244868" lon="18.10762">
        <ele>32</ele>
        <time>2020-01-30T08:38:45Z</time>
      </trkpt>
      <trkpt lat="59.244839" lon="18.107672">
        <ele>33</ele>
        <time>2020-01-30T08:38:46Z</time>
      </trkpt>
      <trkpt lat="59.244808" lon="18.107728">
        <ele>33</ele>
        <time>2020-01-30T08:38:47Z</time>
      </trkpt>
      <trkpt lat="59.244777" lon="18.107785">
        <ele>33</ele>
        <time>2020-01-30T08:38:48Z</time>
      </trkpt>
      <trkpt lat="59.244745" lon="18.107844">
        <ele>33</ele>
        <time>2020-01-30T08:38:49Z</time>
      </trkpt>
      <trkpt lat="59.244712" lon="18.107904">
        <ele>33</ele>
        <time>2020-01-30T08:38:50Z</time>
      </trkpt>
      <trkpt lat="59.24468" lon="18.107965">
        <ele>33</ele>
        <time>2020-01-30T08:38:51Z</time>
      </trkpt>
      <trkpt lat="59.244648" lon="18.10803">
        <ele>33</ele>
        <time>2020-01-30T08:38:52Z</time>
      </trkpt>
      <trkpt lat="59.244616" lon="18.108097">
        <ele>33</ele>
        <time>2020-01-30T08:38:53Z</time>
      </trkpt>
      <trkpt lat="59.24458" lon="18.108165">
        <ele>33</ele>
        <time>2020-01-30T08:38:54Z</time>
      </trkpt>
      <trkpt lat="59.244544" lon="18.108232">
        <ele>33</ele>
        <time>2020-01-30T08:38:55Z</time>
      </trkpt>
      <trkpt lat="59.244507" lon="18.108298">
        <ele>33</ele>
        <time>2020-01-30T08:38:56Z</time>
      </trkpt>
      <trkpt lat="59.24447" lon="18.108366">
        <ele>33</ele>
        <time>2020-01-30T08:38:57Z</time>
      </trkpt>
      <trkpt lat="59.244434" lon="18.108437">
        <ele>33</ele>
        <time>2020-01-30T08:38:58Z</time>
      </trkpt>
      <trkpt lat="59.244397" lon="18.108509">
        <ele>33</ele>
        <time>2020-01-30T08:38:59Z</time>
      </trkpt>
      <trkpt lat="59.24436" lon="18.108582">
        <ele>33</ele>
        <time>2020-01-30T08:39:00Z</time>
      </trkpt>
      <trkpt lat="59.244324" lon="18.108656">
        <ele>33</ele>
        <time>2020-01-30T08:39:01Z</time>
      </trkpt>
      <trkpt lat="59.244286" lon="18.108727">
        <ele>33</ele>
        <time>2020-01-30T08:39:02Z</time>
      </trkpt>
      <trkpt lat="59.244248" lon="18.108799">
        <ele>33</ele>
        <time>2020-01-30T08:39:03Z</time>
      </trkpt>
      <trkpt lat="59.24421" lon="18.108872">
        <ele>33</ele>
        <time>2020-01-30T08:39:04Z</time>
      </trkpt>
      <trkpt lat="59.244172" lon="18.108946">
        <ele>33</ele>
        <time>2020-01-30T08:39:05Z</time>
      </trkpt>
      <trkpt lat="59.244135" lon="18.109025">
        <ele>33</ele>
        <time>2020-01-30T08:39:06Z</time>
      </trkpt>
      <trkpt lat="59.244103" lon="18.109109">
        <ele>33</ele>
        <time>2020-01-30T08:39:07Z</time>
      </trkpt>
      <trkpt lat="59.244072" lon="18.109196">
        <ele>33</ele>
        <time>2020-01-30T08:39:08Z</time>
      </trkpt>
      <trkpt lat="59.244043" lon="18.109287">
        <ele>32</ele>
        <time>2020-01-30T08:39:09Z</time>
      </trkpt>
      <trkpt lat="59.244016" lon="18.109382">
        <ele>32</ele>
        <time>2020-01-30T08:39:10Z</time>
      </trkpt>
      <trkpt lat="59.243995" lon="18.10948">
        <ele>32</ele>
        <time>2020-01-30T08:39:11Z</time>
      </trkpt>
      <trkpt lat="59.243977" lon="18.10958">
        <ele>32</ele>
        <time>2020-01-30T08:39:12Z</time>
      </trkpt>
      <trkpt lat="59.243962" lon="18.109682">
        <ele>32</ele>
        <time>2020-01-30T08:39:13Z</time>
      </trkpt>
      <trkpt lat="59.243949" lon="18.109786">
        <ele>32</ele>
        <time>2020-01-30T08:39:14Z</time>
      </trkpt>
      <trkpt lat="59.24394" lon="18.109892">
        <ele>32</ele>
        <time>2020-01-30T08:39:15Z</time>
      </trkpt>
      <trkpt lat="59.243932" lon="18.109999">
        <ele>32</ele>
        <time>2020-01-30T08:39:16Z</time>
      </trkpt>
      <trkpt lat="59.243927" lon="18.110107">
        <ele>32</ele>
        <time>2020-01-30T08:39:17Z</time>
      </trkpt>
      <trkpt lat="59.243925" lon="18.110219">
        <ele>32</ele>
        <time>2020-01-30T08:39:18Z</time>
      </trkpt>
      <trkpt lat="59.243922" lon="18.110334">
        <ele>32</ele>
        <time>2020-01-30T08:39:19Z</time>
      </trkpt>
      <trkpt lat="59.243917" lon="18.110454">
        <ele>32</ele>
        <time>2020-01-30T08:39:20Z</time>
      </trkpt>
      <trkpt lat="59.243915" lon="18.110572">
        <ele>32</ele>
        <time>2020-01-30T08:39:21Z</time>
      </trkpt>
      <trkpt lat="59.243915" lon="18.110693">
        <ele>32</ele>
        <time>2020-01-30T08:39:22Z</time>
      </trkpt>
      <trkpt lat="59.243913" lon="18.110816">
        <ele>32</ele>
        <time>2020-01-30T08:39:23Z</time>
      </trkpt>
      <trkpt lat="59.243912" lon="18.110943">
        <ele>32</ele>
        <time>2020-01-30T08:39:24Z</time>
      </trkpt>
      <trkpt lat="59.243912" lon="18.111072">
        <ele>31</ele>
        <time>2020-01-30T08:39:25Z</time>
      </trkpt>
      <trkpt lat="59.243912" lon="18.111202">
        <ele>31</ele>
        <time>2020-01-30T08:39:26Z</time>
      </trkpt>
      <trkpt lat="59.243911" lon="18.111332">
        <ele>31</ele>
        <time>2020-01-30T08:39:27Z</time>
      </trkpt>
      <trkpt lat="59.243913" lon="18.111461">
        <ele>30</ele>
        <time>2020-01-30T08:39:28Z</time>
      </trkpt>
      <trkpt lat="59.243914" lon="18.111593">
        <ele>30</ele>
        <time>2020-01-30T08:39:29Z</time>
      </trkpt>
      <trkpt lat="59.243915" lon="18.111726">
        <ele>30</ele>
        <time>2020-01-30T08:39:30Z</time>
      </trkpt>
      <trkpt lat="59.243916" lon="18.111857">
        <ele>29</ele>
        <time>2020-01-30T08:39:31Z</time>
      </trkpt>
      <trkpt lat="59.243914" lon="18.111993">
        <ele>29</ele>
        <time>2020-01-30T08:39:32Z</time>
      </trkpt>
      <trkpt lat="59.243912" lon="18.112128">
        <ele>29</ele>
        <time>2020-01-30T08:39:33Z</time>
      </trkpt>
      <trkpt lat="59.24391" lon="18.112261">
        <ele>29</ele>
        <time>2020-01-30T08:39:34Z</time>
      </trkpt>
      <trkpt lat="59.243907" lon="18.112391">
        <ele>29</ele>
        <time>2020-01-30T08:39:35Z</time>
      </trkpt>
      <trkpt lat="59.243905" lon="18.112518">
        <ele>29</ele>
        <time>2020-01-30T08:39:36Z</time>
      </trkpt>
      <trkpt lat="59.243901" lon="18.112645">
        <ele>29</ele>
        <time>2020-01-30T08:39:37Z</time>
      </trkpt>
      <trkpt lat="59.243897" lon="18.112769">
        <ele>28</ele>
        <time>2020-01-30T08:39:38Z</time>
      </trkpt>
      <trkpt lat="59.243891" lon="18.11289">
        <ele>28</ele>
        <time>2020-01-30T08:39:39Z</time>
      </trkpt>
      <trkpt lat="59.243884" lon="18.113009">
        <ele>28</ele>
        <time>2020-01-30T08:39:40Z</time>
      </trkpt>
      <trkpt lat="59.243877" lon="18.113126">
        <ele>28</ele>
        <time>2020-01-30T08:39:41Z</time>
      </trkpt>
      <trkpt lat="59.243868" lon="18.113241">
        <ele>28</ele>
        <time>2020-01-30T08:39:42Z</time>
      </trkpt>
      <trkpt lat="59.243858" lon="18.113355">
        <ele>28</ele>
        <time>2020-01-30T08:39:43Z</time>
      </trkpt>
      <trkpt lat="59.243849" lon="18.113468">
        <ele>28</ele>
        <time>2020-01-30T08:39:44Z</time>
      </trkpt>
      <trkpt lat="59.243839" lon="18.113579">
        <ele>28</ele>
        <time>2020-01-30T08:39:45Z</time>
      </trkpt>
      <trkpt lat="59.243827" lon="18.113689">
        <ele>28</ele>
        <time>2020-01-30T08:39:46Z</time>
      </trkpt>
      <trkpt lat="59.243815" lon="18.113795">
        <ele>28</ele>
        <time>2020-01-30T08:39:47Z</time>
      </trkpt>
      <trkpt lat="59.243803" lon="18.113898">
        <ele>28</ele>
        <time>2020-01-30T08:39:48Z</time>
      </trkpt>
      <trkpt lat="59.24379" lon="18.114003">
        <ele>28</ele>
        <time>2020-01-30T08:39:49Z</time>
      </trkpt>
      <trkpt lat="59.243776" lon="18.114111">
        <ele>28</ele>
        <time>2020-01-30T08:39:50Z</time>
      </trkpt>
      <trkpt lat="59.243761" lon="18.114219">
        <ele>28</ele>
        <time>2020-01-30T08:39:51Z</time>
      </trkpt>
      <trkpt lat="59.243745" lon="18.114329">
        <ele>28</ele>
        <time>2020-01-30T08:39:52Z</time>
      </trkpt>
      <trkpt lat="59.243728" lon="18.114436">
        <ele>28</ele>
        <time>2020-01-30T08:39:53Z</time>
      </trkpt>
      <trkpt lat="59.243712" lon="18.11454">
        <ele>28</ele>
        <time>2020-01-30T08:39:54Z</time>
      </trkpt>
      <trkpt lat="59.243694" lon="18.114644">
        <ele>28</ele>
        <time>2020-01-30T08:39:55Z</time>
      </trkpt>
      <trkpt lat="59.243675" lon="18.114751">
        <ele>28</ele>
        <time>2020-01-30T08:39:56Z</time>
      </trkpt>
      <trkpt lat="59.243655" lon="18.114857">
        <ele>28</ele>
        <time>2020-01-30T08:39:57Z</time>
      </trkpt>
      <trkpt lat="59.243636" lon="18.114965">
        <ele>28</ele>
        <time>2020-01-30T08:39:58Z</time>
      </trkpt>
      <trkpt lat="59.24362" lon="18.115075">
        <ele>28</ele>
        <time>2020-01-30T08:39:59Z</time>
      </trkpt>
      <trkpt lat="59.243609" lon="18.115186">
        <ele>28</ele>
        <time>2020-01-30T08:40:00Z</time>
      </trkpt>
      <trkpt lat="59.2436" lon="18.1153">
        <ele>28</ele>
        <time>2020-01-30T08:40:01Z</time>
      </trkpt>
      <trkpt lat="59.243587" lon="18.115418">
        <ele>28</ele>
        <time>2020-01-30T08:40:02Z</time>
      </trkpt>
      <trkpt lat="59.243569" lon="18.115535">
        <ele>28</ele>
        <time>2020-01-30T08:40:03Z</time>
      </trkpt>
      <trkpt lat="59.243543" lon="18.115653">
        <ele>28</ele>
        <time>2020-01-30T08:40:04Z</time>
      </trkpt>
      <trkpt lat="59.243512" lon="18.115763">
        <ele>28</ele>
        <time>2020-01-30T08:40:05Z</time>
      </trkpt>
      <trkpt lat="59.243478" lon="18.11587">
        <ele>28</ele>
        <time>2020-01-30T08:40:06Z</time>
      </trkpt>
      <trkpt lat="59.243445" lon="18.115975">
        <ele>27</ele>
        <time>2020-01-30T08:40:07Z</time>
      </trkpt>
      <trkpt lat="59.243411" lon="18.116083">
        <ele>27</ele>
        <time>2020-01-30T08:40:08Z</time>
      </trkpt>
      <trkpt lat="59.243377" lon="18.116191">
        <ele>27</ele>
        <time>2020-01-30T08:40:09Z</time>
      </trkpt>
      <trkpt lat="59.243342" lon="18.116296">
        <ele>27</ele>
        <time>2020-01-30T08:40:10Z</time>
      </trkpt>
      <trkpt lat="59.243308" lon="18.116403">
        <ele>27</ele>
        <time>2020-01-30T08:40:11Z</time>
      </trkpt>
      <trkpt lat="59.243275" lon="18.116508">
        <ele>27</ele>
        <time>2020-01-30T08:40:12Z</time>
      </trkpt>
      <trkpt lat="59.243242" lon="18.116611">
        <ele>27</ele>
        <time>2020-01-30T08:40:13Z</time>
      </trkpt>
      <trkpt lat="59.24321" lon="18.116711">
        <ele>27</ele>
        <time>2020-01-30T08:40:14Z</time>
      </trkpt>
      <trkpt lat="59.24318" lon="18.116811">
        <ele>27</ele>
        <time>2020-01-30T08:40:15Z</time>
      </trkpt>
      <trkpt lat="59.24315" lon="18.116911">
        <ele>27</ele>
        <time>2020-01-30T08:40:16Z</time>
      </trkpt>
      <trkpt lat="59.24312" lon="18.117009">
        <ele>27</ele>
        <time>2020-01-30T08:40:17Z</time>
      </trkpt>
      <trkpt lat="59.24309" lon="18.117111">
        <ele>26</ele>
        <time>2020-01-30T08:40:18Z</time>
      </trkpt>
      <trkpt lat="59.243058" lon="18.117211">
        <ele>26</ele>
        <time>2020-01-30T08:40:19Z</time>
      </trkpt>
      <trkpt lat="59.243025" lon="18.117314">
        <ele>26</ele>
        <time>2020-01-30T08:40:20Z</time>
      </trkpt>
      <trkpt lat="59.242994" lon="18.117417">
        <ele>26</ele>
        <time>2020-01-30T08:40:21Z</time>
      </trkpt>
      <trkpt lat="59.242962" lon="18.117519">
        <ele>26</ele>
        <time>2020-01-30T08:40:22Z</time>
      </trkpt>
      <trkpt lat="59.242931" lon="18.117619">
        <ele>26</ele>
        <time>2020-01-30T08:40:23Z</time>
      </trkpt>
      <trkpt lat="59.2429" lon="18.117718">
        <ele>26</ele>
        <time>2020-01-30T08:40:24Z</time>
      </trkpt>
      <trkpt lat="59.24287" lon="18.117818">
        <ele>26</ele>
        <time>2020-01-30T08:40:25Z</time>
      </trkpt>
      <trkpt lat="59.242839" lon="18.117918">
        <ele>26</ele>
        <time>2020-01-30T08:40:26Z</time>
      </trkpt>
      <trkpt lat="59.242808" lon="18.118018">
        <ele>26</ele>
        <time>2020-01-30T08:40:27Z</time>
      </trkpt>
      <trkpt lat="59.242778" lon="18.118114">
        <ele>26</ele>
        <time>2020-01-30T08:40:28Z</time>
      </trkpt>
      <trkpt lat="59.242748" lon="18.118208">
        <ele>26</ele>
        <time>2020-01-30T08:40:29Z</time>
      </trkpt>
      <trkpt lat="59.242718" lon="18.118301">
        <ele>26</ele>
        <time>2020-01-30T08:40:30Z</time>
      </trkpt>
      <trkpt lat="59.24269" lon="18.118393">
        <ele>26</ele>
        <time>2020-01-30T08:40:31Z</time>
      </trkpt>
      <trkpt lat="59.242663" lon="18.118483">
        <ele>26</ele>
        <time>2020-01-30T08:40:32Z</time>
      </trkpt>
      <trkpt lat="59.242633" lon="18.118575">
        <ele>26</ele>
        <time>2020-01-30T08:40:33Z</time>
      </trkpt>
      <trkpt lat="59.242601" lon="18.118663">
        <ele>26</ele>
        <time>2020-01-30T08:40:34Z</time>
      </trkpt>
      <trkpt lat="59.242566" lon="18.118747">
        <ele>26</ele>
        <time>2020-01-30T08:40:35Z</time>
      </trkpt>
      <trkpt lat="59.242528" lon="18.118827">
        <ele>26</ele>
        <time>2020-01-30T08:40:36Z</time>
      </trkpt>
      <trkpt lat="59.24249" lon="18.118902">
        <ele>26</ele>
        <time>2020-01-30T08:40:37Z</time>
      </trkpt>
      <trkpt lat="59.242449" lon="18.118968">
        <ele>26</ele>
        <time>2020-01-30T08:40:38Z</time>
      </trkpt>
      <trkpt lat="59.242401" lon="18.119026">
        <ele>26</ele>
        <time>2020-01-30T08:40:39Z</time>
      </trkpt>
      <trkpt lat="59.242354" lon="18.119076">
        <ele>26</ele>
        <time>2020-01-30T08:40:40Z</time>
      </trkpt>
      <trkpt lat="59.242306" lon="18.11912">
        <ele>26</ele>
        <time>2020-01-30T08:40:41Z</time>
      </trkpt>
      <trkpt lat="59.242257" lon="18.11916">
        <ele>26</ele>
        <time>2020-01-30T08:40:42Z</time>
      </trkpt>
      <trkpt lat="59.242208" lon="18.119198">
        <ele>26</ele>
        <time>2020-01-30T08:40:43Z</time>
      </trkpt>
      <trkpt lat="59.242157" lon="18.119234">
        <ele>26</ele>
        <time>2020-01-30T08:40:44Z</time>
      </trkpt>
      <trkpt lat="59.242105" lon="18.119267">
        <ele>26</ele>
        <time>2020-01-30T08:40:45Z</time>
      </trkpt>
      <trkpt lat="59.242055" lon="18.119295">
        <ele>26</ele>
        <time>2020-01-30T08:40:46Z</time>
      </trkpt>
      <trkpt lat="59.242008" lon="18.119318">
        <ele>26</ele>
        <time>2020-01-30T08:40:47Z</time>
      </trkpt>
      <trkpt lat="59.24196" lon="18.119345">
        <ele>25</ele>
        <time>2020-01-30T08:40:48Z</time>
      </trkpt>
      <trkpt lat="59.241916" lon="18.119383">
        <ele>25</ele>
        <time>2020-01-30T08:40:49Z</time>
      </trkpt>
      <trkpt lat="59.241875" lon="18.119437">
        <ele>25</ele>
        <time>2020-01-30T08:40:50Z</time>
      </trkpt>
      <trkpt lat="59.241845" lon="18.119508">
        <ele>25</ele>
        <time>2020-01-30T08:40:51Z</time>
      </trkpt>
      <trkpt lat="59.241822" lon="18.119592">
        <ele>25</ele>
        <time>2020-01-30T08:40:52Z</time>
      </trkpt>
      <trkpt lat="59.241806" lon="18.119682">
        <ele>25</ele>
        <time>2020-01-30T08:40:53Z</time>
      </trkpt>
      <trkpt lat="59.24179" lon="18.119773">
        <ele>25</ele>
        <time>2020-01-30T08:40:54Z</time>
      </trkpt>
      <trkpt lat="59.241769" lon="18.119856">
        <ele>25</ele>
        <time>2020-01-30T08:40:55Z</time>
      </trkpt>
      <trkpt lat="59.241737" lon="18.119936">
        <ele>25</ele>
        <time>2020-01-30T08:40:56Z</time>
      </trkpt>
      <trkpt lat="59.241704" lon="18.120024">
        <ele>24</ele>
        <time>2020-01-30T08:40:57Z</time>
      </trkpt>
      <trkpt lat="59.241678" lon="18.120124">
        <ele>24</ele>
        <time>2020-01-30T08:40:58Z</time>
      </trkpt>
      <trkpt lat="59.241656" lon="18.120234">
        <ele>24</ele>
        <time>2020-01-30T08:40:59Z</time>
      </trkpt>
      <trkpt lat="59.241637" lon="18.120347">
        <ele>24</ele>
        <time>2020-01-30T08:41:00Z</time>
      </trkpt>
      <trkpt lat="59.24162" lon="18.120463">
        <ele>24</ele>
        <time>2020-01-30T08:41:01Z</time>
      </trkpt>
      <trkpt lat="59.241603" lon="18.120579">
        <ele>24</ele>
        <time>2020-01-30T08:41:02Z</time>
      </trkpt>
      <trkpt lat="59.241585" lon="18.120694">
        <ele>24</ele>
        <time>2020-01-30T08:41:03Z</time>
      </trkpt>
      <trkpt lat="59.241571" lon="18.120804">
        <ele>25</ele>
        <time>2020-01-30T08:41:04Z</time>
      </trkpt>
      <trkpt lat="59.24156" lon="18.120907">
        <ele>25</ele>
        <time>2020-01-30T08:41:05Z</time>
      </trkpt>
      <trkpt lat="59.241546" lon="18.121005">
        <ele>25</ele>
        <time>2020-01-30T08:41:06Z</time>
      </trkpt>
      <trkpt lat="59.241531" lon="18.121104">
        <ele>25</ele>
        <time>2020-01-30T08:41:07Z</time>
      </trkpt>
      <trkpt lat="59.241515" lon="18.121212">
        <ele>25</ele>
        <time>2020-01-30T08:41:08Z</time>
      </trkpt>
      <trkpt lat="59.241502" lon="18.12132">
        <ele>25</ele>
        <time>2020-01-30T08:41:09Z</time>
      </trkpt>
      <trkpt lat="59.24149" lon="18.121425">
        <ele>25</ele>
        <time>2020-01-30T08:41:10Z</time>
      </trkpt>
      <trkpt lat="59.24148" lon="18.121532">
        <ele>25</ele>
        <time>2020-01-30T08:41:11Z</time>
      </trkpt>
      <trkpt lat="59.241472" lon="18.121642">
        <ele>25</ele>
        <time>2020-01-30T08:41:12Z</time>
      </trkpt>
      <trkpt lat="59.241468" lon="18.121751">
        <ele>25</ele>
        <time>2020-01-30T08:41:13Z</time>
      </trkpt>
      <trkpt lat="59.241462" lon="18.121859">
        <ele>25</ele>
        <time>2020-01-30T08:41:14Z</time>
      </trkpt>
      <trkpt lat="59.241458" lon="18.121967">
        <ele>25</ele>
        <time>2020-01-30T08:41:15Z</time>
      </trkpt>
      <trkpt lat="59.241455" lon="18.122074">
        <ele>25</ele>
        <time>2020-01-30T08:41:16Z</time>
      </trkpt>
      <trkpt lat="59.241452" lon="18.12218">
        <ele>25</ele>
        <time>2020-01-30T08:41:17Z</time>
      </trkpt>
      <trkpt lat="59.24145" lon="18.122285">
        <ele>25</ele>
        <time>2020-01-30T08:41:18Z</time>
      </trkpt>
      <trkpt lat="59.241446" lon="18.122393">
        <ele>25</ele>
        <time>2020-01-30T08:41:19Z</time>
      </trkpt>
      <trkpt lat="59.24144" lon="18.1225">
        <ele>25</ele>
        <time>2020-01-30T08:41:20Z</time>
      </trkpt>
      <trkpt lat="59.241426" lon="18.122608">
        <ele>25</ele>
        <time>2020-01-30T08:41:21Z</time>
      </trkpt>
      <trkpt lat="59.241409" lon="18.122715">
        <ele>25</ele>
        <time>2020-01-30T08:41:22Z</time>
      </trkpt>
      <trkpt lat="59.241392" lon="18.122823">
        <ele>25</ele>
        <time>2020-01-30T08:41:23Z</time>
      </trkpt>
      <trkpt lat="59.241378" lon="18.122933">
        <ele>25</ele>
        <time>2020-01-30T08:41:24Z</time>
      </trkpt>
      <trkpt lat="59.241363" lon="18.123042">
        <ele>25</ele>
        <time>2020-01-30T08:41:25Z</time>
      </trkpt>
      <trkpt lat="59.241349" lon="18.12315">
        <ele>25</ele>
        <time>2020-01-30T08:41:26Z</time>
      </trkpt>
      <trkpt lat="59.241335" lon="18.123258">
        <ele>25</ele>
        <time>2020-01-30T08:41:27Z</time>
      </trkpt>
      <trkpt lat="59.241323" lon="18.123366">
        <ele>25</ele>
        <time>2020-01-30T08:41:28Z</time>
      </trkpt>
      <trkpt lat="59.241311" lon="18.123474">
        <ele>25</ele>
        <time>2020-01-30T08:41:29Z</time>
      </trkpt>
      <trkpt lat="59.241296" lon="18.123581">
        <ele>25</ele>
        <time>2020-01-30T08:41:30Z</time>
      </trkpt>
      <trkpt lat="59.241279" lon="18.123687">
        <ele>25</ele>
        <time>2020-01-30T08:41:31Z</time>
      </trkpt>
      <trkpt lat="59.241262" lon="18.123793">
        <ele>25</ele>
        <time>2020-01-30T08:41:32Z</time>
      </trkpt>
      <trkpt lat="59.241246" lon="18.123898">
        <ele>24</ele>
        <time>2020-01-30T08:41:33Z</time>
      </trkpt>
      <trkpt lat="59.241229" lon="18.124001">
        <ele>24</ele>
        <time>2020-01-30T08:41:34Z</time>
      </trkpt>
      <trkpt lat="59.241213" lon="18.124104">
        <ele>24</ele>
        <time>2020-01-30T08:41:35Z</time>
      </trkpt>
      <trkpt lat="59.241197" lon="18.124206">
        <ele>24</ele>
        <time>2020-01-30T08:41:36Z</time>
      </trkpt>
      <trkpt lat="59.24118" lon="18.124308">
        <ele>24</ele>
        <time>2020-01-30T08:41:37Z</time>
      </trkpt>
      <trkpt lat="59.241164" lon="18.124408">
        <ele>24</ele>
        <time>2020-01-30T08:41:38Z</time>
      </trkpt>
      <trkpt lat="59.241148" lon="18.124508">
        <ele>24</ele>
        <time>2020-01-30T08:41:39Z</time>
      </trkpt>
      <trkpt lat="59.241131" lon="18.124608">
        <ele>24</ele>
        <time>2020-01-30T08:41:40Z</time>
      </trkpt>
      <trkpt lat="59.241115" lon="18.124709">
        <ele>24</ele>
        <time>2020-01-30T08:41:41Z</time>
      </trkpt>
      <trkpt lat="59.241099" lon="18.124811">
        <ele>24</ele>
        <time>2020-01-30T08:41:42Z</time>
      </trkpt>
      <trkpt lat="59.241083" lon="18.124913">
        <ele>24</ele>
        <time>2020-01-30T08:41:43Z</time>
      </trkpt>
      <trkpt lat="59.241066" lon="18.125013">
        <ele>24</ele>
        <time>2020-01-30T08:41:44Z</time>
      </trkpt>
      <trkpt lat="59.241051" lon="18.125114">
        <ele>24</ele>
        <time>2020-01-30T08:41:45Z</time>
      </trkpt>
      <trkpt lat="59.241035" lon="18.125215">
        <ele>24</ele>
        <time>2020-01-30T08:41:46Z</time>
      </trkpt>
      <trkpt lat="59.24102" lon="18.125316">
        <ele>24</ele>
        <time>2020-01-30T08:41:47Z</time>
      </trkpt>
      <trkpt lat="59.241004" lon="18.125417">
        <ele>24</ele>
        <time>2020-01-30T08:41:48Z</time>
      </trkpt>
      <trkpt lat="59.240988" lon="18.125518">
        <ele>24</ele>
        <time>2020-01-30T08:41:49Z</time>
      </trkpt>
      <trkpt lat="59.240972" lon="18.12562">
        <ele>24</ele>
        <time>2020-01-30T08:41:50Z</time>
      </trkpt>
      <trkpt lat="59.240956" lon="18.125722">
        <ele>24</ele>
        <time>2020-01-30T08:41:51Z</time>
      </trkpt>
      <trkpt lat="59.24094" lon="18.125824">
        <ele>24</ele>
        <time>2020-01-30T08:41:52Z</time>
      </trkpt>
      <trkpt lat="59.240924" lon="18.125925">
        <ele>24</ele>
        <time>2020-01-30T08:41:53Z</time>
      </trkpt>
      <trkpt lat="59.240908" lon="18.126027">
        <ele>23</ele>
        <time>2020-01-30T08:41:54Z</time>
      </trkpt>
      <trkpt lat="59.240892" lon="18.126129">
        <ele>23</ele>
        <time>2020-01-30T08:41:55Z</time>
      </trkpt>
      <trkpt lat="59.240876" lon="18.126231">
        <ele>23</ele>
        <time>2020-01-30T08:41:56Z</time>
      </trkpt>
      <trkpt lat="59.240859" lon="18.126335">
        <ele>23</ele>
        <time>2020-01-30T08:41:57Z</time>
      </trkpt>
      <trkpt lat="59.240842" lon="18.126439">
        <ele>23</ele>
        <time>2020-01-30T08:41:58Z</time>
      </trkpt>
      <trkpt lat="59.240826" lon="18.126543">
        <ele>23</ele>
        <time>2020-01-30T08:41:59Z</time>
      </trkpt>
      <trkpt lat="59.24081" lon="18.126646">
        <ele>23</ele>
        <time>2020-01-30T08:42:00Z</time>
      </trkpt>
      <trkpt lat="59.240793" lon="18.126749">
        <ele>23</ele>
        <time>2020-01-30T08:42:01Z</time>
      </trkpt>
      <trkpt lat="59.240777" lon="18.126852">
        <ele>23</ele>
        <time>2020-01-30T08:42:02Z</time>
      </trkpt>
      <trkpt lat="59.240761" lon="18.126956">
        <ele>23</ele>
        <time>2020-01-30T08:42:03Z</time>
      </trkpt>
      <trkpt lat="59.240744" lon="18.127061">
        <ele>23</ele>
        <time>2020-01-30T08:42:04Z</time>
      </trkpt>
      <trkpt lat="59.240727" lon="18.127166">
        <ele>23</ele>
        <time>2020-01-30T08:42:05Z</time>
      </trkpt>
      <trkpt lat="59.240709" lon="18.12727">
        <ele>23</ele>
        <time>2020-01-30T08:42:06Z</time>
      </trkpt>
      <trkpt lat="59.240692" lon="18.127373">
        <ele>23</ele>
        <time>2020-01-30T08:42:07Z</time>
      </trkpt>
      <trkpt lat="59.240674" lon="18.127473">
        <ele>23</ele>
        <time>2020-01-30T08:42:08Z</time>
      </trkpt>
      <trkpt lat="59.240658" lon="18.12757">
        <ele>23</ele>
        <time>2020-01-30T08:42:09Z</time>
      </trkpt>
      <trkpt lat="59.24064" lon="18.127671">
        <ele>24</ele>
        <time>2020-01-30T08:42:10Z</time>
      </trkpt>
      <trkpt lat="59.24062" lon="18.127771">
        <ele>24</ele>
        <time>2020-01-30T08:42:11Z</time>
      </trkpt>
      <trkpt lat="59.240599" lon="18.127868">
        <ele>24</ele>
        <time>2020-01-30T08:42:12Z</time>
      </trkpt>
      <trkpt lat="59.240577" lon="18.127961">
        <ele>24</ele>
        <time>2020-01-30T08:42:13Z</time>
      </trkpt>
      <trkpt lat="59.240552" lon="18.128046">
        <ele>24</ele>
        <time>2020-01-30T08:42:14Z</time>
      </trkpt>
      <trkpt lat="59.240524" lon="18.128129">
        <ele>24</ele>
        <time>2020-01-30T08:42:15Z</time>
      </trkpt>
      <trkpt lat="59.240498" lon="18.128211">
        <ele>24</ele>
        <time>2020-01-30T08:42:16Z</time>
      </trkpt>
      <trkpt lat="59.24047" lon="18.12829">
        <ele>24</ele>
        <time>2020-01-30T08:42:17Z</time>
      </trkpt>
      <trkpt lat="59.240441" lon="18.128366">
        <ele>24</ele>
        <time>2020-01-30T08:42:18Z</time>
      </trkpt>
      <trkpt lat="59.240413" lon="18.128442">
        <ele>24</ele>
        <time>2020-01-30T08:42:19Z</time>
      </trkpt>
      <trkpt lat="59.240384" lon="18.128519">
        <ele>24</ele>
        <time>2020-01-30T08:42:20Z</time>
      </trkpt>
      <trkpt lat="59.240354" lon="18.128595">
        <ele>24</ele>
        <time>2020-01-30T08:42:21Z</time>
      </trkpt>
      <trkpt lat="59.240325" lon="18.128668">
        <ele>24</ele>
        <time>2020-01-30T08:42:22Z</time>
      </trkpt>
      <trkpt lat="59.240295" lon="18.128739">
        <ele>24</ele>
        <time>2020-01-30T08:42:23Z</time>
      </trkpt>
      <trkpt lat="59.240265" lon="18.128809">
        <ele>24</ele>
        <time>2020-01-30T08:42:24Z</time>
      </trkpt>
      <trkpt lat="59.240234" lon="18.128879">
        <ele>25</ele>
        <time>2020-01-30T08:42:25Z</time>
      </trkpt>
      <trkpt lat="59.240203" lon="18.128952">
        <ele>25</ele>
        <time>2020-01-30T08:42:26Z</time>
      </trkpt>
      <trkpt lat="59.240172" lon="18.129028">
        <ele>24</ele>
        <time>2020-01-30T08:42:27Z</time>
      </trkpt>
      <trkpt lat="59.240143" lon="18.129106">
        <ele>24</ele>
        <time>2020-01-30T08:42:28Z</time>
      </trkpt>
      <trkpt lat="59.240114" lon="18.129189">
        <ele>24</ele>
        <time>2020-01-30T08:42:29Z</time>
      </trkpt>
      <trkpt lat="59.240084" lon="18.12928">
        <ele>24</ele>
        <time>2020-01-30T08:42:30Z</time>
      </trkpt>
      <trkpt lat="59.240052" lon="18.12938">
        <ele>24</ele>
        <time>2020-01-30T08:42:31Z</time>
      </trkpt>
      <trkpt lat="59.240018" lon="18.129483">
        <ele>24</ele>
        <time>2020-01-30T08:42:32Z</time>
      </trkpt>
      <trkpt lat="59.239981" lon="18.129589">
        <ele>24</ele>
        <time>2020-01-30T08:42:33Z</time>
      </trkpt>
      <trkpt lat="59.239943" lon="18.129693">
        <ele>24</ele>
        <time>2020-01-30T08:42:34Z</time>
      </trkpt>
      <trkpt lat="59.239907" lon="18.129797">
        <ele>24</ele>
        <time>2020-01-30T08:42:35Z</time>
      </trkpt>
      <trkpt lat="59.239871" lon="18.129898">
        <ele>24</ele>
        <time>2020-01-30T08:42:36Z</time>
      </trkpt>
      <trkpt lat="59.239834" lon="18.130004">
        <ele>24</ele>
        <time>2020-01-30T08:42:37Z</time>
      </trkpt>
      <trkpt lat="59.239798" lon="18.130105">
        <ele>25</ele>
        <time>2020-01-30T08:42:38Z</time>
      </trkpt>
      <trkpt lat="59.239759" lon="18.130201">
        <ele>25</ele>
        <time>2020-01-30T08:42:39Z</time>
      </trkpt>
      <trkpt lat="59.239721" lon="18.130293">
        <ele>25</ele>
        <time>2020-01-30T08:42:40Z</time>
      </trkpt>
      <trkpt lat="59.239683" lon="18.13038">
        <ele>25</ele>
        <time>2020-01-30T08:42:41Z</time>
      </trkpt>
      <trkpt lat="59.239645" lon="18.130463">
        <ele>25</ele>
        <time>2020-01-30T08:42:42Z</time>
      </trkpt>
      <trkpt lat="59.239605" lon="18.130541">
        <ele>25</ele>
        <time>2020-01-30T08:42:43Z</time>
      </trkpt>
      <trkpt lat="59.239565" lon="18.130611">
        <ele>25</ele>
        <time>2020-01-30T08:42:44Z</time>
      </trkpt>
      <trkpt lat="59.239522" lon="18.130676">
        <ele>25</ele>
        <time>2020-01-30T08:42:45Z</time>
      </trkpt>
      <trkpt lat="59.239479" lon="18.130737">
        <ele>25</ele>
        <time>2020-01-30T08:42:46Z</time>
      </trkpt>
      <trkpt lat="59.239437" lon="18.130798">
        <ele>25</ele>
        <time>2020-01-30T08:42:47Z</time>
      </trkpt>
      <trkpt lat="59.239394" lon="18.130853">
        <ele>25</ele>
        <time>2020-01-30T08:42:48Z</time>
      </trkpt>
      <trkpt lat="59.239348" lon="18.1309">
        <ele>24</ele>
        <time>2020-01-30T08:42:49Z</time>
      </trkpt>
      <trkpt lat="59.2393" lon="18.130942">
        <ele>24</ele>
        <time>2020-01-30T08:42:50Z</time>
      </trkpt>
      <trkpt lat="59.239253" lon="18.130982">
        <ele>24</ele>
        <time>2020-01-30T08:42:51Z</time>
      </trkpt>
      <trkpt lat="59.239204" lon="18.131021">
        <ele>24</ele>
        <time>2020-01-30T08:42:52Z</time>
      </trkpt>
      <trkpt lat="59.239153" lon="18.131057">
        <ele>24</ele>
        <time>2020-01-30T08:42:53Z</time>
      </trkpt>
      <trkpt lat="59.239101" lon="18.13109">
        <ele>24</ele>
        <time>2020-01-30T08:42:54Z</time>
      </trkpt>
      <trkpt lat="59.239047" lon="18.131118">
        <ele>24</ele>
        <time>2020-01-30T08:42:55Z</time>
      </trkpt>
      <trkpt lat="59.238992" lon="18.131145">
        <ele>24</ele>
        <time>2020-01-30T08:42:56Z</time>
      </trkpt>
      <trkpt lat="59.238934" lon="18.131171">
        <ele>24</ele>
        <time>2020-01-30T08:42:57Z</time>
      </trkpt>
      <trkpt lat="59.238876" lon="18.13119">
        <ele>24</ele>
        <time>2020-01-30T08:42:58Z</time>
      </trkpt>
      <trkpt lat="59.238816" lon="18.131202">
        <ele>24</ele>
        <time>2020-01-30T08:42:59Z</time>
      </trkpt>
      <trkpt lat="59.238757" lon="18.13121">
        <ele>24</ele>
        <time>2020-01-30T08:43:00Z</time>
      </trkpt>
      <trkpt lat="59.238699" lon="18.131216">
        <ele>24</ele>
        <time>2020-01-30T08:43:01Z</time>
      </trkpt>
      <trkpt lat="59.238645" lon="18.131214">
        <ele>24</ele>
        <time>2020-01-30T08:43:02Z</time>
      </trkpt>
      <trkpt lat="59.238592" lon="18.131209">
        <ele>24</ele>
        <time>2020-01-30T08:43:03Z</time>
      </trkpt>
      <trkpt lat="59.23854" lon="18.131203">
        <ele>24</ele>
        <time>2020-01-30T08:43:04Z</time>
      </trkpt>
      <trkpt lat="59.238491" lon="18.131197">
        <ele>24</ele>
        <time>2020-01-30T08:43:05Z</time>
      </trkpt>
      <trkpt lat="59.238444" lon="18.131188">
        <ele>24</ele>
        <time>2020-01-30T08:43:06Z</time>
      </trkpt>
      <trkpt lat="59.238399" lon="18.131181">
        <ele>24</ele>
        <time>2020-01-30T08:43:07Z</time>
      </trkpt>
      <trkpt lat="59.238355" lon="18.131173">
        <ele>24</ele>
        <time>2020-01-30T08:43:08Z</time>
      </trkpt>
      <trkpt lat="59.238312" lon="18.131166">
        <ele>25</ele>
        <time>2020-01-30T08:43:09Z</time>
      </trkpt>
      <trkpt lat="59.238271" lon="18.13116">
        <ele>25</ele>
        <time>2020-01-30T08:43:10Z</time>
      </trkpt>
      <trkpt lat="59.238232" lon="18.131153">
        <ele>25</ele>
        <time>2020-01-30T08:43:11Z</time>
      </trkpt>
      <trkpt lat="59.238193" lon="18.131147">
        <ele>25</ele>
        <time>2020-01-30T08:43:12Z</time>
      </trkpt>
      <trkpt lat="59.238154" lon="18.13114">
        <ele>25</ele>
        <time>2020-01-30T08:43:13Z</time>
      </trkpt>
      <trkpt lat="59.238117" lon="18.131137">
        <ele>25</ele>
        <time>2020-01-30T08:43:14Z</time>
      </trkpt>
      <trkpt lat="59.238082" lon="18.131135">
        <ele>25</ele>
        <time>2020-01-30T08:43:15Z</time>
      </trkpt>
      <trkpt lat="59.238048" lon="18.131132">
        <ele>25</ele>
        <time>2020-01-30T08:43:16Z</time>
      </trkpt>
      <trkpt lat="59.238015" lon="18.131129">
        <ele>25</ele>
        <time>2020-01-30T08:43:17Z</time>
      </trkpt>
      <trkpt lat="59.237983" lon="18.131124">
        <ele>26</ele>
        <time>2020-01-30T08:43:18Z</time>
      </trkpt>
      <trkpt lat="59.237951" lon="18.131121">
        <ele>26</ele>
        <time>2020-01-30T08:43:19Z</time>
      </trkpt>
      <trkpt lat="59.237918" lon="18.131117">
        <ele>26</ele>
        <time>2020-01-30T08:43:20Z</time>
      </trkpt>
      <trkpt lat="59.237889" lon="18.131111">
        <ele>26</ele>
        <time>2020-01-30T08:43:21Z</time>
      </trkpt>
      <trkpt lat="59.237861" lon="18.131108">
        <ele>26</ele>
        <time>2020-01-30T08:43:22Z</time>
      </trkpt>
      <trkpt lat="59.237833" lon="18.131107">
        <ele>26</ele>
        <time>2020-01-30T08:43:23Z</time>
      </trkpt>
      <trkpt lat="59.237804" lon="18.131106">
        <ele>26</ele>
        <time>2020-01-30T08:43:24Z</time>
      </trkpt>
      <trkpt lat="59.237776" lon="18.131103">
        <ele>26</ele>
        <time>2020-01-30T08:43:25Z</time>
      </trkpt>
      <trkpt lat="59.23775" lon="18.131096">
        <ele>26</ele>
        <time>2020-01-30T08:43:26Z</time>
      </trkpt>
      <trkpt lat="59.237724" lon="18.13109">
        <ele>26</ele>
        <time>2020-01-30T08:43:27Z</time>
      </trkpt>
      <trkpt lat="59.237698" lon="18.131085">
        <ele>26</ele>
        <time>2020-01-30T08:43:28Z</time>
      </trkpt>
      <trkpt lat="59.23767" lon="18.13108">
        <ele>26</ele>
        <time>2020-01-30T08:43:29Z</time>
      </trkpt>
      <trkpt lat="59.237642" lon="18.131076">
        <ele>26</ele>
        <time>2020-01-30T08:43:30Z</time>
      </trkpt>
      <trkpt lat="59.237611" lon="18.131074">
        <ele>27</ele>
        <time>2020-01-30T08:43:31Z</time>
      </trkpt>
      <trkpt lat="59.237582" lon="18.131072">
        <ele>27</ele>
        <time>2020-01-30T08:43:32Z</time>
      </trkpt>
      <trkpt lat="59.237553" lon="18.13107">
        <ele>27</ele>
        <time>2020-01-30T08:43:33Z</time>
      </trkpt>
      <trkpt lat="59.237523" lon="18.131069">
        <ele>27</ele>
        <time>2020-01-30T08:43:34Z</time>
      </trkpt>
      <trkpt lat="59.237494" lon="18.131067">
        <ele>27</ele>
        <time>2020-01-30T08:43:35Z</time>
      </trkpt>
      <trkpt lat="59.237467" lon="18.131064">
        <ele>28</ele>
        <time>2020-01-30T08:43:36Z</time>
      </trkpt>
      <trkpt lat="59.23744" lon="18.131062">
        <ele>28</ele>
        <time>2020-01-30T08:43:37Z</time>
      </trkpt>
      <trkpt lat="59.237412" lon="18.131059">
        <ele>28</ele>
        <time>2020-01-30T08:43:38Z</time>
      </trkpt>
      <trkpt lat="59.237382" lon="18.131056">
        <ele>28</ele>
        <time>2020-01-30T08:43:39Z</time>
      </trkpt>
      <trkpt lat="59.237352" lon="18.131052">
        <ele>28</ele>
        <time>2020-01-30T08:43:40Z</time>
      </trkpt>
      <trkpt lat="59.237321" lon="18.131047">
        <ele>28</ele>
        <time>2020-01-30T08:43:41Z</time>
      </trkpt>
      <trkpt lat="59.237292" lon="18.131042">
        <ele>29</ele>
        <time>2020-01-30T08:43:42Z</time>
      </trkpt>
      <trkpt lat="59.237264" lon="18.131038">
        <ele>29</ele>
        <time>2020-01-30T08:43:43Z</time>
      </trkpt>
      <trkpt lat="59.237236" lon="18.131034">
        <ele>29</ele>
        <time>2020-01-30T08:43:44Z</time>
      </trkpt>
      <trkpt lat="59.237207" lon="18.13103">
        <ele>29</ele>
        <time>2020-01-30T08:43:45Z</time>
      </trkpt>
      <trkpt lat="59.237177" lon="18.131027">
        <ele>29</ele>
        <time>2020-01-30T08:43:46Z</time>
      </trkpt>
      <trkpt lat="59.237148" lon="18.131023">
        <ele>29</ele>
        <time>2020-01-30T08:43:47Z</time>
      </trkpt>
      <trkpt lat="59.237121" lon="18.131019">
        <ele>29</ele>
        <time>2020-01-30T08:43:48Z</time>
      </trkpt>
      <trkpt lat="59.237092" lon="18.131013">
        <ele>29</ele>
        <time>2020-01-30T08:43:49Z</time>
      </trkpt>
      <trkpt lat="59.237063" lon="18.131008">
        <ele>29</ele>
        <time>2020-01-30T08:43:50Z</time>
      </trkpt>
      <trkpt lat="59.237033" lon="18.131002">
        <ele>29</ele>
        <time>2020-01-30T08:43:51Z</time>
      </trkpt>
      <trkpt lat="59.237003" lon="18.130997">
        <ele>29</ele>
        <time>2020-01-30T08:43:52Z</time>
      </trkpt>
      <trkpt lat="59.236972" lon="18.130994">
        <ele>29</ele>
        <time>2020-01-30T08:43:53Z</time>
      </trkpt>
      <trkpt lat="59.236941" lon="18.130995">
        <ele>29</ele>
        <time>2020-01-30T08:43:54Z</time>
      </trkpt>
      <trkpt lat="59.23691" lon="18.130998">
        <ele>30</ele>
        <time>2020-01-30T08:43:55Z</time>
      </trkpt>
      <trkpt lat="59.236879" lon="18.130999">
        <ele>30</ele>
        <time>2020-01-30T08:43:56Z</time>
      </trkpt>
      <trkpt lat="59.236849" lon="18.131">
        <ele>30</ele>
        <time>2020-01-30T08:43:57Z</time>
      </trkpt>
      <trkpt lat="59.236819" lon="18.131003">
        <ele>30</ele>
        <time>2020-01-30T08:43:58Z</time>
      </trkpt>
      <trkpt lat="59.23679" lon="18.131008">
        <ele>30</ele>
        <time>2020-01-30T08:43:59Z</time>
      </trkpt>
      <trkpt lat="59.23676" lon="18.131012">
        <ele>30</ele>
        <time>2020-01-30T08:44:00Z</time>
      </trkpt>
      <trkpt lat="59.236731" lon="18.131017">
        <ele>30</ele>
        <time>2020-01-30T08:44:01Z</time>
      </trkpt>
      <trkpt lat="59.236701" lon="18.131027">
        <ele>31</ele>
        <time>2020-01-30T08:44:02Z</time>
      </trkpt>
      <trkpt lat="59.236672" lon="18.131041">
        <ele>31</ele>
        <time>2020-01-30T08:44:03Z</time>
      </trkpt>
      <trkpt lat="59.236642" lon="18.131061">
        <ele>31</ele>
        <time>2020-01-30T08:44:04Z</time>
      </trkpt>
      <trkpt lat="59.236613" lon="18.131084">
        <ele>31</ele>
        <time>2020-01-30T08:44:05Z</time>
      </trkpt>
      <trkpt lat="59.236584" lon="18.131108">
        <ele>31</ele>
        <time>2020-01-30T08:44:06Z</time>
      </trkpt>
      <trkpt lat="59.236555" lon="18.131135">
        <ele>31</ele>
        <time>2020-01-30T08:44:07Z</time>
      </trkpt>
      <trkpt lat="59.236523" lon="18.131162">
        <ele>31</ele>
        <time>2020-01-30T08:44:08Z</time>
      </trkpt>
      <trkpt lat="59.236491" lon="18.131193">
        <ele>31</ele>
        <time>2020-01-30T08:44:09Z</time>
      </trkpt>
      <trkpt lat="59.236458" lon="18.131227">
        <ele>31</ele>
        <time>2020-01-30T08:44:10Z</time>
      </trkpt>
      <trkpt lat="59.236424" lon="18.131259">
        <ele>31</ele>
        <time>2020-01-30T08:44:11Z</time>
      </trkpt>
      <trkpt lat="59.236389" lon="18.131292">
        <ele>31</ele>
        <time>2020-01-30T08:44:12Z</time>
      </trkpt>
      <trkpt lat="59.236356" lon="18.131326">
        <ele>31</ele>
        <time>2020-01-30T08:44:13Z</time>
      </trkpt>
      <trkpt lat="59.236322" lon="18.131359">
        <ele>31</ele>
        <time>2020-01-30T08:44:14Z</time>
      </trkpt>
      <trkpt lat="59.236288" lon="18.131394">
        <ele>31</ele>
        <time>2020-01-30T08:44:15Z</time>
      </trkpt>
      <trkpt lat="59.236254" lon="18.131425">
        <ele>31</ele>
        <time>2020-01-30T08:44:16Z</time>
      </trkpt>
      <trkpt lat="59.23622" lon="18.131455">
        <ele>31</ele>
        <time>2020-01-30T08:44:17Z</time>
      </trkpt>
      <trkpt lat="59.236185" lon="18.13149">
        <ele>31</ele>
        <time>2020-01-30T08:44:18Z</time>
      </trkpt>
      <trkpt lat="59.23615" lon="18.131527">
        <ele>31</ele>
        <time>2020-01-30T08:44:19Z</time>
      </trkpt>
      <trkpt lat="59.236114" lon="18.131567">
        <ele>31</ele>
        <time>2020-01-30T08:44:20Z</time>
      </trkpt>
      <trkpt lat="59.236076" lon="18.131607">
        <ele>31</ele>
        <time>2020-01-30T08:44:21Z</time>
      </trkpt>
      <trkpt lat="59.236038" lon="18.131647">
        <ele>31</ele>
        <time>2020-01-30T08:44:22Z</time>
      </trkpt>
      <trkpt lat="59.236" lon="18.13169">
        <ele>31</ele>
        <time>2020-01-30T08:44:23Z</time>
      </trkpt>
      <trkpt lat="59.235962" lon="18.131733">
        <ele>31</ele>
        <time>2020-01-30T08:44:24Z</time>
      </trkpt>
      <trkpt lat="59.235923" lon="18.131776">
        <ele>31</ele>
        <time>2020-01-30T08:44:25Z</time>
      </trkpt>
      <trkpt lat="59.235885" lon="18.131819">
        <ele>30</ele>
        <time>2020-01-30T08:44:26Z</time>
      </trkpt>
      <trkpt lat="59.235846" lon="18.131863">
        <ele>30</ele>
        <time>2020-01-30T08:44:27Z</time>
      </trkpt>
      <trkpt lat="59.235807" lon="18.131908">
        <ele>30</ele>
        <time>2020-01-30T08:44:28Z</time>
      </trkpt>
      <trkpt lat="59.235768" lon="18.131953">
        <ele>30</ele>
        <time>2020-01-30T08:44:29Z</time>
      </trkpt>
      <trkpt lat="59.235729" lon="18.131998">
        <ele>30</ele>
        <time>2020-01-30T08:44:30Z</time>
      </trkpt>
      <trkpt lat="59.235691" lon="18.132043">
        <ele>30</ele>
        <time>2020-01-30T08:44:31Z</time>
      </trkpt>
      <trkpt lat="59.235653" lon="18.132089">
        <ele>30</ele>
        <time>2020-01-30T08:44:32Z</time>
      </trkpt>
      <trkpt lat="59.235614" lon="18.132137">
        <ele>30</ele>
        <time>2020-01-30T08:44:33Z</time>
      </trkpt>
      <trkpt lat="59.235576" lon="18.132183">
        <ele>30</ele>
        <time>2020-01-30T08:44:34Z</time>
      </trkpt>
      <trkpt lat="59.235538" lon="18.13223">
        <ele>30</ele>
        <time>2020-01-30T08:44:35Z</time>
      </trkpt>
      <trkpt lat="59.235501" lon="18.132275">
        <ele>30</ele>
        <time>2020-01-30T08:44:36Z</time>
      </trkpt>
      <trkpt lat="59.235461" lon="18.132319">
        <ele>29</ele>
        <time>2020-01-30T08:44:37Z</time>
      </trkpt>
      <trkpt lat="59.235421" lon="18.132364">
        <ele>29</ele>
        <time>2020-01-30T08:44:38Z</time>
      </trkpt>
      <trkpt lat="59.235382" lon="18.132411">
        <ele>29</ele>
        <time>2020-01-30T08:44:39Z</time>
      </trkpt>
      <trkpt lat="59.235341" lon="18.13246">
        <ele>29</ele>
        <time>2020-01-30T08:44:40Z</time>
      </trkpt>
      <trkpt lat="59.2353" lon="18.13251">
        <ele>29</ele>
        <time>2020-01-30T08:44:41Z</time>
      </trkpt>
      <trkpt lat="59.235259" lon="18.132561">
        <ele>29</ele>
        <time>2020-01-30T08:44:42Z</time>
      </trkpt>
      <trkpt lat="59.235217" lon="18.132612">
        <ele>29</ele>
        <time>2020-01-30T08:44:43Z</time>
      </trkpt>
      <trkpt lat="59.235175" lon="18.132662">
        <ele>29</ele>
        <time>2020-01-30T08:44:44Z</time>
      </trkpt>
      <trkpt lat="59.235133" lon="18.132713">
        <ele>29</ele>
        <time>2020-01-30T08:44:45Z</time>
      </trkpt>
      <trkpt lat="59.23509" lon="18.132763">
        <ele>29</ele>
        <time>2020-01-30T08:44:46Z</time>
      </trkpt>
      <trkpt lat="59.235047" lon="18.132811">
        <ele>29</ele>
        <time>2020-01-30T08:44:47Z</time>
      </trkpt>
      <trkpt lat="59.235004" lon="18.132859">
        <ele>29</ele>
        <time>2020-01-30T08:44:48Z</time>
      </trkpt>
      <trkpt lat="59.234959" lon="18.132906">
        <ele>29</ele>
        <time>2020-01-30T08:44:49Z</time>
      </trkpt>
      <trkpt lat="59.234915" lon="18.132959">
        <ele>29</ele>
        <time>2020-01-30T08:44:50Z</time>
      </trkpt>
      <trkpt lat="59.234873" lon="18.133017">
        <ele>29</ele>
        <time>2020-01-30T08:44:51Z</time>
      </trkpt>
      <trkpt lat="59.23483" lon="18.133075">
        <ele>29</ele>
        <time>2020-01-30T08:44:52Z</time>
      </trkpt>
      <trkpt lat="59.234786" lon="18.133131">
        <ele>29</ele>
        <time>2020-01-30T08:44:53Z</time>
      </trkpt>
      <trkpt lat="59.234743" lon="18.133185">
        <ele>29</ele>
        <time>2020-01-30T08:44:54Z</time>
      </trkpt>
      <trkpt lat="59.2347" lon="18.133238">
        <ele>29</ele>
        <time>2020-01-30T08:44:55Z</time>
      </trkpt>
      <trkpt lat="59.234656" lon="18.133289">
        <ele>29</ele>
        <time>2020-01-30T08:44:56Z</time>
      </trkpt>
      <trkpt lat="59.234612" lon="18.13334">
        <ele>29</ele>
        <time>2020-01-30T08:44:57Z</time>
      </trkpt>
      <trkpt lat="59.234569" lon="18.133392">
        <ele>29</ele>
        <time>2020-01-30T08:44:58Z</time>
      </trkpt>
      <trkpt lat="59.234527" lon="18.133448">
        <ele>29</ele>
        <time>2020-01-30T08:44:59Z</time>
      </trkpt>
      <trkpt lat="59.234484" lon="18.133503">
        <ele>29</ele>
        <time>2020-01-30T08:45:00Z</time>
      </trkpt>
      <trkpt lat="59.234441" lon="18.133555">
        <ele>29</ele>
        <time>2020-01-30T08:45:01Z</time>
      </trkpt>
      <trkpt lat="59.234398" lon="18.133609">
        <ele>29</ele>
        <time>2020-01-30T08:45:02Z</time>
      </trkpt>
      <trkpt lat="59.234354" lon="18.133662">
        <ele>29</ele>
        <time>2020-01-30T08:45:03Z</time>
      </trkpt>
      <trkpt lat="59.23431" lon="18.133717">
        <ele>29</ele>
        <time>2020-01-30T08:45:04Z</time>
      </trkpt>
      <trkpt lat="59.234267" lon="18.133772">
        <ele>29</ele>
        <time>2020-01-30T08:45:05Z</time>
      </trkpt>
      <trkpt lat="59.234223" lon="18.133828">
        <ele>29</ele>
        <time>2020-01-30T08:45:06Z</time>
      </trkpt>
      <trkpt lat="59.23418" lon="18.133886">
        <ele>29</ele>
        <time>2020-01-30T08:45:07Z</time>
      </trkpt>
      <trkpt lat="59.234139" lon="18.133945">
        <ele>29</ele>
        <time>2020-01-30T08:45:08Z</time>
      </trkpt>
      <trkpt lat="59.234097" lon="18.134005">
        <ele>29</ele>
        <time>2020-01-30T08:45:09Z</time>
      </trkpt>
      <trkpt lat="59.234055" lon="18.134062">
        <ele>29</ele>
        <time>2020-01-30T08:45:10Z</time>
      </trkpt>
      <trkpt lat="59.234013" lon="18.134118">
        <ele>29</ele>
        <time>2020-01-30T08:45:11Z</time>
      </trkpt>
      <trkpt lat="59.233971" lon="18.134176">
        <ele>29</ele>
        <time>2020-01-30T08:45:12Z</time>
      </trkpt>
      <trkpt lat="59.23393" lon="18.134236">
        <ele>29</ele>
        <time>2020-01-30T08:45:13Z</time>
      </trkpt>
      <trkpt lat="59.233888" lon="18.134292">
        <ele>29</ele>
        <time>2020-01-30T08:45:14Z</time>
      </trkpt>
      <trkpt lat="59.233846" lon="18.134345">
        <ele>29</ele>
        <time>2020-01-30T08:45:15Z</time>
      </trkpt>
      <trkpt lat="59.233804" lon="18.134398">
        <ele>29</ele>
        <time>2020-01-30T08:45:16Z</time>
      </trkpt>
      <trkpt lat="59.233762" lon="18.134453">
        <ele>29</ele>
        <time>2020-01-30T08:45:17Z</time>
      </trkpt>
      <trkpt lat="59.233721" lon="18.134507">
        <ele>29</ele>
        <time>2020-01-30T08:45:18Z</time>
      </trkpt>
      <trkpt lat="59.23368" lon="18.134558">
        <ele>29</ele>
        <time>2020-01-30T08:45:19Z</time>
      </trkpt>
      <trkpt lat="59.233641" lon="18.134609">
        <ele>29</ele>
        <time>2020-01-30T08:45:20Z</time>
      </trkpt>
      <trkpt lat="59.233603" lon="18.134663">
        <ele>29</ele>
        <time>2020-01-30T08:45:21Z</time>
      </trkpt>
      <trkpt lat="59.233566" lon="18.134711">
        <ele>29</ele>
        <time>2020-01-30T08:45:22Z</time>
      </trkpt>
      <trkpt lat="59.233527" lon="18.134756">
        <ele>29</ele>
        <time>2020-01-30T08:45:23Z</time>
      </trkpt>
      <trkpt lat="59.23349" lon="18.134803">
        <ele>29</ele>
        <time>2020-01-30T08:45:24Z</time>
      </trkpt>
      <trkpt lat="59.233454" lon="18.13485">
        <ele>29</ele>
        <time>2020-01-30T08:45:25Z</time>
      </trkpt>
      <trkpt lat="59.233417" lon="18.134892">
        <ele>29</ele>
        <time>2020-01-30T08:45:26Z</time>
      </trkpt>
      <trkpt lat="59.233381" lon="18.134927">
        <ele>29</ele>
        <time>2020-01-30T08:45:27Z</time>
      </trkpt>
      <trkpt lat="59.233347" lon="18.134958">
        <ele>29</ele>
        <time>2020-01-30T08:45:28Z</time>
      </trkpt>
      <trkpt lat="59.233314" lon="18.134979">
        <ele>29</ele>
        <time>2020-01-30T08:45:29Z</time>
      </trkpt>
      <trkpt lat="59.233281" lon="18.134993">
        <ele>29</ele>
        <time>2020-01-30T08:45:30Z</time>
      </trkpt>
      <trkpt lat="59.23325" lon="18.135">
        <ele>29</ele>
        <time>2020-01-30T08:45:31Z</time>
      </trkpt>
      <trkpt lat="59.233218" lon="18.135003">
        <ele>29</ele>
        <time>2020-01-30T08:45:32Z</time>
      </trkpt>
      <trkpt lat="59.233187" lon="18.135001">
        <ele>29</ele>
        <time>2020-01-30T08:45:33Z</time>
      </trkpt>
      <trkpt lat="59.233157" lon="18.134996">
        <ele>30</ele>
        <time>2020-01-30T08:45:34Z</time>
      </trkpt>
      <trkpt lat="59.233128" lon="18.134987">
        <ele>30</ele>
        <time>2020-01-30T08:45:35Z</time>
      </trkpt>
      <trkpt lat="59.2331" lon="18.134977">
        <ele>30</ele>
        <time>2020-01-30T08:45:36Z</time>
      </trkpt>
      <trkpt lat="59.233071" lon="18.134967">
        <ele>30</ele>
        <time>2020-01-30T08:45:37Z</time>
      </trkpt>
      <trkpt lat="59.233042" lon="18.134958">
        <ele>30</ele>
        <time>2020-01-30T08:45:38Z</time>
      </trkpt>
      <trkpt lat="59.233013" lon="18.134946">
        <ele>30</ele>
        <time>2020-01-30T08:45:39Z</time>
      </trkpt>
      <trkpt lat="59.232983" lon="18.134935">
        <ele>30</ele>
        <time>2020-01-30T08:45:40Z</time>
      </trkpt>
      <trkpt lat="59.232955" lon="18.134925">
        <ele>30</ele>
        <time>2020-01-30T08:45:41Z</time>
      </trkpt>
      <trkpt lat="59.232926" lon="18.134917">
        <ele>31</ele>
        <time>2020-01-30T08:45:42Z</time>
      </trkpt>
      <trkpt lat="59.232898" lon="18.134908">
        <ele>31</ele>
        <time>2020-01-30T08:45:43Z</time>
      </trkpt>
      <trkpt lat="59.232871" lon="18.134896">
        <ele>31</ele>
        <time>2020-01-30T08:45:44Z</time>
      </trkpt>
      <trkpt lat="59.232844" lon="18.134887">
        <ele>31</ele>
        <time>2020-01-30T08:45:45Z</time>
      </trkpt>
      <trkpt lat="59.232815" lon="18.134879">
        <ele>31</ele>
        <time>2020-01-30T08:45:46Z</time>
      </trkpt>
      <trkpt lat="59.232787" lon="18.134867">
        <ele>31</ele>
        <time>2020-01-30T08:45:47Z</time>
      </trkpt>
      <trkpt lat="59.23276" lon="18.134855">
        <ele>32</ele>
        <time>2020-01-30T08:45:48Z</time>
      </trkpt>
      <trkpt lat="59.232732" lon="18.134846">
        <ele>32</ele>
        <time>2020-01-30T08:45:49Z</time>
      </trkpt>
      <trkpt lat="59.232704" lon="18.13484">
        <ele>32</ele>
        <time>2020-01-30T08:45:50Z</time>
      </trkpt>
      <trkpt lat="59.232676" lon="18.134832">
        <ele>32</ele>
        <time>2020-01-30T08:45:51Z</time>
      </trkpt>
      <trkpt lat="59.232649" lon="18.134823">
        <ele>32</ele>
        <time>2020-01-30T08:45:52Z</time>
      </trkpt>
      <trkpt lat="59.232621" lon="18.134816">
        <ele>32</ele>
        <time>2020-01-30T08:45:53Z</time>
      </trkpt>
      <trkpt lat="59.232592" lon="18.134811">
        <ele>32</ele>
        <time>2020-01-30T08:45:54Z</time>
      </trkpt>
      <trkpt lat="59.232564" lon="18.134805">
        <ele>33</ele>
        <time>2020-01-30T08:45:55Z</time>
      </trkpt>
      <trkpt lat="59.232537" lon="18.134801">
        <ele>33</ele>
        <time>2020-01-30T08:45:56Z</time>
      </trkpt>
      <trkpt lat="59.232511" lon="18.134794">
        <ele>33</ele>
        <time>2020-01-30T08:45:57Z</time>
      </trkpt>
      <trkpt lat="59.232484" lon="18.134791">
        <ele>33</ele>
        <time>2020-01-30T08:45:58Z</time>
      </trkpt>
      <trkpt lat="59.232456" lon="18.134792">
        <ele>33</ele>
        <time>2020-01-30T08:45:59Z</time>
      </trkpt>
      <trkpt lat="59.232429" lon="18.134791">
        <ele>33</ele>
        <time>2020-01-30T08:46:00Z</time>
      </trkpt>
      <trkpt lat="59.232402" lon="18.13479">
        <ele>33</ele>
        <time>2020-01-30T08:46:01Z</time>
      </trkpt>
      <trkpt lat="59.232375" lon="18.134792">
        <ele>34</ele>
        <time>2020-01-30T08:46:02Z</time>
      </trkpt>
      <trkpt lat="59.232348" lon="18.134795">
        <ele>34</ele>
        <time>2020-01-30T08:46:03Z</time>
      </trkpt>
      <trkpt lat="59.232321" lon="18.134796">
        <ele>34</ele>
        <time>2020-01-30T08:46:04Z</time>
      </trkpt>
      <trkpt lat="59.232293" lon="18.134798">
        <ele>34</ele>
        <time>2020-01-30T08:46:05Z</time>
      </trkpt>
      <trkpt lat="59.232266" lon="18.134799">
        <ele>34</ele>
        <time>2020-01-30T08:46:06Z</time>
      </trkpt>
      <trkpt lat="59.232239" lon="18.134803">
        <ele>34</ele>
        <time>2020-01-30T08:46:07Z</time>
      </trkpt>
      <trkpt lat="59.232211" lon="18.134809">
        <ele>34</ele>
        <time>2020-01-30T08:46:08Z</time>
      </trkpt>
      <trkpt lat="59.232183" lon="18.134818">
        <ele>34</ele>
        <time>2020-01-30T08:46:09Z</time>
      </trkpt>
      <trkpt lat="59.232154" lon="18.13483">
        <ele>35</ele>
        <time>2020-01-30T08:46:10Z</time>
      </trkpt>
      <trkpt lat="59.232126" lon="18.134842">
        <ele>35</ele>
        <time>2020-01-30T08:46:11Z</time>
      </trkpt>
      <trkpt lat="59.232098" lon="18.134855">
        <ele>35</ele>
        <time>2020-01-30T08:46:12Z</time>
      </trkpt>
      <trkpt lat="59.232068" lon="18.134867">
        <ele>35</ele>
        <time>2020-01-30T08:46:13Z</time>
      </trkpt>
      <trkpt lat="59.232038" lon="18.13488">
        <ele>35</ele>
        <time>2020-01-30T08:46:14Z</time>
      </trkpt>
      <trkpt lat="59.232007" lon="18.134891">
        <ele>35</ele>
        <time>2020-01-30T08:46:15Z</time>
      </trkpt>
      <trkpt lat="59.231977" lon="18.134903">
        <ele>35</ele>
        <time>2020-01-30T08:46:16Z</time>
      </trkpt>
      <trkpt lat="59.231947" lon="18.134919">
        <ele>35</ele>
        <time>2020-01-30T08:46:17Z</time>
      </trkpt>
      <trkpt lat="59.231918" lon="18.134933">
        <ele>35</ele>
        <time>2020-01-30T08:46:18Z</time>
      </trkpt>
      <trkpt lat="59.231887" lon="18.134946">
        <ele>35</ele>
        <time>2020-01-30T08:46:19Z</time>
      </trkpt>
      <trkpt lat="59.231856" lon="18.134958">
        <ele>36</ele>
        <time>2020-01-30T08:46:20Z</time>
      </trkpt>
      <trkpt lat="59.231826" lon="18.134972">
        <ele>36</ele>
        <time>2020-01-30T08:46:21Z</time>
      </trkpt>
      <trkpt lat="59.231796" lon="18.134985">
        <ele>36</ele>
        <time>2020-01-30T08:46:22Z</time>
      </trkpt>
      <trkpt lat="59.231765" lon="18.134999">
        <ele>36</ele>
        <time>2020-01-30T08:46:23Z</time>
      </trkpt>
      <trkpt lat="59.231734" lon="18.135015">
        <ele>36</ele>
        <time>2020-01-30T08:46:24Z</time>
      </trkpt>
      <trkpt lat="59.231704" lon="18.135029">
        <ele>36</ele>
        <time>2020-01-30T08:46:25Z</time>
      </trkpt>
      <trkpt lat="59.231672" lon="18.135045">
        <ele>36</ele>
        <time>2020-01-30T08:46:26Z</time>
      </trkpt>
      <trkpt lat="59.231641" lon="18.13506">
        <ele>36</ele>
        <time>2020-01-30T08:46:27Z</time>
      </trkpt>
      <trkpt lat="59.231611" lon="18.135076">
        <ele>37</ele>
        <time>2020-01-30T08:46:28Z</time>
      </trkpt>
      <trkpt lat="59.231583" lon="18.135087">
        <ele>37</ele>
        <time>2020-01-30T08:46:29Z</time>
      </trkpt>
      <trkpt lat="59.231553" lon="18.1351">
        <ele>37</ele>
        <time>2020-01-30T08:46:30Z</time>
      </trkpt>
      <trkpt lat="59.231525" lon="18.135109">
        <ele>37</ele>
        <time>2020-01-30T08:46:31Z</time>
      </trkpt>
      <trkpt lat="59.231497" lon="18.13512">
        <ele>37</ele>
        <time>2020-01-30T08:46:32Z</time>
      </trkpt>
      <trkpt lat="59.231468" lon="18.135129">
        <ele>37</ele>
        <time>2020-01-30T08:46:33Z</time>
      </trkpt>
      <trkpt lat="59.231437" lon="18.13514">
        <ele>37</ele>
        <time>2020-01-30T08:46:34Z</time>
      </trkpt>
      <trkpt lat="59.231404" lon="18.135151">
        <ele>38</ele>
        <time>2020-01-30T08:46:35Z</time>
      </trkpt>
      <trkpt lat="59.231373" lon="18.135159">
        <ele>38</ele>
        <time>2020-01-30T08:46:36Z</time>
      </trkpt>
      <trkpt lat="59.231342" lon="18.135168">
        <ele>38</ele>
        <time>2020-01-30T08:46:37Z</time>
      </trkpt>
      <trkpt lat="59.231309" lon="18.135182">
        <ele>38</ele>
        <time>2020-01-30T08:46:38Z</time>
      </trkpt>
      <trkpt lat="59.231276" lon="18.13519">
        <ele>38</ele>
        <time>2020-01-30T08:46:39Z</time>
      </trkpt>
      <trkpt lat="59.231244" lon="18.1352">
        <ele>38</ele>
        <time>2020-01-30T08:46:40Z</time>
      </trkpt>
      <trkpt lat="59.231211" lon="18.135201">
        <ele>39</ele>
        <time>2020-01-30T08:46:41Z</time>
      </trkpt>
      <trkpt lat="59.23118" lon="18.135203">
        <ele>39</ele>
        <time>2020-01-30T08:46:42Z</time>
      </trkpt>
      <trkpt lat="59.231148" lon="18.135207">
        <ele>39</ele>
        <time>2020-01-30T08:46:43Z</time>
      </trkpt>
      <trkpt lat="59.231115" lon="18.135211">
        <ele>39</ele>
        <time>2020-01-30T08:46:44Z</time>
      </trkpt>
      <trkpt lat="59.231084" lon="18.135212">
        <ele>39</ele>
        <time>2020-01-30T08:46:45Z</time>
      </trkpt>
      <trkpt lat="59.231055" lon="18.135206">
        <ele>40</ele>
        <time>2020-01-30T08:46:46Z</time>
      </trkpt>
      <trkpt lat="59.231023" lon="18.135202">
        <ele>40</ele>
        <time>2020-01-30T08:46:47Z</time>
      </trkpt>
      <trkpt lat="59.230992" lon="18.135199">
        <ele>40</ele>
        <time>2020-01-30T08:46:48Z</time>
      </trkpt>
      <trkpt lat="59.230962" lon="18.135193">
        <ele>40</ele>
        <time>2020-01-30T08:46:49Z</time>
      </trkpt>
      <trkpt lat="59.230935" lon="18.135183">
        <ele>40</ele>
        <time>2020-01-30T08:46:50Z</time>
      </trkpt>
      <trkpt lat="59.230908" lon="18.135175">
        <ele>41</ele>
        <time>2020-01-30T08:46:51Z</time>
      </trkpt>
      <trkpt lat="59.230877" lon="18.135175">
        <ele>41</ele>
        <time>2020-01-30T08:46:52Z</time>
      </trkpt>
      <trkpt lat="59.230843" lon="18.135179">
        <ele>41</ele>
        <time>2020-01-30T08:46:53Z</time>
      </trkpt>
      <trkpt lat="59.230809" lon="18.135183">
        <ele>42</ele>
        <time>2020-01-30T08:46:54Z</time>
      </trkpt>
      <trkpt lat="59.230771" lon="18.1352">
        <ele>42</ele>
        <time>2020-01-30T08:46:55Z</time>
      </trkpt>
      <trkpt lat="59.230733" lon="18.135216">
        <ele>42</ele>
        <time>2020-01-30T08:46:56Z</time>
      </trkpt>
      <trkpt lat="59.230703" lon="18.135227">
        <ele>42</ele>
        <time>2020-01-30T08:46:57Z</time>
      </trkpt>
      <trkpt lat="59.230682" lon="18.135233">
        <ele>42</ele>
        <time>2020-01-30T08:46:58Z</time>
      </trkpt>
      <trkpt lat="59.230661" lon="18.135222">
        <ele>43</ele>
        <time>2020-01-30T08:46:59Z</time>
      </trkpt>
      <trkpt lat="59.230639" lon="18.135187">
        <ele>43</ele>
        <time>2020-01-30T08:47:00Z</time>
      </trkpt>
      <trkpt lat="59.230617" lon="18.135149">
        <ele>44</ele>
        <time>2020-01-30T08:47:01Z</time>
      </trkpt>
      <trkpt lat="59.230593" lon="18.135114">
        <ele>44</ele>
        <time>2020-01-30T08:47:02Z</time>
      </trkpt>
      <trkpt lat="59.230568" lon="18.135074">
        <ele>44</ele>
        <time>2020-01-30T08:47:03Z</time>
      </trkpt>
      <trkpt lat="59.230542" lon="18.135035">
        <ele>44</ele>
        <time>2020-01-30T08:47:04Z</time>
      </trkpt>
      <trkpt lat="59.230518" lon="18.135002">
        <ele>45</ele>
        <time>2020-01-30T08:47:05Z</time>
      </trkpt>
      <trkpt lat="59.2305" lon="18.134953">
        <ele>45</ele>
        <time>2020-01-30T08:47:06Z</time>
      </trkpt>
      <trkpt lat="59.230477" lon="18.134911">
        <ele>45</ele>
        <time>2020-01-30T08:47:07Z</time>
      </trkpt>
      <trkpt lat="59.230444" lon="18.134866">
        <ele>45</ele>
        <time>2020-01-30T08:47:08Z</time>
      </trkpt>
      <trkpt lat="59.230412" lon="18.134819">
        <ele>45</ele>
        <time>2020-01-30T08:47:09Z</time>
      </trkpt>
      <trkpt lat="59.230379" lon="18.134764">
        <ele>45</ele>
        <time>2020-01-30T08:47:10Z</time>
      </trkpt>
      <trkpt lat="59.230347" lon="18.134712">
        <ele>45</ele>
        <time>2020-01-30T08:47:11Z</time>
      </trkpt>
      <trkpt lat="59.230311" lon="18.134661">
        <ele>45</ele>
        <time>2020-01-30T08:47:12Z</time>
      </trkpt>
      <trkpt lat="59.230272" lon="18.134609">
        <ele>45</ele>
        <time>2020-01-30T08:47:13Z</time>
      </trkpt>
      <trkpt lat="59.230233" lon="18.134558">
        <ele>45</ele>
        <time>2020-01-30T08:47:14Z</time>
      </trkpt>
      <trkpt lat="59.23019" lon="18.134504">
        <ele>45</ele>
        <time>2020-01-30T08:47:15Z</time>
      </trkpt>
      <trkpt lat="59.230143" lon="18.134446">
        <ele>45</ele>
        <time>2020-01-30T08:47:16Z</time>
      </trkpt>
      <trkpt lat="59.230094" lon="18.134392">
        <ele>45</ele>
        <time>2020-01-30T08:47:17Z</time>
      </trkpt>
      <trkpt lat="59.230041" lon="18.13434">
        <ele>45</ele>
        <time>2020-01-30T08:47:18Z</time>
      </trkpt>
      <trkpt lat="59.229983" lon="18.134289">
        <ele>45</ele>
        <time>2020-01-30T08:47:19Z</time>
      </trkpt>
      <trkpt lat="59.229925" lon="18.134237">
        <ele>45</ele>
        <time>2020-01-30T08:47:20Z</time>
      </trkpt>
      <trkpt lat="59.229865" lon="18.134183">
        <ele>45</ele>
        <time>2020-01-30T08:47:21Z</time>
      </trkpt>
      <trkpt lat="59.2298" lon="18.134131">
        <ele>45</ele>
        <time>2020-01-30T08:47:22Z</time>
      </trkpt>
      <trkpt lat="59.229734" lon="18.13408">
        <ele>45</ele>
        <time>2020-01-30T08:47:23Z</time>
      </trkpt>
      <trkpt lat="59.229666" lon="18.134027">
        <ele>45</ele>
        <time>2020-01-30T08:47:24Z</time>
      </trkpt>
      <trkpt lat="59.229597" lon="18.133978">
        <ele>45</ele>
        <time>2020-01-30T08:47:25Z</time>
      </trkpt>
      <trkpt lat="59.229525" lon="18.13393">
        <ele>0</ele>
        <time>2020-01-30T08:47:25Z</time>
      </trkpt>
      <trkpt lat="59.229448" lon="18.133883">
        <ele>44</ele>
        <time>2020-01-30T08:47:26Z</time>
      </trkpt>
      <trkpt lat="59.229372" lon="18.133835">
        <ele>44</ele>
        <time>2020-01-30T08:47:28Z</time>
      </trkpt>
      <trkpt lat="59.229299" lon="18.133784">
        <ele>44</ele>
        <time>2020-01-30T08:47:29Z</time>
      </trkpt>
      <trkpt lat="59.229229" lon="18.13373">
        <ele>44</ele>
        <time>2020-01-30T08:47:30Z</time>
      </trkpt>
      <trkpt lat="59.229162" lon="18.133676">
        <ele>44</ele>
        <time>2020-01-30T08:47:31Z</time>
      </trkpt>
      <trkpt lat="59.229098" lon="18.133623">
        <ele>44</ele>
        <time>2020-01-30T08:47:32Z</time>
      </trkpt>
      <trkpt lat="59.229034" lon="18.133574">
        <ele>44</ele>
        <time>2020-01-30T08:47:33Z</time>
      </trkpt>
      <trkpt lat="59.228971" lon="18.133523">
        <ele>43</ele>
        <time>2020-01-30T08:47:34Z</time>
      </trkpt>
      <trkpt lat="59.228907" lon="18.133471">
        <ele>43</ele>
        <time>2020-01-30T08:47:35Z</time>
      </trkpt>
      <trkpt lat="59.228844" lon="18.133427">
        <ele>43</ele>
        <time>2020-01-30T08:47:36Z</time>
      </trkpt>
      <trkpt lat="59.228781" lon="18.133384">
        <ele>43</ele>
        <time>2020-01-30T08:47:37Z</time>
      </trkpt>
      <trkpt lat="59.228717" lon="18.133343">
        <ele>43</ele>
        <time>2020-01-30T08:47:38Z</time>
      </trkpt>
      <trkpt lat="59.228651" lon="18.133306">
        <ele>43</ele>
        <time>2020-01-30T08:47:39Z</time>
      </trkpt>
      <trkpt lat="59.228587" lon="18.133261">
        <ele>43</ele>
        <time>2020-01-30T08:47:40Z</time>
      </trkpt>
      <trkpt lat="59.228526" lon="18.133204">
        <ele>43</ele>
        <time>2020-01-30T08:47:41Z</time>
      </trkpt>
      <trkpt lat="59.228465" lon="18.133151">
        <ele>43</ele>
        <time>2020-01-30T08:47:42Z</time>
      </trkpt>
      <trkpt lat="59.228404" lon="18.133105">
        <ele>43</ele>
        <time>2020-01-30T08:47:43Z</time>
      </trkpt>
      <trkpt lat="59.228342" lon="18.133091">
        <ele>43</ele>
        <time>2020-01-30T08:47:44Z</time>
      </trkpt>
      <trkpt lat="59.22828" lon="18.133118">
        <ele>43</ele>
        <time>2020-01-30T08:47:45Z</time>
      </trkpt>
      <trkpt lat="59.228223" lon="18.133156">
        <ele>43</ele>
        <time>2020-01-30T08:47:46Z</time>
      </trkpt>
      <trkpt lat="59.228164" lon="18.133188">
        <ele>43</ele>
        <time>2020-01-30T08:47:47Z</time>
      </trkpt>
      <trkpt lat="59.228104" lon="18.133218">
        <ele>43</ele>
        <time>2020-01-30T08:47:48Z</time>
      </trkpt>
      <trkpt lat="59.228046" lon="18.133249">
        <ele>42</ele>
        <time>2020-01-30T08:47:49Z</time>
      </trkpt>
      <trkpt lat="59.227992" lon="18.133281">
        <ele>42</ele>
        <time>2020-01-30T08:47:50Z</time>
      </trkpt>
      <trkpt lat="59.227939" lon="18.133327">
        <ele>42</ele>
        <time>2020-01-30T08:47:51Z</time>
      </trkpt>
      <trkpt lat="59.227889" lon="18.133378">
        <ele>42</ele>
        <time>2020-01-30T08:47:52Z</time>
      </trkpt>
      <trkpt lat="59.227843" lon="18.13343">
        <ele>42</ele>
        <time>2020-01-30T08:47:53Z</time>
      </trkpt>
      <trkpt lat="59.227803" lon="18.13348">
        <ele>42</ele>
        <time>2020-01-30T08:47:54Z</time>
      </trkpt>
      <trkpt lat="59.227764" lon="18.13355">
        <ele>42</ele>
        <time>2020-01-30T08:47:55Z</time>
      </trkpt>
      <trkpt lat="59.227724" lon="18.133621">
        <ele>42</ele>
        <time>2020-01-30T08:47:56Z</time>
      </trkpt>
      <trkpt lat="59.227684" lon="18.133692">
        <ele>42</ele>
        <time>2020-01-30T08:47:57Z</time>
      </trkpt>
      <trkpt lat="59.227643" lon="18.133763">
        <ele>42</ele>
        <time>2020-01-30T08:47:58Z</time>
      </trkpt>
      <trkpt lat="59.227603" lon="18.13383">
        <ele>42</ele>
        <time>2020-01-30T08:47:59Z</time>
      </trkpt>
      <trkpt lat="59.227566" lon="18.133892">
        <ele>42</ele>
        <time>2020-01-30T08:48:00Z</time>
      </trkpt>
      <trkpt lat="59.227529" lon="18.133956">
        <ele>42</ele>
        <time>2020-01-30T08:48:01Z</time>
      </trkpt>
      <trkpt lat="59.227494" lon="18.13402">
        <ele>42</ele>
        <time>2020-01-30T08:48:02Z</time>
      </trkpt>
      <trkpt lat="59.227458" lon="18.134084">
        <ele>42</ele>
        <time>2020-01-30T08:48:03Z</time>
      </trkpt>
      <trkpt lat="59.227426" lon="18.134147">
        <ele>42</ele>
        <time>2020-01-30T08:48:04Z</time>
      </trkpt>
      <trkpt lat="59.227392" lon="18.134209">
        <ele>42</ele>
        <time>2020-01-30T08:48:05Z</time>
      </trkpt>
      <trkpt lat="59.227359" lon="18.13427">
        <ele>42</ele>
        <time>2020-01-30T08:48:06Z</time>
      </trkpt>
      <trkpt lat="59.227326" lon="18.134331">
        <ele>42</ele>
        <time>2020-01-30T08:48:07Z</time>
      </trkpt>
      <trkpt lat="59.227293" lon="18.134392">
        <ele>42</ele>
        <time>2020-01-30T08:48:08Z</time>
      </trkpt>
      <trkpt lat="59.227261" lon="18.134451">
        <ele>42</ele>
        <time>2020-01-30T08:48:09Z</time>
      </trkpt>
      <trkpt lat="59.227229" lon="18.13451">
        <ele>42</ele>
        <time>2020-01-30T08:48:10Z</time>
      </trkpt>
      <trkpt lat="59.227197" lon="18.13457">
        <ele>42</ele>
        <time>2020-01-30T08:48:11Z</time>
      </trkpt>
      <trkpt lat="59.227164" lon="18.13463">
        <ele>42</ele>
        <time>2020-01-30T08:48:12Z</time>
      </trkpt>
      <trkpt lat="59.227132" lon="18.134688">
        <ele>42</ele>
        <time>2020-01-30T08:48:13Z</time>
      </trkpt>
      <trkpt lat="59.227099" lon="18.134744">
        <ele>42</ele>
        <time>2020-01-30T08:48:14Z</time>
      </trkpt>
      <trkpt lat="59.227066" lon="18.1348">
        <ele>42</ele>
        <time>2020-01-30T08:48:15Z</time>
      </trkpt>
      <trkpt lat="59.227036" lon="18.134853">
        <ele>42</ele>
        <time>2020-01-30T08:48:16Z</time>
      </trkpt>
      <trkpt lat="59.227007" lon="18.134903">
        <ele>42</ele>
        <time>2020-01-30T08:48:17Z</time>
      </trkpt>
      <trkpt lat="59.226974" lon="18.134954">
        <ele>43</ele>
        <time>2020-01-30T08:48:18Z</time>
      </trkpt>
      <trkpt lat="59.226941" lon="18.135002">
        <ele>43</ele>
        <time>2020-01-30T08:48:19Z</time>
      </trkpt>
      <trkpt lat="59.226904" lon="18.13504">
        <ele>43</ele>
        <time>2020-01-30T08:48:20Z</time>
      </trkpt>
      <trkpt lat="59.226863" lon="18.135062">
        <ele>43</ele>
        <time>2020-01-30T08:48:21Z</time>
      </trkpt>
      <trkpt lat="59.22682" lon="18.135068">
        <ele>43</ele>
        <time>2020-01-30T08:48:22Z</time>
      </trkpt>
      <trkpt lat="59.226782" lon="18.135085">
        <ele>0</ele>
        <time>2020-01-30T08:48:22Z</time>
      </trkpt>
      <trkpt lat="59.226747" lon="18.135124">
        <ele>43</ele>
        <time>2020-01-30T08:48:23Z</time>
      </trkpt>
      <trkpt lat="59.226718" lon="18.135168">
        <ele>42</ele>
        <time>2020-01-30T08:48:25Z</time>
      </trkpt>
      <trkpt lat="59.226697" lon="18.135208">
        <ele>42</ele>
        <time>2020-01-30T08:48:26Z</time>
      </trkpt>
      <trkpt lat="59.226674" lon="18.135225">
        <ele>42</ele>
        <time>2020-01-30T08:48:27Z</time>
      </trkpt>
      <trkpt lat="59.226653" lon="18.135207">
        <ele>42</ele>
        <time>2020-01-30T08:48:28Z</time>
      </trkpt>
      <trkpt lat="59.226635" lon="18.135167">
        <ele>42</ele>
        <time>2020-01-30T08:48:29Z</time>
      </trkpt>
      <trkpt lat="59.226617" lon="18.135122">
        <ele>42</ele>
        <time>2020-01-30T08:48:30Z</time>
      </trkpt>
      <trkpt lat="59.226595" lon="18.135075">
        <ele>42</ele>
        <time>2020-01-30T08:48:31Z</time>
      </trkpt>
      <trkpt lat="59.226571" lon="18.135027">
        <ele>42</ele>
        <time>2020-01-30T08:48:32Z</time>
      </trkpt>
      <trkpt lat="59.226545" lon="18.134979">
        <ele>42</ele>
        <time>2020-01-30T08:48:33Z</time>
      </trkpt>
      <trkpt lat="59.226516" lon="18.134933">
        <ele>42</ele>
        <time>2020-01-30T08:48:34Z</time>
      </trkpt>
      <trkpt lat="59.226487" lon="18.134886">
        <ele>42</ele>
        <time>2020-01-30T08:48:35Z</time>
      </trkpt>
      <trkpt lat="59.226456" lon="18.134836">
        <ele>42</ele>
        <time>2020-01-30T08:48:36Z</time>
      </trkpt>
      <trkpt lat="59.226426" lon="18.134788">
        <ele>42</ele>
        <time>2020-01-30T08:48:37Z</time>
      </trkpt>
      <trkpt lat="59.226396" lon="18.134741">
        <ele>42</ele>
        <time>2020-01-30T08:48:38Z</time>
      </trkpt>
      <trkpt lat="59.226365" lon="18.134695">
        <ele>42</ele>
        <time>2020-01-30T08:48:39Z</time>
      </trkpt>
      <trkpt lat="59.226335" lon="18.13465">
        <ele>42</ele>
        <time>2020-01-30T08:48:40Z</time>
      </trkpt>
      <trkpt lat="59.226306" lon="18.134605">
        <ele>42</ele>
        <time>2020-01-30T08:48:41Z</time>
      </trkpt>
      <trkpt lat="59.226278" lon="18.13456">
        <ele>42</ele>
        <time>2020-01-30T08:48:42Z</time>
      </trkpt>
      <trkpt lat="59.226251" lon="18.134512">
        <ele>42</ele>
        <time>2020-01-30T08:48:43Z</time>
      </trkpt>
      <trkpt lat="59.226225" lon="18.134462">
        <ele>42</ele>
        <time>2020-01-30T08:48:44Z</time>
      </trkpt>
      <trkpt lat="59.226201" lon="18.134411">
        <ele>42</ele>
        <time>2020-01-30T08:48:45Z</time>
      </trkpt>
      <trkpt lat="59.226178" lon="18.134357">
        <ele>42</ele>
        <time>2020-01-30T08:48:46Z</time>
      </trkpt>
      <trkpt lat="59.226157" lon="18.134298">
        <ele>42</ele>
        <time>2020-01-30T08:48:47Z</time>
      </trkpt>
      <trkpt lat="59.226138" lon="18.134237">
        <ele>42</ele>
        <time>2020-01-30T08:48:48Z</time>
      </trkpt>
      <trkpt lat="59.22612" lon="18.134173">
        <ele>42</ele>
        <time>2020-01-30T08:48:49Z</time>
      </trkpt>
      <trkpt lat="59.226105" lon="18.134102">
        <ele>42</ele>
        <time>2020-01-30T08:48:50Z</time>
      </trkpt>
      <trkpt lat="59.226092" lon="18.134025">
        <ele>42</ele>
        <time>2020-01-30T08:48:51Z</time>
      </trkpt>
      <trkpt lat="59.226083" lon="18.133943">
        <ele>41</ele>
        <time>2020-01-30T08:48:52Z</time>
      </trkpt>
      <trkpt lat="59.226077" lon="18.133856">
        <ele>41</ele>
        <time>2020-01-30T08:48:53Z</time>
      </trkpt>
      <trkpt lat="59.226075" lon="18.133764">
        <ele>41</ele>
        <time>2020-01-30T08:48:54Z</time>
      </trkpt>
      <trkpt lat="59.226076" lon="18.133667">
        <ele>41</ele>
        <time>2020-01-30T08:48:55Z</time>
      </trkpt>
      <trkpt lat="59.226084" lon="18.133567">
        <ele>41</ele>
        <time>2020-01-30T08:48:56Z</time>
      </trkpt>
      <trkpt lat="59.226097" lon="18.133463">
        <ele>41</ele>
        <time>2020-01-30T08:48:57Z</time>
      </trkpt>
      <trkpt lat="59.226116" lon="18.133359">
        <ele>41</ele>
        <time>2020-01-30T08:48:58Z</time>
      </trkpt>
      <trkpt lat="59.22614" lon="18.133262">
        <ele>41</ele>
        <time>2020-01-30T08:48:59Z</time>
      </trkpt>
      <trkpt lat="59.226168" lon="18.13317">
        <ele>41</ele>
        <time>2020-01-30T08:49:00Z</time>
      </trkpt>
      <trkpt lat="59.226197" lon="18.133079">
        <ele>41</ele>
        <time>2020-01-30T08:49:01Z</time>
      </trkpt>
      <trkpt lat="59.226227" lon="18.132989">
        <ele>41</ele>
        <time>2020-01-30T08:49:02Z</time>
      </trkpt>
      <trkpt lat="59.226255" lon="18.1329">
        <ele>40</ele>
        <time>2020-01-30T08:49:03Z</time>
      </trkpt>
      <trkpt lat="59.226282" lon="18.132808">
        <ele>40</ele>
        <time>2020-01-30T08:49:04Z</time>
      </trkpt>
      <trkpt lat="59.226306" lon="18.132713">
        <ele>40</ele>
        <time>2020-01-30T08:49:05Z</time>
      </trkpt>
      <trkpt lat="59.226324" lon="18.132614">
        <ele>40</ele>
        <time>2020-01-30T08:49:06Z</time>
      </trkpt>
      <trkpt lat="59.226335" lon="18.132514">
        <ele>39</ele>
        <time>2020-01-30T08:49:07Z</time>
      </trkpt>
      <trkpt lat="59.226336" lon="18.132412">
        <ele>39</ele>
        <time>2020-01-30T08:49:08Z</time>
      </trkpt>
      <trkpt lat="59.226325" lon="18.132312">
        <ele>39</ele>
        <time>2020-01-30T08:49:09Z</time>
      </trkpt>
      <trkpt lat="59.226304" lon="18.132218">
        <ele>39</ele>
        <time>2020-01-30T08:49:10Z</time>
      </trkpt>
      <trkpt lat="59.226276" lon="18.132126">
        <ele>39</ele>
        <time>2020-01-30T08:49:11Z</time>
      </trkpt>
      <trkpt lat="59.226246" lon="18.132035">
        <ele>39</ele>
        <time>2020-01-30T08:49:12Z</time>
      </trkpt>
      <trkpt lat="59.226212" lon="18.131947">
        <ele>39</ele>
        <time>2020-01-30T08:49:13Z</time>
      </trkpt>
      <trkpt lat="59.226174" lon="18.131867">
        <ele>38</ele>
        <time>2020-01-30T08:49:14Z</time>
      </trkpt>
      <trkpt lat="59.226135" lon="18.131803">
        <ele>38</ele>
        <time>2020-01-30T08:49:15Z</time>
      </trkpt>
      <trkpt lat="59.226092" lon="18.131765">
        <ele>38</ele>
        <time>2020-01-30T08:49:16Z</time>
      </trkpt>
      <trkpt lat="59.226035" lon="18.131767">
        <ele>38</ele>
        <time>2020-01-30T08:49:17Z</time>
      </trkpt>
      <trkpt lat="59.225976" lon="18.131798">
        <ele>38</ele>
        <time>2020-01-30T08:49:18Z</time>
      </trkpt>
      <trkpt lat="59.22592" lon="18.131841">
        <ele>38</ele>
        <time>2020-01-30T08:49:19Z</time>
      </trkpt>
      <trkpt lat="59.225866" lon="18.131885">
        <ele>38</ele>
        <time>2020-01-30T08:49:20Z</time>
      </trkpt>
      <trkpt lat="59.225814" lon="18.131929">
        <ele>38</ele>
        <time>2020-01-30T08:49:21Z</time>
      </trkpt>
      <trkpt lat="59.225768" lon="18.131977">
        <ele>38</ele>
        <time>2020-01-30T08:49:22Z</time>
      </trkpt>
      <trkpt lat="59.225724" lon="18.132027">
        <ele>38</ele>
        <time>2020-01-30T08:49:23Z</time>
      </trkpt>
      <trkpt lat="59.22568" lon="18.132076">
        <ele>38</ele>
        <time>2020-01-30T08:49:24Z</time>
      </trkpt>
      <trkpt lat="59.225636" lon="18.132127">
        <ele>38</ele>
        <time>2020-01-30T08:49:25Z</time>
      </trkpt>
      <trkpt lat="59.225592" lon="18.132181">
        <ele>38</ele>
        <time>2020-01-30T08:49:26Z</time>
      </trkpt>
      <trkpt lat="59.225549" lon="18.132236">
        <ele>38</ele>
        <time>2020-01-30T08:49:27Z</time>
      </trkpt>
      <trkpt lat="59.225505" lon="18.13229">
        <ele>38</ele>
        <time>2020-01-30T08:49:28Z</time>
      </trkpt>
      <trkpt lat="59.225464" lon="18.132342">
        <ele>38</ele>
        <time>2020-01-30T08:49:29Z</time>
      </trkpt>
      <trkpt lat="59.225424" lon="18.132392">
        <ele>38</ele>
        <time>2020-01-30T08:49:30Z</time>
      </trkpt>
      <trkpt lat="59.225384" lon="18.132446">
        <ele>38</ele>
        <time>2020-01-30T08:49:31Z</time>
      </trkpt>
      <trkpt lat="59.225338" lon="18.132514">
        <ele>37</ele>
        <time>2020-01-30T08:49:32Z</time>
      </trkpt>
      <trkpt lat="59.22529" lon="18.132584">
        <ele>37</ele>
        <time>2020-01-30T08:49:33Z</time>
      </trkpt>
      <trkpt lat="59.225242" lon="18.132655">
        <ele>37</ele>
        <time>2020-01-30T08:49:34Z</time>
      </trkpt>
      <trkpt lat="59.225193" lon="18.132731">
        <ele>37</ele>
        <time>2020-01-30T08:49:35Z</time>
      </trkpt>
      <trkpt lat="59.225144" lon="18.13281">
        <ele>37</ele>
        <time>2020-01-30T08:49:36Z</time>
      </trkpt>
      <trkpt lat="59.225098" lon="18.13289">
        <ele>37</ele>
        <time>2020-01-30T08:49:37Z</time>
      </trkpt>
      <trkpt lat="59.225048" lon="18.132973">
        <ele>37</ele>
        <time>2020-01-30T08:49:38Z</time>
      </trkpt>
      <trkpt lat="59.224993" lon="18.133067">
        <ele>38</ele>
        <time>2020-01-30T08:49:39Z</time>
      </trkpt>
      <trkpt lat="59.224938" lon="18.133166">
        <ele>38</ele>
        <time>2020-01-30T08:49:40Z</time>
      </trkpt>
      <trkpt lat="59.224882" lon="18.133262">
        <ele>37</ele>
        <time>2020-01-30T08:49:41Z</time>
      </trkpt>
      <trkpt lat="59.224827" lon="18.133371">
        <ele>37</ele>
        <time>2020-01-30T08:49:42Z</time>
      </trkpt>
      <trkpt lat="59.22477" lon="18.133492">
        <ele>37</ele>
        <time>2020-01-30T08:49:43Z</time>
      </trkpt>
      <trkpt lat="59.224715" lon="18.133615">
        <ele>36</ele>
        <time>2020-01-30T08:49:44Z</time>
      </trkpt>
      <trkpt lat="59.224662" lon="18.133744">
        <ele>36</ele>
        <time>2020-01-30T08:49:45Z</time>
      </trkpt>
      <trkpt lat="59.224611" lon="18.133867">
        <ele>35</ele>
        <time>2020-01-30T08:49:46Z</time>
      </trkpt>
      <trkpt lat="59.224562" lon="18.133987">
        <ele>35</ele>
        <time>2020-01-30T08:49:47Z</time>
      </trkpt>
      <trkpt lat="59.224513" lon="18.134105">
        <ele>35</ele>
        <time>2020-01-30T08:49:48Z</time>
      </trkpt>
      <trkpt lat="59.224467" lon="18.13422">
        <ele>35</ele>
        <time>2020-01-30T08:49:49Z</time>
      </trkpt>
      <trkpt lat="59.224423" lon="18.134331">
        <ele>34</ele>
        <time>2020-01-30T08:49:50Z</time>
      </trkpt>
      <trkpt lat="59.22438" lon="18.134443">
        <ele>34</ele>
        <time>2020-01-30T08:49:51Z</time>
      </trkpt>
      <trkpt lat="59.224337" lon="18.134554">
        <ele>34</ele>
        <time>2020-01-30T08:49:52Z</time>
      </trkpt>
      <trkpt lat="59.224296" lon="18.134663">
        <ele>34</ele>
        <time>2020-01-30T08:49:53Z</time>
      </trkpt>
      <trkpt lat="59.224255" lon="18.134769">
        <ele>34</ele>
        <time>2020-01-30T08:49:54Z</time>
      </trkpt>
      <trkpt lat="59.224214" lon="18.134873">
        <ele>34</ele>
        <time>2020-01-30T08:49:55Z</time>
      </trkpt>
      <trkpt lat="59.224174" lon="18.134977">
        <ele>34</ele>
        <time>2020-01-30T08:49:56Z</time>
      </trkpt>
      <trkpt lat="59.224134" lon="18.135081">
        <ele>34</ele>
        <time>2020-01-30T08:49:57Z</time>
      </trkpt>
      <trkpt lat="59.224097" lon="18.135182">
        <ele>34</ele>
        <time>2020-01-30T08:49:58Z</time>
      </trkpt>
      <trkpt lat="59.224059" lon="18.135281">
        <ele>34</ele>
        <time>2020-01-30T08:49:59Z</time>
      </trkpt>
      <trkpt lat="59.224022" lon="18.135376">
        <ele>34</ele>
        <time>2020-01-30T08:50:00Z</time>
      </trkpt>
      <trkpt lat="59.223985" lon="18.135469">
        <ele>34</ele>
        <time>2020-01-30T08:50:01Z</time>
      </trkpt>
      <trkpt lat="59.223949" lon="18.135562">
        <ele>34</ele>
        <time>2020-01-30T08:50:02Z</time>
      </trkpt>
      <trkpt lat="59.223916" lon="18.135653">
        <ele>34</ele>
        <time>2020-01-30T08:50:03Z</time>
      </trkpt>
      <trkpt lat="59.223881" lon="18.135744">
        <ele>34</ele>
        <time>2020-01-30T08:50:04Z</time>
      </trkpt>
      <trkpt lat="59.223848" lon="18.13583">
        <ele>34</ele>
        <time>2020-01-30T08:50:05Z</time>
      </trkpt>
      <trkpt lat="59.223817" lon="18.135914">
        <ele>33</ele>
        <time>2020-01-30T08:50:06Z</time>
      </trkpt>
      <trkpt lat="59.223783" lon="18.135996">
        <ele>33</ele>
        <time>2020-01-30T08:50:07Z</time>
      </trkpt>
      <trkpt lat="59.22375" lon="18.136075">
        <ele>33</ele>
        <time>2020-01-30T08:50:08Z</time>
      </trkpt>
      <trkpt lat="59.223716" lon="18.136154">
        <ele>33</ele>
        <time>2020-01-30T08:50:09Z</time>
      </trkpt>
      <trkpt lat="59.223681" lon="18.136232">
        <ele>33</ele>
        <time>2020-01-30T08:50:10Z</time>
      </trkpt>
      <trkpt lat="59.223645" lon="18.13631">
        <ele>33</ele>
        <time>2020-01-30T08:50:11Z</time>
      </trkpt>
      <trkpt lat="59.223608" lon="18.136389">
        <ele>33</ele>
        <time>2020-01-30T08:50:12Z</time>
      </trkpt>
      <trkpt lat="59.223571" lon="18.136464">
        <ele>33</ele>
        <time>2020-01-30T08:50:13Z</time>
      </trkpt>
      <trkpt lat="59.223533" lon="18.136538">
        <ele>33</ele>
        <time>2020-01-30T08:50:14Z</time>
      </trkpt>
      <trkpt lat="59.223496" lon="18.136611">
        <ele>33</ele>
        <time>2020-01-30T08:50:15Z</time>
      </trkpt>
      <trkpt lat="59.223458" lon="18.136686">
        <ele>33</ele>
        <time>2020-01-30T08:50:16Z</time>
      </trkpt>
      <trkpt lat="59.223419" lon="18.136757">
        <ele>33</ele>
        <time>2020-01-30T08:50:17Z</time>
      </trkpt>
      <trkpt lat="59.223378" lon="18.136826">
        <ele>33</ele>
        <time>2020-01-30T08:50:18Z</time>
      </trkpt>
      <trkpt lat="59.223336" lon="18.136893">
        <ele>32</ele>
        <time>2020-01-30T08:50:19Z</time>
      </trkpt>
      <trkpt lat="59.223294" lon="18.136959">
        <ele>32</ele>
        <time>2020-01-30T08:50:20Z</time>
      </trkpt>
      <trkpt lat="59.223251" lon="18.137025">
        <ele>32</ele>
        <time>2020-01-30T08:50:21Z</time>
      </trkpt>
      <trkpt lat="59.223208" lon="18.13709">
        <ele>32</ele>
        <time>2020-01-30T08:50:22Z</time>
      </trkpt>
      <trkpt lat="59.223164" lon="18.137152">
        <ele>32</ele>
        <time>2020-01-30T08:50:23Z</time>
      </trkpt>
      <trkpt lat="59.22312" lon="18.137211">
        <ele>32</ele>
        <time>2020-01-30T08:50:24Z</time>
      </trkpt>
      <trkpt lat="59.223075" lon="18.137265">
        <ele>32</ele>
        <time>2020-01-30T08:50:25Z</time>
      </trkpt>
      <trkpt lat="59.22303" lon="18.137318">
        <ele>32</ele>
        <time>2020-01-30T08:50:26Z</time>
      </trkpt>
      <trkpt lat="59.222983" lon="18.13737">
        <ele>32</ele>
        <time>2020-01-30T08:50:27Z</time>
      </trkpt>
      <trkpt lat="59.222936" lon="18.137421">
        <ele>32</ele>
        <time>2020-01-30T08:50:28Z</time>
      </trkpt>
      <trkpt lat="59.222889" lon="18.137468">
        <ele>32</ele>
        <time>2020-01-30T08:50:29Z</time>
      </trkpt>
      <trkpt lat="59.222841" lon="18.137511">
        <ele>32</ele>
        <time>2020-01-30T08:50:30Z</time>
      </trkpt>
      <trkpt lat="59.222792" lon="18.137551">
        <ele>32</ele>
        <time>2020-01-30T08:50:31Z</time>
      </trkpt>
      <trkpt lat="59.222744" lon="18.137589">
        <ele>32</ele>
        <time>2020-01-30T08:50:32Z</time>
      </trkpt>
      <trkpt lat="59.222697" lon="18.137625">
        <ele>32</ele>
        <time>2020-01-30T08:50:33Z</time>
      </trkpt>
      <trkpt lat="59.22265" lon="18.137659">
        <ele>32</ele>
        <time>2020-01-30T08:50:34Z</time>
      </trkpt>
      <trkpt lat="59.2226" lon="18.137696">
        <ele>32</ele>
        <time>2020-01-30T08:50:35Z</time>
      </trkpt>
      <trkpt lat="59.22255" lon="18.137734">
        <ele>32</ele>
        <time>2020-01-30T08:50:36Z</time>
      </trkpt>
      <trkpt lat="59.2225" lon="18.13777">
        <ele>32</ele>
        <time>2020-01-30T08:50:37Z</time>
      </trkpt>
      <trkpt lat="59.22245" lon="18.137804">
        <ele>31</ele>
        <time>2020-01-30T08:50:38Z</time>
      </trkpt>
      <trkpt lat="59.222401" lon="18.137835">
        <ele>32</ele>
        <time>2020-01-30T08:50:39Z</time>
      </trkpt>
      <trkpt lat="59.222353" lon="18.137864">
        <ele>32</ele>
        <time>2020-01-30T08:50:40Z</time>
      </trkpt>
      <trkpt lat="59.222304" lon="18.137891">
        <ele>32</ele>
        <time>2020-01-30T08:50:41Z</time>
      </trkpt>
      <trkpt lat="59.222254" lon="18.137918">
        <ele>31</ele>
        <time>2020-01-30T08:50:42Z</time>
      </trkpt>
      <trkpt lat="59.222204" lon="18.137943">
        <ele>32</ele>
        <time>2020-01-30T08:50:43Z</time>
      </trkpt>
      <trkpt lat="59.222154" lon="18.137971">
        <ele>32</ele>
        <time>2020-01-30T08:50:44Z</time>
      </trkpt>
      <trkpt lat="59.222105" lon="18.137998">
        <ele>31</ele>
        <time>2020-01-30T08:50:45Z</time>
      </trkpt>
      <trkpt lat="59.222056" lon="18.138023">
        <ele>32</ele>
        <time>2020-01-30T08:50:46Z</time>
      </trkpt>
      <trkpt lat="59.222009" lon="18.138049">
        <ele>31</ele>
        <time>2020-01-30T08:50:47Z</time>
      </trkpt>
      <trkpt lat="59.221961" lon="18.13807">
        <ele>31</ele>
        <time>2020-01-30T08:50:48Z</time>
      </trkpt>
      <trkpt lat="59.221911" lon="18.13809">
        <ele>31</ele>
        <time>2020-01-30T08:50:49Z</time>
      </trkpt>
      <trkpt lat="59.221861" lon="18.13811">
        <ele>31</ele>
        <time>2020-01-30T08:50:50Z</time>
      </trkpt>
      <trkpt lat="59.22181" lon="18.138136">
        <ele>32</ele>
        <time>2020-01-30T08:50:51Z</time>
      </trkpt>
      <trkpt lat="59.221759" lon="18.13816">
        <ele>32</ele>
        <time>2020-01-30T08:50:52Z</time>
      </trkpt>
      <trkpt lat="59.221709" lon="18.138178">
        <ele>32</ele>
        <time>2020-01-30T08:50:53Z</time>
      </trkpt>
      <trkpt lat="59.221659" lon="18.138197">
        <ele>32</ele>
        <time>2020-01-30T08:50:54Z</time>
      </trkpt>
      <trkpt lat="59.221608" lon="18.138216">
        <ele>32</ele>
        <time>2020-01-30T08:50:55Z</time>
      </trkpt>
      <trkpt lat="59.221557" lon="18.138236">
        <ele>32</ele>
        <time>2020-01-30T08:50:56Z</time>
      </trkpt>
      <trkpt lat="59.221505" lon="18.138258">
        <ele>32</ele>
        <time>2020-01-30T08:50:57Z</time>
      </trkpt>
      <trkpt lat="59.221452" lon="18.138282">
        <ele>32</ele>
        <time>2020-01-30T08:50:58Z</time>
      </trkpt>
      <trkpt lat="59.221398" lon="18.138304">
        <ele>32</ele>
        <time>2020-01-30T08:50:59Z</time>
      </trkpt>
      <trkpt lat="59.221345" lon="18.138324">
        <ele>31</ele>
        <time>2020-01-30T08:51:00Z</time>
      </trkpt>
      <trkpt lat="59.221293" lon="18.138339">
        <ele>31</ele>
        <time>2020-01-30T08:51:01Z</time>
      </trkpt>
      <trkpt lat="59.221241" lon="18.138357">
        <ele>31</ele>
        <time>2020-01-30T08:51:02Z</time>
      </trkpt>
      <trkpt lat="59.221187" lon="18.138379">
        <ele>31</ele>
        <time>2020-01-30T08:51:03Z</time>
      </trkpt>
      <trkpt lat="59.221134" lon="18.1384">
        <ele>31</ele>
        <time>2020-01-30T08:51:04Z</time>
      </trkpt>
      <trkpt lat="59.221079" lon="18.138417">
        <ele>31</ele>
        <time>2020-01-30T08:51:05Z</time>
      </trkpt>
      <trkpt lat="59.221024" lon="18.138436">
        <ele>31</ele>
        <time>2020-01-30T08:51:06Z</time>
      </trkpt>
      <trkpt lat="59.220968" lon="18.138455">
        <ele>31</ele>
        <time>2020-01-30T08:51:07Z</time>
      </trkpt>
      <trkpt lat="59.220911" lon="18.138477">
        <ele>31</ele>
        <time>2020-01-30T08:51:08Z</time>
      </trkpt>
      <trkpt lat="59.220854" lon="18.138501">
        <ele>31</ele>
        <time>2020-01-30T08:51:09Z</time>
      </trkpt>
      <trkpt lat="59.220796" lon="18.138527">
        <ele>31</ele>
        <time>2020-01-30T08:51:10Z</time>
      </trkpt>
      <trkpt lat="59.220738" lon="18.138556">
        <ele>31</ele>
        <time>2020-01-30T08:51:11Z</time>
      </trkpt>
      <trkpt lat="59.220678" lon="18.138589">
        <ele>31</ele>
        <time>2020-01-30T08:51:12Z</time>
      </trkpt>
      <trkpt lat="59.220619" lon="18.138624">
        <ele>30</ele>
        <time>2020-01-30T08:51:13Z</time>
      </trkpt>
      <trkpt lat="59.220558" lon="18.138662">
        <ele>30</ele>
        <time>2020-01-30T08:51:14Z</time>
      </trkpt>
      <trkpt lat="59.220497" lon="18.138703">
        <ele>30</ele>
        <time>2020-01-30T08:51:15Z</time>
      </trkpt>
      <trkpt lat="59.220437" lon="18.138746">
        <ele>30</ele>
        <time>2020-01-30T08:51:16Z</time>
      </trkpt>
      <trkpt lat="59.220375" lon="18.138795">
        <ele>30</ele>
        <time>2020-01-30T08:51:17Z</time>
      </trkpt>
      <trkpt lat="59.220314" lon="18.13885">
        <ele>30</ele>
        <time>2020-01-30T08:51:18Z</time>
      </trkpt>
      <trkpt lat="59.220252" lon="18.138912">
        <ele>30</ele>
        <time>2020-01-30T08:51:19Z</time>
      </trkpt>
      <trkpt lat="59.220189" lon="18.138979">
        <ele>30</ele>
        <time>2020-01-30T08:51:20Z</time>
      </trkpt>
      <trkpt lat="59.220128" lon="18.139053">
        <ele>30</ele>
        <time>2020-01-30T08:51:21Z</time>
      </trkpt>
      <trkpt lat="59.220067" lon="18.139127">
        <ele>30</ele>
        <time>2020-01-30T08:51:22Z</time>
      </trkpt>
      <trkpt lat="59.220006" lon="18.139205">
        <ele>30</ele>
        <time>2020-01-30T08:51:23Z</time>
      </trkpt>
      <trkpt lat="59.219945" lon="18.139286">
        <ele>30</ele>
        <time>2020-01-30T08:51:24Z</time>
      </trkpt>
      <trkpt lat="59.219882" lon="18.139365">
        <ele>29</ele>
        <time>2020-01-30T08:51:25Z</time>
      </trkpt>
      <trkpt lat="59.219818" lon="18.139442">
        <ele>30</ele>
        <time>2020-01-30T08:51:26Z</time>
      </trkpt>
      <trkpt lat="59.219754" lon="18.139513">
        <ele>30</ele>
        <time>2020-01-30T08:51:27Z</time>
      </trkpt>
      <trkpt lat="59.21969" lon="18.139583">
        <ele>30</ele>
        <time>2020-01-30T08:51:28Z</time>
      </trkpt>
      <trkpt lat="59.219627" lon="18.139658">
        <ele>29</ele>
        <time>2020-01-30T08:51:29Z</time>
      </trkpt>
      <trkpt lat="59.219564" lon="18.139733">
        <ele>29</ele>
        <time>2020-01-30T08:51:30Z</time>
      </trkpt>
      <trkpt lat="59.219502" lon="18.139807">
        <ele>29</ele>
        <time>2020-01-30T08:51:31Z</time>
      </trkpt>
      <trkpt lat="59.219441" lon="18.139879">
        <ele>29</ele>
        <time>2020-01-30T08:51:32Z</time>
      </trkpt>
      <trkpt lat="59.219381" lon="18.139952">
        <ele>29</ele>
        <time>2020-01-30T08:51:33Z</time>
      </trkpt>
      <trkpt lat="59.219321" lon="18.140023">
        <ele>28</ele>
        <time>2020-01-30T08:51:34Z</time>
      </trkpt>
      <trkpt lat="59.219261" lon="18.140094">
        <ele>28</ele>
        <time>2020-01-30T08:51:35Z</time>
      </trkpt>
      <trkpt lat="59.219203" lon="18.140162">
        <ele>28</ele>
        <time>2020-01-30T08:51:36Z</time>
      </trkpt>
      <trkpt lat="59.219146" lon="18.14023">
        <ele>27</ele>
        <time>2020-01-30T08:51:37Z</time>
      </trkpt>
      <trkpt lat="59.219089" lon="18.140295">
        <ele>27</ele>
        <time>2020-01-30T08:51:38Z</time>
      </trkpt>
      <trkpt lat="59.219033" lon="18.140359">
        <ele>27</ele>
        <time>2020-01-30T08:51:39Z</time>
      </trkpt>
      <trkpt lat="59.218977" lon="18.140424">
        <ele>26</ele>
        <time>2020-01-30T08:51:40Z</time>
      </trkpt>
      <trkpt lat="59.218923" lon="18.140488">
        <ele>26</ele>
        <time>2020-01-30T08:51:41Z</time>
      </trkpt>
      <trkpt lat="59.218869" lon="18.140552">
        <ele>26</ele>
        <time>2020-01-30T08:51:42Z</time>
      </trkpt>
      <trkpt lat="59.218818" lon="18.140616">
        <ele>26</ele>
        <time>2020-01-30T08:51:43Z</time>
      </trkpt>
      <trkpt lat="59.21877" lon="18.14068">
        <ele>25</ele>
        <time>2020-01-30T08:51:44Z</time>
      </trkpt>
      <trkpt lat="59.218726" lon="18.140751">
        <ele>25</ele>
        <time>2020-01-30T08:51:45Z</time>
      </trkpt>
      <trkpt lat="59.21869" lon="18.140832">
        <ele>25</ele>
        <time>2020-01-30T08:51:46Z</time>
      </trkpt>
      <trkpt lat="59.218663" lon="18.140919">
        <ele>25</ele>
        <time>2020-01-30T08:51:47Z</time>
      </trkpt>
      <trkpt lat="59.218645" lon="18.14101">
        <ele>25</ele>
        <time>2020-01-30T08:51:48Z</time>
      </trkpt>
      <trkpt lat="59.218632" lon="18.141102">
        <ele>25</ele>
        <time>2020-01-30T08:51:49Z</time>
      </trkpt>
      <trkpt lat="59.218623" lon="18.141193">
        <ele>25</ele>
        <time>2020-01-30T08:51:50Z</time>
      </trkpt>
      <trkpt lat="59.218614" lon="18.141284">
        <ele>25</ele>
        <time>2020-01-30T08:51:51Z</time>
      </trkpt>
      <trkpt lat="59.218608" lon="18.141373">
        <ele>25</ele>
        <time>2020-01-30T08:51:52Z</time>
      </trkpt>
      <trkpt lat="59.218599" lon="18.141454">
        <ele>24</ele>
        <time>2020-01-30T08:51:53Z</time>
      </trkpt>
      <trkpt lat="59.218575" lon="18.141516">
        <ele>24</ele>
        <time>2020-01-30T08:51:54Z</time>
      </trkpt>
      <trkpt lat="59.218535" lon="18.141546">
        <ele>24</ele>
        <time>2020-01-30T08:51:55Z</time>
      </trkpt>
      <trkpt lat="59.21849" lon="18.141564">
        <ele>24</ele>
        <time>2020-01-30T08:51:56Z</time>
      </trkpt>
      <trkpt lat="59.218444" lon="18.141585">
        <ele>24</ele>
        <time>2020-01-30T08:51:57Z</time>
      </trkpt>
      <trkpt lat="59.218399" lon="18.141612">
        <ele>24</ele>
        <time>2020-01-30T08:51:58Z</time>
      </trkpt>
      <trkpt lat="59.218355" lon="18.141635">
        <ele>24</ele>
        <time>2020-01-30T08:51:59Z</time>
      </trkpt>
      <trkpt lat="59.218311" lon="18.141631">
        <ele>24</ele>
        <time>2020-01-30T08:52:00Z</time>
      </trkpt>
      <trkpt lat="59.218272" lon="18.141591">
        <ele>24</ele>
        <time>2020-01-30T08:52:01Z</time>
      </trkpt>
      <trkpt lat="59.218234" lon="18.141538">
        <ele>24</ele>
        <time>2020-01-30T08:52:02Z</time>
      </trkpt>
      <trkpt lat="59.218193" lon="18.141499">
        <ele>24</ele>
        <time>2020-01-30T08:52:03Z</time>
      </trkpt>
      <trkpt lat="59.218147" lon="18.141488">
        <ele>24</ele>
        <time>2020-01-30T08:52:04Z</time>
      </trkpt>
      <trkpt lat="59.2181" lon="18.141504">
        <ele>24</ele>
        <time>2020-01-30T08:52:05Z</time>
      </trkpt>
      <trkpt lat="59.218055" lon="18.141541">
        <ele>24</ele>
        <time>2020-01-30T08:52:06Z</time>
      </trkpt>
      <trkpt lat="59.21801" lon="18.141584">
        <ele>24</ele>
        <time>2020-01-30T08:52:07Z</time>
      </trkpt>
      <trkpt lat="59.217966" lon="18.14163">
        <ele>24</ele>
        <time>2020-01-30T08:52:08Z</time>
      </trkpt>
      <trkpt lat="59.217924" lon="18.141679">
        <ele>24</ele>
        <time>2020-01-30T08:52:09Z</time>
      </trkpt>
      <trkpt lat="59.217881" lon="18.141727">
        <ele>24</ele>
        <time>2020-01-30T08:52:10Z</time>
      </trkpt>
      <trkpt lat="59.217838" lon="18.141776">
        <ele>24</ele>
        <time>2020-01-30T08:52:11Z</time>
      </trkpt>
      <trkpt lat="59.217794" lon="18.141826">
        <ele>24</ele>
        <time>2020-01-30T08:52:12Z</time>
      </trkpt>
      <trkpt lat="59.21775" lon="18.141874">
        <ele>24</ele>
        <time>2020-01-30T08:52:13Z</time>
      </trkpt>
      <trkpt lat="59.217704" lon="18.141922">
        <ele>24</ele>
        <time>2020-01-30T08:52:14Z</time>
      </trkpt>
      <trkpt lat="59.217659" lon="18.141971">
        <ele>24</ele>
        <time>2020-01-30T08:52:15Z</time>
      </trkpt>
      <trkpt lat="59.217614" lon="18.14202">
        <ele>24</ele>
        <time>2020-01-30T08:52:16Z</time>
      </trkpt>
      <trkpt lat="59.217568" lon="18.14207">
        <ele>24</ele>
        <time>2020-01-30T08:52:17Z</time>
      </trkpt>
      <trkpt lat="59.217522" lon="18.14212">
        <ele>24</ele>
        <time>2020-01-30T08:52:18Z</time>
      </trkpt>
      <trkpt lat="59.217475" lon="18.14217">
        <ele>24</ele>
        <time>2020-01-30T08:52:19Z</time>
      </trkpt>
      <trkpt lat="59.217429" lon="18.142222">
        <ele>24</ele>
        <time>2020-01-30T08:52:20Z</time>
      </trkpt>
      <trkpt lat="59.217382" lon="18.142276">
        <ele>24</ele>
        <time>2020-01-30T08:52:21Z</time>
      </trkpt>
      <trkpt lat="59.217337" lon="18.14233">
        <ele>24</ele>
        <time>2020-01-30T08:52:22Z</time>
      </trkpt>
      <trkpt lat="59.217291" lon="18.142385">
        <ele>23</ele>
        <time>2020-01-30T08:52:23Z</time>
      </trkpt>
      <trkpt lat="59.217246" lon="18.142439">
        <ele>23</ele>
        <time>2020-01-30T08:52:24Z</time>
      </trkpt>
      <trkpt lat="59.2172" lon="18.142493">
        <ele>23</ele>
        <time>2020-01-30T08:52:25Z</time>
      </trkpt>
      <trkpt lat="59.217155" lon="18.142548">
        <ele>23</ele>
        <time>2020-01-30T08:52:26Z</time>
      </trkpt>
      <trkpt lat="59.217109" lon="18.142601">
        <ele>23</ele>
        <time>2020-01-30T08:52:27Z</time>
      </trkpt>
      <trkpt lat="59.217064" lon="18.142652">
        <ele>23</ele>
        <time>2020-01-30T08:52:28Z</time>
      </trkpt>
      <trkpt lat="59.217019" lon="18.142703">
        <ele>23</ele>
        <time>2020-01-30T08:52:29Z</time>
      </trkpt>
      <trkpt lat="59.216975" lon="18.142755">
        <ele>23</ele>
        <time>2020-01-30T08:52:30Z</time>
      </trkpt>
      <trkpt lat="59.21693" lon="18.142807">
        <ele>24</ele>
        <time>2020-01-30T08:52:31Z</time>
      </trkpt>
      <trkpt lat="59.216887" lon="18.142859">
        <ele>24</ele>
        <time>2020-01-30T08:52:32Z</time>
      </trkpt>
      <trkpt lat="59.216841" lon="18.142912">
        <ele>23</ele>
        <time>2020-01-30T08:52:33Z</time>
      </trkpt>
      <trkpt lat="59.216796" lon="18.142966">
        <ele>23</ele>
        <time>2020-01-30T08:52:34Z</time>
      </trkpt>
      <trkpt lat="59.21675" lon="18.14302">
        <ele>23</ele>
        <time>2020-01-30T08:52:35Z</time>
      </trkpt>
      <trkpt lat="59.216703" lon="18.143075">
        <ele>23</ele>
        <time>2020-01-30T08:52:36Z</time>
      </trkpt>
      <trkpt lat="59.216657" lon="18.143129">
        <ele>23</ele>
        <time>2020-01-30T08:52:37Z</time>
      </trkpt>
      <trkpt lat="59.216609" lon="18.143182">
        <ele>23</ele>
        <time>2020-01-30T08:52:38Z</time>
      </trkpt>
      <trkpt lat="59.216561" lon="18.143237">
        <ele>23</ele>
        <time>2020-01-30T08:52:39Z</time>
      </trkpt>
      <trkpt lat="59.216514" lon="18.143295">
        <ele>23</ele>
        <time>2020-01-30T08:52:40Z</time>
      </trkpt>
      <trkpt lat="59.216466" lon="18.143351">
        <ele>23</ele>
        <time>2020-01-30T08:52:41Z</time>
      </trkpt>
      <trkpt lat="59.216418" lon="18.143405">
        <ele>23</ele>
        <time>2020-01-30T08:52:42Z</time>
      </trkpt>
      <trkpt lat="59.216372" lon="18.143459">
        <ele>23</ele>
        <time>2020-01-30T08:52:43Z</time>
      </trkpt>
      <trkpt lat="59.216326" lon="18.143515">
        <ele>23</ele>
        <time>2020-01-30T08:52:44Z</time>
      </trkpt>
      <trkpt lat="59.216281" lon="18.14357">
        <ele>23</ele>
        <time>2020-01-30T08:52:45Z</time>
      </trkpt>
      <trkpt lat="59.216236" lon="18.143623">
        <ele>24</ele>
        <time>2020-01-30T08:52:46Z</time>
      </trkpt>
      <trkpt lat="59.216193" lon="18.143676">
        <ele>24</ele>
        <time>2020-01-30T08:52:47Z</time>
      </trkpt>
      <trkpt lat="59.21615" lon="18.143727">
        <ele>24</ele>
        <time>2020-01-30T08:52:48Z</time>
      </trkpt>
      <trkpt lat="59.216107" lon="18.143778">
        <ele>24</ele>
        <time>2020-01-30T08:52:49Z</time>
      </trkpt>
      <trkpt lat="59.216064" lon="18.143829">
        <ele>24</ele>
        <time>2020-01-30T08:52:50Z</time>
      </trkpt>
      <trkpt lat="59.216022" lon="18.143881">
        <ele>24</ele>
        <time>2020-01-30T08:52:51Z</time>
      </trkpt>
      <trkpt lat="59.215981" lon="18.143932">
        <ele>24</ele>
        <time>2020-01-30T08:52:52Z</time>
      </trkpt>
      <trkpt lat="59.21594" lon="18.143981">
        <ele>24</ele>
        <time>2020-01-30T08:52:53Z</time>
      </trkpt>
      <trkpt lat="59.215899" lon="18.144028">
        <ele>24</ele>
        <time>2020-01-30T08:52:54Z</time>
      </trkpt>
      <trkpt lat="59.21586" lon="18.144073">
        <ele>24</ele>
        <time>2020-01-30T08:52:55Z</time>
      </trkpt>
      <trkpt lat="59.21582" lon="18.144118">
        <ele>25</ele>
        <time>2020-01-30T08:52:56Z</time>
      </trkpt>
      <trkpt lat="59.215782" lon="18.144163">
        <ele>25</ele>
        <time>2020-01-30T08:52:57Z</time>
      </trkpt>
      <trkpt lat="59.215742" lon="18.144208">
        <ele>25</ele>
        <time>2020-01-30T08:52:58Z</time>
      </trkpt>
      <trkpt lat="59.215703" lon="18.144251">
        <ele>25</ele>
        <time>2020-01-30T08:52:59Z</time>
      </trkpt>
      <trkpt lat="59.215664" lon="18.144293">
        <ele>25</ele>
        <time>2020-01-30T08:53:00Z</time>
      </trkpt>
      <trkpt lat="59.215625" lon="18.144334">
        <ele>25</ele>
        <time>2020-01-30T08:53:01Z</time>
      </trkpt>
      <trkpt lat="59.215588" lon="18.144375">
        <ele>25</ele>
        <time>2020-01-30T08:53:02Z</time>
      </trkpt>
      <trkpt lat="59.21555" lon="18.144418">
        <ele>25</ele>
        <time>2020-01-30T08:53:03Z</time>
      </trkpt>
      <trkpt lat="59.215512" lon="18.144461">
        <ele>25</ele>
        <time>2020-01-30T08:53:04Z</time>
      </trkpt>
      <trkpt lat="59.215473" lon="18.144503">
        <ele>25</ele>
        <time>2020-01-30T08:53:05Z</time>
      </trkpt>
      <trkpt lat="59.215435" lon="18.144546">
        <ele>25</ele>
        <time>2020-01-30T08:53:06Z</time>
      </trkpt>
      <trkpt lat="59.215396" lon="18.144588">
        <ele>25</ele>
        <time>2020-01-30T08:53:07Z</time>
      </trkpt>
      <trkpt lat="59.215358" lon="18.14463">
        <ele>0</ele>
        <time>2020-01-30T08:53:07Z</time>
      </trkpt>
      <trkpt lat="59.215321" lon="18.144676">
        <ele>25</ele>
        <time>2020-01-30T08:53:08Z</time>
      </trkpt>
      <trkpt lat="59.215284" lon="18.144724">
        <ele>26</ele>
        <time>2020-01-30T08:53:10Z</time>
      </trkpt>
      <trkpt lat="59.215246" lon="18.144771">
        <ele>26</ele>
        <time>2020-01-30T08:53:11Z</time>
      </trkpt>
      <trkpt lat="59.215208" lon="18.144818">
        <ele>26</ele>
        <time>2020-01-30T08:53:12Z</time>
      </trkpt>
      <trkpt lat="59.21517" lon="18.144865">
        <ele>26</ele>
        <time>2020-01-30T08:53:13Z</time>
      </trkpt>
      <trkpt lat="59.215133" lon="18.144911">
        <ele>26</ele>
        <time>2020-01-30T08:53:14Z</time>
      </trkpt>
      <trkpt lat="59.215098" lon="18.144955">
        <ele>26</ele>
        <time>2020-01-30T08:53:15Z</time>
      </trkpt>
      <trkpt lat="59.215062" lon="18.145">
        <ele>26</ele>
        <time>2020-01-30T08:53:16Z</time>
      </trkpt>
      <trkpt lat="59.215025" lon="18.145044">
        <ele>26</ele>
        <time>2020-01-30T08:53:17Z</time>
      </trkpt>
      <trkpt lat="59.214987" lon="18.145087">
        <ele>26</ele>
        <time>2020-01-30T08:53:18Z</time>
      </trkpt>
      <trkpt lat="59.21495" lon="18.145131">
        <ele>26</ele>
        <time>2020-01-30T08:53:19Z</time>
      </trkpt>
      <trkpt lat="59.214913" lon="18.145174">
        <ele>26</ele>
        <time>2020-01-30T08:53:20Z</time>
      </trkpt>
      <trkpt lat="59.214875" lon="18.145219">
        <ele>27</ele>
        <time>2020-01-30T08:53:21Z</time>
      </trkpt>
      <trkpt lat="59.214835" lon="18.14526">
        <ele>26</ele>
        <time>2020-01-30T08:53:22Z</time>
      </trkpt>
      <trkpt lat="59.214795" lon="18.145301">
        <ele>26</ele>
        <time>2020-01-30T08:53:23Z</time>
      </trkpt>
      <trkpt lat="59.214756" lon="18.145342">
        <ele>26</ele>
        <time>2020-01-30T08:53:24Z</time>
      </trkpt>
      <trkpt lat="59.214718" lon="18.145383">
        <ele>26</ele>
        <time>2020-01-30T08:53:25Z</time>
      </trkpt>
      <trkpt lat="59.214681" lon="18.145428">
        <ele>26</ele>
        <time>2020-01-30T08:53:26Z</time>
      </trkpt>
      <trkpt lat="59.214645" lon="18.145472">
        <ele>26</ele>
        <time>2020-01-30T08:53:27Z</time>
      </trkpt>
      <trkpt lat="59.214608" lon="18.145515">
        <ele>26</ele>
        <time>2020-01-30T08:53:28Z</time>
      </trkpt>
      <trkpt lat="59.214573" lon="18.145561">
        <ele>26</ele>
        <time>2020-01-30T08:53:29Z</time>
      </trkpt>
      <trkpt lat="59.214538" lon="18.145608">
        <ele>26</ele>
        <time>2020-01-30T08:53:30Z</time>
      </trkpt>
      <trkpt lat="59.214503" lon="18.145653">
        <ele>26</ele>
        <time>2020-01-30T08:53:31Z</time>
      </trkpt>
      <trkpt lat="59.214467" lon="18.145697">
        <ele>26</ele>
        <time>2020-01-30T08:53:32Z</time>
      </trkpt>
      <trkpt lat="59.214431" lon="18.14574">
        <ele>26</ele>
        <time>2020-01-30T08:53:33Z</time>
      </trkpt>
      <trkpt lat="59.214396" lon="18.145784">
        <ele>26</ele>
        <time>2020-01-30T08:53:34Z</time>
      </trkpt>
      <trkpt lat="59.214361" lon="18.145825">
        <ele>26</ele>
        <time>2020-01-30T08:53:35Z</time>
      </trkpt>
      <trkpt lat="59.214324" lon="18.145865">
        <ele>26</ele>
        <time>2020-01-30T08:53:36Z</time>
      </trkpt>
      <trkpt lat="59.214289" lon="18.145907">
        <ele>26</ele>
        <time>2020-01-30T08:53:37Z</time>
      </trkpt>
      <trkpt lat="59.214256" lon="18.145948">
        <ele>27</ele>
        <time>2020-01-30T08:53:38Z</time>
      </trkpt>
      <trkpt lat="59.214224" lon="18.145989">
        <ele>27</ele>
        <time>2020-01-30T08:53:39Z</time>
      </trkpt>
      <trkpt lat="59.214192" lon="18.146026">
        <ele>27</ele>
        <time>2020-01-30T08:53:40Z</time>
      </trkpt>
      <trkpt lat="59.214159" lon="18.146063">
        <ele>27</ele>
        <time>2020-01-30T08:53:41Z</time>
      </trkpt>
      <trkpt lat="59.214126" lon="18.146098">
        <ele>27</ele>
        <time>2020-01-30T08:53:42Z</time>
      </trkpt>
      <trkpt lat="59.214096" lon="18.146135">
        <ele>27</ele>
        <time>2020-01-30T08:53:43Z</time>
      </trkpt>
      <trkpt lat="59.214066" lon="18.146171">
        <ele>27</ele>
        <time>2020-01-30T08:53:44Z</time>
      </trkpt>
      <trkpt lat="59.214035" lon="18.146206">
        <ele>27</ele>
        <time>2020-01-30T08:53:45Z</time>
      </trkpt>
      <trkpt lat="59.214004" lon="18.146242">
        <ele>27</ele>
        <time>2020-01-30T08:53:46Z</time>
      </trkpt>
      <trkpt lat="59.213973" lon="18.146279">
        <ele>28</ele>
        <time>2020-01-30T08:53:47Z</time>
      </trkpt>
      <trkpt lat="59.213942" lon="18.146315">
        <ele>28</ele>
        <time>2020-01-30T08:53:48Z</time>
      </trkpt>
      <trkpt lat="59.213911" lon="18.146352">
        <ele>28</ele>
        <time>2020-01-30T08:53:49Z</time>
      </trkpt>
      <trkpt lat="59.213879" lon="18.146389">
        <ele>28</ele>
        <time>2020-01-30T08:53:50Z</time>
      </trkpt>
      <trkpt lat="59.213848" lon="18.146428">
        <ele>28</ele>
        <time>2020-01-30T08:53:51Z</time>
      </trkpt>
      <trkpt lat="59.213818" lon="18.146469">
        <ele>28</ele>
        <time>2020-01-30T08:53:52Z</time>
      </trkpt>
      <trkpt lat="59.213787" lon="18.146504">
        <ele>28</ele>
        <time>2020-01-30T08:53:53Z</time>
      </trkpt>
      <trkpt lat="59.213755" lon="18.146535">
        <ele>28</ele>
        <time>2020-01-30T08:53:54Z</time>
      </trkpt>
      <trkpt lat="59.213721" lon="18.146566">
        <ele>28</ele>
        <time>2020-01-30T08:53:55Z</time>
      </trkpt>
      <trkpt lat="59.213686" lon="18.1466">
        <ele>29</ele>
        <time>2020-01-30T08:53:56Z</time>
      </trkpt>
      <trkpt lat="59.213653" lon="18.146636">
        <ele>29</ele>
        <time>2020-01-30T08:53:57Z</time>
      </trkpt>
      <trkpt lat="59.213619" lon="18.14667">
        <ele>29</ele>
        <time>2020-01-30T08:53:58Z</time>
      </trkpt>
      <trkpt lat="59.213585" lon="18.146702">
        <ele>29</ele>
        <time>2020-01-30T08:53:59Z</time>
      </trkpt>
      <trkpt lat="59.213552" lon="18.146733">
        <ele>29</ele>
        <time>2020-01-30T08:54:00Z</time>
      </trkpt>
      <trkpt lat="59.213516" lon="18.14676">
        <ele>30</ele>
        <time>2020-01-30T08:54:01Z</time>
      </trkpt>
      <trkpt lat="59.21348" lon="18.146787">
        <ele>30</ele>
        <time>2020-01-30T08:54:02Z</time>
      </trkpt>
      <trkpt lat="59.213443" lon="18.146812">
        <ele>30</ele>
        <time>2020-01-30T08:54:03Z</time>
      </trkpt>
      <trkpt lat="59.213406" lon="18.146836">
        <ele>30</ele>
        <time>2020-01-30T08:54:04Z</time>
      </trkpt>
      <trkpt lat="59.213369" lon="18.14686">
        <ele>30</ele>
        <time>2020-01-30T08:54:05Z</time>
      </trkpt>
      <trkpt lat="59.213333" lon="18.146884">
        <ele>30</ele>
        <time>2020-01-30T08:54:06Z</time>
      </trkpt>
      <trkpt lat="59.213297" lon="18.146905">
        <ele>31</ele>
        <time>2020-01-30T08:54:07Z</time>
      </trkpt>
      <trkpt lat="59.21326" lon="18.146924">
        <ele>31</ele>
        <time>2020-01-30T08:54:08Z</time>
      </trkpt>
      <trkpt lat="59.213224" lon="18.146942">
        <ele>31</ele>
        <time>2020-01-30T08:54:09Z</time>
      </trkpt>
      <trkpt lat="59.213189" lon="18.146961">
        <ele>31</ele>
        <time>2020-01-30T08:54:10Z</time>
      </trkpt>
      <trkpt lat="59.213156" lon="18.146979">
        <ele>31</ele>
        <time>2020-01-30T08:54:11Z</time>
      </trkpt>
      <trkpt lat="59.213124" lon="18.146994">
        <ele>31</ele>
        <time>2020-01-30T08:54:12Z</time>
      </trkpt>
      <trkpt lat="59.213091" lon="18.147007">
        <ele>31</ele>
        <time>2020-01-30T08:54:13Z</time>
      </trkpt>
      <trkpt lat="59.213058" lon="18.147019">
        <ele>31</ele>
        <time>2020-01-30T08:54:14Z</time>
      </trkpt>
      <trkpt lat="59.213027" lon="18.147033">
        <ele>31</ele>
        <time>2020-01-30T08:54:15Z</time>
      </trkpt>
      <trkpt lat="59.212997" lon="18.147045">
        <ele>31</ele>
        <time>2020-01-30T08:54:16Z</time>
      </trkpt>
      <trkpt lat="59.212968" lon="18.147057">
        <ele>31</ele>
        <time>2020-01-30T08:54:17Z</time>
      </trkpt>
      <trkpt lat="59.212938" lon="18.147068">
        <ele>32</ele>
        <time>2020-01-30T08:54:18Z</time>
      </trkpt>
      <trkpt lat="59.212909" lon="18.147078">
        <ele>32</ele>
        <time>2020-01-30T08:54:19Z</time>
      </trkpt>
      <trkpt lat="59.21288" lon="18.147088">
        <ele>32</ele>
        <time>2020-01-30T08:54:20Z</time>
      </trkpt>
      <trkpt lat="59.212852" lon="18.147095">
        <ele>32</ele>
        <time>2020-01-30T08:54:21Z</time>
      </trkpt>
      <trkpt lat="59.212824" lon="18.147101">
        <ele>32</ele>
        <time>2020-01-30T08:54:22Z</time>
      </trkpt>
      <trkpt lat="59.212796" lon="18.147107">
        <ele>32</ele>
        <time>2020-01-30T08:54:23Z</time>
      </trkpt>
      <trkpt lat="59.212769" lon="18.147115">
        <ele>32</ele>
        <time>2020-01-30T08:54:24Z</time>
      </trkpt>
      <trkpt lat="59.212742" lon="18.147125">
        <ele>32</ele>
        <time>2020-01-30T08:54:25Z</time>
      </trkpt>
      <trkpt lat="59.212716" lon="18.147134">
        <ele>32</ele>
        <time>2020-01-30T08:54:26Z</time>
      </trkpt>
      <trkpt lat="59.21269" lon="18.14714">
        <ele>32</ele>
        <time>2020-01-30T08:54:27Z</time>
      </trkpt>
      <trkpt lat="59.212665" lon="18.147144">
        <ele>32</ele>
        <time>2020-01-30T08:54:28Z</time>
      </trkpt>
      <trkpt lat="59.212639" lon="18.147147">
        <ele>32</ele>
        <time>2020-01-30T08:54:29Z</time>
      </trkpt>
      <trkpt lat="59.212613" lon="18.147151">
        <ele>33</ele>
        <time>2020-01-30T08:54:30Z</time>
      </trkpt>
      <trkpt lat="59.212588" lon="18.147157">
        <ele>33</ele>
        <time>2020-01-30T08:54:31Z</time>
      </trkpt>
      <trkpt lat="59.212562" lon="18.147162">
        <ele>33</ele>
        <time>2020-01-30T08:54:32Z</time>
      </trkpt>
      <trkpt lat="59.212537" lon="18.147166">
        <ele>33</ele>
        <time>2020-01-30T08:54:33Z</time>
      </trkpt>
      <trkpt lat="59.212511" lon="18.147173">
        <ele>33</ele>
        <time>2020-01-30T08:54:34Z</time>
      </trkpt>
      <trkpt lat="59.212486" lon="18.14718">
        <ele>33</ele>
        <time>2020-01-30T08:54:35Z</time>
      </trkpt>
      <trkpt lat="59.212461" lon="18.147184">
        <ele>33</ele>
        <time>2020-01-30T08:54:36Z</time>
      </trkpt>
      <trkpt lat="59.212436" lon="18.147187">
        <ele>33</ele>
        <time>2020-01-30T08:54:37Z</time>
      </trkpt>
      <trkpt lat="59.212411" lon="18.14719">
        <ele>34</ele>
        <time>2020-01-30T08:54:38Z</time>
      </trkpt>
      <trkpt lat="59.212386" lon="18.147192">
        <ele>34</ele>
        <time>2020-01-30T08:54:39Z</time>
      </trkpt>
      <trkpt lat="59.212361" lon="18.147194">
        <ele>34</ele>
        <time>2020-01-30T08:54:40Z</time>
      </trkpt>
      <trkpt lat="59.212336" lon="18.147195">
        <ele>34</ele>
        <time>2020-01-30T08:54:41Z</time>
      </trkpt>
      <trkpt lat="59.212311" lon="18.147199">
        <ele>34</ele>
        <time>2020-01-30T08:54:42Z</time>
      </trkpt>
      <trkpt lat="59.212286" lon="18.147202">
        <ele>34</ele>
        <time>2020-01-30T08:54:43Z</time>
      </trkpt>
      <trkpt lat="59.212261" lon="18.147203">
        <ele>34</ele>
        <time>2020-01-30T08:54:44Z</time>
      </trkpt>
      <trkpt lat="59.212237" lon="18.147201">
        <ele>35</ele>
        <time>2020-01-30T08:54:45Z</time>
      </trkpt>
      <trkpt lat="59.212212" lon="18.147199">
        <ele>35</ele>
        <time>2020-01-30T08:54:46Z</time>
      </trkpt>
      <trkpt lat="59.212188" lon="18.1472">
        <ele>35</ele>
        <time>2020-01-30T08:54:47Z</time>
      </trkpt>
      <trkpt lat="59.212163" lon="18.147203">
        <ele>35</ele>
        <time>2020-01-30T08:54:48Z</time>
      </trkpt>
      <trkpt lat="59.212139" lon="18.147204">
        <ele>35</ele>
        <time>2020-01-30T08:54:49Z</time>
      </trkpt>
      <trkpt lat="59.212115" lon="18.147204">
        <ele>36</ele>
        <time>2020-01-30T08:54:50Z</time>
      </trkpt>
      <trkpt lat="59.212091" lon="18.147202">
        <ele>36</ele>
        <time>2020-01-30T08:54:51Z</time>
      </trkpt>
      <trkpt lat="59.212067" lon="18.147199">
        <ele>36</ele>
        <time>2020-01-30T08:54:52Z</time>
      </trkpt>
      <trkpt lat="59.212043" lon="18.147197">
        <ele>36</ele>
        <time>2020-01-30T08:54:53Z</time>
      </trkpt>
      <trkpt lat="59.212018" lon="18.147197">
        <ele>36</ele>
        <time>2020-01-30T08:54:54Z</time>
      </trkpt>
      <trkpt lat="59.211994" lon="18.147192">
        <ele>37</ele>
        <time>2020-01-30T08:54:55Z</time>
      </trkpt>
      <trkpt lat="59.211969" lon="18.147189">
        <ele>37</ele>
        <time>2020-01-30T08:54:56Z</time>
      </trkpt>
      <trkpt lat="59.211944" lon="18.147186">
        <ele>37</ele>
        <time>2020-01-30T08:54:57Z</time>
      </trkpt>
      <trkpt lat="59.211919" lon="18.147189">
        <ele>37</ele>
        <time>2020-01-30T08:54:58Z</time>
      </trkpt>
      <trkpt lat="59.211893" lon="18.147194">
        <ele>37</ele>
        <time>2020-01-30T08:54:59Z</time>
      </trkpt>
      <trkpt lat="59.211866" lon="18.1472">
        <ele>37</ele>
        <time>2020-01-30T08:55:00Z</time>
      </trkpt>
      <trkpt lat="59.211838" lon="18.147205">
        <ele>37</ele>
        <time>2020-01-30T08:55:01Z</time>
      </trkpt>
      <trkpt lat="59.211813" lon="18.147198">
        <ele>38</ele>
        <time>2020-01-30T08:55:02Z</time>
      </trkpt>
      <trkpt lat="59.211788" lon="18.14719">
        <ele>38</ele>
        <time>2020-01-30T08:55:03Z</time>
      </trkpt>
      <trkpt lat="59.211766" lon="18.147182">
        <ele>38</ele>
        <time>2020-01-30T08:55:04Z</time>
      </trkpt>
      <trkpt lat="59.211745" lon="18.147172">
        <ele>38</ele>
        <time>2020-01-30T08:55:05Z</time>
      </trkpt>
      <trkpt lat="59.211727" lon="18.147166">
        <ele>38</ele>
        <time>2020-01-30T08:55:06Z</time>
      </trkpt>
      <trkpt lat="59.211703" lon="18.147164">
        <ele>38</ele>
        <time>2020-01-30T08:55:07Z</time>
      </trkpt>
      <trkpt lat="59.211678" lon="18.14716">
        <ele>38</ele>
        <time>2020-01-30T08:55:08Z</time>
      </trkpt>
      <trkpt lat="59.211651" lon="18.147148">
        <ele>38</ele>
        <time>2020-01-30T08:55:09Z</time>
      </trkpt>
      <trkpt lat="59.211626" lon="18.147135">
        <ele>38</ele>
        <time>2020-01-30T08:55:10Z</time>
      </trkpt>
      <trkpt lat="59.211602" lon="18.147128">
        <ele>38</ele>
        <time>2020-01-30T08:55:11Z</time>
      </trkpt>
      <trkpt lat="59.211581" lon="18.14712">
        <ele>38</ele>
        <time>2020-01-30T08:55:12Z</time>
      </trkpt>
      <trkpt lat="59.211555" lon="18.147108">
        <ele>38</ele>
        <time>2020-01-30T08:55:13Z</time>
      </trkpt>
      <trkpt lat="59.211527" lon="18.147104">
        <ele>38</ele>
        <time>2020-01-30T08:55:14Z</time>
      </trkpt>
      <trkpt lat="59.211501" lon="18.14709">
        <ele>39</ele>
        <time>2020-01-30T08:55:15Z</time>
      </trkpt>
      <trkpt lat="59.211477" lon="18.147073">
        <ele>39</ele>
        <time>2020-01-30T08:55:16Z</time>
      </trkpt>
      <trkpt lat="59.211451" lon="18.147064">
        <ele>39</ele>
        <time>2020-01-30T08:55:17Z</time>
      </trkpt>
      <trkpt lat="59.211426" lon="18.147056">
        <ele>39</ele>
        <time>2020-01-30T08:55:18Z</time>
      </trkpt>
      <trkpt lat="59.211402" lon="18.147042">
        <ele>39</ele>
        <time>2020-01-30T08:55:19Z</time>
      </trkpt>
      <trkpt lat="59.211375" lon="18.147028">
        <ele>40</ele>
        <time>2020-01-30T08:55:20Z</time>
      </trkpt>
      <trkpt lat="59.21135" lon="18.147015">
        <ele>40</ele>
        <time>2020-01-30T08:55:21Z</time>
      </trkpt>
      <trkpt lat="59.211325" lon="18.147">
        <ele>40</ele>
        <time>2020-01-30T08:55:22Z</time>
      </trkpt>
      <trkpt lat="59.211302" lon="18.146984">
        <ele>40</ele>
        <time>2020-01-30T08:55:23Z</time>
      </trkpt>
      <trkpt lat="59.211279" lon="18.146968">
        <ele>40</ele>
        <time>2020-01-30T08:55:24Z</time>
      </trkpt>
      <trkpt lat="59.211255" lon="18.146954">
        <ele>40</ele>
        <time>2020-01-30T08:55:25Z</time>
      </trkpt>
      <trkpt lat="59.211232" lon="18.146938">
        <ele>40</ele>
        <time>2020-01-30T08:55:26Z</time>
      </trkpt>
      <trkpt lat="59.211212" lon="18.146924">
        <ele>40</ele>
        <time>2020-01-30T08:55:27Z</time>
      </trkpt>
      <trkpt lat="59.211187" lon="18.146912">
        <ele>41</ele>
        <time>2020-01-30T08:55:28Z</time>
      </trkpt>
      <trkpt lat="59.211162" lon="18.146897">
        <ele>41</ele>
        <time>2020-01-30T08:55:29Z</time>
      </trkpt>
      <trkpt lat="59.211144" lon="18.146878">
        <ele>41</ele>
        <time>2020-01-30T08:55:30Z</time>
      </trkpt>
      <trkpt lat="59.211123" lon="18.146858">
        <ele>41</ele>
        <time>2020-01-30T08:55:31Z</time>
      </trkpt>
      <trkpt lat="59.211102" lon="18.146836">
        <ele>41</ele>
        <time>2020-01-30T08:55:32Z</time>
      </trkpt>
      <trkpt lat="59.21108" lon="18.146814">
        <ele>41</ele>
        <time>2020-01-30T08:55:33Z</time>
      </trkpt>
      <trkpt lat="59.21106" lon="18.14679">
        <ele>41</ele>
        <time>2020-01-30T08:55:34Z</time>
      </trkpt>
      <trkpt lat="59.211038" lon="18.146767">
        <ele>41</ele>
        <time>2020-01-30T08:55:35Z</time>
      </trkpt>
      <trkpt lat="59.211015" lon="18.146748">
        <ele>41</ele>
        <time>2020-01-30T08:55:36Z</time>
      </trkpt>
      <trkpt lat="59.21099" lon="18.14673">
        <ele>42</ele>
        <time>2020-01-30T08:55:37Z</time>
      </trkpt>
      <trkpt lat="59.210971" lon="18.146707">
        <ele>42</ele>
        <time>2020-01-30T08:55:38Z</time>
      </trkpt>
      <trkpt lat="59.210951" lon="18.146684">
        <ele>42</ele>
        <time>2020-01-30T08:55:39Z</time>
      </trkpt>
      <trkpt lat="59.210929" lon="18.146664">
        <ele>42</ele>
        <time>2020-01-30T08:55:40Z</time>
      </trkpt>
      <trkpt lat="59.210907" lon="18.146646">
        <ele>42</ele>
        <time>2020-01-30T08:55:41Z</time>
      </trkpt>
      <trkpt lat="59.210884" lon="18.146628">
        <ele>42</ele>
        <time>2020-01-30T08:55:42Z</time>
      </trkpt>
      <trkpt lat="59.210861" lon="18.146612">
        <ele>42</ele>
        <time>2020-01-30T08:55:43Z</time>
      </trkpt>
      <trkpt lat="59.210837" lon="18.146586">
        <ele>42</ele>
        <time>2020-01-30T08:55:44Z</time>
      </trkpt>
      <trkpt lat="59.210811" lon="18.146565">
        <ele>42</ele>
        <time>2020-01-30T08:55:45Z</time>
      </trkpt>
      <trkpt lat="59.210788" lon="18.146548">
        <ele>43</ele>
        <time>2020-01-30T08:55:46Z</time>
      </trkpt>
      <trkpt lat="59.210767" lon="18.14653">
        <ele>43</ele>
        <time>2020-01-30T08:55:47Z</time>
      </trkpt>
      <trkpt lat="59.210745" lon="18.146513">
        <ele>43</ele>
        <time>2020-01-30T08:55:48Z</time>
      </trkpt>
      <trkpt lat="59.21072" lon="18.146489">
        <ele>43</ele>
        <time>2020-01-30T08:55:49Z</time>
      </trkpt>
      <trkpt lat="59.210694" lon="18.146454">
        <ele>43</ele>
        <time>2020-01-30T08:55:50Z</time>
      </trkpt>
      <trkpt lat="59.210671" lon="18.146422">
        <ele>44</ele>
        <time>2020-01-30T08:55:51Z</time>
      </trkpt>
      <trkpt lat="59.210647" lon="18.146394">
        <ele>44</ele>
        <time>2020-01-30T08:55:52Z</time>
      </trkpt>
      <trkpt lat="59.210618" lon="18.14636">
        <ele>44</ele>
        <time>2020-01-30T08:55:53Z</time>
      </trkpt>
      <trkpt lat="59.210591" lon="18.146326">
        <ele>44</ele>
        <time>2020-01-30T08:55:54Z</time>
      </trkpt>
      <trkpt lat="59.210569" lon="18.146294">
        <ele>44</ele>
        <time>2020-01-30T08:55:55Z</time>
      </trkpt>
      <trkpt lat="59.210547" lon="18.146262">
        <ele>44</ele>
        <time>2020-01-30T08:55:56Z</time>
      </trkpt>
      <trkpt lat="59.210522" lon="18.146233">
        <ele>45</ele>
        <time>2020-01-30T08:55:57Z</time>
      </trkpt>
      <trkpt lat="59.210496" lon="18.146204">
        <ele>45</ele>
        <time>2020-01-30T08:55:58Z</time>
      </trkpt>
      <trkpt lat="59.210472" lon="18.14618">
        <ele>45</ele>
        <time>2020-01-30T08:55:59Z</time>
      </trkpt>
      <trkpt lat="59.210448" lon="18.146156">
        <ele>45</ele>
        <time>2020-01-30T08:56:00Z</time>
      </trkpt>
      <trkpt lat="59.210425" lon="18.146128">
        <ele>45</ele>
        <time>2020-01-30T08:56:01Z</time>
      </trkpt>
      <trkpt lat="59.210403" lon="18.146097">
        <ele>46</ele>
        <time>2020-01-30T08:56:02Z</time>
      </trkpt>
      <trkpt lat="59.210378" lon="18.146069">
        <ele>46</ele>
        <time>2020-01-30T08:56:03Z</time>
      </trkpt>
      <trkpt lat="59.21035" lon="18.146038">
        <ele>46</ele>
        <time>2020-01-30T08:56:04Z</time>
      </trkpt>
      <trkpt lat="59.210325" lon="18.146012">
        <ele>46</ele>
        <time>2020-01-30T08:56:05Z</time>
      </trkpt>
      <trkpt lat="59.210301" lon="18.145988">
        <ele>46</ele>
        <time>2020-01-30T08:56:06Z</time>
      </trkpt>
      <trkpt lat="59.210274" lon="18.145967">
        <ele>46</ele>
        <time>2020-01-30T08:56:07Z</time>
      </trkpt>
      <trkpt lat="59.210246" lon="18.145948">
        <ele>46</ele>
        <time>2020-01-30T08:56:08Z</time>
      </trkpt>
      <trkpt lat="59.210217" lon="18.145932">
        <ele>46</ele>
        <time>2020-01-30T08:56:09Z</time>
      </trkpt>
      <trkpt lat="59.21019" lon="18.145913">
        <ele>47</ele>
        <time>2020-01-30T08:56:10Z</time>
      </trkpt>
      <trkpt lat="59.210164" lon="18.14589">
        <ele>47</ele>
        <time>2020-01-30T08:56:11Z</time>
      </trkpt>
      <trkpt lat="59.210141" lon="18.145861">
        <ele>47</ele>
        <time>2020-01-30T08:56:12Z</time>
      </trkpt>
      <trkpt lat="59.210117" lon="18.14583">
        <ele>47</ele>
        <time>2020-01-30T08:56:13Z</time>
      </trkpt>
      <trkpt lat="59.210096" lon="18.145793">
        <ele>47</ele>
        <time>2020-01-30T08:56:14Z</time>
      </trkpt>
      <trkpt lat="59.210071" lon="18.145751">
        <ele>47</ele>
        <time>2020-01-30T08:56:15Z</time>
      </trkpt>
      <trkpt lat="59.210048" lon="18.14571">
        <ele>47</ele>
        <time>2020-01-30T08:56:16Z</time>
      </trkpt>
      <trkpt lat="59.210026" lon="18.145664">
        <ele>47</ele>
        <time>2020-01-30T08:56:17Z</time>
      </trkpt>
      <trkpt lat="59.210008" lon="18.145613">
        <ele>47</ele>
        <time>2020-01-30T08:56:18Z</time>
      </trkpt>
      <trkpt lat="59.20999" lon="18.145562">
        <ele>48</ele>
        <time>2020-01-30T08:56:19Z</time>
      </trkpt>
      <trkpt lat="59.209971" lon="18.145512">
        <ele>48</ele>
        <time>2020-01-30T08:56:20Z</time>
      </trkpt>
      <trkpt lat="59.209951" lon="18.145459">
        <ele>48</ele>
        <time>2020-01-30T08:56:21Z</time>
      </trkpt>
      <trkpt lat="59.209933" lon="18.145404">
        <ele>48</ele>
        <time>2020-01-30T08:56:22Z</time>
      </trkpt>
      <trkpt lat="59.209913" lon="18.14535">
        <ele>48</ele>
        <time>2020-01-30T08:56:23Z</time>
      </trkpt>
      <trkpt lat="59.209891" lon="18.145299">
        <ele>48</ele>
        <time>2020-01-30T08:56:24Z</time>
      </trkpt>
      <trkpt lat="59.209868" lon="18.145249">
        <ele>48</ele>
        <time>2020-01-30T08:56:25Z</time>
      </trkpt>
      <trkpt lat="59.209843" lon="18.1452">
        <ele>48</ele>
        <time>2020-01-30T08:56:26Z</time>
      </trkpt>
      <trkpt lat="59.209818" lon="18.145146">
        <ele>48</ele>
        <time>2020-01-30T08:56:27Z</time>
      </trkpt>
      <trkpt lat="59.209792" lon="18.145093">
        <ele>49</ele>
        <time>2020-01-30T08:56:28Z</time>
      </trkpt>
      <trkpt lat="59.209762" lon="18.145047">
        <ele>49</ele>
        <time>2020-01-30T08:56:29Z</time>
      </trkpt>
      <trkpt lat="59.209729" lon="18.145005">
        <ele>49</ele>
        <time>2020-01-30T08:56:30Z</time>
      </trkpt>
      <trkpt lat="59.209697" lon="18.144967">
        <ele>49</ele>
        <time>2020-01-30T08:56:31Z</time>
      </trkpt>
      <trkpt lat="59.209664" lon="18.144938">
        <ele>49</ele>
        <time>2020-01-30T08:56:32Z</time>
      </trkpt>
      <trkpt lat="59.209629" lon="18.144916">
        <ele>49</ele>
        <time>2020-01-30T08:56:33Z</time>
      </trkpt>
      <trkpt lat="59.209594" lon="18.14489">
        <ele>49</ele>
        <time>2020-01-30T08:56:34Z</time>
      </trkpt>
      <trkpt lat="59.209563" lon="18.144845">
        <ele>49</ele>
        <time>2020-01-30T08:56:35Z</time>
      </trkpt>
      <trkpt lat="59.209536" lon="18.144796">
        <ele>49</ele>
        <time>2020-01-30T08:56:36Z</time>
      </trkpt>
      <trkpt lat="59.209512" lon="18.144742">
        <ele>49</ele>
        <time>2020-01-30T08:56:37Z</time>
      </trkpt>
      <trkpt lat="59.209495" lon="18.144678">
        <ele>49</ele>
        <time>2020-01-30T08:56:38Z</time>
      </trkpt>
      <trkpt lat="59.209487" lon="18.144614">
        <ele>49</ele>
        <time>2020-01-30T08:56:39Z</time>
      </trkpt>
      <trkpt lat="59.209483" lon="18.144552">
        <ele>49</ele>
        <time>2020-01-30T08:56:40Z</time>
      </trkpt>
      <trkpt lat="59.209478" lon="18.144487">
        <ele>49</ele>
        <time>2020-01-30T08:56:41Z</time>
      </trkpt>
      <trkpt lat="59.209468" lon="18.144421">
        <ele>49</ele>
        <time>2020-01-30T08:56:42Z</time>
      </trkpt>
      <trkpt lat="59.209454" lon="18.144352">
        <ele>50</ele>
        <time>2020-01-30T08:56:43Z</time>
      </trkpt>
      <trkpt lat="59.209439" lon="18.144283">
        <ele>50</ele>
        <time>2020-01-30T08:56:44Z</time>
      </trkpt>
      <trkpt lat="59.209421" lon="18.144215">
        <ele>50</ele>
        <time>2020-01-30T08:56:45Z</time>
      </trkpt>
      <trkpt lat="59.209401" lon="18.14415">
        <ele>50</ele>
        <time>2020-01-30T08:56:46Z</time>
      </trkpt>
      <trkpt lat="59.209379" lon="18.144086">
        <ele>50</ele>
        <time>2020-01-30T08:56:47Z</time>
      </trkpt>
      <trkpt lat="59.209359" lon="18.144023">
        <ele>50</ele>
        <time>2020-01-30T08:56:48Z</time>
      </trkpt>
      <trkpt lat="59.209337" lon="18.143961">
        <ele>50</ele>
        <time>2020-01-30T08:56:49Z</time>
      </trkpt>
      <trkpt lat="59.209315" lon="18.143902">
        <ele>50</ele>
        <time>2020-01-30T08:56:50Z</time>
      </trkpt>
      <trkpt lat="59.209292" lon="18.143843">
        <ele>50</ele>
        <time>2020-01-30T08:56:51Z</time>
      </trkpt>
      <trkpt lat="59.209267" lon="18.143783">
        <ele>50</ele>
        <time>2020-01-30T08:56:52Z</time>
      </trkpt>
      <trkpt lat="59.209243" lon="18.143722">
        <ele>50</ele>
        <time>2020-01-30T08:56:53Z</time>
      </trkpt>
      <trkpt lat="59.209218" lon="18.14366">
        <ele>50</ele>
        <time>2020-01-30T08:56:54Z</time>
      </trkpt>
      <trkpt lat="59.209193" lon="18.143597">
        <ele>50</ele>
        <time>2020-01-30T08:56:55Z</time>
      </trkpt>
      <trkpt lat="59.209168" lon="18.143537">
        <ele>51</ele>
        <time>2020-01-30T08:56:56Z</time>
      </trkpt>
      <trkpt lat="59.209143" lon="18.143478">
        <ele>51</ele>
        <time>2020-01-30T08:56:57Z</time>
      </trkpt>
      <trkpt lat="59.209118" lon="18.14342">
        <ele>51</ele>
        <time>2020-01-30T08:56:58Z</time>
      </trkpt>
      <trkpt lat="59.209094" lon="18.14336">
        <ele>51</ele>
        <time>2020-01-30T08:56:59Z</time>
      </trkpt>
      <trkpt lat="59.20907" lon="18.143299">
        <ele>51</ele>
        <time>2020-01-30T08:57:00Z</time>
      </trkpt>
      <trkpt lat="59.209046" lon="18.143238">
        <ele>51</ele>
        <time>2020-01-30T08:57:01Z</time>
      </trkpt>
      <trkpt lat="59.20902" lon="18.143176">
        <ele>51</ele>
        <time>2020-01-30T08:57:02Z</time>
      </trkpt>
      <trkpt lat="59.208993" lon="18.143114">
        <ele>51</ele>
        <time>2020-01-30T08:57:03Z</time>
      </trkpt>
      <trkpt lat="59.208967" lon="18.143052">
        <ele>51</ele>
        <time>2020-01-30T08:57:04Z</time>
      </trkpt>
      <trkpt lat="59.208942" lon="18.142986">
        <ele>51</ele>
        <time>2020-01-30T08:57:05Z</time>
      </trkpt>
      <trkpt lat="59.208918" lon="18.14292">
        <ele>51</ele>
        <time>2020-01-30T08:57:06Z</time>
      </trkpt>
      <trkpt lat="59.208889" lon="18.142856">
        <ele>51</ele>
        <time>2020-01-30T08:57:07Z</time>
      </trkpt>
      <trkpt lat="59.20886" lon="18.142792">
        <ele>51</ele>
        <time>2020-01-30T08:57:08Z</time>
      </trkpt>
      <trkpt lat="59.208831" lon="18.142728">
        <ele>51</ele>
        <time>2020-01-30T08:57:09Z</time>
      </trkpt>
      <trkpt lat="59.208804" lon="18.142663">
        <ele>51</ele>
        <time>2020-01-30T08:57:10Z</time>
      </trkpt>
      <trkpt lat="59.208777" lon="18.142598">
        <ele>51</ele>
        <time>2020-01-30T08:57:11Z</time>
      </trkpt>
      <trkpt lat="59.208749" lon="18.142534">
        <ele>51</ele>
        <time>2020-01-30T08:57:12Z</time>
      </trkpt>
      <trkpt lat="59.208722" lon="18.142468">
        <ele>51</ele>
        <time>2020-01-30T08:57:13Z</time>
      </trkpt>
      <trkpt lat="59.208696" lon="18.1424">
        <ele>51</ele>
        <time>2020-01-30T08:57:14Z</time>
      </trkpt>
      <trkpt lat="59.208669" lon="18.142332">
        <ele>51</ele>
        <time>2020-01-30T08:57:15Z</time>
      </trkpt>
      <trkpt lat="59.208645" lon="18.142266">
        <ele>51</ele>
        <time>2020-01-30T08:57:16Z</time>
      </trkpt>
      <trkpt lat="59.208616" lon="18.1422">
        <ele>51</ele>
        <time>2020-01-30T08:57:17Z</time>
      </trkpt>
      <trkpt lat="59.208587" lon="18.142138">
        <ele>51</ele>
        <time>2020-01-30T08:57:18Z</time>
      </trkpt>
      <trkpt lat="59.20856" lon="18.142074">
        <ele>51</ele>
        <time>2020-01-30T08:57:19Z</time>
      </trkpt>
      <trkpt lat="59.208534" lon="18.142008">
        <ele>51</ele>
        <time>2020-01-30T08:57:20Z</time>
      </trkpt>
      <trkpt lat="59.208512" lon="18.14194">
        <ele>51</ele>
        <time>2020-01-30T08:57:21Z</time>
      </trkpt>
      <trkpt lat="59.208484" lon="18.141872">
        <ele>52</ele>
        <time>2020-01-30T08:57:22Z</time>
      </trkpt>
      <trkpt lat="59.208451" lon="18.141802">
        <ele>52</ele>
        <time>2020-01-30T08:57:23Z</time>
      </trkpt>
      <trkpt lat="59.208418" lon="18.141732">
        <ele>52</ele>
        <time>2020-01-30T08:57:24Z</time>
      </trkpt>
      <trkpt lat="59.20838" lon="18.14166">
        <ele>52</ele>
        <time>2020-01-30T08:57:25Z</time>
      </trkpt>
      <trkpt lat="59.208344" lon="18.141592">
        <ele>52</ele>
        <time>2020-01-30T08:57:26Z</time>
      </trkpt>
      <trkpt lat="59.208308" lon="18.141526">
        <ele>52</ele>
        <time>2020-01-30T08:57:27Z</time>
      </trkpt>
      <trkpt lat="59.208263" lon="18.141458">
        <ele>52</ele>
        <time>2020-01-30T08:57:28Z</time>
      </trkpt>
      <trkpt lat="59.208215" lon="18.141394">
        <ele>52</ele>
        <time>2020-01-30T08:57:29Z</time>
      </trkpt>
      <trkpt lat="59.208168" lon="18.141328">
        <ele>52</ele>
        <time>2020-01-30T08:57:30Z</time>
      </trkpt>
      <trkpt lat="59.208121" lon="18.141258">
        <ele>52</ele>
        <time>2020-01-30T08:57:31Z</time>
      </trkpt>
      <trkpt lat="59.208065" lon="18.141184">
        <ele>51</ele>
        <time>2020-01-30T08:57:32Z</time>
      </trkpt>
      <trkpt lat="59.208011" lon="18.14111">
        <ele>51</ele>
        <time>2020-01-30T08:57:33Z</time>
      </trkpt>
      <trkpt lat="59.207952" lon="18.141044">
        <ele>51</ele>
        <time>2020-01-30T08:57:34Z</time>
      </trkpt>
      <trkpt lat="59.207891" lon="18.140986">
        <ele>51</ele>
        <time>2020-01-30T08:57:35Z</time>
      </trkpt>
      <trkpt lat="59.207831" lon="18.140929">
        <ele>51</ele>
        <time>2020-01-30T08:57:36Z</time>
      </trkpt>
      <trkpt lat="59.207774" lon="18.140876">
        <ele>51</ele>
        <time>2020-01-30T08:57:37Z</time>
      </trkpt>
      <trkpt lat="59.207712" lon="18.140818">
        <ele>51</ele>
        <time>2020-01-30T08:57:38Z</time>
      </trkpt>
      <trkpt lat="59.207653" lon="18.14076">
        <ele>51</ele>
        <time>2020-01-30T08:57:39Z</time>
      </trkpt>
      <trkpt lat="59.207587" lon="18.140704">
        <ele>51</ele>
        <time>2020-01-30T08:57:40Z</time>
      </trkpt>
      <trkpt lat="59.207522" lon="18.140662">
        <ele>51</ele>
        <time>2020-01-30T08:57:41Z</time>
      </trkpt>
      <trkpt lat="59.20746" lon="18.140624">
        <ele>51</ele>
        <time>2020-01-30T08:57:42Z</time>
      </trkpt>
      <trkpt lat="59.207393" lon="18.140582">
        <ele>51</ele>
        <time>2020-01-30T08:57:43Z</time>
      </trkpt>
      <trkpt lat="59.207326" lon="18.140548">
        <ele>51</ele>
        <time>2020-01-30T08:57:44Z</time>
      </trkpt>
      <trkpt lat="59.207247" lon="18.140516">
        <ele>51</ele>
        <time>2020-01-30T08:57:45Z</time>
      </trkpt>
      <trkpt lat="59.207173" lon="18.140493">
        <ele>51</ele>
        <time>2020-01-30T08:57:46Z</time>
      </trkpt>
      <trkpt lat="59.207096" lon="18.14047">
        <ele>50</ele>
        <time>2020-01-30T08:57:47Z</time>
      </trkpt>
      <trkpt lat="59.207022" lon="18.140444">
        <ele>50</ele>
        <time>2020-01-30T08:57:48Z</time>
      </trkpt>
      <trkpt lat="59.206951" lon="18.14042">
        <ele>50</ele>
        <time>2020-01-30T08:57:49Z</time>
      </trkpt>
      <trkpt lat="59.206881" lon="18.140398">
        <ele>49</ele>
        <time>2020-01-30T08:57:50Z</time>
      </trkpt>
      <trkpt lat="59.206812" lon="18.140379">
        <ele>49</ele>
        <time>2020-01-30T08:57:51Z</time>
      </trkpt>
      <trkpt lat="59.206746" lon="18.140362">
        <ele>49</ele>
        <time>2020-01-30T08:57:52Z</time>
      </trkpt>
      <trkpt lat="59.206682" lon="18.140351">
        <ele>49</ele>
        <time>2020-01-30T08:57:53Z</time>
      </trkpt>
      <trkpt lat="59.206617" lon="18.140344">
        <ele>48</ele>
        <time>2020-01-30T08:57:54Z</time>
      </trkpt>
      <trkpt lat="59.206551" lon="18.140346">
        <ele>48</ele>
        <time>2020-01-30T08:57:55Z</time>
      </trkpt>
      <trkpt lat="59.206486" lon="18.140362">
        <ele>48</ele>
        <time>2020-01-30T08:57:56Z</time>
      </trkpt>
      <trkpt lat="59.206428" lon="18.140386">
        <ele>48</ele>
        <time>2020-01-30T08:57:57Z</time>
      </trkpt>
      <trkpt lat="59.206381" lon="18.140414">
        <ele>48</ele>
        <time>2020-01-30T08:57:58Z</time>
      </trkpt>
      <trkpt lat="59.206346" lon="18.140454">
        <ele>48</ele>
        <time>2020-01-30T08:57:59Z</time>
      </trkpt>
      <trkpt lat="59.206323" lon="18.140508">
        <ele>48</ele>
        <time>2020-01-30T08:58:00Z</time>
      </trkpt>
      <trkpt lat="59.206297" lon="18.140564">
        <ele>47</ele>
        <time>2020-01-30T08:58:01Z</time>
      </trkpt>
      <trkpt lat="59.206262" lon="18.140612">
        <ele>47</ele>
        <time>2020-01-30T08:58:02Z</time>
      </trkpt>
      <trkpt lat="59.206226" lon="18.140669">
        <ele>47</ele>
        <time>2020-01-30T08:58:03Z</time>
      </trkpt>
      <trkpt lat="59.206188" lon="18.140738">
        <ele>46</ele>
        <time>2020-01-30T08:58:04Z</time>
      </trkpt>
      <trkpt lat="59.206142" lon="18.140798">
        <ele>46</ele>
        <time>2020-01-30T08:58:05Z</time>
      </trkpt>
      <trkpt lat="59.206088" lon="18.140837">
        <ele>46</ele>
        <time>2020-01-30T08:58:06Z</time>
      </trkpt>
      <trkpt lat="59.206032" lon="18.140865">
        <ele>46</ele>
        <time>2020-01-30T08:58:07Z</time>
      </trkpt>
      <trkpt lat="59.205974" lon="18.14089">
        <ele>46</ele>
        <time>2020-01-30T08:58:08Z</time>
      </trkpt>
      <trkpt lat="59.205918" lon="18.140918">
        <ele>46</ele>
        <time>2020-01-30T08:58:09Z</time>
      </trkpt>
      <trkpt lat="59.205863" lon="18.140952">
        <ele>46</ele>
        <time>2020-01-30T08:58:10Z</time>
      </trkpt>
      <trkpt lat="59.205807" lon="18.140993">
        <ele>46</ele>
        <time>2020-01-30T08:58:11Z</time>
      </trkpt>
      <trkpt lat="59.205753" lon="18.141036">
        <ele>46</ele>
        <time>2020-01-30T08:58:12Z</time>
      </trkpt>
      <trkpt lat="59.205699" lon="18.141081">
        <ele>46</ele>
        <time>2020-01-30T08:58:13Z</time>
      </trkpt>
      <trkpt lat="59.205645" lon="18.141129">
        <ele>46</ele>
        <time>2020-01-30T08:58:14Z</time>
      </trkpt>
      <trkpt lat="59.205591" lon="18.141177">
        <ele>46</ele>
        <time>2020-01-30T08:58:15Z</time>
      </trkpt>
      <trkpt lat="59.205537" lon="18.141225">
        <ele>46</ele>
        <time>2020-01-30T08:58:16Z</time>
      </trkpt>
      <trkpt lat="59.205482" lon="18.141273">
        <ele>46</ele>
        <time>2020-01-30T08:58:17Z</time>
      </trkpt>
      <trkpt lat="59.205427" lon="18.141318">
        <ele>46</ele>
        <time>2020-01-30T08:58:18Z</time>
      </trkpt>
      <trkpt lat="59.205372" lon="18.141364">
        <ele>46</ele>
        <time>2020-01-30T08:58:19Z</time>
      </trkpt>
      <trkpt lat="59.205316" lon="18.141414">
        <ele>46</ele>
        <time>2020-01-30T08:58:20Z</time>
      </trkpt>
      <trkpt lat="59.205257" lon="18.141467">
        <ele>46</ele>
        <time>2020-01-30T08:58:21Z</time>
      </trkpt>
      <trkpt lat="59.205194" lon="18.14152">
        <ele>45</ele>
        <time>2020-01-30T08:58:22Z</time>
      </trkpt>
      <trkpt lat="59.20513" lon="18.141571">
        <ele>45</ele>
        <time>2020-01-30T08:58:23Z</time>
      </trkpt>
      <trkpt lat="59.205066" lon="18.141623">
        <ele>45</ele>
        <time>2020-01-30T08:58:24Z</time>
      </trkpt>
      <trkpt lat="59.205002" lon="18.141675">
        <ele>45</ele>
        <time>2020-01-30T08:58:25Z</time>
      </trkpt>
      <trkpt lat="59.204939" lon="18.141723">
        <ele>45</ele>
        <time>2020-01-30T08:58:26Z</time>
      </trkpt>
      <trkpt lat="59.204878" lon="18.141769">
        <ele>45</ele>
        <time>2020-01-30T08:58:27Z</time>
      </trkpt>
      <trkpt lat="59.204817" lon="18.141813">
        <ele>44</ele>
        <time>2020-01-30T08:58:28Z</time>
      </trkpt>
      <trkpt lat="59.204759" lon="18.141852">
        <ele>44</ele>
        <time>2020-01-30T08:58:29Z</time>
      </trkpt>
      <trkpt lat="59.204699" lon="18.141882">
        <ele>44</ele>
        <time>2020-01-30T08:58:30Z</time>
      </trkpt>
      <trkpt lat="59.204639" lon="18.141904">
        <ele>44</ele>
        <time>2020-01-30T08:58:31Z</time>
      </trkpt>
      <trkpt lat="59.204579" lon="18.141929">
        <ele>44</ele>
        <time>2020-01-30T08:58:32Z</time>
      </trkpt>
      <trkpt lat="59.204515" lon="18.141956">
        <ele>44</ele>
        <time>2020-01-30T08:58:33Z</time>
      </trkpt>
      <trkpt lat="59.20445" lon="18.141983">
        <ele>44</ele>
        <time>2020-01-30T08:58:34Z</time>
      </trkpt>
      <trkpt lat="59.204385" lon="18.14201">
        <ele>44</ele>
        <time>2020-01-30T08:58:35Z</time>
      </trkpt>
      <trkpt lat="59.204319" lon="18.142039">
        <ele>43</ele>
        <time>2020-01-30T08:58:36Z</time>
      </trkpt>
      <trkpt lat="59.204253" lon="18.142064">
        <ele>43</ele>
        <time>2020-01-30T08:58:37Z</time>
      </trkpt>
      <trkpt lat="59.204187" lon="18.142086">
        <ele>43</ele>
        <time>2020-01-30T08:58:38Z</time>
      </trkpt>
      <trkpt lat="59.204121" lon="18.142106">
        <ele>43</ele>
        <time>2020-01-30T08:58:39Z</time>
      </trkpt>
      <trkpt lat="59.204056" lon="18.142129">
        <ele>43</ele>
        <time>2020-01-30T08:58:40Z</time>
      </trkpt>
      <trkpt lat="59.203992" lon="18.142151">
        <ele>43</ele>
        <time>2020-01-30T08:58:41Z</time>
      </trkpt>
      <trkpt lat="59.203928" lon="18.142171">
        <ele>42</ele>
        <time>2020-01-30T08:58:42Z</time>
      </trkpt>
      <trkpt lat="59.203865" lon="18.142193">
        <ele>42</ele>
        <time>2020-01-30T08:58:43Z</time>
      </trkpt>
      <trkpt lat="59.203804" lon="18.142213">
        <ele>42</ele>
        <time>2020-01-30T08:58:44Z</time>
      </trkpt>
      <trkpt lat="59.203743" lon="18.142231">
        <ele>42</ele>
        <time>2020-01-30T08:58:45Z</time>
      </trkpt>
      <trkpt lat="59.203683" lon="18.142245">
        <ele>42</ele>
        <time>2020-01-30T08:58:46Z</time>
      </trkpt>
      <trkpt lat="59.203623" lon="18.142256">
        <ele>42</ele>
        <time>2020-01-30T08:58:47Z</time>
      </trkpt>
      <trkpt lat="59.203563" lon="18.142263">
        <ele>42</ele>
        <time>2020-01-30T08:58:48Z</time>
      </trkpt>
      <trkpt lat="59.203504" lon="18.142264">
        <ele>42</ele>
        <time>2020-01-30T08:58:49Z</time>
      </trkpt>
      <trkpt lat="59.203444" lon="18.142264">
        <ele>42</ele>
        <time>2020-01-30T08:58:50Z</time>
      </trkpt>
      <trkpt lat="59.203387" lon="18.142264">
        <ele>42</ele>
        <time>2020-01-30T08:58:51Z</time>
      </trkpt>
      <trkpt lat="59.203332" lon="18.142259">
        <ele>42</ele>
        <time>2020-01-30T08:58:52Z</time>
      </trkpt>
      <trkpt lat="59.203277" lon="18.142252">
        <ele>41</ele>
        <time>2020-01-30T08:58:53Z</time>
      </trkpt>
      <trkpt lat="59.203222" lon="18.142243">
        <ele>41</ele>
        <time>2020-01-30T08:58:54Z</time>
      </trkpt>
      <trkpt lat="59.203166" lon="18.142231">
        <ele>41</ele>
        <time>2020-01-30T08:58:55Z</time>
      </trkpt>
      <trkpt lat="59.203109" lon="18.14222">
        <ele>41</ele>
        <time>2020-01-30T08:58:56Z</time>
      </trkpt>
      <trkpt lat="59.203052" lon="18.14221">
        <ele>41</ele>
        <time>2020-01-30T08:58:57Z</time>
      </trkpt>
      <trkpt lat="59.202995" lon="18.142202">
        <ele>41</ele>
        <time>2020-01-30T08:58:58Z</time>
      </trkpt>
      <trkpt lat="59.202938" lon="18.142194">
        <ele>41</ele>
        <time>2020-01-30T08:58:59Z</time>
      </trkpt>
      <trkpt lat="59.202882" lon="18.142186">
        <ele>41</ele>
        <time>2020-01-30T08:59:00Z</time>
      </trkpt>
      <trkpt lat="59.202826" lon="18.142179">
        <ele>41</ele>
        <time>2020-01-30T08:59:01Z</time>
      </trkpt>
      <trkpt lat="59.20277" lon="18.142174">
        <ele>41</ele>
        <time>2020-01-30T08:59:02Z</time>
      </trkpt>
      <trkpt lat="59.202714" lon="18.142175">
        <ele>41</ele>
        <time>2020-01-30T08:59:03Z</time>
      </trkpt>
      <trkpt lat="59.202657" lon="18.142183">
        <ele>40</ele>
        <time>2020-01-30T08:59:04Z</time>
      </trkpt>
      <trkpt lat="59.2026" lon="18.142196">
        <ele>40</ele>
        <time>2020-01-30T08:59:05Z</time>
      </trkpt>
      <trkpt lat="59.202541" lon="18.14221">
        <ele>40</ele>
        <time>2020-01-30T08:59:06Z</time>
      </trkpt>
      <trkpt lat="59.20248" lon="18.142222">
        <ele>40</ele>
        <time>2020-01-30T08:59:07Z</time>
      </trkpt>
      <trkpt lat="59.202418" lon="18.142231">
        <ele>40</ele>
        <time>2020-01-30T08:59:08Z</time>
      </trkpt>
      <trkpt lat="59.202356" lon="18.14223">
        <ele>40</ele>
        <time>2020-01-30T08:59:09Z</time>
      </trkpt>
      <trkpt lat="59.202292" lon="18.14222">
        <ele>40</ele>
        <time>2020-01-30T08:59:10Z</time>
      </trkpt>
      <trkpt lat="59.202227" lon="18.142196">
        <ele>40</ele>
        <time>2020-01-30T08:59:11Z</time>
      </trkpt>
      <trkpt lat="59.202163" lon="18.142167">
        <ele>39</ele>
        <time>2020-01-30T08:59:12Z</time>
      </trkpt>
      <trkpt lat="59.202098" lon="18.142135">
        <ele>39</ele>
        <time>2020-01-30T08:59:13Z</time>
      </trkpt>
      <trkpt lat="59.202034" lon="18.142104">
        <ele>39</ele>
        <time>2020-01-30T08:59:14Z</time>
      </trkpt>
      <trkpt lat="59.201968" lon="18.142073">
        <ele>39</ele>
        <time>2020-01-30T08:59:15Z</time>
      </trkpt>
      <trkpt lat="59.201903" lon="18.142044">
        <ele>38</ele>
        <time>2020-01-30T08:59:16Z</time>
      </trkpt>
      <trkpt lat="59.201838" lon="18.142015">
        <ele>38</ele>
        <time>2020-01-30T08:59:17Z</time>
      </trkpt>
      <trkpt lat="59.201773" lon="18.141986">
        <ele>38</ele>
        <time>2020-01-30T08:59:18Z</time>
      </trkpt>
      <trkpt lat="59.201708" lon="18.141957">
        <ele>38</ele>
        <time>2020-01-30T08:59:19Z</time>
      </trkpt>
      <trkpt lat="59.201643" lon="18.141928">
        <ele>38</ele>
        <time>2020-01-30T08:59:20Z</time>
      </trkpt>
      <trkpt lat="59.201579" lon="18.141897">
        <ele>38</ele>
        <time>2020-01-30T08:59:21Z</time>
      </trkpt>
      <trkpt lat="59.201515" lon="18.141862">
        <ele>38</ele>
        <time>2020-01-30T08:59:22Z</time>
      </trkpt>
      <trkpt lat="59.201453" lon="18.141823">
        <ele>37</ele>
        <time>2020-01-30T08:59:23Z</time>
      </trkpt>
      <trkpt lat="59.20139" lon="18.141781">
        <ele>37</ele>
        <time>2020-01-30T08:59:24Z</time>
      </trkpt>
      <trkpt lat="59.201328" lon="18.141734">
        <ele>37</ele>
        <time>2020-01-30T08:59:25Z</time>
      </trkpt>
      <trkpt lat="59.201268" lon="18.141684">
        <ele>37</ele>
        <time>2020-01-30T08:59:26Z</time>
      </trkpt>
      <trkpt lat="59.20121" lon="18.141632">
        <ele>37</ele>
        <time>2020-01-30T08:59:27Z</time>
      </trkpt>
      <trkpt lat="59.201153" lon="18.141576">
        <ele>37</ele>
        <time>2020-01-30T08:59:28Z</time>
      </trkpt>
      <trkpt lat="59.201095" lon="18.14152">
        <ele>37</ele>
        <time>2020-01-30T08:59:29Z</time>
      </trkpt>
      <trkpt lat="59.201037" lon="18.14147">
        <ele>37</ele>
        <time>2020-01-30T08:59:30Z</time>
      </trkpt>
      <trkpt lat="59.200979" lon="18.141425">
        <ele>37</ele>
        <time>2020-01-30T08:59:31Z</time>
      </trkpt>
      <trkpt lat="59.20092" lon="18.141381">
        <ele>37</ele>
        <time>2020-01-30T08:59:32Z</time>
      </trkpt>
      <trkpt lat="59.20086" lon="18.14134">
        <ele>37</ele>
        <time>2020-01-30T08:59:33Z</time>
      </trkpt>
      <trkpt lat="59.200794" lon="18.141309">
        <ele>37</ele>
        <time>2020-01-30T08:59:34Z</time>
      </trkpt>
      <trkpt lat="59.200727" lon="18.141298">
        <ele>36</ele>
        <time>2020-01-30T08:59:35Z</time>
      </trkpt>
      <trkpt lat="59.200659" lon="18.141314">
        <ele>36</ele>
        <time>2020-01-30T08:59:36Z</time>
      </trkpt>
      <trkpt lat="59.200592" lon="18.141353">
        <ele>36</ele>
        <time>2020-01-30T08:59:37Z</time>
      </trkpt>
      <trkpt lat="59.200528" lon="18.141411">
        <ele>35</ele>
        <time>2020-01-30T08:59:38Z</time>
      </trkpt>
      <trkpt lat="59.200467" lon="18.141482">
        <ele>35</ele>
        <time>2020-01-30T08:59:39Z</time>
      </trkpt>
      <trkpt lat="59.200405" lon="18.141556">
        <ele>35</ele>
        <time>2020-01-30T08:59:40Z</time>
      </trkpt>
      <trkpt lat="59.20034" lon="18.141629">
        <ele>34</ele>
        <time>2020-01-30T08:59:41Z</time>
      </trkpt>
      <trkpt lat="59.200274" lon="18.141701">
        <ele>34</ele>
        <time>2020-01-30T08:59:42Z</time>
      </trkpt>
      <trkpt lat="59.200206" lon="18.141776">
        <ele>33</ele>
        <time>2020-01-30T08:59:43Z</time>
      </trkpt>
      <trkpt lat="59.200138" lon="18.14185">
        <ele>33</ele>
        <time>2020-01-30T08:59:44Z</time>
      </trkpt>
      <trkpt lat="59.200068" lon="18.141929">
        <ele>33</ele>
        <time>2020-01-30T08:59:45Z</time>
      </trkpt>
      <trkpt lat="59.2" lon="18.142011">
        <ele>32</ele>
        <time>2020-01-30T08:59:46Z</time>
      </trkpt>
      <trkpt lat="59.199931" lon="18.142096">
        <ele>32</ele>
        <time>2020-01-30T08:59:47Z</time>
      </trkpt>
      <trkpt lat="59.199866" lon="18.142189">
        <ele>31</ele>
        <time>2020-01-30T08:59:48Z</time>
      </trkpt>
      <trkpt lat="59.199806" lon="18.142297">
        <ele>31</ele>
        <time>2020-01-30T08:59:49Z</time>
      </trkpt>
      <trkpt lat="59.199752" lon="18.142417">
        <ele>31</ele>
        <time>2020-01-30T08:59:50Z</time>
      </trkpt>
      <trkpt lat="59.199704" lon="18.142541">
        <ele>31</ele>
        <time>2020-01-30T08:59:51Z</time>
      </trkpt>
      <trkpt lat="59.199656" lon="18.142663">
        <ele>30</ele>
        <time>2020-01-30T08:59:52Z</time>
      </trkpt>
      <trkpt lat="59.199603" lon="18.142773">
        <ele>30</ele>
        <time>2020-01-30T08:59:53Z</time>
      </trkpt>
      <trkpt lat="59.199543" lon="18.142865">
        <ele>29</ele>
        <time>2020-01-30T08:59:54Z</time>
      </trkpt>
      <trkpt lat="59.199476" lon="18.142934">
        <ele>29</ele>
        <time>2020-01-30T08:59:55Z</time>
      </trkpt>
      <trkpt lat="59.199405" lon="18.142978">
        <ele>29</ele>
        <time>2020-01-30T08:59:56Z</time>
      </trkpt>
      <trkpt lat="59.199335" lon="18.142998">
        <ele>29</ele>
        <time>2020-01-30T08:59:57Z</time>
      </trkpt>
      <trkpt lat="59.199265" lon="18.143">
        <ele>29</ele>
        <time>2020-01-30T08:59:58Z</time>
      </trkpt>
      <trkpt lat="59.199196" lon="18.142996">
        <ele>29</ele>
        <time>2020-01-30T08:59:59Z</time>
      </trkpt>
      <trkpt lat="59.199129" lon="18.142995">
        <ele>29</ele>
        <time>2020-01-30T09:00:00Z</time>
      </trkpt>
      <trkpt lat="59.199063" lon="18.142994">
        <ele>0</ele>
        <time>2020-01-30T09:00:00Z</time>
      </trkpt>
      <trkpt lat="59.198997" lon="18.14299">
        <ele>29</ele>
        <time>2020-01-30T09:00:01Z</time>
      </trkpt>
      <trkpt lat="59.198932" lon="18.142986">
        <ele>28</ele>
        <time>2020-01-30T09:00:03Z</time>
      </trkpt>
      <trkpt lat="59.198867" lon="18.142982">
        <ele>28</ele>
        <time>2020-01-30T09:00:04Z</time>
      </trkpt>
      <trkpt lat="59.198802" lon="18.14298">
        <ele>28</ele>
        <time>2020-01-30T09:00:05Z</time>
      </trkpt>
      <trkpt lat="59.198736" lon="18.142974">
        <ele>28</ele>
        <time>2020-01-30T09:00:06Z</time>
      </trkpt>
      <trkpt lat="59.19867" lon="18.142966">
        <ele>27</ele>
        <time>2020-01-30T09:00:07Z</time>
      </trkpt>
      <trkpt lat="59.198606" lon="18.142956">
        <ele>27</ele>
        <time>2020-01-30T09:00:08Z</time>
      </trkpt>
      <trkpt lat="59.198542" lon="18.14294">
        <ele>27</ele>
        <time>2020-01-30T09:00:09Z</time>
      </trkpt>
      <trkpt lat="59.198478" lon="18.142918">
        <ele>27</ele>
        <time>2020-01-30T09:00:10Z</time>
      </trkpt>
      <trkpt lat="59.198414" lon="18.142888">
        <ele>27</ele>
        <time>2020-01-30T09:00:11Z</time>
      </trkpt>
      <trkpt lat="59.198352" lon="18.142848">
        <ele>27</ele>
        <time>2020-01-30T09:00:12Z</time>
      </trkpt>
      <trkpt lat="59.198292" lon="18.142805">
        <ele>27</ele>
        <time>2020-01-30T09:00:13Z</time>
      </trkpt>
      <trkpt lat="59.198231" lon="18.142762">
        <ele>27</ele>
        <time>2020-01-30T09:00:14Z</time>
      </trkpt>
      <trkpt lat="59.198171" lon="18.142718">
        <ele>26</ele>
        <time>2020-01-30T09:00:15Z</time>
      </trkpt>
      <trkpt lat="59.198111" lon="18.142672">
        <ele>27</ele>
        <time>2020-01-30T09:00:16Z</time>
      </trkpt>
      <trkpt lat="59.198053" lon="18.142624">
        <ele>26</ele>
        <time>2020-01-30T09:00:17Z</time>
      </trkpt>
      <trkpt lat="59.197994" lon="18.142577">
        <ele>26</ele>
        <time>2020-01-30T09:00:18Z</time>
      </trkpt>
      <trkpt lat="59.197934" lon="18.142532">
        <ele>26</ele>
        <time>2020-01-30T09:00:19Z</time>
      </trkpt>
      <trkpt lat="59.197876" lon="18.142487">
        <ele>26</ele>
        <time>2020-01-30T09:00:20Z</time>
      </trkpt>
      <trkpt lat="59.197818" lon="18.142444">
        <ele>26</ele>
        <time>2020-01-30T09:00:21Z</time>
      </trkpt>
      <trkpt lat="59.197761" lon="18.142404">
        <ele>26</ele>
        <time>2020-01-30T09:00:22Z</time>
      </trkpt>
      <trkpt lat="59.197704" lon="18.142366">
        <ele>26</ele>
        <time>2020-01-30T09:00:23Z</time>
      </trkpt>
      <trkpt lat="59.19765" lon="18.142328">
        <ele>26</ele>
        <time>2020-01-30T09:00:24Z</time>
      </trkpt>
      <trkpt lat="59.197596" lon="18.142292">
        <ele>26</ele>
        <time>2020-01-30T09:00:25Z</time>
      </trkpt>
      <trkpt lat="59.197542" lon="18.14225">
        <ele>26</ele>
        <time>2020-01-30T09:00:26Z</time>
      </trkpt>
      <trkpt lat="59.197488" lon="18.142204">
        <ele>26</ele>
        <time>2020-01-30T09:00:27Z</time>
      </trkpt>
      <trkpt lat="59.197436" lon="18.14216">
        <ele>26</ele>
        <time>2020-01-30T09:00:28Z</time>
      </trkpt>
      <trkpt lat="59.197387" lon="18.142117">
        <ele>26</ele>
        <time>2020-01-30T09:00:29Z</time>
      </trkpt>
      <trkpt lat="59.19734" lon="18.142068">
        <ele>26</ele>
        <time>2020-01-30T09:00:30Z</time>
      </trkpt>
      <trkpt lat="59.197297" lon="18.142017">
        <ele>26</ele>
        <time>2020-01-30T09:00:31Z</time>
      </trkpt>
      <trkpt lat="59.197256" lon="18.141968">
        <ele>26</ele>
        <time>2020-01-30T09:00:32Z</time>
      </trkpt>
      <trkpt lat="59.197218" lon="18.141916">
        <ele>26</ele>
        <time>2020-01-30T09:00:33Z</time>
      </trkpt>
      <trkpt lat="59.197182" lon="18.141864">
        <ele>27</ele>
        <time>2020-01-30T09:00:34Z</time>
      </trkpt>
      <trkpt lat="59.197146" lon="18.141812">
        <ele>27</ele>
        <time>2020-01-30T09:00:35Z</time>
      </trkpt>
      <trkpt lat="59.197112" lon="18.141761">
        <ele>27</ele>
        <time>2020-01-30T09:00:36Z</time>
      </trkpt>
      <trkpt lat="59.197078" lon="18.14171">
        <ele>27</ele>
        <time>2020-01-30T09:00:37Z</time>
      </trkpt>
      <trkpt lat="59.197047" lon="18.14166">
        <ele>27</ele>
        <time>2020-01-30T09:00:38Z</time>
      </trkpt>
      <trkpt lat="59.197016" lon="18.141612">
        <ele>27</ele>
        <time>2020-01-30T09:00:39Z</time>
      </trkpt>
      <trkpt lat="59.196986" lon="18.141564">
        <ele>27</ele>
        <time>2020-01-30T09:00:40Z</time>
      </trkpt>
      <trkpt lat="59.196955" lon="18.141518">
        <ele>27</ele>
        <time>2020-01-30T09:00:41Z</time>
      </trkpt>
      <trkpt lat="59.196926" lon="18.14147">
        <ele>27</ele>
        <time>2020-01-30T09:00:42Z</time>
      </trkpt>
      <trkpt lat="59.196901" lon="18.141422">
        <ele>27</ele>
        <time>2020-01-30T09:00:43Z</time>
      </trkpt>
      <trkpt lat="59.196875" lon="18.141374">
        <ele>27</ele>
        <time>2020-01-30T09:00:44Z</time>
      </trkpt>
      <trkpt lat="59.196848" lon="18.141333">
        <ele>27</ele>
        <time>2020-01-30T09:00:45Z</time>
      </trkpt>
      <trkpt lat="59.196824" lon="18.141288">
        <ele>27</ele>
        <time>2020-01-30T09:00:46Z</time>
      </trkpt>
      <trkpt lat="59.1968" lon="18.141248">
        <ele>28</ele>
        <time>2020-01-30T09:00:47Z</time>
      </trkpt>
      <trkpt lat="59.196775" lon="18.141212">
        <ele>28</ele>
        <time>2020-01-30T09:00:48Z</time>
      </trkpt>
      <trkpt lat="59.196749" lon="18.14118">
        <ele>28</ele>
        <time>2020-01-30T09:00:49Z</time>
      </trkpt>
      <trkpt lat="59.196723" lon="18.141152">
        <ele>28</ele>
        <time>2020-01-30T09:00:50Z</time>
      </trkpt>
      <trkpt lat="59.196698" lon="18.141124">
        <ele>28</ele>
        <time>2020-01-30T09:00:51Z</time>
      </trkpt>
      <trkpt lat="59.196673" lon="18.141098">
        <ele>28</ele>
        <time>2020-01-30T09:00:52Z</time>
      </trkpt>
      <trkpt lat="59.19665" lon="18.141072">
        <ele>28</ele>
        <time>2020-01-30T09:00:53Z</time>
      </trkpt>
      <trkpt lat="59.196626" lon="18.141046">
        <ele>28</ele>
        <time>2020-01-30T09:00:54Z</time>
      </trkpt>
      <trkpt lat="59.196603" lon="18.14102">
        <ele>28</ele>
        <time>2020-01-30T09:00:55Z</time>
      </trkpt>
      <trkpt lat="59.196579" lon="18.140996">
        <ele>28</ele>
        <time>2020-01-30T09:00:56Z</time>
      </trkpt>
      <trkpt lat="59.196555" lon="18.140976">
        <ele>28</ele>
        <time>2020-01-30T09:00:57Z</time>
      </trkpt>
      <trkpt lat="59.19653" lon="18.140958">
        <ele>28</ele>
        <time>2020-01-30T09:00:58Z</time>
      </trkpt>
      <trkpt lat="59.196504" lon="18.140942">
        <ele>28</ele>
        <time>2020-01-30T09:00:59Z</time>
      </trkpt>
      <trkpt lat="59.196478" lon="18.140925">
        <ele>28</ele>
        <time>2020-01-30T09:01:00Z</time>
      </trkpt>
      <trkpt lat="59.196452" lon="18.14091">
        <ele>28</ele>
        <time>2020-01-30T09:01:01Z</time>
      </trkpt>
      <trkpt lat="59.196426" lon="18.140895">
        <ele>28</ele>
        <time>2020-01-30T09:01:02Z</time>
      </trkpt>
      <trkpt lat="59.1964" lon="18.14088">
        <ele>29</ele>
        <time>2020-01-30T09:01:03Z</time>
      </trkpt>
      <trkpt lat="59.196372" lon="18.140869">
        <ele>29</ele>
        <time>2020-01-30T09:01:04Z</time>
      </trkpt>
      <trkpt lat="59.196343" lon="18.140857">
        <ele>29</ele>
        <time>2020-01-30T09:01:05Z</time>
      </trkpt>
      <trkpt lat="59.196313" lon="18.140848">
        <ele>29</ele>
        <time>2020-01-30T09:01:06Z</time>
      </trkpt>
      <trkpt lat="59.196283" lon="18.140841">
        <ele>29</ele>
        <time>2020-01-30T09:01:07Z</time>
      </trkpt>
      <trkpt lat="59.196253" lon="18.140835">
        <ele>29</ele>
        <time>2020-01-30T09:01:08Z</time>
      </trkpt>
      <trkpt lat="59.196222" lon="18.140833">
        <ele>30</ele>
        <time>2020-01-30T09:01:09Z</time>
      </trkpt>
      <trkpt lat="59.19619" lon="18.140829">
        <ele>30</ele>
        <time>2020-01-30T09:01:10Z</time>
      </trkpt>
      <trkpt lat="59.196158" lon="18.140824">
        <ele>30</ele>
        <time>2020-01-30T09:01:11Z</time>
      </trkpt>
      <trkpt lat="59.196127" lon="18.140818">
        <ele>30</ele>
        <time>2020-01-30T09:01:12Z</time>
      </trkpt>
      <trkpt lat="59.196097" lon="18.140811">
        <ele>30</ele>
        <time>2020-01-30T09:01:13Z</time>
      </trkpt>
      <trkpt lat="59.196067" lon="18.140806">
        <ele>30</ele>
        <time>2020-01-30T09:01:14Z</time>
      </trkpt>
      <trkpt lat="59.196036" lon="18.140801">
        <ele>31</ele>
        <time>2020-01-30T09:01:15Z</time>
      </trkpt>
      <trkpt lat="59.196006" lon="18.140798">
        <ele>31</ele>
        <time>2020-01-30T09:01:16Z</time>
      </trkpt>
      <trkpt lat="59.195975" lon="18.140795">
        <ele>31</ele>
        <time>2020-01-30T09:01:17Z</time>
      </trkpt>
      <trkpt lat="59.195945" lon="18.140788">
        <ele>31</ele>
        <time>2020-01-30T09:01:18Z</time>
      </trkpt>
      <trkpt lat="59.195915" lon="18.14078">
        <ele>31</ele>
        <time>2020-01-30T09:01:19Z</time>
      </trkpt>
      <trkpt lat="59.195885" lon="18.140773">
        <ele>31</ele>
        <time>2020-01-30T09:01:20Z</time>
      </trkpt>
      <trkpt lat="59.195855" lon="18.14076">
        <ele>31</ele>
        <time>2020-01-30T09:01:21Z</time>
      </trkpt>
      <trkpt lat="59.195821" lon="18.140749">
        <ele>31</ele>
        <time>2020-01-30T09:01:22Z</time>
      </trkpt>
      <trkpt lat="59.195789" lon="18.140738">
        <ele>31</ele>
        <time>2020-01-30T09:01:23Z</time>
      </trkpt>
      <trkpt lat="59.195756" lon="18.14073">
        <ele>31</ele>
        <time>2020-01-30T09:01:24Z</time>
      </trkpt>
      <trkpt lat="59.195721" lon="18.14072">
        <ele>31</ele>
        <time>2020-01-30T09:01:25Z</time>
      </trkpt>
      <trkpt lat="59.195688" lon="18.14071">
        <ele>31</ele>
        <time>2020-01-30T09:01:26Z</time>
      </trkpt>
      <trkpt lat="59.195652" lon="18.1407">
        <ele>31</ele>
        <time>2020-01-30T09:01:27Z</time>
      </trkpt>
      <trkpt lat="59.195618" lon="18.140692">
        <ele>31</ele>
        <time>2020-01-30T09:01:28Z</time>
      </trkpt>
      <trkpt lat="59.195585" lon="18.140684">
        <ele>31</ele>
        <time>2020-01-30T09:01:29Z</time>
      </trkpt>
      <trkpt lat="59.195552" lon="18.140676">
        <ele>31</ele>
        <time>2020-01-30T09:01:30Z</time>
      </trkpt>
      <trkpt lat="59.19552" lon="18.14067">
        <ele>31</ele>
        <time>2020-01-30T09:01:31Z</time>
      </trkpt>
      <trkpt lat="59.195486" lon="18.140665">
        <ele>32</ele>
        <time>2020-01-30T09:01:32Z</time>
      </trkpt>
      <trkpt lat="59.195453" lon="18.140662">
        <ele>32</ele>
        <time>2020-01-30T09:01:33Z</time>
      </trkpt>
      <trkpt lat="59.195419" lon="18.140661">
        <ele>32</ele>
        <time>2020-01-30T09:01:34Z</time>
      </trkpt>
      <trkpt lat="59.195386" lon="18.140659">
        <ele>32</ele>
        <time>2020-01-30T09:01:35Z</time>
      </trkpt>
      <trkpt lat="59.195353" lon="18.140659">
        <ele>32</ele>
        <time>2020-01-30T09:01:36Z</time>
      </trkpt>
      <trkpt lat="59.19532" lon="18.140659">
        <ele>33</ele>
        <time>2020-01-30T09:01:37Z</time>
      </trkpt>
      <trkpt lat="59.195287" lon="18.140662">
        <ele>33</ele>
        <time>2020-01-30T09:01:38Z</time>
      </trkpt>
      <trkpt lat="59.195254" lon="18.140667">
        <ele>33</ele>
        <time>2020-01-30T09:01:39Z</time>
      </trkpt>
      <trkpt lat="59.195222" lon="18.140672">
        <ele>33</ele>
        <time>2020-01-30T09:01:40Z</time>
      </trkpt>
      <trkpt lat="59.195189" lon="18.140677">
        <ele>33</ele>
        <time>2020-01-30T09:01:41Z</time>
      </trkpt>
      <trkpt lat="59.195157" lon="18.140687">
        <ele>33</ele>
        <time>2020-01-30T09:01:42Z</time>
      </trkpt>
      <trkpt lat="59.195125" lon="18.140699">
        <ele>34</ele>
        <time>2020-01-30T09:01:43Z</time>
      </trkpt>
      <trkpt lat="59.195093" lon="18.140714">
        <ele>34</ele>
        <time>2020-01-30T09:01:44Z</time>
      </trkpt>
      <trkpt lat="59.195062" lon="18.140731">
        <ele>34</ele>
        <time>2020-01-30T09:01:45Z</time>
      </trkpt>
      <trkpt lat="59.195031" lon="18.140749">
        <ele>34</ele>
        <time>2020-01-30T09:01:46Z</time>
      </trkpt>
      <trkpt lat="59.195003" lon="18.140768">
        <ele>34</ele>
        <time>2020-01-30T09:01:47Z</time>
      </trkpt>
      <trkpt lat="59.194976" lon="18.140788">
        <ele>34</ele>
        <time>2020-01-30T09:01:48Z</time>
      </trkpt>
      <trkpt lat="59.19495" lon="18.140806">
        <ele>34</ele>
        <time>2020-01-30T09:01:49Z</time>
      </trkpt>
      <trkpt lat="59.194925" lon="18.140825">
        <ele>35</ele>
        <time>2020-01-30T09:01:50Z</time>
      </trkpt>
      <trkpt lat="59.1949" lon="18.140844">
        <ele>35</ele>
        <time>2020-01-30T09:01:51Z</time>
      </trkpt>
      <trkpt lat="59.194876" lon="18.140863">
        <ele>35</ele>
        <time>2020-01-30T09:01:52Z</time>
      </trkpt>
      <trkpt lat="59.194854" lon="18.140884">
        <ele>35</ele>
        <time>2020-01-30T09:01:53Z</time>
      </trkpt>
      <trkpt lat="59.19483" lon="18.140905">
        <ele>35</ele>
        <time>2020-01-30T09:01:54Z</time>
      </trkpt>
      <trkpt lat="59.194807" lon="18.140927">
        <ele>36</ele>
        <time>2020-01-30T09:01:55Z</time>
      </trkpt>
      <trkpt lat="59.194783" lon="18.140948">
        <ele>36</ele>
        <time>2020-01-30T09:01:56Z</time>
      </trkpt>
      <trkpt lat="59.19476" lon="18.140971">
        <ele>36</ele>
        <time>2020-01-30T09:01:57Z</time>
      </trkpt>
      <trkpt lat="59.194737" lon="18.140994">
        <ele>36</ele>
        <time>2020-01-30T09:01:58Z</time>
      </trkpt>
      <trkpt lat="59.194713" lon="18.141015">
        <ele>36</ele>
        <time>2020-01-30T09:01:59Z</time>
      </trkpt>
      <trkpt lat="59.194688" lon="18.141035">
        <ele>36</ele>
        <time>2020-01-30T09:02:00Z</time>
      </trkpt>
      <trkpt lat="59.194665" lon="18.141058">
        <ele>36</ele>
        <time>2020-01-30T09:02:01Z</time>
      </trkpt>
      <trkpt lat="59.19464" lon="18.141079">
        <ele>36</ele>
        <time>2020-01-30T09:02:02Z</time>
      </trkpt>
      <trkpt lat="59.194616" lon="18.141106">
        <ele>37</ele>
        <time>2020-01-30T09:02:03Z</time>
      </trkpt>
      <trkpt lat="59.194593" lon="18.141134">
        <ele>37</ele>
        <time>2020-01-30T09:02:04Z</time>
      </trkpt>
      <trkpt lat="59.194571" lon="18.141158">
        <ele>37</ele>
        <time>2020-01-30T09:02:05Z</time>
      </trkpt>
      <trkpt lat="59.194547" lon="18.141184">
        <ele>37</ele>
        <time>2020-01-30T09:02:06Z</time>
      </trkpt>
      <trkpt lat="59.194525" lon="18.141213">
        <ele>37</ele>
        <time>2020-01-30T09:02:07Z</time>
      </trkpt>
      <trkpt lat="59.194502" lon="18.14124">
        <ele>38</ele>
        <time>2020-01-30T09:02:08Z</time>
      </trkpt>
      <trkpt lat="59.194479" lon="18.141267">
        <ele>38</ele>
        <time>2020-01-30T09:02:09Z</time>
      </trkpt>
      <trkpt lat="59.194456" lon="18.141295">
        <ele>38</ele>
        <time>2020-01-30T09:02:10Z</time>
      </trkpt>
      <trkpt lat="59.194428" lon="18.141322">
        <ele>38</ele>
        <time>2020-01-30T09:02:11Z</time>
      </trkpt>
      <trkpt lat="59.194398" lon="18.141351">
        <ele>38</ele>
        <time>2020-01-30T09:02:12Z</time>
      </trkpt>
      <trkpt lat="59.194368" lon="18.141381">
        <ele>38</ele>
        <time>2020-01-30T09:02:13Z</time>
      </trkpt>
      <trkpt lat="59.194334" lon="18.14141">
        <ele>38</ele>
        <time>2020-01-30T09:02:14Z</time>
      </trkpt>
      <trkpt lat="59.194301" lon="18.141439">
        <ele>39</ele>
        <time>2020-01-30T09:02:15Z</time>
      </trkpt>
      <trkpt lat="59.19427" lon="18.141468">
        <ele>39</ele>
        <time>2020-01-30T09:02:16Z</time>
      </trkpt>
      <trkpt lat="59.19424" lon="18.141494">
        <ele>39</ele>
        <time>2020-01-30T09:02:17Z</time>
      </trkpt>
      <trkpt lat="59.194208" lon="18.141522">
        <ele>39</ele>
        <time>2020-01-30T09:02:18Z</time>
      </trkpt>
      <trkpt lat="59.194174" lon="18.141553">
        <ele>39</ele>
        <time>2020-01-30T09:02:19Z</time>
      </trkpt>
      <trkpt lat="59.194139" lon="18.141585">
        <ele>39</ele>
        <time>2020-01-30T09:02:20Z</time>
      </trkpt>
      <trkpt lat="59.1941" lon="18.141619">
        <ele>39</ele>
        <time>2020-01-30T09:02:21Z</time>
      </trkpt>
      <trkpt lat="59.194059" lon="18.141659">
        <ele>39</ele>
        <time>2020-01-30T09:02:22Z</time>
      </trkpt>
      <trkpt lat="59.194017" lon="18.141697">
        <ele>39</ele>
        <time>2020-01-30T09:02:23Z</time>
      </trkpt>
      <trkpt lat="59.193974" lon="18.141734">
        <ele>39</ele>
        <time>2020-01-30T09:02:24Z</time>
      </trkpt>
      <trkpt lat="59.193933" lon="18.141773">
        <ele>39</ele>
        <time>2020-01-30T09:02:25Z</time>
      </trkpt>
      <trkpt lat="59.193895" lon="18.141811">
        <ele>40</ele>
        <time>2020-01-30T09:02:26Z</time>
      </trkpt>
      <trkpt lat="59.193857" lon="18.141845">
        <ele>40</ele>
        <time>2020-01-30T09:02:27Z</time>
      </trkpt>
      <trkpt lat="59.19382" lon="18.141881">
        <ele>40</ele>
        <time>2020-01-30T09:02:28Z</time>
      </trkpt>
      <trkpt lat="59.193784" lon="18.141918">
        <ele>40</ele>
        <time>2020-01-30T09:02:29Z</time>
      </trkpt>
      <trkpt lat="59.193747" lon="18.141954">
        <ele>40</ele>
        <time>2020-01-30T09:02:30Z</time>
      </trkpt>
      <trkpt lat="59.193711" lon="18.141989">
        <ele>40</ele>
        <time>2020-01-30T09:02:31Z</time>
      </trkpt>
      <trkpt lat="59.193675" lon="18.142027">
        <ele>40</ele>
        <time>2020-01-30T09:02:32Z</time>
      </trkpt>
      <trkpt lat="59.193639" lon="18.142062">
        <ele>40</ele>
        <time>2020-01-30T09:02:33Z</time>
      </trkpt>
      <trkpt lat="59.193601" lon="18.142098">
        <ele>40</ele>
        <time>2020-01-30T09:02:34Z</time>
      </trkpt>
      <trkpt lat="59.193564" lon="18.142133">
        <ele>40</ele>
        <time>2020-01-30T09:02:35Z</time>
      </trkpt>
      <trkpt lat="59.193527" lon="18.142165">
        <ele>40</ele>
        <time>2020-01-30T09:02:36Z</time>
      </trkpt>
      <trkpt lat="59.193487" lon="18.142196">
        <ele>40</ele>
        <time>2020-01-30T09:02:37Z</time>
      </trkpt>
      <trkpt lat="59.193448" lon="18.142225">
        <ele>40</ele>
        <time>2020-01-30T09:02:38Z</time>
      </trkpt>
      <trkpt lat="59.193407" lon="18.142256">
        <ele>40</ele>
        <time>2020-01-30T09:02:39Z</time>
      </trkpt>
      <trkpt lat="59.193366" lon="18.142289">
        <ele>40</ele>
        <time>2020-01-30T09:02:40Z</time>
      </trkpt>
      <trkpt lat="59.193323" lon="18.142319">
        <ele>40</ele>
        <time>2020-01-30T09:02:41Z</time>
      </trkpt>
      <trkpt lat="59.193279" lon="18.142348">
        <ele>40</ele>
        <time>2020-01-30T09:02:42Z</time>
      </trkpt>
      <trkpt lat="59.193233" lon="18.142378">
        <ele>40</ele>
        <time>2020-01-30T09:02:43Z</time>
      </trkpt>
      <trkpt lat="59.193186" lon="18.142409">
        <ele>40</ele>
        <time>2020-01-30T09:02:44Z</time>
      </trkpt>
      <trkpt lat="59.193141" lon="18.142447">
        <ele>40</ele>
        <time>2020-01-30T09:02:45Z</time>
      </trkpt>
      <trkpt lat="59.193097" lon="18.142489">
        <ele>40</ele>
        <time>2020-01-30T09:02:46Z</time>
      </trkpt>
      <trkpt lat="59.193054" lon="18.142533">
        <ele>40</ele>
        <time>2020-01-30T09:02:47Z</time>
      </trkpt>
      <trkpt lat="59.193003" lon="18.142578">
        <ele>40</ele>
        <time>2020-01-30T09:02:48Z</time>
      </trkpt>
      <trkpt lat="59.192957" lon="18.142626">
        <ele>40</ele>
        <time>2020-01-30T09:02:49Z</time>
      </trkpt>
      <trkpt lat="59.19291" lon="18.142675">
        <ele>40</ele>
        <time>2020-01-30T09:02:50Z</time>
      </trkpt>
      <trkpt lat="59.192862" lon="18.142724">
        <ele>40</ele>
        <time>2020-01-30T09:02:51Z</time>
      </trkpt>
      <trkpt lat="59.192812" lon="18.142774">
        <ele>40</ele>
        <time>2020-01-30T09:02:52Z</time>
      </trkpt>
      <trkpt lat="59.192761" lon="18.142826">
        <ele>40</ele>
        <time>2020-01-30T09:02:53Z</time>
      </trkpt>
      <trkpt lat="59.19271" lon="18.14288">
        <ele>40</ele>
        <time>2020-01-30T09:02:54Z</time>
      </trkpt>
      <trkpt lat="59.192658" lon="18.142934">
        <ele>40</ele>
        <time>2020-01-30T09:02:55Z</time>
      </trkpt>
      <trkpt lat="59.192605" lon="18.142991">
        <ele>40</ele>
        <time>2020-01-30T09:02:56Z</time>
      </trkpt>
      <trkpt lat="59.19255" lon="18.14305">
        <ele>40</ele>
        <time>2020-01-30T09:02:57Z</time>
      </trkpt>
      <trkpt lat="59.192494" lon="18.143104">
        <ele>40</ele>
        <time>2020-01-30T09:02:58Z</time>
      </trkpt>
      <trkpt lat="59.192438" lon="18.143162">
        <ele>40</ele>
        <time>2020-01-30T09:02:59Z</time>
      </trkpt>
      <trkpt lat="59.192379" lon="18.143224">
        <ele>40</ele>
        <time>2020-01-30T09:03:00Z</time>
      </trkpt>
      <trkpt lat="59.19232" lon="18.143289">
        <ele>40</ele>
        <time>2020-01-30T09:03:01Z</time>
      </trkpt>
      <trkpt lat="59.19226" lon="18.143355">
        <ele>40</ele>
        <time>2020-01-30T09:03:02Z</time>
      </trkpt>
      <trkpt lat="59.192198" lon="18.143421">
        <ele>40</ele>
        <time>2020-01-30T09:03:03Z</time>
      </trkpt>
      <trkpt lat="59.192131" lon="18.143486">
        <ele>40</ele>
        <time>2020-01-30T09:03:04Z</time>
      </trkpt>
      <trkpt lat="59.192064" lon="18.143554">
        <ele>40</ele>
        <time>2020-01-30T09:03:05Z</time>
      </trkpt>
      <trkpt lat="59.191998" lon="18.143621">
        <ele>39</ele>
        <time>2020-01-30T09:03:06Z</time>
      </trkpt>
      <trkpt lat="59.19193" lon="18.143682">
        <ele>39</ele>
        <time>2020-01-30T09:03:07Z</time>
      </trkpt>
      <trkpt lat="59.191863" lon="18.143741">
        <ele>39</ele>
        <time>2020-01-30T09:03:08Z</time>
      </trkpt>
      <trkpt lat="59.191795" lon="18.143797">
        <ele>39</ele>
        <time>2020-01-30T09:03:09Z</time>
      </trkpt>
      <trkpt lat="59.191726" lon="18.143852">
        <ele>39</ele>
        <time>2020-01-30T09:03:10Z</time>
      </trkpt>
      <trkpt lat="59.191655" lon="18.143905">
        <ele>39</ele>
        <time>2020-01-30T09:03:11Z</time>
      </trkpt>
      <trkpt lat="59.191581" lon="18.143954">
        <ele>39</ele>
        <time>2020-01-30T09:03:12Z</time>
      </trkpt>
      <trkpt lat="59.191505" lon="18.143998">
        <ele>39</ele>
        <time>2020-01-30T09:03:13Z</time>
      </trkpt>
      <trkpt lat="59.191425" lon="18.144038">
        <ele>39</ele>
        <time>2020-01-30T09:03:14Z</time>
      </trkpt>
      <trkpt lat="59.191345" lon="18.144075">
        <ele>38</ele>
        <time>2020-01-30T09:03:15Z</time>
      </trkpt>
      <trkpt lat="59.191263" lon="18.144108">
        <ele>38</ele>
        <time>2020-01-30T09:03:16Z</time>
      </trkpt>
      <trkpt lat="59.19118" lon="18.144138">
        <ele>38</ele>
        <time>2020-01-30T09:03:17Z</time>
      </trkpt>
      <trkpt lat="59.191097" lon="18.144158">
        <ele>38</ele>
        <time>2020-01-30T09:03:18Z</time>
      </trkpt>
      <trkpt lat="59.191014" lon="18.144169">
        <ele>38</ele>
        <time>2020-01-30T09:03:19Z</time>
      </trkpt>
      <trkpt lat="59.19093" lon="18.144181">
        <ele>38</ele>
        <time>2020-01-30T09:03:20Z</time>
      </trkpt>
      <trkpt lat="59.190846" lon="18.144197">
        <ele>37</ele>
        <time>2020-01-30T09:03:21Z</time>
      </trkpt>
      <trkpt lat="59.190756" lon="18.144214">
        <ele>37</ele>
        <time>2020-01-30T09:03:22Z</time>
      </trkpt>
      <trkpt lat="59.190666" lon="18.144232">
        <ele>37</ele>
        <time>2020-01-30T09:03:23Z</time>
      </trkpt>
      <trkpt lat="59.190575" lon="18.144252">
        <ele>37</ele>
        <time>2020-01-30T09:03:24Z</time>
      </trkpt>
      <trkpt lat="59.190488" lon="18.144269">
        <ele>37</ele>
        <time>2020-01-30T09:03:25Z</time>
      </trkpt>
      <trkpt lat="59.190404" lon="18.144294">
        <ele>37</ele>
        <time>2020-01-30T09:03:26Z</time>
      </trkpt>
      <trkpt lat="59.190323" lon="18.144324">
        <ele>37</ele>
        <time>2020-01-30T09:03:27Z</time>
      </trkpt>
      <trkpt lat="59.19025" lon="18.144346">
        <ele>37</ele>
        <time>2020-01-30T09:03:28Z</time>
      </trkpt>
      <trkpt lat="59.190185" lon="18.14437">
        <ele>37</ele>
        <time>2020-01-30T09:03:29Z</time>
      </trkpt>
      <trkpt lat="59.190123" lon="18.144378">
        <ele>37</ele>
        <time>2020-01-30T09:03:30Z</time>
      </trkpt>
      <trkpt lat="59.190059" lon="18.144389">
        <ele>37</ele>
        <time>2020-01-30T09:03:31Z</time>
      </trkpt>
      <trkpt lat="59.189994" lon="18.144415">
        <ele>37</ele>
        <time>2020-01-30T09:03:32Z</time>
      </trkpt>
      <trkpt lat="59.189854" lon="18.144483">
        <ele>36</ele>
        <time>2020-01-30T09:03:34Z</time>
      </trkpt>
      <trkpt lat="59.189776" lon="18.144491">
        <ele>37</ele>
        <time>2020-01-30T09:03:35Z</time>
      </trkpt>
      <trkpt lat="59.189705" lon="18.144515">
        <ele>36</ele>
        <time>2020-01-30T09:03:36Z</time>
      </trkpt>
      <trkpt lat="59.189638" lon="18.144548">
        <ele>36</ele>
        <time>2020-01-30T09:03:37Z</time>
      </trkpt>
      <trkpt lat="59.189579" lon="18.144586">
        <ele>36</ele>
        <time>2020-01-30T09:03:38Z</time>
      </trkpt>
      <trkpt lat="59.189524" lon="18.144625">
        <ele>36</ele>
        <time>2020-01-30T09:03:39Z</time>
      </trkpt>
      <trkpt lat="59.189472" lon="18.144667">
        <ele>36</ele>
        <time>2020-01-30T09:03:40Z</time>
      </trkpt>
      <trkpt lat="59.189421" lon="18.144706">
        <ele>36</ele>
        <time>2020-01-30T09:03:41Z</time>
      </trkpt>
      <trkpt lat="59.189374" lon="18.144748">
        <ele>35</ele>
        <time>2020-01-30T09:03:42Z</time>
      </trkpt>
      <trkpt lat="59.189327" lon="18.14479">
        <ele>35</ele>
        <time>2020-01-30T09:03:43Z</time>
      </trkpt>
      <trkpt lat="59.189281" lon="18.144832">
        <ele>35</ele>
        <time>2020-01-30T09:03:44Z</time>
      </trkpt>
      <trkpt lat="59.189236" lon="18.144876">
        <ele>35</ele>
        <time>2020-01-30T09:03:45Z</time>
      </trkpt>
      <trkpt lat="59.189193" lon="18.144925">
        <ele>35</ele>
        <time>2020-01-30T09:03:46Z</time>
      </trkpt>
      <trkpt lat="59.189151" lon="18.14498">
        <ele>35</ele>
        <time>2020-01-30T09:03:47Z</time>
      </trkpt>
      <trkpt lat="59.18911" lon="18.145041">
        <ele>35</ele>
        <time>2020-01-30T09:03:48Z</time>
      </trkpt>
      <trkpt lat="59.189071" lon="18.145103">
        <ele>35</ele>
        <time>2020-01-30T09:03:49Z</time>
      </trkpt>
      <trkpt lat="59.189031" lon="18.145167">
        <ele>35</ele>
        <time>2020-01-30T09:03:50Z</time>
      </trkpt>
      <trkpt lat="59.18899" lon="18.145229">
        <ele>35</ele>
        <time>2020-01-30T09:03:51Z</time>
      </trkpt>
      <trkpt lat="59.188946" lon="18.145289">
        <ele>35</ele>
        <time>2020-01-30T09:03:52Z</time>
      </trkpt>
      <trkpt lat="59.188901" lon="18.145346">
        <ele>34</ele>
        <time>2020-01-30T09:03:53Z</time>
      </trkpt>
      <trkpt lat="59.188856" lon="18.145403">
        <ele>34</ele>
        <time>2020-01-30T09:03:54Z</time>
      </trkpt>
      <trkpt lat="59.188809" lon="18.145462">
        <ele>34</ele>
        <time>2020-01-30T09:03:55Z</time>
      </trkpt>
      <trkpt lat="59.188762" lon="18.145522">
        <ele>33</ele>
        <time>2020-01-30T09:03:56Z</time>
      </trkpt>
      <trkpt lat="59.188713" lon="18.145579">
        <ele>33</ele>
        <time>2020-01-30T09:03:57Z</time>
      </trkpt>
      <trkpt lat="59.188663" lon="18.145633">
        <ele>33</ele>
        <time>2020-01-30T09:03:58Z</time>
      </trkpt>
      <trkpt lat="59.18861" lon="18.145686">
        <ele>32</ele>
        <time>2020-01-30T09:03:59Z</time>
      </trkpt>
      <trkpt lat="59.188555" lon="18.145736">
        <ele>32</ele>
        <time>2020-01-30T09:04:00Z</time>
      </trkpt>
      <trkpt lat="59.188499" lon="18.145783">
        <ele>32</ele>
        <time>2020-01-30T09:04:01Z</time>
      </trkpt>
      <trkpt lat="59.188442" lon="18.145826">
        <ele>32</ele>
        <time>2020-01-30T09:04:02Z</time>
      </trkpt>
      <trkpt lat="59.188384" lon="18.145871">
        <ele>31</ele>
        <time>2020-01-30T09:04:03Z</time>
      </trkpt>
      <trkpt lat="59.188325" lon="18.145916">
        <ele>31</ele>
        <time>2020-01-30T09:04:04Z</time>
      </trkpt>
      <trkpt lat="59.188266" lon="18.145959">
        <ele>31</ele>
        <time>2020-01-30T09:04:05Z</time>
      </trkpt>
      <trkpt lat="59.188208" lon="18.145997">
        <ele>31</ele>
        <time>2020-01-30T09:04:06Z</time>
      </trkpt>
      <trkpt lat="59.188151" lon="18.146032">
        <ele>31</ele>
        <time>2020-01-30T09:04:07Z</time>
      </trkpt>
      <trkpt lat="59.188094" lon="18.146064">
        <ele>31</ele>
        <time>2020-01-30T09:04:08Z</time>
      </trkpt>
      <trkpt lat="59.188032" lon="18.146107">
        <ele>30</ele>
        <time>2020-01-30T09:04:09Z</time>
      </trkpt>
      <trkpt lat="59.187969" lon="18.146159">
        <ele>30</ele>
        <time>2020-01-30T09:04:10Z</time>
      </trkpt>
      <trkpt lat="59.187904" lon="18.146212">
        <ele>30</ele>
        <time>2020-01-30T09:04:11Z</time>
      </trkpt>
      <trkpt lat="59.187838" lon="18.146261">
        <ele>30</ele>
        <time>2020-01-30T09:04:12Z</time>
      </trkpt>
      <trkpt lat="59.187772" lon="18.146306">
        <ele>30</ele>
        <time>2020-01-30T09:04:13Z</time>
      </trkpt>
      <trkpt lat="59.187708" lon="18.146349">
        <ele>29</ele>
        <time>2020-01-30T09:04:14Z</time>
      </trkpt>
      <trkpt lat="59.187644" lon="18.14639">
        <ele>29</ele>
        <time>2020-01-30T09:04:15Z</time>
      </trkpt>
      <trkpt lat="59.18758" lon="18.146429">
        <ele>29</ele>
        <time>2020-01-30T09:04:16Z</time>
      </trkpt>
      <trkpt lat="59.187514" lon="18.146462">
        <ele>29</ele>
        <time>2020-01-30T09:04:17Z</time>
      </trkpt>
      <trkpt lat="59.187448" lon="18.146489">
        <ele>28</ele>
        <time>2020-01-30T09:04:18Z</time>
      </trkpt>
      <trkpt lat="59.187381" lon="18.146513">
        <ele>28</ele>
        <time>2020-01-30T09:04:19Z</time>
      </trkpt>
      <trkpt lat="59.187315" lon="18.146531">
        <ele>28</ele>
        <time>2020-01-30T09:04:20Z</time>
      </trkpt>
      <trkpt lat="59.187251" lon="18.146546">
        <ele>28</ele>
        <time>2020-01-30T09:04:21Z</time>
      </trkpt>
      <trkpt lat="59.187188" lon="18.146559">
        <ele>28</ele>
        <time>2020-01-30T09:04:22Z</time>
      </trkpt>
      <trkpt lat="59.187127" lon="18.146572">
        <ele>28</ele>
        <time>2020-01-30T09:04:23Z</time>
      </trkpt>
      <trkpt lat="59.187069" lon="18.146588">
        <ele>28</ele>
        <time>2020-01-30T09:04:24Z</time>
      </trkpt>
      <trkpt lat="59.187009" lon="18.146605">
        <ele>28</ele>
        <time>2020-01-30T09:04:25Z</time>
      </trkpt>
      <trkpt lat="59.18695" lon="18.146621">
        <ele>28</ele>
        <time>2020-01-30T09:04:26Z</time>
      </trkpt>
      <trkpt lat="59.186891" lon="18.146636">
        <ele>28</ele>
        <time>2020-01-30T09:04:27Z</time>
      </trkpt>
      <trkpt lat="59.186832" lon="18.14665">
        <ele>28</ele>
        <time>2020-01-30T09:04:28Z</time>
      </trkpt>
      <trkpt lat="59.186773" lon="18.146665">
        <ele>28</ele>
        <time>2020-01-30T09:04:29Z</time>
      </trkpt>
      <trkpt lat="59.186715" lon="18.14668">
        <ele>28</ele>
        <time>2020-01-30T09:04:30Z</time>
      </trkpt>
      <trkpt lat="59.186656" lon="18.146696">
        <ele>27</ele>
        <time>2020-01-30T09:04:31Z</time>
      </trkpt>
      <trkpt lat="59.186597" lon="18.146714">
        <ele>0</ele>
        <time>2020-01-30T09:04:31Z</time>
      </trkpt>
      <trkpt lat="59.186538" lon="18.14673">
        <ele>27</ele>
        <time>2020-01-30T09:04:32Z</time>
      </trkpt>
      <trkpt lat="59.18648" lon="18.146743">
        <ele>27</ele>
        <time>2020-01-30T09:04:34Z</time>
      </trkpt>
      <trkpt lat="59.186421" lon="18.146757">
        <ele>27</ele>
        <time>2020-01-30T09:04:35Z</time>
      </trkpt>
      <trkpt lat="59.186363" lon="18.146773">
        <ele>27</ele>
        <time>2020-01-30T09:04:36Z</time>
      </trkpt>
      <trkpt lat="59.186307" lon="18.146789">
        <ele>27</ele>
        <time>2020-01-30T09:04:37Z</time>
      </trkpt>
      <trkpt lat="59.18625" lon="18.146804">
        <ele>27</ele>
        <time>2020-01-30T09:04:38Z</time>
      </trkpt>
      <trkpt lat="59.186192" lon="18.146816">
        <ele>27</ele>
        <time>2020-01-30T09:04:39Z</time>
      </trkpt>
      <trkpt lat="59.186134" lon="18.146826">
        <ele>27</ele>
        <time>2020-01-30T09:04:40Z</time>
      </trkpt>
      <trkpt lat="59.186076" lon="18.146835">
        <ele>27</ele>
        <time>2020-01-30T09:04:41Z</time>
      </trkpt>
      <trkpt lat="59.186019" lon="18.146841">
        <ele>27</ele>
        <time>2020-01-30T09:04:42Z</time>
      </trkpt>
      <trkpt lat="59.185963" lon="18.146845">
        <ele>27</ele>
        <time>2020-01-30T09:04:43Z</time>
      </trkpt>
      <trkpt lat="59.185908" lon="18.14685">
        <ele>27</ele>
        <time>2020-01-30T09:04:44Z</time>
      </trkpt>
      <trkpt lat="59.185852" lon="18.14686">
        <ele>27</ele>
        <time>2020-01-30T09:04:45Z</time>
      </trkpt>
      <trkpt lat="59.185796" lon="18.14687">
        <ele>27</ele>
        <time>2020-01-30T09:04:46Z</time>
      </trkpt>
      <trkpt lat="59.185739" lon="18.146882">
        <ele>27</ele>
        <time>2020-01-30T09:04:47Z</time>
      </trkpt>
      <trkpt lat="59.185682" lon="18.146892">
        <ele>27</ele>
        <time>2020-01-30T09:04:48Z</time>
      </trkpt>
      <trkpt lat="59.185626" lon="18.146904">
        <ele>27</ele>
        <time>2020-01-30T09:04:49Z</time>
      </trkpt>
      <trkpt lat="59.185572" lon="18.146917">
        <ele>27</ele>
        <time>2020-01-30T09:04:50Z</time>
      </trkpt>
      <trkpt lat="59.18552" lon="18.146928">
        <ele>27</ele>
        <time>2020-01-30T09:04:51Z</time>
      </trkpt>
      <trkpt lat="59.185472" lon="18.146939">
        <ele>27</ele>
        <time>2020-01-30T09:04:52Z</time>
      </trkpt>
      <trkpt lat="59.185427" lon="18.146946">
        <ele>27</ele>
        <time>2020-01-30T09:04:53Z</time>
      </trkpt>
      <trkpt lat="59.185385" lon="18.146935">
        <ele>27</ele>
        <time>2020-01-30T09:04:54Z</time>
      </trkpt>
      <trkpt lat="59.185351" lon="18.146897">
        <ele>27</ele>
        <time>2020-01-30T09:04:55Z</time>
      </trkpt>
      <trkpt lat="59.185326" lon="18.146846">
        <ele>27</ele>
        <time>2020-01-30T09:04:56Z</time>
      </trkpt>
      <trkpt lat="59.185303" lon="18.146797">
        <ele>27</ele>
        <time>2020-01-30T09:04:57Z</time>
      </trkpt>
      <trkpt lat="59.185275" lon="18.146765">
        <ele>27</ele>
        <time>2020-01-30T09:04:58Z</time>
      </trkpt>
      <trkpt lat="59.185243" lon="18.146753">
        <ele>27</ele>
        <time>2020-01-30T09:04:59Z</time>
      </trkpt>
      <trkpt lat="59.185212" lon="18.146754">
        <ele>27</ele>
        <time>2020-01-30T09:05:00Z</time>
      </trkpt>
      <trkpt lat="59.185182" lon="18.146763">
        <ele>27</ele>
        <time>2020-01-30T09:05:01Z</time>
      </trkpt>
      <trkpt lat="59.185151" lon="18.146776">
        <ele>27</ele>
        <time>2020-01-30T09:05:02Z</time>
      </trkpt>
      <trkpt lat="59.18512" lon="18.146792">
        <ele>27</ele>
        <time>2020-01-30T09:05:03Z</time>
      </trkpt>
      <trkpt lat="59.185089" lon="18.146813">
        <ele>27</ele>
        <time>2020-01-30T09:05:04Z</time>
      </trkpt>
      <trkpt lat="59.185059" lon="18.146838">
        <ele>27</ele>
        <time>2020-01-30T09:05:05Z</time>
      </trkpt>
      <trkpt lat="59.185028" lon="18.146866">
        <ele>27</ele>
        <time>2020-01-30T09:05:06Z</time>
      </trkpt>
      <trkpt lat="59.184996" lon="18.146894">
        <ele>27</ele>
        <time>2020-01-30T09:05:07Z</time>
      </trkpt>
      <trkpt lat="59.184964" lon="18.146922">
        <ele>27</ele>
        <time>2020-01-30T09:05:08Z</time>
      </trkpt>
      <trkpt lat="59.184932" lon="18.14695">
        <ele>27</ele>
        <time>2020-01-30T09:05:09Z</time>
      </trkpt>
      <trkpt lat="59.184898" lon="18.146976">
        <ele>27</ele>
        <time>2020-01-30T09:05:10Z</time>
      </trkpt>
      <trkpt lat="59.184864" lon="18.146999">
        <ele>27</ele>
        <time>2020-01-30T09:05:11Z</time>
      </trkpt>
      <trkpt lat="59.184828" lon="18.147017">
        <ele>27</ele>
        <time>2020-01-30T09:05:12Z</time>
      </trkpt>
      <trkpt lat="59.184793" lon="18.147031">
        <ele>27</ele>
        <time>2020-01-30T09:05:13Z</time>
      </trkpt>
      <trkpt lat="59.184756" lon="18.147044">
        <ele>28</ele>
        <time>2020-01-30T09:05:14Z</time>
      </trkpt>
      <trkpt lat="59.184718" lon="18.147055">
        <ele>28</ele>
        <time>2020-01-30T09:05:15Z</time>
      </trkpt>
      <trkpt lat="59.184682" lon="18.147067">
        <ele>28</ele>
        <time>2020-01-30T09:05:16Z</time>
      </trkpt>
      <trkpt lat="59.184645" lon="18.147078">
        <ele>28</ele>
        <time>2020-01-30T09:05:17Z</time>
      </trkpt>
      <trkpt lat="59.184608" lon="18.147088">
        <ele>28</ele>
        <time>2020-01-30T09:05:18Z</time>
      </trkpt>
      <trkpt lat="59.184573" lon="18.147099">
        <ele>28</ele>
        <time>2020-01-30T09:05:19Z</time>
      </trkpt>
      <trkpt lat="59.184538" lon="18.147111">
        <ele>28</ele>
        <time>2020-01-30T09:05:20Z</time>
      </trkpt>
      <trkpt lat="59.184504" lon="18.147121">
        <ele>28</ele>
        <time>2020-01-30T09:05:21Z</time>
      </trkpt>
      <trkpt lat="59.184468" lon="18.147129">
        <ele>28</ele>
        <time>2020-01-30T09:05:22Z</time>
      </trkpt>
      <trkpt lat="59.184431" lon="18.147135">
        <ele>29</ele>
        <time>2020-01-30T09:05:23Z</time>
      </trkpt>
      <trkpt lat="59.184394" lon="18.14714">
        <ele>29</ele>
        <time>2020-01-30T09:05:24Z</time>
      </trkpt>
      <trkpt lat="59.184359" lon="18.147147">
        <ele>29</ele>
        <time>2020-01-30T09:05:25Z</time>
      </trkpt>
      <trkpt lat="59.184325" lon="18.147153">
        <ele>29</ele>
        <time>2020-01-30T09:05:26Z</time>
      </trkpt>
      <trkpt lat="59.184292" lon="18.14716">
        <ele>29</ele>
        <time>2020-01-30T09:05:27Z</time>
      </trkpt>
      <trkpt lat="59.184259" lon="18.147167">
        <ele>29</ele>
        <time>2020-01-30T09:05:28Z</time>
      </trkpt>
      <trkpt lat="59.184224" lon="18.147175">
        <ele>29</ele>
        <time>2020-01-30T09:05:29Z</time>
      </trkpt>
      <trkpt lat="59.184188" lon="18.147183">
        <ele>29</ele>
        <time>2020-01-30T09:05:30Z</time>
      </trkpt>
      <trkpt lat="59.184152" lon="18.147192">
        <ele>29</ele>
        <time>2020-01-30T09:05:31Z</time>
      </trkpt>
      <trkpt lat="59.184116" lon="18.147199">
        <ele>30</ele>
        <time>2020-01-30T09:05:32Z</time>
      </trkpt>
      <trkpt lat="59.184081" lon="18.147207">
        <ele>30</ele>
        <time>2020-01-30T09:05:33Z</time>
      </trkpt>
      <trkpt lat="59.184044" lon="18.147213">
        <ele>30</ele>
        <time>2020-01-30T09:05:34Z</time>
      </trkpt>
      <trkpt lat="59.184009" lon="18.147221">
        <ele>30</ele>
        <time>2020-01-30T09:05:35Z</time>
      </trkpt>
      <trkpt lat="59.183975" lon="18.147229">
        <ele>30</ele>
        <time>2020-01-30T09:05:36Z</time>
      </trkpt>
      <trkpt lat="59.183939" lon="18.147237">
        <ele>30</ele>
        <time>2020-01-30T09:05:37Z</time>
      </trkpt>
      <trkpt lat="59.183906" lon="18.147243">
        <ele>30</ele>
        <time>2020-01-30T09:05:38Z</time>
      </trkpt>
      <trkpt lat="59.183873" lon="18.147247">
        <ele>31</ele>
        <time>2020-01-30T09:05:39Z</time>
      </trkpt>
      <trkpt lat="59.183843" lon="18.147251">
        <ele>31</ele>
        <time>2020-01-30T09:05:40Z</time>
      </trkpt>
      <trkpt lat="59.183812" lon="18.147257">
        <ele>31</ele>
        <time>2020-01-30T09:05:41Z</time>
      </trkpt>
      <trkpt lat="59.183781" lon="18.147262">
        <ele>31</ele>
        <time>2020-01-30T09:05:42Z</time>
      </trkpt>
      <trkpt lat="59.183749" lon="18.147262">
        <ele>31</ele>
        <time>2020-01-30T09:05:43Z</time>
      </trkpt>
      <trkpt lat="59.183719" lon="18.147262">
        <ele>31</ele>
        <time>2020-01-30T09:05:44Z</time>
      </trkpt>
      <trkpt lat="59.183689" lon="18.147264">
        <ele>31</ele>
        <time>2020-01-30T09:05:45Z</time>
      </trkpt>
      <trkpt lat="59.18366" lon="18.147267">
        <ele>32</ele>
        <time>2020-01-30T09:05:46Z</time>
      </trkpt>
      <trkpt lat="59.183631" lon="18.147272">
        <ele>32</ele>
        <time>2020-01-30T09:05:47Z</time>
      </trkpt>
      <trkpt lat="59.183602" lon="18.147281">
        <ele>32</ele>
        <time>2020-01-30T09:05:48Z</time>
      </trkpt>
      <trkpt lat="59.183574" lon="18.147299">
        <ele>32</ele>
        <time>2020-01-30T09:05:49Z</time>
      </trkpt>
      <trkpt lat="59.183546" lon="18.147322">
        <ele>32</ele>
        <time>2020-01-30T09:05:50Z</time>
      </trkpt>
      <trkpt lat="59.183517" lon="18.147342">
        <ele>32</ele>
        <time>2020-01-30T09:05:51Z</time>
      </trkpt>
      <trkpt lat="59.183489" lon="18.147352">
        <ele>32</ele>
        <time>2020-01-30T09:05:52Z</time>
      </trkpt>
      <trkpt lat="59.18346" lon="18.147351">
        <ele>32</ele>
        <time>2020-01-30T09:05:53Z</time>
      </trkpt>
      <trkpt lat="59.183435" lon="18.147349">
        <ele>32</ele>
        <time>2020-01-30T09:05:54Z</time>
      </trkpt>
      <trkpt lat="59.183411" lon="18.147345">
        <ele>33</ele>
        <time>2020-01-30T09:05:55Z</time>
      </trkpt>
      <trkpt lat="59.183389" lon="18.147336">
        <ele>33</ele>
        <time>2020-01-30T09:05:56Z</time>
      </trkpt>
      <trkpt lat="59.183367" lon="18.147325">
        <ele>33</ele>
        <time>2020-01-30T09:05:57Z</time>
      </trkpt>
      <trkpt lat="59.183345" lon="18.147304">
        <ele>33</ele>
        <time>2020-01-30T09:05:58Z</time>
      </trkpt>
      <trkpt lat="59.183328" lon="18.147277">
        <ele>33</ele>
        <time>2020-01-30T09:05:59Z</time>
      </trkpt>
      <trkpt lat="59.183311" lon="18.147254">
        <ele>33</ele>
        <time>2020-01-30T09:06:00Z</time>
      </trkpt>
      <trkpt lat="59.183291" lon="18.147238">
        <ele>33</ele>
        <time>2020-01-30T09:06:01Z</time>
      </trkpt>
      <trkpt lat="59.183262" lon="18.147225">
        <ele>33</ele>
        <time>2020-01-30T09:06:02Z</time>
      </trkpt>
      <trkpt lat="59.183235" lon="18.147215">
        <ele>34</ele>
        <time>2020-01-30T09:06:03Z</time>
      </trkpt>
      <trkpt lat="59.183204" lon="18.1472">
        <ele>34</ele>
        <time>2020-01-30T09:06:04Z</time>
      </trkpt>
      <trkpt lat="59.18317" lon="18.14719">
        <ele>34</ele>
        <time>2020-01-30T09:06:05Z</time>
      </trkpt>
      <trkpt lat="59.183137" lon="18.147183">
        <ele>34</ele>
        <time>2020-01-30T09:06:06Z</time>
      </trkpt>
      <trkpt lat="59.183103" lon="18.147171">
        <ele>34</ele>
        <time>2020-01-30T09:06:07Z</time>
      </trkpt>
      <trkpt lat="59.183064" lon="18.147155">
        <ele>34</ele>
        <time>2020-01-30T09:06:08Z</time>
      </trkpt>
      <trkpt lat="59.183027" lon="18.147137">
        <ele>34</ele>
        <time>2020-01-30T09:06:09Z</time>
      </trkpt>
      <trkpt lat="59.18299" lon="18.147119">
        <ele>35</ele>
        <time>2020-01-30T09:06:10Z</time>
      </trkpt>
      <trkpt lat="59.182954" lon="18.147106">
        <ele>35</ele>
        <time>2020-01-30T09:06:11Z</time>
      </trkpt>
      <trkpt lat="59.182919" lon="18.147089">
        <ele>35</ele>
        <time>2020-01-30T09:06:12Z</time>
      </trkpt>
      <trkpt lat="59.182884" lon="18.147067">
        <ele>35</ele>
        <time>2020-01-30T09:06:13Z</time>
      </trkpt>
      <trkpt lat="59.182841" lon="18.14704">
        <ele>35</ele>
        <time>2020-01-30T09:06:14Z</time>
      </trkpt>
      <trkpt lat="59.182802" lon="18.147013">
        <ele>35</ele>
        <time>2020-01-30T09:06:15Z</time>
      </trkpt>
      <trkpt lat="59.182765" lon="18.146987">
        <ele>35</ele>
        <time>2020-01-30T09:06:16Z</time>
      </trkpt>
      <trkpt lat="59.182726" lon="18.146961">
        <ele>35</ele>
        <time>2020-01-30T09:06:17Z</time>
      </trkpt>
      <trkpt lat="59.182688" lon="18.146935">
        <ele>35</ele>
        <time>2020-01-30T09:06:18Z</time>
      </trkpt>
      <trkpt lat="59.182644" lon="18.146911">
        <ele>35</ele>
        <time>2020-01-30T09:06:19Z</time>
      </trkpt>
      <trkpt lat="59.182602" lon="18.146891">
        <ele>35</ele>
        <time>2020-01-30T09:06:20Z</time>
      </trkpt>
      <trkpt lat="59.182564" lon="18.146867">
        <ele>36</ele>
        <time>2020-01-30T09:06:21Z</time>
      </trkpt>
      <trkpt lat="59.182526" lon="18.146843">
        <ele>36</ele>
        <time>2020-01-30T09:06:22Z</time>
      </trkpt>
      <trkpt lat="59.182492" lon="18.146816">
        <ele>36</ele>
        <time>2020-01-30T09:06:23Z</time>
      </trkpt>
      <trkpt lat="59.182453" lon="18.146786">
        <ele>36</ele>
        <time>2020-01-30T09:06:24Z</time>
      </trkpt>
      <trkpt lat="59.182413" lon="18.146742">
        <ele>36</ele>
        <time>2020-01-30T09:06:25Z</time>
      </trkpt>
      <trkpt lat="59.182374" lon="18.146704">
        <ele>36</ele>
        <time>2020-01-30T09:06:26Z</time>
      </trkpt>
      <trkpt lat="59.182338" lon="18.146657">
        <ele>36</ele>
        <time>2020-01-30T09:06:27Z</time>
      </trkpt>
      <trkpt lat="59.182304" lon="18.146612">
        <ele>36</ele>
        <time>2020-01-30T09:06:28Z</time>
      </trkpt>
      <trkpt lat="59.182272" lon="18.146574">
        <ele>36</ele>
        <time>2020-01-30T09:06:29Z</time>
      </trkpt>
      <trkpt lat="59.182242" lon="18.146543">
        <ele>36</ele>
        <time>2020-01-30T09:06:30Z</time>
      </trkpt>
      <trkpt lat="59.18221" lon="18.146501">
        <ele>36</ele>
        <time>2020-01-30T09:06:31Z</time>
      </trkpt>
      <trkpt lat="59.182166" lon="18.146447">
        <ele>37</ele>
        <time>2020-01-30T09:06:32Z</time>
      </trkpt>
      <trkpt lat="59.182128" lon="18.146397">
        <ele>37</ele>
        <time>2020-01-30T09:06:33Z</time>
      </trkpt>
      <trkpt lat="59.182088" lon="18.146346">
        <ele>37</ele>
        <time>2020-01-30T09:06:34Z</time>
      </trkpt>
      <trkpt lat="59.18205" lon="18.146294">
        <ele>37</ele>
        <time>2020-01-30T09:06:35Z</time>
      </trkpt>
      <trkpt lat="59.182" lon="18.146234">
        <ele>36</ele>
        <time>2020-01-30T09:06:36Z</time>
      </trkpt>
      <trkpt lat="59.181953" lon="18.146181">
        <ele>36</ele>
        <time>2020-01-30T09:06:37Z</time>
      </trkpt>
      <trkpt lat="59.181909" lon="18.146135">
        <ele>36</ele>
        <time>2020-01-30T09:06:38Z</time>
      </trkpt>
      <trkpt lat="59.181867" lon="18.146092">
        <ele>36</ele>
        <time>2020-01-30T09:06:39Z</time>
      </trkpt>
      <trkpt lat="59.18183" lon="18.146043">
        <ele>36</ele>
        <time>2020-01-30T09:06:40Z</time>
      </trkpt>
      <trkpt lat="59.18179" lon="18.145995">
        <ele>36</ele>
        <time>2020-01-30T09:06:41Z</time>
      </trkpt>
      <trkpt lat="59.181752" lon="18.145946">
        <ele>36</ele>
        <time>2020-01-30T09:06:42Z</time>
      </trkpt>
      <trkpt lat="59.181712" lon="18.145899">
        <ele>36</ele>
        <time>2020-01-30T09:06:43Z</time>
      </trkpt>
      <trkpt lat="59.181675" lon="18.145853">
        <ele>36</ele>
        <time>2020-01-30T09:06:44Z</time>
      </trkpt>
      <trkpt lat="59.181639" lon="18.14581">
        <ele>36</ele>
        <time>2020-01-30T09:06:45Z</time>
      </trkpt>
      <trkpt lat="59.181606" lon="18.145775">
        <ele>37</ele>
        <time>2020-01-30T09:06:46Z</time>
      </trkpt>
      <trkpt lat="59.181572" lon="18.145741">
        <ele>36</ele>
        <time>2020-01-30T09:06:47Z</time>
      </trkpt>
      <trkpt lat="59.181538" lon="18.145704">
        <ele>36</ele>
        <time>2020-01-30T09:06:48Z</time>
      </trkpt>
      <trkpt lat="59.181498" lon="18.145662">
        <ele>36</ele>
        <time>2020-01-30T09:06:49Z</time>
      </trkpt>
      <trkpt lat="59.181459" lon="18.14562">
        <ele>36</ele>
        <time>2020-01-30T09:06:50Z</time>
      </trkpt>
      <trkpt lat="59.181424" lon="18.145578">
        <ele>36</ele>
        <time>2020-01-30T09:06:51Z</time>
      </trkpt>
      <trkpt lat="59.181387" lon="18.145536">
        <ele>36</ele>
        <time>2020-01-30T09:06:52Z</time>
      </trkpt>
      <trkpt lat="59.181344" lon="18.145492">
        <ele>36</ele>
        <time>2020-01-30T09:06:53Z</time>
      </trkpt>
      <trkpt lat="59.181298" lon="18.145449">
        <ele>36</ele>
        <time>2020-01-30T09:06:54Z</time>
      </trkpt>
      <trkpt lat="59.181255" lon="18.145397">
        <ele>36</ele>
        <time>2020-01-30T09:06:55Z</time>
      </trkpt>
      <trkpt lat="59.181209" lon="18.145346">
        <ele>36</ele>
        <time>2020-01-30T09:06:56Z</time>
      </trkpt>
      <trkpt lat="59.181164" lon="18.145295">
        <ele>36</ele>
        <time>2020-01-30T09:06:57Z</time>
      </trkpt>
      <trkpt lat="59.181118" lon="18.145245">
        <ele>36</ele>
        <time>2020-01-30T09:06:58Z</time>
      </trkpt>
      <trkpt lat="59.18107" lon="18.145194">
        <ele>36</ele>
        <time>2020-01-30T09:06:59Z</time>
      </trkpt>
      <trkpt lat="59.181023" lon="18.145143">
        <ele>36</ele>
        <time>2020-01-30T09:07:00Z</time>
      </trkpt>
      <trkpt lat="59.180975" lon="18.145092">
        <ele>36</ele>
        <time>2020-01-30T09:07:01Z</time>
      </trkpt>
      <trkpt lat="59.180929" lon="18.145037">
        <ele>36</ele>
        <time>2020-01-30T09:07:02Z</time>
      </trkpt>
      <trkpt lat="59.180881" lon="18.144985">
        <ele>36</ele>
        <time>2020-01-30T09:07:03Z</time>
      </trkpt>
      <trkpt lat="59.180831" lon="18.144937">
        <ele>36</ele>
        <time>2020-01-30T09:07:04Z</time>
      </trkpt>
      <trkpt lat="59.180782" lon="18.144893">
        <ele>36</ele>
        <time>2020-01-30T09:07:05Z</time>
      </trkpt>
      <trkpt lat="59.180738" lon="18.144849">
        <ele>36</ele>
        <time>2020-01-30T09:07:06Z</time>
      </trkpt>
      <trkpt lat="59.180696" lon="18.144797">
        <ele>36</ele>
        <time>2020-01-30T09:07:07Z</time>
      </trkpt>
      <trkpt lat="59.180655" lon="18.144735">
        <ele>36</ele>
        <time>2020-01-30T09:07:08Z</time>
      </trkpt>
      <trkpt lat="59.180615" lon="18.144669">
        <ele>36</ele>
        <time>2020-01-30T09:07:09Z</time>
      </trkpt>
      <trkpt lat="59.180576" lon="18.144601">
        <ele>36</ele>
        <time>2020-01-30T09:07:10Z</time>
      </trkpt>
      <trkpt lat="59.180534" lon="18.144534">
        <ele>35</ele>
        <time>2020-01-30T09:07:11Z</time>
      </trkpt>
      <trkpt lat="59.18049" lon="18.144469">
        <ele>35</ele>
        <time>2020-01-30T09:07:12Z</time>
      </trkpt>
      <trkpt lat="59.180444" lon="18.144409">
        <ele>35</ele>
        <time>2020-01-30T09:07:13Z</time>
      </trkpt>
      <trkpt lat="59.180398" lon="18.144352">
        <ele>35</ele>
        <time>2020-01-30T09:07:14Z</time>
      </trkpt>
      <trkpt lat="59.180351" lon="18.144295">
        <ele>35</ele>
        <time>2020-01-30T09:07:15Z</time>
      </trkpt>
      <trkpt lat="59.180305" lon="18.144239">
        <ele>36</ele>
        <time>2020-01-30T09:07:16Z</time>
      </trkpt>
      <trkpt lat="59.180261" lon="18.144184">
        <ele>36</ele>
        <time>2020-01-30T09:07:17Z</time>
      </trkpt>
      <trkpt lat="59.180214" lon="18.144128">
        <ele>36</ele>
        <time>2020-01-30T09:07:18Z</time>
      </trkpt>
      <trkpt lat="59.18017" lon="18.144073">
        <ele>35</ele>
        <time>2020-01-30T09:07:19Z</time>
      </trkpt>
      <trkpt lat="59.180125" lon="18.144024">
        <ele>36</ele>
        <time>2020-01-30T09:07:20Z</time>
      </trkpt>
      <trkpt lat="59.180077" lon="18.143976">
        <ele>35</ele>
        <time>2020-01-30T09:07:21Z</time>
      </trkpt>
      <trkpt lat="59.18003" lon="18.143915">
        <ele>35</ele>
        <time>2020-01-30T09:07:22Z</time>
      </trkpt>
      <trkpt lat="59.17999" lon="18.143843">
        <ele>35</ele>
        <time>2020-01-30T09:07:23Z</time>
      </trkpt>
      <trkpt lat="59.179954" lon="18.143763">
        <ele>35</ele>
        <time>2020-01-30T09:07:24Z</time>
      </trkpt>
      <trkpt lat="59.179919" lon="18.143677">
        <ele>35</ele>
        <time>2020-01-30T09:07:25Z</time>
      </trkpt>
      <trkpt lat="59.179884" lon="18.143591">
        <ele>35</ele>
        <time>2020-01-30T09:07:26Z</time>
      </trkpt>
      <trkpt lat="59.179845" lon="18.143513">
        <ele>35</ele>
        <time>2020-01-30T09:07:27Z</time>
      </trkpt>
      <trkpt lat="59.1798" lon="18.143449">
        <ele>35</ele>
        <time>2020-01-30T09:07:28Z</time>
      </trkpt>
      <trkpt lat="59.179751" lon="18.143394">
        <ele>35</ele>
        <time>2020-01-30T09:07:29Z</time>
      </trkpt>
      <trkpt lat="59.179699" lon="18.143341">
        <ele>35</ele>
        <time>2020-01-30T09:07:30Z</time>
      </trkpt>
      <trkpt lat="59.179646" lon="18.143284">
        <ele>35</ele>
        <time>2020-01-30T09:07:31Z</time>
      </trkpt>
      <trkpt lat="59.179594" lon="18.143225">
        <ele>36</ele>
        <time>2020-01-30T09:07:32Z</time>
      </trkpt>
      <trkpt lat="59.17954" lon="18.143173">
        <ele>36</ele>
        <time>2020-01-30T09:07:33Z</time>
      </trkpt>
      <trkpt lat="59.179487" lon="18.143118">
        <ele>36</ele>
        <time>2020-01-30T09:07:34Z</time>
      </trkpt>
      <trkpt lat="59.179433" lon="18.143063">
        <ele>36</ele>
        <time>2020-01-30T09:07:35Z</time>
      </trkpt>
      <trkpt lat="59.179376" lon="18.143013">
        <ele>35</ele>
        <time>2020-01-30T09:07:36Z</time>
      </trkpt>
      <trkpt lat="59.179317" lon="18.142966">
        <ele>35</ele>
        <time>2020-01-30T09:07:37Z</time>
      </trkpt>
      <trkpt lat="59.17926" lon="18.142923">
        <ele>35</ele>
        <time>2020-01-30T09:07:38Z</time>
      </trkpt>
      <trkpt lat="59.179203" lon="18.142874">
        <ele>35</ele>
        <time>2020-01-30T09:07:39Z</time>
      </trkpt>
      <trkpt lat="59.179147" lon="18.142827">
        <ele>35</ele>
        <time>2020-01-30T09:07:40Z</time>
      </trkpt>
      <trkpt lat="59.179092" lon="18.142781">
        <ele>35</ele>
        <time>2020-01-30T09:07:41Z</time>
      </trkpt>
      <trkpt lat="59.179036" lon="18.142735">
        <ele>35</ele>
        <time>2020-01-30T09:07:42Z</time>
      </trkpt>
      <trkpt lat="59.17898" lon="18.142692">
        <ele>35</ele>
        <time>2020-01-30T09:07:43Z</time>
      </trkpt>
      <trkpt lat="59.178923" lon="18.142649">
        <ele>35</ele>
        <time>2020-01-30T09:07:44Z</time>
      </trkpt>
      <trkpt lat="59.178867" lon="18.142609">
        <ele>35</ele>
        <time>2020-01-30T09:07:45Z</time>
      </trkpt>
      <trkpt lat="59.178812" lon="18.14257">
        <ele>35</ele>
        <time>2020-01-30T09:07:46Z</time>
      </trkpt>
      <trkpt lat="59.178758" lon="18.142533">
        <ele>35</ele>
        <time>2020-01-30T09:07:47Z</time>
      </trkpt>
      <trkpt lat="59.178705" lon="18.142494">
        <ele>35</ele>
        <time>2020-01-30T09:07:48Z</time>
      </trkpt>
      <trkpt lat="59.178652" lon="18.142455">
        <ele>35</ele>
        <time>2020-01-30T09:07:49Z</time>
      </trkpt>
      <trkpt lat="59.178601" lon="18.14242">
        <ele>35</ele>
        <time>2020-01-30T09:07:50Z</time>
      </trkpt>
      <trkpt lat="59.17855" lon="18.142387">
        <ele>35</ele>
        <time>2020-01-30T09:07:51Z</time>
      </trkpt>
      <trkpt lat="59.178501" lon="18.142354">
        <ele>35</ele>
        <time>2020-01-30T09:07:52Z</time>
      </trkpt>
      <trkpt lat="59.178454" lon="18.142323">
        <ele>35</ele>
        <time>2020-01-30T09:07:53Z</time>
      </trkpt>
      <trkpt lat="59.178409" lon="18.142292">
        <ele>35</ele>
        <time>2020-01-30T09:07:54Z</time>
      </trkpt>
      <trkpt lat="59.178367" lon="18.142254">
        <ele>35</ele>
        <time>2020-01-30T09:07:55Z</time>
      </trkpt>
      <trkpt lat="59.178328" lon="18.142205">
        <ele>35</ele>
        <time>2020-01-30T09:07:56Z</time>
      </trkpt>
      <trkpt lat="59.178291" lon="18.142151">
        <ele>35</ele>
        <time>2020-01-30T09:07:57Z</time>
      </trkpt>
      <trkpt lat="59.178254" lon="18.142099">
        <ele>35</ele>
        <time>2020-01-30T09:07:58Z</time>
      </trkpt>
      <trkpt lat="59.178215" lon="18.142051">
        <ele>35</ele>
        <time>2020-01-30T09:07:59Z</time>
      </trkpt>
      <trkpt lat="59.178175" lon="18.14201">
        <ele>35</ele>
        <time>2020-01-30T09:08:00Z</time>
      </trkpt>
      <trkpt lat="59.178134" lon="18.141973">
        <ele>35</ele>
        <time>2020-01-30T09:08:01Z</time>
      </trkpt>
      <trkpt lat="59.178092" lon="18.141938">
        <ele>35</ele>
        <time>2020-01-30T09:08:02Z</time>
      </trkpt>
      <trkpt lat="59.178048" lon="18.141906">
        <ele>35</ele>
        <time>2020-01-30T09:08:03Z</time>
      </trkpt>
      <trkpt lat="59.178004" lon="18.141875">
        <ele>35</ele>
        <time>2020-01-30T09:08:04Z</time>
      </trkpt>
      <trkpt lat="59.177957" lon="18.141844">
        <ele>35</ele>
        <time>2020-01-30T09:08:05Z</time>
      </trkpt>
      <trkpt lat="59.177906" lon="18.141808">
        <ele>36</ele>
        <time>2020-01-30T09:08:06Z</time>
      </trkpt>
      <trkpt lat="59.177853" lon="18.141768">
        <ele>36</ele>
        <time>2020-01-30T09:08:07Z</time>
      </trkpt>
      <trkpt lat="59.177799" lon="18.141732">
        <ele>36</ele>
        <time>2020-01-30T09:08:08Z</time>
      </trkpt>
      <trkpt lat="59.177747" lon="18.141702">
        <ele>36</ele>
        <time>2020-01-30T09:08:09Z</time>
      </trkpt>
      <trkpt lat="59.177699" lon="18.141682">
        <ele>36</ele>
        <time>2020-01-30T09:08:10Z</time>
      </trkpt>
      <trkpt lat="59.177655" lon="18.14167">
        <ele>36</ele>
        <time>2020-01-30T09:08:11Z</time>
      </trkpt>
      <trkpt lat="59.177616" lon="18.141664">
        <ele>36</ele>
        <time>2020-01-30T09:08:12Z</time>
      </trkpt>
      <trkpt lat="59.17758" lon="18.14166">
        <ele>36</ele>
        <time>2020-01-30T09:08:13Z</time>
      </trkpt>
      <trkpt lat="59.177546" lon="18.14165">
        <ele>37</ele>
        <time>2020-01-30T09:08:14Z</time>
      </trkpt>
      <trkpt lat="59.177511" lon="18.141642">
        <ele>37</ele>
        <time>2020-01-30T09:08:15Z</time>
      </trkpt>
      <trkpt lat="59.177477" lon="18.141632">
        <ele>37</ele>
        <time>2020-01-30T09:08:16Z</time>
      </trkpt>
      <trkpt lat="59.177443" lon="18.141623">
        <ele>37</ele>
        <time>2020-01-30T09:08:17Z</time>
      </trkpt>
      <trkpt lat="59.17741" lon="18.141616">
        <ele>37</ele>
        <time>2020-01-30T09:08:18Z</time>
      </trkpt>
      <trkpt lat="59.177377" lon="18.141606">
        <ele>37</ele>
        <time>2020-01-30T09:08:19Z</time>
      </trkpt>
      <trkpt lat="59.177341" lon="18.141598">
        <ele>37</ele>
        <time>2020-01-30T09:08:20Z</time>
      </trkpt>
      <trkpt lat="59.177306" lon="18.141585">
        <ele>37</ele>
        <time>2020-01-30T09:08:21Z</time>
      </trkpt>
      <trkpt lat="59.17727" lon="18.141568">
        <ele>37</ele>
        <time>2020-01-30T09:08:22Z</time>
      </trkpt>
      <trkpt lat="59.177234" lon="18.141562">
        <ele>38</ele>
        <time>2020-01-30T09:08:23Z</time>
      </trkpt>
      <trkpt lat="59.177197" lon="18.14157">
        <ele>38</ele>
        <time>2020-01-30T09:08:24Z</time>
      </trkpt>
      <trkpt lat="59.177161" lon="18.141576">
        <ele>38</ele>
        <time>2020-01-30T09:08:25Z</time>
      </trkpt>
      <trkpt lat="59.177125" lon="18.141572">
        <ele>38</ele>
        <time>2020-01-30T09:08:26Z</time>
      </trkpt>
      <trkpt lat="59.177088" lon="18.141564">
        <ele>38</ele>
        <time>2020-01-30T09:08:27Z</time>
      </trkpt>
      <trkpt lat="59.177051" lon="18.141557">
        <ele>38</ele>
        <time>2020-01-30T09:08:28Z</time>
      </trkpt>
      <trkpt lat="59.177014" lon="18.141544">
        <ele>38</ele>
        <time>2020-01-30T09:08:29Z</time>
      </trkpt>
      <trkpt lat="59.176978" lon="18.141528">
        <ele>39</ele>
        <time>2020-01-30T09:08:30Z</time>
      </trkpt>
      <trkpt lat="59.176942" lon="18.141509">
        <ele>39</ele>
        <time>2020-01-30T09:08:31Z</time>
      </trkpt>
      <trkpt lat="59.176905" lon="18.141491">
        <ele>39</ele>
        <time>2020-01-30T09:08:32Z</time>
      </trkpt>
      <trkpt lat="59.176866" lon="18.141478">
        <ele>39</ele>
        <time>2020-01-30T09:08:33Z</time>
      </trkpt>
      <trkpt lat="59.176828" lon="18.141462">
        <ele>39</ele>
        <time>2020-01-30T09:08:34Z</time>
      </trkpt>
      <trkpt lat="59.176789" lon="18.141446">
        <ele>39</ele>
        <time>2020-01-30T09:08:35Z</time>
      </trkpt>
      <trkpt lat="59.17675" lon="18.141425">
        <ele>39</ele>
        <time>2020-01-30T09:08:36Z</time>
      </trkpt>
      <trkpt lat="59.176713" lon="18.14141">
        <ele>40</ele>
        <time>2020-01-30T09:08:37Z</time>
      </trkpt>
      <trkpt lat="59.176676" lon="18.141392">
        <ele>40</ele>
        <time>2020-01-30T09:08:38Z</time>
      </trkpt>
      <trkpt lat="59.17664" lon="18.141378">
        <ele>40</ele>
        <time>2020-01-30T09:08:39Z</time>
      </trkpt>
      <trkpt lat="59.176605" lon="18.141362">
        <ele>40</ele>
        <time>2020-01-30T09:08:40Z</time>
      </trkpt>
      <trkpt lat="59.176569" lon="18.141344">
        <ele>40</ele>
        <time>2020-01-30T09:08:41Z</time>
      </trkpt>
      <trkpt lat="59.176532" lon="18.14133">
        <ele>40</ele>
        <time>2020-01-30T09:08:42Z</time>
      </trkpt>
      <trkpt lat="59.176496" lon="18.141318">
        <ele>40</ele>
        <time>2020-01-30T09:08:43Z</time>
      </trkpt>
      <trkpt lat="59.176459" lon="18.14131">
        <ele>40</ele>
        <time>2020-01-30T09:08:44Z</time>
      </trkpt>
      <trkpt lat="59.176422" lon="18.141304">
        <ele>40</ele>
        <time>2020-01-30T09:08:45Z</time>
      </trkpt>
      <trkpt lat="59.176384" lon="18.141304">
        <ele>41</ele>
        <time>2020-01-30T09:08:46Z</time>
      </trkpt>
      <trkpt lat="59.176349" lon="18.141304">
        <ele>41</ele>
        <time>2020-01-30T09:08:47Z</time>
      </trkpt>
      <trkpt lat="59.176313" lon="18.141304">
        <ele>41</ele>
        <time>2020-01-30T09:08:48Z</time>
      </trkpt>
      <trkpt lat="59.176276" lon="18.141306">
        <ele>41</ele>
        <time>2020-01-30T09:08:49Z</time>
      </trkpt>
      <trkpt lat="59.17624" lon="18.141305">
        <ele>41</ele>
        <time>2020-01-30T09:08:50Z</time>
      </trkpt>
      <trkpt lat="59.176204" lon="18.141304">
        <ele>41</ele>
        <time>2020-01-30T09:08:51Z</time>
      </trkpt>
      <trkpt lat="59.176169" lon="18.141302">
        <ele>41</ele>
        <time>2020-01-30T09:08:52Z</time>
      </trkpt>
      <trkpt lat="59.176133" lon="18.141298">
        <ele>41</ele>
        <time>2020-01-30T09:08:53Z</time>
      </trkpt>
      <trkpt lat="59.176096" lon="18.14129">
        <ele>41</ele>
        <time>2020-01-30T09:08:54Z</time>
      </trkpt>
      <trkpt lat="59.176058" lon="18.14128">
        <ele>41</ele>
        <time>2020-01-30T09:08:55Z</time>
      </trkpt>
      <trkpt lat="59.17602" lon="18.14127">
        <ele>41</ele>
        <time>2020-01-30T09:08:56Z</time>
      </trkpt>
      <trkpt lat="59.175983" lon="18.141258">
        <ele>41</ele>
        <time>2020-01-30T09:08:57Z</time>
      </trkpt>
      <trkpt lat="59.175946" lon="18.141246">
        <ele>0</ele>
        <time>2020-01-30T09:08:57Z</time>
      </trkpt>
      <trkpt lat="59.175909" lon="18.141236">
        <ele>41</ele>
        <time>2020-01-30T09:08:58Z</time>
      </trkpt>
      <trkpt lat="59.175873" lon="18.141227">
        <ele>41</ele>
        <time>2020-01-30T09:09:00Z</time>
      </trkpt>
      <trkpt lat="59.175839" lon="18.141214">
        <ele>41</ele>
        <time>2020-01-30T09:09:01Z</time>
      </trkpt>
      <trkpt lat="59.175807" lon="18.141198">
        <ele>41</ele>
        <time>2020-01-30T09:09:02Z</time>
      </trkpt>
      <trkpt lat="59.175774" lon="18.141184">
        <ele>41</ele>
        <time>2020-01-30T09:09:03Z</time>
      </trkpt>
      <trkpt lat="59.175742" lon="18.141179">
        <ele>41</ele>
        <time>2020-01-30T09:09:04Z</time>
      </trkpt>
      <trkpt lat="59.175713" lon="18.141182">
        <ele>41</ele>
        <time>2020-01-30T09:09:05Z</time>
      </trkpt>
      <trkpt lat="59.175688" lon="18.141189">
        <ele>41</ele>
        <time>2020-01-30T09:09:06Z</time>
      </trkpt>
      <trkpt lat="59.175665" lon="18.141197">
        <ele>41</ele>
        <time>2020-01-30T09:09:07Z</time>
      </trkpt>
      <trkpt lat="59.175647" lon="18.141206">
        <ele>41</ele>
        <time>2020-01-30T09:09:08Z</time>
      </trkpt>
      <trkpt lat="59.175616" lon="18.141237">
        <ele>41</ele>
        <time>2020-01-30T09:09:10Z</time>
      </trkpt>
      <trkpt lat="59.1756" lon="18.141267">
        <ele>41</ele>
        <time>2020-01-30T09:09:11Z</time>
      </trkpt>
      <trkpt lat="59.175582" lon="18.141308">
        <ele>41</ele>
        <time>2020-01-30T09:09:12Z</time>
      </trkpt>
      <trkpt lat="59.175565" lon="18.141356">
        <ele>41</ele>
        <time>2020-01-30T09:09:13Z</time>
      </trkpt>
      <trkpt lat="59.175545" lon="18.141408">
        <ele>41</ele>
        <time>2020-01-30T09:09:14Z</time>
      </trkpt>
      <trkpt lat="59.175526" lon="18.14146">
        <ele>41</ele>
        <time>2020-01-30T09:09:15Z</time>
      </trkpt>
      <trkpt lat="59.175506" lon="18.141513">
        <ele>41</ele>
        <time>2020-01-30T09:09:16Z</time>
      </trkpt>
      <trkpt lat="59.175481" lon="18.141567">
        <ele>41</ele>
        <time>2020-01-30T09:09:17Z</time>
      </trkpt>
      <trkpt lat="59.175455" lon="18.141621">
        <ele>41</ele>
        <time>2020-01-30T09:09:18Z</time>
      </trkpt>
      <trkpt lat="59.175428" lon="18.141677">
        <ele>41</ele>
        <time>2020-01-30T09:09:19Z</time>
      </trkpt>
      <trkpt lat="59.175402" lon="18.141723">
        <ele>41</ele>
        <time>2020-01-30T09:09:20Z</time>
      </trkpt>
      <trkpt lat="59.175376" lon="18.141761">
        <ele>41</ele>
        <time>2020-01-30T09:09:21Z</time>
      </trkpt>
      <trkpt lat="59.175349" lon="18.141785">
        <ele>41</ele>
        <time>2020-01-30T09:09:22Z</time>
      </trkpt>
      <trkpt lat="59.17532" lon="18.141796">
        <ele>41</ele>
        <time>2020-01-30T09:09:23Z</time>
      </trkpt>
      <trkpt lat="59.175289" lon="18.141802">
        <ele>41</ele>
        <time>2020-01-30T09:09:24Z</time>
      </trkpt>
      <trkpt lat="59.175257" lon="18.141811">
        <ele>41</ele>
        <time>2020-01-30T09:09:25Z</time>
      </trkpt>
      <trkpt lat="59.175224" lon="18.141823">
        <ele>41</ele>
        <time>2020-01-30T09:09:26Z</time>
      </trkpt>
      <trkpt lat="59.17519" lon="18.141837">
        <ele>41</ele>
        <time>2020-01-30T09:09:27Z</time>
      </trkpt>
      <trkpt lat="59.175156" lon="18.141852">
        <ele>41</ele>
        <time>2020-01-30T09:09:28Z</time>
      </trkpt>
      <trkpt lat="59.175121" lon="18.141862">
        <ele>42</ele>
        <time>2020-01-30T09:09:29Z</time>
      </trkpt>
      <trkpt lat="59.175086" lon="18.141864">
        <ele>42</ele>
        <time>2020-01-30T09:09:30Z</time>
      </trkpt>
      <trkpt lat="59.175049" lon="18.141865">
        <ele>42</ele>
        <time>2020-01-30T09:09:31Z</time>
      </trkpt>
      <trkpt lat="59.175012" lon="18.141874">
        <ele>42</ele>
        <time>2020-01-30T09:09:32Z</time>
      </trkpt>
      <trkpt lat="59.174977" lon="18.141892">
        <ele>42</ele>
        <time>2020-01-30T09:09:33Z</time>
      </trkpt>
      <trkpt lat="59.174944" lon="18.141916">
        <ele>42</ele>
        <time>2020-01-30T09:09:34Z</time>
      </trkpt>
      <trkpt lat="59.17491" lon="18.141944">
        <ele>42</ele>
        <time>2020-01-30T09:09:35Z</time>
      </trkpt>
      <trkpt lat="59.174879" lon="18.141977">
        <ele>42</ele>
        <time>2020-01-30T09:09:36Z</time>
      </trkpt>
      <trkpt lat="59.174851" lon="18.142014">
        <ele>43</ele>
        <time>2020-01-30T09:09:37Z</time>
      </trkpt>
      <trkpt lat="59.174819" lon="18.142056">
        <ele>43</ele>
        <time>2020-01-30T09:09:38Z</time>
      </trkpt>
      <trkpt lat="59.174787" lon="18.142102">
        <ele>43</ele>
        <time>2020-01-30T09:09:39Z</time>
      </trkpt>
      <trkpt lat="59.174757" lon="18.142154">
        <ele>43</ele>
        <time>2020-01-30T09:09:40Z</time>
      </trkpt>
      <trkpt lat="59.174733" lon="18.142211">
        <ele>43</ele>
        <time>2020-01-30T09:09:41Z</time>
      </trkpt>
      <trkpt lat="59.174706" lon="18.142265">
        <ele>43</ele>
        <time>2020-01-30T09:09:42Z</time>
      </trkpt>
      <trkpt lat="59.174674" lon="18.142304">
        <ele>43</ele>
        <time>2020-01-30T09:09:43Z</time>
      </trkpt>
      <trkpt lat="59.174637" lon="18.142325">
        <ele>43</ele>
        <time>2020-01-30T09:09:44Z</time>
      </trkpt>
      <trkpt lat="59.1746" lon="18.142333">
        <ele>43</ele>
        <time>2020-01-30T09:09:45Z</time>
      </trkpt>
      <trkpt lat="59.174561" lon="18.142334">
        <ele>43</ele>
        <time>2020-01-30T09:09:46Z</time>
      </trkpt>
      <trkpt lat="59.174523" lon="18.142333">
        <ele>43</ele>
        <time>2020-01-30T09:09:47Z</time>
      </trkpt>
      <trkpt lat="59.174488" lon="18.142329">
        <ele>43</ele>
        <time>2020-01-30T09:09:48Z</time>
      </trkpt>
      <trkpt lat="59.174455" lon="18.142326">
        <ele>43</ele>
        <time>2020-01-30T09:09:49Z</time>
      </trkpt>
      <trkpt lat="59.174424" lon="18.142325">
        <ele>43</ele>
        <time>2020-01-30T09:09:50Z</time>
      </trkpt>
      <trkpt lat="59.174391" lon="18.142322">
        <ele>44</ele>
        <time>2020-01-30T09:09:51Z</time>
      </trkpt>
      <trkpt lat="59.174357" lon="18.14232">
        <ele>44</ele>
        <time>2020-01-30T09:09:52Z</time>
      </trkpt>
      <trkpt lat="59.174324" lon="18.142321">
        <ele>44</ele>
        <time>2020-01-30T09:09:53Z</time>
      </trkpt>
      <trkpt lat="59.174295" lon="18.142322">
        <ele>44</ele>
        <time>2020-01-30T09:09:54Z</time>
      </trkpt>
      <trkpt lat="59.174267" lon="18.142326">
        <ele>44</ele>
        <time>2020-01-30T09:09:55Z</time>
      </trkpt>
      <trkpt lat="59.174241" lon="18.142339">
        <ele>45</ele>
        <time>2020-01-30T09:09:56Z</time>
      </trkpt>
      <trkpt lat="59.174218" lon="18.142359">
        <ele>45</ele>
        <time>2020-01-30T09:09:57Z</time>
      </trkpt>
      <trkpt lat="59.174196" lon="18.142376">
        <ele>45</ele>
        <time>2020-01-30T09:09:58Z</time>
      </trkpt>
      <trkpt lat="59.174174" lon="18.142399">
        <ele>45</ele>
        <time>2020-01-30T09:09:59Z</time>
      </trkpt>
      <trkpt lat="59.174152" lon="18.142426">
        <ele>45</ele>
        <time>2020-01-30T09:10:00Z</time>
      </trkpt>
      <trkpt lat="59.174127" lon="18.142456">
        <ele>45</ele>
        <time>2020-01-30T09:10:01Z</time>
      </trkpt>
      <trkpt lat="59.174102" lon="18.142483">
        <ele>46</ele>
        <time>2020-01-30T09:10:02Z</time>
      </trkpt>
      <trkpt lat="59.174075" lon="18.142507">
        <ele>46</ele>
        <time>2020-01-30T09:10:03Z</time>
      </trkpt>
      <trkpt lat="59.174048" lon="18.142536">
        <ele>46</ele>
        <time>2020-01-30T09:10:04Z</time>
      </trkpt>
      <trkpt lat="59.17403" lon="18.142569">
        <ele>46</ele>
        <time>2020-01-30T09:10:05Z</time>
      </trkpt>
      <trkpt lat="59.174019" lon="18.142613">
        <ele>46</ele>
        <time>2020-01-30T09:10:06Z</time>
      </trkpt>
      <trkpt lat="59.17401" lon="18.142664">
        <ele>46</ele>
        <time>2020-01-30T09:10:07Z</time>
      </trkpt>
      <trkpt lat="59.173999" lon="18.142718">
        <ele>46</ele>
        <time>2020-01-30T09:10:08Z</time>
      </trkpt>
      <trkpt lat="59.173985" lon="18.142772">
        <ele>46</ele>
        <time>2020-01-30T09:10:09Z</time>
      </trkpt>
      <trkpt lat="59.173966" lon="18.14282">
        <ele>46</ele>
        <time>2020-01-30T09:10:10Z</time>
      </trkpt>
      <trkpt lat="59.173947" lon="18.142862">
        <ele>46</ele>
        <time>2020-01-30T09:10:11Z</time>
      </trkpt>
      <trkpt lat="59.173932" lon="18.142901">
        <ele>47</ele>
        <time>2020-01-30T09:10:12Z</time>
      </trkpt>
      <trkpt lat="59.173918" lon="18.142942">
        <ele>47</ele>
        <time>2020-01-30T09:10:13Z</time>
      </trkpt>
      <trkpt lat="59.173904" lon="18.14299">
        <ele>47</ele>
        <time>2020-01-30T09:10:14Z</time>
      </trkpt>
      <trkpt lat="59.173894" lon="18.143046">
        <ele>47</ele>
        <time>2020-01-30T09:10:15Z</time>
      </trkpt>
      <trkpt lat="59.173886" lon="18.143104">
        <ele>47</ele>
        <time>2020-01-30T09:10:16Z</time>
      </trkpt>
      <trkpt lat="59.173878" lon="18.143163">
        <ele>47</ele>
        <time>2020-01-30T09:10:17Z</time>
      </trkpt>
      <trkpt lat="59.173874" lon="18.143222">
        <ele>47</ele>
        <time>2020-01-30T09:10:18Z</time>
      </trkpt>
      <trkpt lat="59.173875" lon="18.143276">
        <ele>47</ele>
        <time>2020-01-30T09:10:19Z</time>
      </trkpt>
      <trkpt lat="59.173871" lon="18.143333">
        <ele>47</ele>
        <time>2020-01-30T09:10:20Z</time>
      </trkpt>
      <trkpt lat="59.173858" lon="18.143392">
        <ele>47</ele>
        <time>2020-01-30T09:10:21Z</time>
      </trkpt>
      <trkpt lat="59.173838" lon="18.143435">
        <ele>47</ele>
        <time>2020-01-30T09:10:22Z</time>
      </trkpt>
      <trkpt lat="59.17381" lon="18.14349">
        <ele>48</ele>
        <time>2020-01-30T09:10:23Z</time>
      </trkpt>
      <trkpt lat="59.173784" lon="18.143502">
        <ele>48</ele>
        <time>2020-01-30T09:10:24Z</time>
      </trkpt>
      <trkpt lat="59.173753" lon="18.143515">
        <ele>48</ele>
        <time>2020-01-30T09:10:25Z</time>
      </trkpt>
      <trkpt lat="59.173723" lon="18.143521">
        <ele>48</ele>
        <time>2020-01-30T09:10:26Z</time>
      </trkpt>
      <trkpt lat="59.173696" lon="18.143522">
        <ele>48</ele>
        <time>2020-01-30T09:10:27Z</time>
      </trkpt>
      <trkpt lat="59.173669" lon="18.143529">
        <ele>48</ele>
        <time>2020-01-30T09:10:28Z</time>
      </trkpt>
      <trkpt lat="59.173644" lon="18.143529">
        <ele>48</ele>
        <time>2020-01-30T09:10:29Z</time>
      </trkpt>
      <trkpt lat="59.17362" lon="18.143525">
        <ele>48</ele>
        <time>2020-01-30T09:10:30Z</time>
      </trkpt>
      <trkpt lat="59.173602" lon="18.143527">
        <ele>48</ele>
        <time>2020-01-30T09:10:31Z</time>
      </trkpt>
      <trkpt lat="59.173574" lon="18.143551">
        <ele>49</ele>
        <time>2020-01-30T09:10:33Z</time>
      </trkpt>
      <trkpt lat="59.17354" lon="18.143563">
        <ele>50</ele>
        <time>2020-01-30T09:10:35Z</time>
      </trkpt>
    </trkseg>
  </trk>
</gpx>